<?xml version='1.0' encoding='UTF-8'?><gpx version="1.1" creator="JPX - https://github.com/jenetics/jpx" xmlns="http://www.topografix.com/GPX/1/1"><trk><trkseg><trkpt lat="43.4893599" lon="11.3879468"><ele>448.00000000000006</ele><time>2026-04-19T08:56:09.451Z</time></trkpt><trkpt lat="43.4894406" lon="11.3879997"><ele>448.0</ele><time>2026-04-19T08:56:10.963Z</time></trkpt><trkpt lat="43.4894823" lon="11.3880832"><ele>448.0</ele><time>2026-04-19T08:58:04.971Z</time></trkpt><trkpt lat="43.4894878" lon="11.3882036"><ele>448.0</ele><time>2026-04-19T08:58:06.971Z</time></trkpt><trkpt lat="43.48946" lon="11.3883057"><ele>448.00000000000006</ele><time>2026-04-19T08:58:10.969Z</time></trkpt><trkpt lat="43.4894303" lon="11.3883874"><ele>448.0</ele><time>2026-04-19T08:58:11.963Z</time></trkpt><trkpt lat="43.4894085" lon="11.3884819"><ele>448.59999999999997</ele><time>2026-04-19T08:58:12.967Z</time></trkpt><trkpt lat="43.489398" lon="11.3886315"><ele>449.19999999999993</ele><time>2026-04-19T08:58:13.963Z</time></trkpt><trkpt lat="43.4893744" lon="11.3887845"><ele>449.8</ele><time>2026-04-19T08:58:14.97Z</time></trkpt><trkpt lat="43.4893394" lon="11.3889076"><ele>450.4</ele><time>2026-04-19T08:58:15.971Z</time></trkpt><trkpt lat="43.4892993" lon="11.3890133"><ele>451.0</ele><time>2026-04-19T08:58:16.975Z</time></trkpt><trkpt lat="43.4892844" lon="11.3891121"><ele>451.33333333333337</ele><time>2026-04-19T08:58:17.965Z</time></trkpt><trkpt lat="43.4892753" lon="11.3892092"><ele>451.6666666666667</ele><time>2026-04-19T08:58:18.965Z</time></trkpt><trkpt lat="43.4892918" lon="11.389316"><ele>452.0</ele><time>2026-04-19T08:58:19.969Z</time></trkpt><trkpt lat="43.4893181" lon="11.3894289"><ele>452.33333333333337</ele><time>2026-04-19T08:58:20.977Z</time></trkpt><trkpt lat="43.489352" lon="11.3895408"><ele>452.6666666666667</ele><time>2026-04-19T08:58:21.968Z</time></trkpt><trkpt lat="43.4893866" lon="11.3896645"><ele>453.0</ele><time>2026-04-19T08:58:22.963Z</time></trkpt><trkpt lat="43.4894221" lon="11.3897728"><ele>453.0</ele><time>2026-04-19T08:58:23.97Z</time></trkpt><trkpt lat="43.4894651" lon="11.3898783"><ele>452.99999999999994</ele><time>2026-04-19T08:58:24.972Z</time></trkpt><trkpt lat="43.4895026" lon="11.3899754"><ele>452.99999999999994</ele><time>2026-04-19T08:58:25.97Z</time></trkpt><trkpt lat="43.4895353" lon="11.3900655"><ele>453.0</ele><time>2026-04-19T08:58:26.979Z</time></trkpt><trkpt lat="43.4895676" lon="11.3901997"><ele>453.0</ele><time>2026-04-19T08:58:28.971Z</time></trkpt><trkpt lat="43.4894729" lon="11.3903034"><ele>453.0</ele><time>2026-04-19T08:58:31.967Z</time></trkpt><trkpt lat="43.4893956" lon="11.3903512"><ele>452.99999999999994</ele><time>2026-04-19T08:58:32.969Z</time></trkpt><trkpt lat="43.4893068" lon="11.3903981"><ele>452.99999999999994</ele><time>2026-04-19T08:58:33.983Z</time></trkpt><trkpt lat="43.4892152" lon="11.3904437"><ele>453.0</ele><time>2026-04-19T08:58:34.968Z</time></trkpt><trkpt lat="43.4890971" lon="11.3904944"><ele>453.0</ele><time>2026-04-19T08:58:35.971Z</time></trkpt><trkpt lat="43.4889594" lon="11.3905494"><ele>451.5</ele><time>2026-04-19T08:58:36.965Z</time></trkpt><trkpt lat="43.4888292" lon="11.3906069"><ele>450.0</ele><time>2026-04-19T08:58:37.962Z</time></trkpt><trkpt lat="43.4887067" lon="11.3906675"><ele>448.5</ele><time>2026-04-19T08:58:38.971Z</time></trkpt><trkpt lat="43.4885961" lon="11.3907198"><ele>447.0</ele><time>2026-04-19T08:58:39.97Z</time></trkpt><trkpt lat="43.4884977" lon="11.39076"><ele>446.1666666666667</ele><time>2026-04-19T08:58:40.975Z</time></trkpt><trkpt lat="43.4884201" lon="11.3908034"><ele>445.33333333333337</ele><time>2026-04-19T08:58:41.971Z</time></trkpt><trkpt lat="43.4883541" lon="11.3908506"><ele>444.5</ele><time>2026-04-19T08:58:42.969Z</time></trkpt><trkpt lat="43.4882892" lon="11.390929"><ele>443.6666666666667</ele><time>2026-04-19T08:58:43.968Z</time></trkpt><trkpt lat="43.4882312" lon="11.3910375"><ele>442.83333333333337</ele><time>2026-04-19T08:58:44.968Z</time></trkpt><trkpt lat="43.4881751" lon="11.3911504"><ele>442.0</ele><time>2026-04-19T08:58:45.98Z</time></trkpt><trkpt lat="43.4881194" lon="11.3912661"><ele>443.40000000000003</ele><time>2026-04-19T08:58:46.965Z</time></trkpt><trkpt lat="43.4880636" lon="11.391386"><ele>444.80000000000007</ele><time>2026-04-19T08:58:47.995Z</time></trkpt><trkpt lat="43.4879954" lon="11.3915159"><ele>446.2</ele><time>2026-04-19T08:58:48.96Z</time></trkpt><trkpt lat="43.4879264" lon="11.3916249"><ele>447.6</ele><time>2026-04-19T08:58:49.971Z</time></trkpt><trkpt lat="43.4878554" lon="11.391737"><ele>449.0</ele><time>2026-04-19T08:58:50.974Z</time></trkpt><trkpt lat="43.4877835" lon="11.3918378"><ele>451.16666666666663</ele><time>2026-04-19T08:58:51.971Z</time></trkpt><trkpt lat="43.4877202" lon="11.3919189"><ele>453.3333333333333</ele><time>2026-04-19T08:58:52.98Z</time></trkpt><trkpt lat="43.4876613" lon="11.3919853"><ele>455.5</ele><time>2026-04-19T08:58:53.985Z</time></trkpt><trkpt lat="43.4875897" lon="11.3920417"><ele>457.66666666666663</ele><time>2026-04-19T08:58:54.968Z</time></trkpt><trkpt lat="43.4875014" lon="11.3920749"><ele>459.8333333333333</ele><time>2026-04-19T08:58:55.99Z</time></trkpt><trkpt lat="43.4874078" lon="11.3921122"><ele>462.0</ele><time>2026-04-19T08:58:56.98Z</time></trkpt><trkpt lat="43.487309" lon="11.3921525"><ele>462.6</ele><time>2026-04-19T08:58:57.97Z</time></trkpt><trkpt lat="43.4872068" lon="11.3921927"><ele>463.20000000000005</ele><time>2026-04-19T08:58:58.971Z</time></trkpt><trkpt lat="43.4871051" lon="11.392224"><ele>463.8</ele><time>2026-04-19T08:58:59.98Z</time></trkpt><trkpt lat="43.4870024" lon="11.392224"><ele>464.4</ele><time>2026-04-19T08:59:00.967Z</time></trkpt><trkpt lat="43.4869033" lon="11.3922043"><ele>465.0</ele><time>2026-04-19T08:59:01.97Z</time></trkpt><trkpt lat="43.4868087" lon="11.3921786"><ele>467.6</ele><time>2026-04-19T08:59:02.972Z</time></trkpt><trkpt lat="43.4867176" lon="11.3921468"><ele>470.2</ele><time>2026-04-19T08:59:03.965Z</time></trkpt><trkpt lat="43.486616" lon="11.392115"><ele>472.79999999999995</ele><time>2026-04-19T08:59:04.968Z</time></trkpt><trkpt lat="43.486519" lon="11.3920824"><ele>475.4</ele><time>2026-04-19T08:59:05.977Z</time></trkpt><trkpt lat="43.4864341" lon="11.3920458"><ele>478.0</ele><time>2026-04-19T08:59:06.964Z</time></trkpt><trkpt lat="43.4863577" lon="11.3920228"><ele>479.59999999999997</ele><time>2026-04-19T08:59:07.965Z</time></trkpt><trkpt lat="43.4862351" lon="11.3919827"><ele>481.19999999999993</ele><time>2026-04-19T08:59:09.972Z</time></trkpt><trkpt lat="43.4861722" lon="11.3919767"><ele>482.8</ele><time>2026-04-19T08:59:10.971Z</time></trkpt><trkpt lat="43.486058" lon="11.3919661"><ele>484.4</ele><time>2026-04-19T08:59:12.971Z</time></trkpt><trkpt lat="43.4859586" lon="11.3919827"><ele>486.0</ele><time>2026-04-19T08:59:14.977Z</time></trkpt><trkpt lat="43.4858656" lon="11.3920102"><ele>486.0</ele><time>2026-04-19T08:59:16.991Z</time></trkpt><trkpt lat="43.4858006" lon="11.3920461"><ele>486.0</ele><time>2026-04-19T08:59:18.971Z</time></trkpt><trkpt lat="43.4857116" lon="11.3920964"><ele>486.0</ele><time>2026-04-19T08:59:20.97Z</time></trkpt><trkpt lat="43.4856374" lon="11.3921384"><ele>486.0</ele><time>2026-04-19T08:59:21.966Z</time></trkpt><trkpt lat="43.4855545" lon="11.3921675"><ele>486.0</ele><time>2026-04-19T08:59:22.968Z</time></trkpt><trkpt lat="43.48548" lon="11.392208"><ele>486.0</ele><time>2026-04-19T08:59:23.971Z</time></trkpt><trkpt lat="43.4854016" lon="11.3922401"><ele>488.8333333333333</ele><time>2026-04-19T08:59:24.993Z</time></trkpt><trkpt lat="43.4853222" lon="11.3922685"><ele>491.66666666666663</ele><time>2026-04-19T08:59:25.969Z</time></trkpt><trkpt lat="43.4852415" lon="11.3922962"><ele>494.5</ele><time>2026-04-19T08:59:26.965Z</time></trkpt><trkpt lat="43.4851563" lon="11.3923162"><ele>497.3333333333333</ele><time>2026-04-19T08:59:27.972Z</time></trkpt><trkpt lat="43.4850705" lon="11.3923449"><ele>500.16666666666663</ele><time>2026-04-19T08:59:28.972Z</time></trkpt><trkpt lat="43.4849839" lon="11.3923545"><ele>503.0</ele><time>2026-04-19T08:59:29.971Z</time></trkpt><trkpt lat="43.4848964" lon="11.3923592"><ele>503.0</ele><time>2026-04-19T08:59:30.988Z</time></trkpt><trkpt lat="43.4847902" lon="11.392352"><ele>502.99999999999994</ele><time>2026-04-19T08:59:31.968Z</time></trkpt><trkpt lat="43.4846738" lon="11.3923341"><ele>502.99999999999994</ele><time>2026-04-19T08:59:32.967Z</time></trkpt><trkpt lat="43.484579" lon="11.3923132"><ele>503.0</ele><time>2026-04-19T08:59:33.985Z</time></trkpt><trkpt lat="43.4845148" lon="11.3922943"><ele>503.0</ele><time>2026-04-19T08:59:34.963Z</time></trkpt><trkpt lat="43.4844119" lon="11.3922531"><ele>502.75</ele><time>2026-04-19T08:59:36.966Z</time></trkpt><trkpt lat="43.4842936" lon="11.3921924"><ele>502.5</ele><time>2026-04-19T08:59:38.968Z</time></trkpt><trkpt lat="43.4841911" lon="11.3921273"><ele>502.25</ele><time>2026-04-19T08:59:40.966Z</time></trkpt><trkpt lat="43.4840769" lon="11.3920822"><ele>502.0</ele><time>2026-04-19T08:59:42.967Z</time></trkpt><trkpt lat="43.483973" lon="11.392034"><ele>502.0</ele><time>2026-04-19T08:59:44.964Z</time></trkpt><trkpt lat="43.483869" lon="11.3919252"><ele>502.00000000000006</ele><time>2026-04-19T08:59:46.975Z</time></trkpt><trkpt lat="43.4837819" lon="11.3918509"><ele>502.00000000000006</ele><time>2026-04-19T08:59:47.97Z</time></trkpt><trkpt lat="43.4837035" lon="11.3917874"><ele>502.0</ele><time>2026-04-19T08:59:48.972Z</time></trkpt><trkpt lat="43.4836432" lon="11.3917226"><ele>502.0</ele><time>2026-04-19T08:59:49.968Z</time></trkpt><trkpt lat="43.4835791" lon="11.3916611"><ele>502.33333333333337</ele><time>2026-04-19T08:59:50.987Z</time></trkpt><trkpt lat="43.4835032" lon="11.3915925"><ele>502.6666666666667</ele><time>2026-04-19T08:59:51.973Z</time></trkpt><trkpt lat="43.4834262" lon="11.3915413"><ele>503.0</ele><time>2026-04-19T08:59:52.976Z</time></trkpt><trkpt lat="43.4833573" lon="11.3914921"><ele>503.33333333333337</ele><time>2026-04-19T08:59:53.971Z</time></trkpt><trkpt lat="43.4832862" lon="11.3914481"><ele>503.6666666666667</ele><time>2026-04-19T08:59:54.976Z</time></trkpt><trkpt lat="43.4832152" lon="11.3913965"><ele>504.0</ele><time>2026-04-19T08:59:55.979Z</time></trkpt><trkpt lat="43.483146" lon="11.3913434"><ele>504.25</ele><time>2026-04-19T08:59:56.966Z</time></trkpt><trkpt lat="43.4830665" lon="11.3912724"><ele>504.5</ele><time>2026-04-19T08:59:57.986Z</time></trkpt><trkpt lat="43.4829589" lon="11.3911729"><ele>504.75</ele><time>2026-04-19T08:59:58.968Z</time></trkpt><trkpt lat="43.4828404" lon="11.3910561"><ele>505.0</ele><time>2026-04-19T08:59:59.963Z</time></trkpt><trkpt lat="43.4827304" lon="11.390956"><ele>505.00000000000006</ele><time>2026-04-19T09:00:00.969Z</time></trkpt><trkpt lat="43.4826382" lon="11.3908719"><ele>505.0</ele><time>2026-04-19T09:00:01.975Z</time></trkpt><trkpt lat="43.4825641" lon="11.3908031"><ele>505.0</ele><time>2026-04-19T09:00:02.968Z</time></trkpt><trkpt lat="43.4825047" lon="11.3907306"><ele>505.0</ele><time>2026-04-19T09:00:03.968Z</time></trkpt><trkpt lat="43.4824551" lon="11.3906571"><ele>505.00000000000006</ele><time>2026-04-19T09:00:04.973Z</time></trkpt><trkpt lat="43.4824072" lon="11.3905669"><ele>505.0</ele><time>2026-04-19T09:00:05.966Z</time></trkpt><trkpt lat="43.4823634" lon="11.3904785"><ele>504.83333333333337</ele><time>2026-04-19T09:00:06.966Z</time></trkpt><trkpt lat="43.4823196" lon="11.3903816"><ele>504.6666666666667</ele><time>2026-04-19T09:00:07.973Z</time></trkpt><trkpt lat="43.4822741" lon="11.3902795"><ele>504.5</ele><time>2026-04-19T09:00:08.966Z</time></trkpt><trkpt lat="43.482231" lon="11.3901848"><ele>504.33333333333337</ele><time>2026-04-19T09:00:09.992Z</time></trkpt><trkpt lat="43.48218" lon="11.3901037"><ele>504.1666666666667</ele><time>2026-04-19T09:00:10.967Z</time></trkpt><trkpt lat="43.482106" lon="11.390027"><ele>504.0</ele><time>2026-04-19T09:00:11.968Z</time></trkpt><trkpt lat="43.4820111" lon="11.3899355"><ele>503.5</ele><time>2026-04-19T09:00:12.973Z</time></trkpt><trkpt lat="43.4819077" lon="11.3898239"><ele>503.0</ele><time>2026-04-19T09:00:13.975Z</time></trkpt><trkpt lat="43.4817916" lon="11.389692"><ele>502.5</ele><time>2026-04-19T09:00:14.968Z</time></trkpt><trkpt lat="43.4816771" lon="11.3895542"><ele>502.0</ele><time>2026-04-19T09:00:15.963Z</time></trkpt><trkpt lat="43.4815892" lon="11.3894541"><ele>502.00000000000006</ele><time>2026-04-19T09:00:16.975Z</time></trkpt><trkpt lat="43.4815141" lon="11.3893641"><ele>502.0</ele><time>2026-04-19T09:00:17.976Z</time></trkpt><trkpt lat="43.4814379" lon="11.3892869"><ele>502.0</ele><time>2026-04-19T09:00:18.971Z</time></trkpt><trkpt lat="43.4813656" lon="11.3891987"><ele>502.0</ele><time>2026-04-19T09:00:20.002Z</time></trkpt><trkpt lat="43.48131" lon="11.3891143"><ele>502.00000000000006</ele><time>2026-04-19T09:00:20.969Z</time></trkpt><trkpt lat="43.481258" lon="11.3890608"><ele>502.0</ele><time>2026-04-19T09:00:21.978Z</time></trkpt><trkpt lat="43.481137" lon="11.3890284"><ele>502.33333333333337</ele><time>2026-04-19T09:00:23.971Z</time></trkpt><trkpt lat="43.4810645" lon="11.3890169"><ele>502.6666666666667</ele><time>2026-04-19T09:00:24.978Z</time></trkpt><trkpt lat="43.4810041" lon="11.3889913"><ele>503.0</ele><time>2026-04-19T09:00:25.974Z</time></trkpt><trkpt lat="43.4809313" lon="11.3889522"><ele>503.33333333333337</ele><time>2026-04-19T09:00:27Z</time></trkpt><trkpt lat="43.4808707" lon="11.3889026"><ele>503.6666666666667</ele><time>2026-04-19T09:00:27.966Z</time></trkpt><trkpt lat="43.4807957" lon="11.3888038"><ele>504.0</ele><time>2026-04-19T09:00:29.97Z</time></trkpt><trkpt lat="43.4807632" lon="11.3887183"><ele>504.0</ele><time>2026-04-19T09:00:31.967Z</time></trkpt><trkpt lat="43.4807245" lon="11.388641"><ele>504.0</ele><time>2026-04-19T09:00:33.97Z</time></trkpt><trkpt lat="43.4806697" lon="11.3885624"><ele>504.0</ele><time>2026-04-19T09:00:35.971Z</time></trkpt><trkpt lat="43.480629" lon="11.388476"><ele>504.0</ele><time>2026-04-19T09:00:37.971Z</time></trkpt><trkpt lat="43.4805727" lon="11.3883941"><ele>504.0</ele><time>2026-04-19T09:00:39.97Z</time></trkpt><trkpt lat="43.4805208" lon="11.3883314"><ele>504.0</ele><time>2026-04-19T09:00:41.969Z</time></trkpt><trkpt lat="43.4804609" lon="11.3882366"><ele>504.3333333333333</ele><time>2026-04-19T09:00:51.973Z</time></trkpt><trkpt lat="43.4804207" lon="11.3881552"><ele>504.66666666666663</ele><time>2026-04-19T09:00:53.967Z</time></trkpt><trkpt lat="43.4803704" lon="11.3880405"><ele>505.0</ele><time>2026-04-19T09:00:55.961Z</time></trkpt><trkpt lat="43.4803515" lon="11.3879443"><ele>505.3333333333333</ele><time>2026-04-19T09:00:57.958Z</time></trkpt><trkpt lat="43.4803467" lon="11.3878375"><ele>505.66666666666663</ele><time>2026-04-19T09:00:59.968Z</time></trkpt><trkpt lat="43.480362" lon="11.3877186"><ele>506.0</ele><time>2026-04-19T09:01:01.97Z</time></trkpt><trkpt lat="43.4803879" lon="11.3875624"><ele>507.4285714285715</ele><time>2026-04-19T09:01:03.969Z</time></trkpt><trkpt lat="43.4803969" lon="11.3874644"><ele>508.8571428571429</ele><time>2026-04-19T09:01:04.976Z</time></trkpt><trkpt lat="43.4803954" lon="11.3873537"><ele>510.2857142857143</ele><time>2026-04-19T09:01:05.984Z</time></trkpt><trkpt lat="43.4803846" lon="11.3872522"><ele>511.7142857142857</ele><time>2026-04-19T09:01:06.978Z</time></trkpt><trkpt lat="43.4803701" lon="11.3871633"><ele>513.1428571428571</ele><time>2026-04-19T09:01:07.994Z</time></trkpt><trkpt lat="43.4803436" lon="11.3870714"><ele>514.5714285714286</ele><time>2026-04-19T09:01:08.962Z</time></trkpt><trkpt lat="43.4803151" lon="11.3869868"><ele>516.0</ele><time>2026-04-19T09:01:09.968Z</time></trkpt><trkpt lat="43.480276" lon="11.386907"><ele>516.0</ele><time>2026-04-19T09:01:10.965Z</time></trkpt><trkpt lat="43.4802219" lon="11.3868314"><ele>516.0</ele><time>2026-04-19T09:01:11.971Z</time></trkpt><trkpt lat="43.4801353" lon="11.3867502"><ele>516.0</ele><time>2026-04-19T09:01:12.998Z</time></trkpt><trkpt lat="43.4800398" lon="11.3866654"><ele>516.0</ele><time>2026-04-19T09:01:13.965Z</time></trkpt><trkpt lat="43.4799443" lon="11.3865849"><ele>516.0</ele><time>2026-04-19T09:01:14.97Z</time></trkpt><trkpt lat="43.4798636" lon="11.3865002"><ele>516.0</ele><time>2026-04-19T09:01:15.974Z</time></trkpt><trkpt lat="43.4797949" lon="11.3864204"><ele>516.0</ele><time>2026-04-19T09:01:16.962Z</time></trkpt><trkpt lat="43.4797225" lon="11.386347"><ele>516.0</ele><time>2026-04-19T09:01:17.995Z</time></trkpt><trkpt lat="43.4796579" lon="11.3862695"><ele>516.0</ele><time>2026-04-19T09:01:18.972Z</time></trkpt><trkpt lat="43.4795972" lon="11.3862099"><ele>516.0</ele><time>2026-04-19T09:01:19.982Z</time></trkpt><trkpt lat="43.4795334" lon="11.386155"><ele>516.0</ele><time>2026-04-19T09:01:20.994Z</time></trkpt><trkpt lat="43.4794818" lon="11.3860972"><ele>515.6666666666666</ele><time>2026-04-19T09:01:21.97Z</time></trkpt><trkpt lat="43.4794343" lon="11.3860258"><ele>515.3333333333334</ele><time>2026-04-19T09:01:22.997Z</time></trkpt><trkpt lat="43.4793951" lon="11.3859311"><ele>515.0</ele><time>2026-04-19T09:01:23.982Z</time></trkpt><trkpt lat="43.4793499" lon="11.3858135"><ele>514.6666666666667</ele><time>2026-04-19T09:01:24.972Z</time></trkpt><trkpt lat="43.4793168" lon="11.3856776"><ele>514.3333333333334</ele><time>2026-04-19T09:01:25.971Z</time></trkpt><trkpt lat="43.4792955" lon="11.3855438"><ele>514.0</ele><time>2026-04-19T09:01:26.975Z</time></trkpt><trkpt lat="43.4792676" lon="11.3854185"><ele>513.6666666666667</ele><time>2026-04-19T09:01:27.972Z</time></trkpt><trkpt lat="43.4792352" lon="11.3853096"><ele>513.3333333333334</ele><time>2026-04-19T09:01:28.973Z</time></trkpt><trkpt lat="43.4791949" lon="11.3852367"><ele>513.0</ele><time>2026-04-19T09:01:29.982Z</time></trkpt><trkpt lat="43.4791362" lon="11.3851843"><ele>512.6666666666666</ele><time>2026-04-19T09:01:30.974Z</time></trkpt><trkpt lat="43.479074" lon="11.3851667"><ele>512.3333333333333</ele><time>2026-04-19T09:01:31.989Z</time></trkpt><trkpt lat="43.4789678" lon="11.3852328"><ele>512.0</ele><time>2026-04-19T09:01:33.969Z</time></trkpt><trkpt lat="43.4788337" lon="11.385241"><ele>513.6666666666666</ele><time>2026-04-19T09:01:35.97Z</time></trkpt><trkpt lat="43.4787573" lon="11.3852542"><ele>515.3333333333333</ele><time>2026-04-19T09:01:36.968Z</time></trkpt><trkpt lat="43.4786754" lon="11.3852777"><ele>517.0</ele><time>2026-04-19T09:01:37.972Z</time></trkpt><trkpt lat="43.4786026" lon="11.3852906"><ele>518.6666666666666</ele><time>2026-04-19T09:01:38.965Z</time></trkpt><trkpt lat="43.4785164" lon="11.3853126"><ele>520.3333333333334</ele><time>2026-04-19T09:01:39.979Z</time></trkpt><trkpt lat="43.4784181" lon="11.3853163"><ele>522.0</ele><time>2026-04-19T09:01:40.967Z</time></trkpt><trkpt lat="43.4783144" lon="11.3853038"><ele>522.0</ele><time>2026-04-19T09:01:41.962Z</time></trkpt><trkpt lat="43.4781986" lon="11.3852768"><ele>522.0</ele><time>2026-04-19T09:01:42.972Z</time></trkpt><trkpt lat="43.478083" lon="11.3852312"><ele>522.0</ele><time>2026-04-19T09:01:43.967Z</time></trkpt><trkpt lat="43.4779698" lon="11.3851699"><ele>522.0</ele><time>2026-04-19T09:01:45.001Z</time></trkpt><trkpt lat="43.4778529" lon="11.3851076"><ele>522.2</ele><time>2026-04-19T09:01:45.966Z</time></trkpt><trkpt lat="43.4777507" lon="11.3850471"><ele>522.4000000000001</ele><time>2026-04-19T09:01:46.97Z</time></trkpt><trkpt lat="43.47765" lon="11.3849972"><ele>522.5999999999999</ele><time>2026-04-19T09:01:47.977Z</time></trkpt><trkpt lat="43.4775495" lon="11.3849529"><ele>522.8</ele><time>2026-04-19T09:01:48.972Z</time></trkpt><trkpt lat="43.4774593" lon="11.3849341"><ele>523.0</ele><time>2026-04-19T09:01:49.976Z</time></trkpt><trkpt lat="43.4773573" lon="11.384944"><ele>523.0</ele><time>2026-04-19T09:01:50.972Z</time></trkpt><trkpt lat="43.4772278" lon="11.3849488"><ele>523.0</ele><time>2026-04-19T09:01:51.976Z</time></trkpt><trkpt lat="43.4770747" lon="11.3849597"><ele>523.0</ele><time>2026-04-19T09:01:52.975Z</time></trkpt><trkpt lat="43.4768957" lon="11.3849636"><ele>522.0</ele><time>2026-04-19T09:01:53.976Z</time></trkpt><trkpt lat="43.476732" lon="11.384945"><ele>521.0</ele><time>2026-04-19T09:01:54.973Z</time></trkpt><trkpt lat="43.47659" lon="11.3849305"><ele>520.0</ele><time>2026-04-19T09:01:55.972Z</time></trkpt><trkpt lat="43.4764568" lon="11.3849301"><ele>519.0</ele><time>2026-04-19T09:01:56.967Z</time></trkpt><trkpt lat="43.4763443" lon="11.3849242"><ele>518.4</ele><time>2026-04-19T09:01:57.97Z</time></trkpt><trkpt lat="43.4762379" lon="11.3849133"><ele>517.8</ele><time>2026-04-19T09:01:58.971Z</time></trkpt><trkpt lat="43.4761463" lon="11.3849091"><ele>517.2</ele><time>2026-04-19T09:01:59.971Z</time></trkpt><trkpt lat="43.4760581" lon="11.3848886"><ele>516.6</ele><time>2026-04-19T09:02:00.993Z</time></trkpt><trkpt lat="43.4759734" lon="11.3848605"><ele>516.0</ele><time>2026-04-19T09:02:01.967Z</time></trkpt><trkpt lat="43.4758945" lon="11.3848178"><ele>516.0</ele><time>2026-04-19T09:02:02.977Z</time></trkpt><trkpt lat="43.4758104" lon="11.3847769"><ele>516.0</ele><time>2026-04-19T09:02:03.967Z</time></trkpt><trkpt lat="43.475724" lon="11.3847117"><ele>516.0</ele><time>2026-04-19T09:02:04.969Z</time></trkpt><trkpt lat="43.4756306" lon="11.3846401"><ele>516.0</ele><time>2026-04-19T09:02:05.978Z</time></trkpt><trkpt lat="43.4755375" lon="11.3845714"><ele>516.0</ele><time>2026-04-19T09:02:06.968Z</time></trkpt><trkpt lat="43.4754411" lon="11.3844945"><ele>515.4</ele><time>2026-04-19T09:02:07.973Z</time></trkpt><trkpt lat="43.4753517" lon="11.3844153"><ele>514.8</ele><time>2026-04-19T09:02:08.957Z</time></trkpt><trkpt lat="43.4752749" lon="11.3843348"><ele>514.1999999999999</ele><time>2026-04-19T09:02:09.98Z</time></trkpt><trkpt lat="43.4752128" lon="11.3842431"><ele>513.6</ele><time>2026-04-19T09:02:10.968Z</time></trkpt><trkpt lat="43.4751511" lon="11.3841459"><ele>513.0</ele><time>2026-04-19T09:02:11.971Z</time></trkpt><trkpt lat="43.475095" lon="11.3840383"><ele>513.0</ele><time>2026-04-19T09:02:12.967Z</time></trkpt><trkpt lat="43.4750332" lon="11.3839344"><ele>513.0</ele><time>2026-04-19T09:02:13.97Z</time></trkpt><trkpt lat="43.4749818" lon="11.3838351"><ele>513.0</ele><time>2026-04-19T09:02:14.971Z</time></trkpt><trkpt lat="43.4749331" lon="11.3837463"><ele>513.0</ele><time>2026-04-19T09:02:15.975Z</time></trkpt><trkpt lat="43.4748901" lon="11.3836665"><ele>513.0</ele><time>2026-04-19T09:02:16.971Z</time></trkpt><trkpt lat="43.4748349" lon="11.3835975"><ele>513.0</ele><time>2026-04-19T09:02:17.967Z</time></trkpt><trkpt lat="43.474767" lon="11.3835295"><ele>510.0</ele><time>2026-04-19T09:02:18.968Z</time></trkpt><trkpt lat="43.4746916" lon="11.3834737"><ele>506.99999999999994</ele><time>2026-04-19T09:02:19.97Z</time></trkpt><trkpt lat="43.474615" lon="11.3834274"><ele>503.99999999999994</ele><time>2026-04-19T09:02:20.967Z</time></trkpt><trkpt lat="43.4745272" lon="11.3833889"><ele>501.0</ele><time>2026-04-19T09:02:21.964Z</time></trkpt><trkpt lat="43.4744321" lon="11.3833578"><ele>498.0</ele><time>2026-04-19T09:02:22.967Z</time></trkpt><trkpt lat="43.4743395" lon="11.3833334"><ele>498.0</ele><time>2026-04-19T09:02:23.97Z</time></trkpt><trkpt lat="43.4742496" lon="11.3833197"><ele>498.0</ele><time>2026-04-19T09:02:24.976Z</time></trkpt><trkpt lat="43.4741677" lon="11.3833033"><ele>498.0</ele><time>2026-04-19T09:02:25.964Z</time></trkpt><trkpt lat="43.4740782" lon="11.3833058"><ele>498.0</ele><time>2026-04-19T09:02:26.967Z</time></trkpt><trkpt lat="43.473991" lon="11.383318"><ele>498.0</ele><time>2026-04-19T09:02:27.968Z</time></trkpt><trkpt lat="43.4739036" lon="11.3833514"><ele>498.0</ele><time>2026-04-19T09:02:28.965Z</time></trkpt><trkpt lat="43.4738163" lon="11.3834086"><ele>497.3333333333333</ele><time>2026-04-19T09:02:29.98Z</time></trkpt><trkpt lat="43.4737329" lon="11.3834602"><ele>496.66666666666663</ele><time>2026-04-19T09:02:30.966Z</time></trkpt><trkpt lat="43.4736522" lon="11.3835039"><ele>496.0</ele><time>2026-04-19T09:02:31.995Z</time></trkpt><trkpt lat="43.4735795" lon="11.3835164"><ele>495.3333333333333</ele><time>2026-04-19T09:02:32.963Z</time></trkpt><trkpt lat="43.4735166" lon="11.3835004"><ele>494.66666666666663</ele><time>2026-04-19T09:02:33.967Z</time></trkpt><trkpt lat="43.473455" lon="11.3834662"><ele>494.0</ele><time>2026-04-19T09:02:34.964Z</time></trkpt><trkpt lat="43.4733848" lon="11.3834151"><ele>494.0</ele><time>2026-04-19T09:02:35.965Z</time></trkpt><trkpt lat="43.4733161" lon="11.3833609"><ele>494.0</ele><time>2026-04-19T09:02:36.981Z</time></trkpt><trkpt lat="43.4732467" lon="11.3832994"><ele>494.0</ele><time>2026-04-19T09:02:37.97Z</time></trkpt><trkpt lat="43.473178" lon="11.3832298"><ele>494.0</ele><time>2026-04-19T09:02:38.968Z</time></trkpt><trkpt lat="43.4731139" lon="11.3831275"><ele>494.0</ele><time>2026-04-19T09:02:39.97Z</time></trkpt><trkpt lat="43.4730399" lon="11.3830162"><ele>492.0</ele><time>2026-04-19T09:02:40.964Z</time></trkpt><trkpt lat="43.4729514" lon="11.3828896"><ele>490.0</ele><time>2026-04-19T09:02:41.969Z</time></trkpt><trkpt lat="43.4728686" lon="11.3827647"><ele>488.0</ele><time>2026-04-19T09:02:42.97Z</time></trkpt><trkpt lat="43.4727901" lon="11.3826624"><ele>486.0</ele><time>2026-04-19T09:02:43.977Z</time></trkpt><trkpt lat="43.4727167" lon="11.3825669"><ele>486.0</ele><time>2026-04-19T09:02:44.97Z</time></trkpt><trkpt lat="43.4726405" lon="11.3824552"><ele>486.0</ele><time>2026-04-19T09:02:45.957Z</time></trkpt><trkpt lat="43.4725675" lon="11.382343"><ele>486.0</ele><time>2026-04-19T09:02:46.969Z</time></trkpt><trkpt lat="43.4725024" lon="11.382228"><ele>486.0</ele><time>2026-04-19T09:02:47.969Z</time></trkpt><trkpt lat="43.4724481" lon="11.382126"><ele>486.0</ele><time>2026-04-19T09:02:48.967Z</time></trkpt><trkpt lat="43.4723994" lon="11.3820248"><ele>484.6</ele><time>2026-04-19T09:02:49.968Z</time></trkpt><trkpt lat="43.4723388" lon="11.3819213"><ele>483.20000000000005</ele><time>2026-04-19T09:02:50.968Z</time></trkpt><trkpt lat="43.4722729" lon="11.3818074"><ele>481.79999999999995</ele><time>2026-04-19T09:02:51.99Z</time></trkpt><trkpt lat="43.4722029" lon="11.3816927"><ele>480.4</ele><time>2026-04-19T09:02:52.975Z</time></trkpt><trkpt lat="43.4721426" lon="11.3815879"><ele>479.0</ele><time>2026-04-19T09:02:53.972Z</time></trkpt><trkpt lat="43.4720928" lon="11.3814836"><ele>478.79999999999995</ele><time>2026-04-19T09:02:54.973Z</time></trkpt><trkpt lat="43.4720499" lon="11.3813972"><ele>478.59999999999997</ele><time>2026-04-19T09:02:55.969Z</time></trkpt><trkpt lat="43.4720197" lon="11.3812673"><ele>478.4</ele><time>2026-04-19T09:02:57.967Z</time></trkpt><trkpt lat="43.4720361" lon="11.3810965"><ele>478.2</ele><time>2026-04-19T09:02:59.963Z</time></trkpt><trkpt lat="43.4720516" lon="11.3809875"><ele>478.0</ele><time>2026-04-19T09:03:00.969Z</time></trkpt><trkpt lat="43.4720602" lon="11.3808796"><ele>478.00000000000006</ele><time>2026-04-19T09:03:01.972Z</time></trkpt><trkpt lat="43.4720657" lon="11.3807642"><ele>478.0</ele><time>2026-04-19T09:03:02.97Z</time></trkpt><trkpt lat="43.4720636" lon="11.3806605"><ele>478.0</ele><time>2026-04-19T09:03:03.967Z</time></trkpt><trkpt lat="43.4720537" lon="11.3805563"><ele>478.0</ele><time>2026-04-19T09:03:04.979Z</time></trkpt><trkpt lat="43.4720424" lon="11.3804482"><ele>478.00000000000006</ele><time>2026-04-19T09:03:05.973Z</time></trkpt><trkpt lat="43.4720205" lon="11.3803419"><ele>478.0</ele><time>2026-04-19T09:03:06.972Z</time></trkpt><trkpt lat="43.4719919" lon="11.3802226"><ele>477.50000000000006</ele><time>2026-04-19T09:03:07.991Z</time></trkpt><trkpt lat="43.4719576" lon="11.3801097"><ele>477.0</ele><time>2026-04-19T09:03:08.97Z</time></trkpt><trkpt lat="43.4719236" lon="11.3800063"><ele>476.5</ele><time>2026-04-19T09:03:09.972Z</time></trkpt><trkpt lat="43.4718847" lon="11.379898"><ele>476.0</ele><time>2026-04-19T09:03:10.963Z</time></trkpt><trkpt lat="43.471841" lon="11.3797882"><ele>475.50000000000006</ele><time>2026-04-19T09:03:11.969Z</time></trkpt><trkpt lat="43.4718097" lon="11.3796833"><ele>475.0</ele><time>2026-04-19T09:03:12.978Z</time></trkpt><trkpt lat="43.4717807" lon="11.3795839"><ele>473.50000000000006</ele><time>2026-04-19T09:03:13.966Z</time></trkpt><trkpt lat="43.4717573" lon="11.3794936"><ele>472.0</ele><time>2026-04-19T09:03:14.972Z</time></trkpt><trkpt lat="43.4717342" lon="11.3794088"><ele>470.5</ele><time>2026-04-19T09:03:15.969Z</time></trkpt><trkpt lat="43.4717133" lon="11.3793265"><ele>469.0</ele><time>2026-04-19T09:03:16.97Z</time></trkpt><trkpt lat="43.4716919" lon="11.3792013"><ele>467.50000000000006</ele><time>2026-04-19T09:03:18.964Z</time></trkpt><trkpt lat="43.4716803" lon="11.379065"><ele>466.0</ele><time>2026-04-19T09:03:20.968Z</time></trkpt><trkpt lat="43.4716821" lon="11.3788892"><ele>464.7142857142857</ele><time>2026-04-19T09:03:22.972Z</time></trkpt><trkpt lat="43.4716871" lon="11.3787895"><ele>463.42857142857144</ele><time>2026-04-19T09:03:23.969Z</time></trkpt><trkpt lat="43.4716942" lon="11.3786782"><ele>462.14285714285717</ele><time>2026-04-19T09:03:24.967Z</time></trkpt><trkpt lat="43.4717053" lon="11.378564"><ele>460.8571428571429</ele><time>2026-04-19T09:03:25.975Z</time></trkpt><trkpt lat="43.4717154" lon="11.3784625"><ele>459.57142857142856</ele><time>2026-04-19T09:03:26.972Z</time></trkpt><trkpt lat="43.4717288" lon="11.3783759"><ele>458.28571428571433</ele><time>2026-04-19T09:03:27.968Z</time></trkpt><trkpt lat="43.4717342" lon="11.3782887"><ele>457.00000000000006</ele><time>2026-04-19T09:03:28.973Z</time></trkpt><trkpt lat="43.4717212" lon="11.3782012"><ele>457.00000000000006</ele><time>2026-04-19T09:03:29.972Z</time></trkpt><trkpt lat="43.4716957" lon="11.3781216"><ele>457.0</ele><time>2026-04-19T09:03:30.971Z</time></trkpt><trkpt lat="43.4716661" lon="11.3780444"><ele>457.00000000000006</ele><time>2026-04-19T09:03:31.969Z</time></trkpt><trkpt lat="43.4716251" lon="11.377966"><ele>457.00000000000006</ele><time>2026-04-19T09:03:32.971Z</time></trkpt><trkpt lat="43.4715789" lon="11.3778887"><ele>457.0</ele><time>2026-04-19T09:03:33.968Z</time></trkpt><trkpt lat="43.4715193" lon="11.3778109"><ele>457.00000000000006</ele><time>2026-04-19T09:03:34.967Z</time></trkpt><trkpt lat="43.4714557" lon="11.3777382"><ele>457.00000000000006</ele><time>2026-04-19T09:03:35.976Z</time></trkpt><trkpt lat="43.4713943" lon="11.3776732"><ele>455.4285714285715</ele><time>2026-04-19T09:03:36.964Z</time></trkpt><trkpt lat="43.471332" lon="11.3776123"><ele>453.8571428571429</ele><time>2026-04-19T09:03:37.968Z</time></trkpt><trkpt lat="43.4712652" lon="11.3775583"><ele>452.28571428571433</ele><time>2026-04-19T09:03:38.97Z</time></trkpt><trkpt lat="43.4712019" lon="11.3775113"><ele>450.7142857142858</ele><time>2026-04-19T09:03:39.968Z</time></trkpt><trkpt lat="43.4711337" lon="11.3774691"><ele>449.1428571428571</ele><time>2026-04-19T09:03:40.975Z</time></trkpt><trkpt lat="43.4710681" lon="11.3774301"><ele>447.57142857142856</ele><time>2026-04-19T09:03:41.998Z</time></trkpt><trkpt lat="43.4710019" lon="11.377392"><ele>446.0</ele><time>2026-04-19T09:03:42.972Z</time></trkpt><trkpt lat="43.4709406" lon="11.3773454"><ele>445.8333333333333</ele><time>2026-04-19T09:03:43.972Z</time></trkpt><trkpt lat="43.4708734" lon="11.3773043"><ele>445.66666666666663</ele><time>2026-04-19T09:03:44.971Z</time></trkpt><trkpt lat="43.4708001" lon="11.3772455"><ele>445.5</ele><time>2026-04-19T09:03:45.966Z</time></trkpt><trkpt lat="43.470736" lon="11.3771951"><ele>445.33333333333337</ele><time>2026-04-19T09:03:46.968Z</time></trkpt><trkpt lat="43.4706688" lon="11.3771543"><ele>445.1666666666667</ele><time>2026-04-19T09:03:47.971Z</time></trkpt><trkpt lat="43.4705986" lon="11.3771137"><ele>445.0</ele><time>2026-04-19T09:03:48.967Z</time></trkpt><trkpt lat="43.4705258" lon="11.377079"><ele>443.14285714285717</ele><time>2026-04-19T09:03:49.982Z</time></trkpt><trkpt lat="43.4704526" lon="11.3770499"><ele>441.2857142857143</ele><time>2026-04-19T09:03:50.968Z</time></trkpt><trkpt lat="43.4703753" lon="11.3770253"><ele>439.42857142857144</ele><time>2026-04-19T09:03:51.971Z</time></trkpt><trkpt lat="43.4702999" lon="11.3770028"><ele>437.57142857142856</ele><time>2026-04-19T09:03:52.967Z</time></trkpt><trkpt lat="43.4702284" lon="11.376982"><ele>435.71428571428567</ele><time>2026-04-19T09:03:53.974Z</time></trkpt><trkpt lat="43.4701633" lon="11.3769574"><ele>433.85714285714283</ele><time>2026-04-19T09:03:54.982Z</time></trkpt><trkpt lat="43.470095" lon="11.3769382"><ele>432.0</ele><time>2026-04-19T09:03:55.978Z</time></trkpt><trkpt lat="43.4700309" lon="11.3769096"><ele>431.40000000000003</ele><time>2026-04-19T09:03:56.974Z</time></trkpt><trkpt lat="43.4699311" lon="11.3768841"><ele>430.80000000000007</ele><time>2026-04-19T09:03:58.971Z</time></trkpt><trkpt lat="43.46986" lon="11.3768934"><ele>430.2</ele><time>2026-04-19T09:04:03.987Z</time></trkpt><trkpt lat="43.469741" lon="11.3768056"><ele>429.6</ele><time>2026-04-19T09:04:05.963Z</time></trkpt><trkpt lat="43.4696681" lon="11.3767324"><ele>429.0</ele><time>2026-04-19T09:04:06.972Z</time></trkpt><trkpt lat="43.4695824" lon="11.3766496"><ele>427.4</ele><time>2026-04-19T09:04:07.959Z</time></trkpt><trkpt lat="43.4694841" lon="11.3765662"><ele>425.79999999999995</ele><time>2026-04-19T09:04:08.961Z</time></trkpt><trkpt lat="43.4694078" lon="11.3765008"><ele>424.20000000000005</ele><time>2026-04-19T09:04:09.971Z</time></trkpt><trkpt lat="43.4693502" lon="11.3764478"><ele>422.6</ele><time>2026-04-19T09:04:10.97Z</time></trkpt><trkpt lat="43.4692389" lon="11.3763967"><ele>421.0</ele><time>2026-04-19T09:04:12.964Z</time></trkpt><trkpt lat="43.4691722" lon="11.3764003"><ele>421.00000000000006</ele><time>2026-04-19T09:04:13.971Z</time></trkpt><trkpt lat="43.4691068" lon="11.3764031"><ele>421.0</ele><time>2026-04-19T09:04:14.975Z</time></trkpt><trkpt lat="43.4690423" lon="11.3764417"><ele>421.0</ele><time>2026-04-19T09:04:15.968Z</time></trkpt><trkpt lat="43.4689742" lon="11.3764861"><ele>421.0</ele><time>2026-04-19T09:04:16.968Z</time></trkpt><trkpt lat="43.4688891" lon="11.3765056"><ele>421.0</ele><time>2026-04-19T09:04:17.964Z</time></trkpt><trkpt lat="43.468812" lon="11.3765162"><ele>421.00000000000006</ele><time>2026-04-19T09:04:18.975Z</time></trkpt><trkpt lat="43.4687384" lon="11.3765188"><ele>421.0</ele><time>2026-04-19T09:04:19.966Z</time></trkpt><trkpt lat="43.4686572" lon="11.3765252"><ele>419.00000000000006</ele><time>2026-04-19T09:04:20.974Z</time></trkpt><trkpt lat="43.4685725" lon="11.3765159"><ele>417.0</ele><time>2026-04-19T09:04:21.969Z</time></trkpt><trkpt lat="43.4684933" lon="11.3765053"><ele>415.0</ele><time>2026-04-19T09:04:22.972Z</time></trkpt><trkpt lat="43.4684122" lon="11.3764876"><ele>413.0</ele><time>2026-04-19T09:04:23.972Z</time></trkpt><trkpt lat="43.4683322" lon="11.3764548"><ele>411.00000000000006</ele><time>2026-04-19T09:04:24.974Z</time></trkpt><trkpt lat="43.4682536" lon="11.3764271"><ele>409.0</ele><time>2026-04-19T09:04:25.972Z</time></trkpt><trkpt lat="43.4681812" lon="11.3763989"><ele>409.00000000000006</ele><time>2026-04-19T09:04:26.967Z</time></trkpt><trkpt lat="43.4681191" lon="11.3763709"><ele>409.0</ele><time>2026-04-19T09:04:27.981Z</time></trkpt><trkpt lat="43.4680643" lon="11.3763273"><ele>409.0</ele><time>2026-04-19T09:04:28.978Z</time></trkpt><trkpt lat="43.4680395" lon="11.3761642"><ele>409.0</ele><time>2026-04-19T09:04:30.969Z</time></trkpt><trkpt lat="43.4680645" lon="11.3760494"><ele>409.00000000000006</ele><time>2026-04-19T09:04:31.97Z</time></trkpt><trkpt lat="43.4681025" lon="11.3759238"><ele>409.0</ele><time>2026-04-19T09:04:32.986Z</time></trkpt><trkpt lat="43.4681443" lon="11.3757927"><ele>408.83333333333337</ele><time>2026-04-19T09:04:33.966Z</time></trkpt><trkpt lat="43.468179" lon="11.3756642"><ele>408.6666666666667</ele><time>2026-04-19T09:04:34.963Z</time></trkpt><trkpt lat="43.4682104" lon="11.375541"><ele>408.5</ele><time>2026-04-19T09:04:35.974Z</time></trkpt><trkpt lat="43.4682253" lon="11.3754343"><ele>408.33333333333337</ele><time>2026-04-19T09:04:36.97Z</time></trkpt><trkpt lat="43.4682342" lon="11.3753256"><ele>408.1666666666667</ele><time>2026-04-19T09:04:37.971Z</time></trkpt><trkpt lat="43.4682394" lon="11.3752316"><ele>408.0</ele><time>2026-04-19T09:04:38.971Z</time></trkpt><trkpt lat="43.4682853" lon="11.3750978"><ele>406.42857142857144</ele><time>2026-04-19T09:04:40.969Z</time></trkpt><trkpt lat="43.4683398" lon="11.3750506"><ele>404.8571428571429</ele><time>2026-04-19T09:04:41.964Z</time></trkpt><trkpt lat="43.4684019" lon="11.3750164"><ele>403.2857142857143</ele><time>2026-04-19T09:04:42.978Z</time></trkpt><trkpt lat="43.4684787" lon="11.3749862"><ele>401.7142857142857</ele><time>2026-04-19T09:04:43.974Z</time></trkpt><trkpt lat="43.4685556" lon="11.3749626"><ele>400.1428571428571</ele><time>2026-04-19T09:04:44.967Z</time></trkpt><trkpt lat="43.4686274" lon="11.3749457"><ele>398.57142857142856</ele><time>2026-04-19T09:04:45.965Z</time></trkpt><trkpt lat="43.4687072" lon="11.3749376"><ele>397.0</ele><time>2026-04-19T09:04:46.968Z</time></trkpt><trkpt lat="43.4687868" lon="11.3749539"><ele>396.00000000000006</ele><time>2026-04-19T09:04:47.972Z</time></trkpt><trkpt lat="43.4688676" lon="11.3749761"><ele>395.0</ele><time>2026-04-19T09:04:48.971Z</time></trkpt><trkpt lat="43.4689453" lon="11.3749922"><ele>394.0</ele><time>2026-04-19T09:04:49.971Z</time></trkpt><trkpt lat="43.4690059" lon="11.3750173"><ele>393.0</ele><time>2026-04-19T09:04:50.965Z</time></trkpt><trkpt lat="43.4691258" lon="11.3749793"><ele>392.00000000000006</ele><time>2026-04-19T09:04:52.965Z</time></trkpt><trkpt lat="43.4691855" lon="11.3749365"><ele>391.0</ele><time>2026-04-19T09:04:53.972Z</time></trkpt><trkpt lat="43.4692609" lon="11.3748156"><ele>391.00000000000006</ele><time>2026-04-19T09:04:55.966Z</time></trkpt><trkpt lat="43.4692783" lon="11.3747249"><ele>391.0</ele><time>2026-04-19T09:04:56.969Z</time></trkpt><trkpt lat="43.4692897" lon="11.3746279"><ele>391.0</ele><time>2026-04-19T09:04:57.96Z</time></trkpt><trkpt lat="43.4693092" lon="11.3744566"><ele>391.0</ele><time>2026-04-19T09:04:59.978Z</time></trkpt><trkpt lat="43.4693396" lon="11.3743734"><ele>391.00000000000006</ele><time>2026-04-19T09:05:01.972Z</time></trkpt><trkpt lat="43.4694238" lon="11.3743328"><ele>391.0</ele><time>2026-04-19T09:05:03.959Z</time></trkpt><trkpt lat="43.4693535" lon="11.3742711"><ele>389.8</ele><time>2026-04-19T09:05:08.967Z</time></trkpt><trkpt lat="43.4692567" lon="11.3742659"><ele>388.6</ele><time>2026-04-19T09:05:09.962Z</time></trkpt><trkpt lat="43.4691536" lon="11.3742388"><ele>387.4</ele><time>2026-04-19T09:05:10.972Z</time></trkpt><trkpt lat="43.4690471" lon="11.3741749"><ele>386.2</ele><time>2026-04-19T09:05:11.974Z</time></trkpt><trkpt lat="43.4689388" lon="11.374087"><ele>385.0</ele><time>2026-04-19T09:05:12.971Z</time></trkpt><trkpt lat="43.4688257" lon="11.3739588"><ele>384.5</ele><time>2026-04-19T09:05:13.967Z</time></trkpt><trkpt lat="43.4687267" lon="11.3738119"><ele>384.0</ele><time>2026-04-19T09:05:14.974Z</time></trkpt><trkpt lat="43.4686387" lon="11.3736884"><ele>383.5</ele><time>2026-04-19T09:05:15.974Z</time></trkpt><trkpt lat="43.4685533" lon="11.3735801"><ele>383.0</ele><time>2026-04-19T09:05:16.973Z</time></trkpt><trkpt lat="43.4684551" lon="11.3734872"><ele>383.0</ele><time>2026-04-19T09:05:17.998Z</time></trkpt><trkpt lat="43.4683511" lon="11.3734079"><ele>383.0</ele><time>2026-04-19T09:05:18.968Z</time></trkpt><trkpt lat="43.4682293" lon="11.3733363"><ele>383.0</ele><time>2026-04-19T09:05:19.971Z</time></trkpt><trkpt lat="43.4680854" lon="11.3732713"><ele>383.0</ele><time>2026-04-19T09:05:20.975Z</time></trkpt><trkpt lat="43.467942" lon="11.3732131"><ele>381.5</ele><time>2026-04-19T09:05:21.967Z</time></trkpt><trkpt lat="43.4678133" lon="11.3731613"><ele>380.0</ele><time>2026-04-19T09:05:22.974Z</time></trkpt><trkpt lat="43.4676957" lon="11.3731057"><ele>378.5</ele><time>2026-04-19T09:05:23.965Z</time></trkpt><trkpt lat="43.4675933" lon="11.3730639"><ele>377.0</ele><time>2026-04-19T09:05:24.971Z</time></trkpt><trkpt lat="43.4674985" lon="11.3730531"><ele>377.0</ele><time>2026-04-19T09:05:25.971Z</time></trkpt><trkpt lat="43.4674234" lon="11.3730605"><ele>377.0</ele><time>2026-04-19T09:05:26.971Z</time></trkpt><trkpt lat="43.4673472" lon="11.3731084"><ele>377.0</ele><time>2026-04-19T09:05:27.964Z</time></trkpt><trkpt lat="43.4672961" lon="11.3731735"><ele>377.0</ele><time>2026-04-19T09:05:28.966Z</time></trkpt><trkpt lat="43.4672631" lon="11.373273"><ele>377.0</ele><time>2026-04-19T09:05:29.968Z</time></trkpt><trkpt lat="43.467257" lon="11.3733812"><ele>377.0</ele><time>2026-04-19T09:05:30.963Z</time></trkpt><trkpt lat="43.4672589" lon="11.3735056"><ele>377.0</ele><time>2026-04-19T09:05:31.97Z</time></trkpt><trkpt lat="43.4672792" lon="11.3736561"><ele>377.0</ele><time>2026-04-19T09:05:32.971Z</time></trkpt><trkpt lat="43.467295" lon="11.3737936"><ele>377.0</ele><time>2026-04-19T09:05:33.97Z</time></trkpt><trkpt lat="43.4673018" lon="11.3739303"><ele>377.0</ele><time>2026-04-19T09:05:34.968Z</time></trkpt><trkpt lat="43.4672728" lon="11.3740414"><ele>377.0</ele><time>2026-04-19T09:05:35.962Z</time></trkpt><trkpt lat="43.4672201" lon="11.3741575"><ele>377.8</ele><time>2026-04-19T09:05:36.963Z</time></trkpt><trkpt lat="43.4671613" lon="11.3742786"><ele>378.6</ele><time>2026-04-19T09:05:37.957Z</time></trkpt><trkpt lat="43.4670954" lon="11.3743926"><ele>379.40000000000003</ele><time>2026-04-19T09:05:38.96Z</time></trkpt><trkpt lat="43.4670324" lon="11.3744996"><ele>380.20000000000005</ele><time>2026-04-19T09:05:39.972Z</time></trkpt><trkpt lat="43.4669708" lon="11.3745937"><ele>381.0</ele><time>2026-04-19T09:05:40.968Z</time></trkpt><trkpt lat="43.4669242" lon="11.3746534"><ele>383.4</ele><time>2026-04-19T09:05:41.97Z</time></trkpt><trkpt lat="43.4668365" lon="11.3746917"><ele>385.8</ele><time>2026-04-19T09:05:43.968Z</time></trkpt><trkpt lat="43.4667722" lon="11.3746226"><ele>388.2</ele><time>2026-04-19T09:05:45.974Z</time></trkpt><trkpt lat="43.4667578" lon="11.3745014"><ele>390.59999999999997</ele><time>2026-04-19T09:05:47.968Z</time></trkpt><trkpt lat="43.4668369" lon="11.374365"><ele>393.0</ele><time>2026-04-19T09:05:49.98Z</time></trkpt><trkpt lat="43.4669323" lon="11.3742211"><ele>393.8333333333333</ele><time>2026-04-19T09:05:51.978Z</time></trkpt><trkpt lat="43.4669863" lon="11.3741251"><ele>394.66666666666663</ele><time>2026-04-19T09:05:52.965Z</time></trkpt><trkpt lat="43.467028" lon="11.3740207"><ele>395.5</ele><time>2026-04-19T09:05:53.971Z</time></trkpt><trkpt lat="43.4670427" lon="11.3739212"><ele>396.3333333333333</ele><time>2026-04-19T09:05:54.969Z</time></trkpt><trkpt lat="43.4670225" lon="11.3737671"><ele>397.16666666666663</ele><time>2026-04-19T09:05:56.97Z</time></trkpt><trkpt lat="43.4669687" lon="11.3736869"><ele>398.0</ele><time>2026-04-19T09:05:57.968Z</time></trkpt><trkpt lat="43.4669124" lon="11.3735937"><ele>398.0</ele><time>2026-04-19T09:05:58.979Z</time></trkpt><trkpt lat="43.4668433" lon="11.3734875"><ele>398.0</ele><time>2026-04-19T09:05:59.982Z</time></trkpt><trkpt lat="43.4667891" lon="11.3733889"><ele>398.0</ele><time>2026-04-19T09:06:00.967Z</time></trkpt><trkpt lat="43.4667314" lon="11.3732824"><ele>398.0</ele><time>2026-04-19T09:06:01.992Z</time></trkpt><trkpt lat="43.466681" lon="11.3731908"><ele>398.0</ele><time>2026-04-19T09:06:02.966Z</time></trkpt><trkpt lat="43.4666161" lon="11.3731323"><ele>397.99999999999994</ele><time>2026-04-19T09:06:03.972Z</time></trkpt><trkpt lat="43.4665475" lon="11.3730832"><ele>398.0</ele><time>2026-04-19T09:06:04.967Z</time></trkpt><trkpt lat="43.4664732" lon="11.3730542"><ele>398.0</ele><time>2026-04-19T09:06:05.974Z</time></trkpt><trkpt lat="43.4664071" lon="11.3730209"><ele>398.0</ele><time>2026-04-19T09:06:06.974Z</time></trkpt><trkpt lat="43.4663341" lon="11.3729999"><ele>397.99999999999994</ele><time>2026-04-19T09:06:07.971Z</time></trkpt><trkpt lat="43.4662541" lon="11.372984"><ele>398.0</ele><time>2026-04-19T09:06:08.969Z</time></trkpt><trkpt lat="43.4661779" lon="11.3729598"><ele>398.49999999999994</ele><time>2026-04-19T09:06:09.962Z</time></trkpt><trkpt lat="43.4661015" lon="11.3729308"><ele>399.0</ele><time>2026-04-19T09:06:10.969Z</time></trkpt><trkpt lat="43.4660251" lon="11.3729043"><ele>399.5</ele><time>2026-04-19T09:06:11.967Z</time></trkpt><trkpt lat="43.4659549" lon="11.3728793"><ele>400.0</ele><time>2026-04-19T09:06:12.969Z</time></trkpt><trkpt lat="43.4658823" lon="11.3728526"><ele>400.49999999999994</ele><time>2026-04-19T09:06:13.969Z</time></trkpt><trkpt lat="43.4658096" lon="11.3728266"><ele>401.0</ele><time>2026-04-19T09:06:14.973Z</time></trkpt><trkpt lat="43.4657365" lon="11.3728049"><ele>401.0</ele><time>2026-04-19T09:06:15.967Z</time></trkpt><trkpt lat="43.4656672" lon="11.3727842"><ele>401.0</ele><time>2026-04-19T09:06:16.966Z</time></trkpt><trkpt lat="43.4655459" lon="11.3727363"><ele>401.0</ele><time>2026-04-19T09:06:18.969Z</time></trkpt><trkpt lat="43.4654817" lon="11.3727054"><ele>401.0</ele><time>2026-04-19T09:06:19.968Z</time></trkpt><trkpt lat="43.4653644" lon="11.3726614"><ele>401.0</ele><time>2026-04-19T09:06:21.964Z</time></trkpt><trkpt lat="43.4652615" lon="11.3726231"><ele>402.66666666666663</ele><time>2026-04-19T09:06:23.978Z</time></trkpt><trkpt lat="43.4651901" lon="11.3726495"><ele>404.3333333333333</ele><time>2026-04-19T09:06:25.969Z</time></trkpt><trkpt lat="43.4651434" lon="11.372719"><ele>406.0</ele><time>2026-04-19T09:06:27.969Z</time></trkpt><trkpt lat="43.4651157" lon="11.3728604"><ele>407.66666666666663</ele><time>2026-04-19T09:06:29.971Z</time></trkpt><trkpt lat="43.4651121" lon="11.3730317"><ele>409.3333333333333</ele><time>2026-04-19T09:06:31.968Z</time></trkpt><trkpt lat="43.4651021" lon="11.3731175"><ele>411.0</ele><time>2026-04-19T09:06:32.966Z</time></trkpt><trkpt lat="43.4650886" lon="11.3732037"><ele>413.1666666666667</ele><time>2026-04-19T09:06:33.968Z</time></trkpt><trkpt lat="43.4650616" lon="11.373339"><ele>415.33333333333337</ele><time>2026-04-19T09:06:35.966Z</time></trkpt><trkpt lat="43.4649779" lon="11.3733784"><ele>417.5</ele><time>2026-04-19T09:06:37.967Z</time></trkpt><trkpt lat="43.4649144" lon="11.3733793"><ele>419.6666666666667</ele><time>2026-04-19T09:06:38.969Z</time></trkpt><trkpt lat="43.46485" lon="11.3733643"><ele>421.83333333333337</ele><time>2026-04-19T09:06:39.965Z</time></trkpt><trkpt lat="43.4647702" lon="11.3733498"><ele>424.0</ele><time>2026-04-19T09:06:40.967Z</time></trkpt><trkpt lat="43.4646895" lon="11.3733279"><ele>426.6666666666667</ele><time>2026-04-19T09:06:41.964Z</time></trkpt><trkpt lat="43.4646091" lon="11.3733039"><ele>429.33333333333337</ele><time>2026-04-19T09:06:42.968Z</time></trkpt><trkpt lat="43.4645275" lon="11.373283"><ele>432.0</ele><time>2026-04-19T09:06:43.974Z</time></trkpt><trkpt lat="43.4644374" lon="11.3732603"><ele>434.66666666666663</ele><time>2026-04-19T09:06:44.975Z</time></trkpt><trkpt lat="43.4643439" lon="11.373242"><ele>437.3333333333333</ele><time>2026-04-19T09:06:45.971Z</time></trkpt><trkpt lat="43.4642508" lon="11.3732241"><ele>440.0</ele><time>2026-04-19T09:06:46.967Z</time></trkpt><trkpt lat="43.4641543" lon="11.3732019"><ele>440.0</ele><time>2026-04-19T09:06:47.968Z</time></trkpt><trkpt lat="43.4640623" lon="11.3731849"><ele>440.0</ele><time>2026-04-19T09:06:48.964Z</time></trkpt><trkpt lat="43.4639753" lon="11.3731728"><ele>440.0</ele><time>2026-04-19T09:06:49.971Z</time></trkpt><trkpt lat="43.4638855" lon="11.3731602"><ele>440.0</ele><time>2026-04-19T09:06:50.972Z</time></trkpt><trkpt lat="43.463794" lon="11.3731556"><ele>440.0</ele><time>2026-04-19T09:06:51.961Z</time></trkpt><trkpt lat="43.4637043" lon="11.3731385"><ele>441.3333333333333</ele><time>2026-04-19T09:06:52.966Z</time></trkpt><trkpt lat="43.4636212" lon="11.3730862"><ele>442.66666666666663</ele><time>2026-04-19T09:06:53.963Z</time></trkpt><trkpt lat="43.4635603" lon="11.3730048"><ele>444.0</ele><time>2026-04-19T09:06:54.977Z</time></trkpt><trkpt lat="43.4635104" lon="11.3729083"><ele>445.33333333333337</ele><time>2026-04-19T09:06:55.965Z</time></trkpt><trkpt lat="43.4634507" lon="11.372815"><ele>446.6666666666667</ele><time>2026-04-19T09:06:56.962Z</time></trkpt><trkpt lat="43.4633917" lon="11.372721"><ele>448.0</ele><time>2026-04-19T09:06:57.967Z</time></trkpt><trkpt lat="43.4633102" lon="11.3726169"><ele>448.0</ele><time>2026-04-19T09:06:58.966Z</time></trkpt><trkpt lat="43.463229" lon="11.3725179"><ele>447.99999999999994</ele><time>2026-04-19T09:06:59.963Z</time></trkpt><trkpt lat="43.4631418" lon="11.3724207"><ele>447.99999999999994</ele><time>2026-04-19T09:07:00.971Z</time></trkpt><trkpt lat="43.4630545" lon="11.3723386"><ele>448.0</ele><time>2026-04-19T09:07:01.972Z</time></trkpt><trkpt lat="43.462964" lon="11.3722759"><ele>448.0</ele><time>2026-04-19T09:07:02.966Z</time></trkpt><trkpt lat="43.4628704" lon="11.3722159"><ele>449.57142857142856</ele><time>2026-04-19T09:07:03.961Z</time></trkpt><trkpt lat="43.4627856" lon="11.3721843"><ele>451.1428571428571</ele><time>2026-04-19T09:07:04.967Z</time></trkpt><trkpt lat="43.4627107" lon="11.3721606"><ele>452.7142857142857</ele><time>2026-04-19T09:07:05.975Z</time></trkpt><trkpt lat="43.4626416" lon="11.3721519"><ele>454.2857142857143</ele><time>2026-04-19T09:07:06.973Z</time></trkpt><trkpt lat="43.4625774" lon="11.3721563"><ele>455.85714285714283</ele><time>2026-04-19T09:07:07.965Z</time></trkpt><trkpt lat="43.4625035" lon="11.3721902"><ele>457.42857142857144</ele><time>2026-04-19T09:07:08.969Z</time></trkpt><trkpt lat="43.4624456" lon="11.372252"><ele>459.0</ele><time>2026-04-19T09:07:09.972Z</time></trkpt><trkpt lat="43.462385" lon="11.3723212"><ele>460.7142857142857</ele><time>2026-04-19T09:07:10.961Z</time></trkpt><trkpt lat="43.4623303" lon="11.3723915"><ele>462.42857142857144</ele><time>2026-04-19T09:07:11.971Z</time></trkpt><trkpt lat="43.4622686" lon="11.3724666"><ele>464.14285714285717</ele><time>2026-04-19T09:07:12.967Z</time></trkpt><trkpt lat="43.4622097" lon="11.3725333"><ele>465.8571428571429</ele><time>2026-04-19T09:07:13.968Z</time></trkpt><trkpt lat="43.4621535" lon="11.372587"><ele>467.57142857142856</ele><time>2026-04-19T09:07:14.969Z</time></trkpt><trkpt lat="43.4620931" lon="11.3726211"><ele>469.28571428571433</ele><time>2026-04-19T09:07:15.969Z</time></trkpt><trkpt lat="43.4620181" lon="11.3726414"><ele>471.00000000000006</ele><time>2026-04-19T09:07:16.964Z</time></trkpt><trkpt lat="43.461937" lon="11.372651"><ele>472.1666666666667</ele><time>2026-04-19T09:07:17.969Z</time></trkpt><trkpt lat="43.4618577" lon="11.3726424"><ele>473.33333333333337</ele><time>2026-04-19T09:07:18.959Z</time></trkpt><trkpt lat="43.4617903" lon="11.3725881"><ele>474.5</ele><time>2026-04-19T09:07:19.959Z</time></trkpt><trkpt lat="43.4617425" lon="11.3725022"><ele>475.6666666666667</ele><time>2026-04-19T09:07:20.965Z</time></trkpt><trkpt lat="43.4617008" lon="11.3723758"><ele>476.83333333333337</ele><time>2026-04-19T09:07:22.978Z</time></trkpt><trkpt lat="43.4616398" lon="11.372429"><ele>478.0</ele><time>2026-04-19T09:07:25.974Z</time></trkpt><trkpt lat="43.4616358" lon="11.3725438"><ele>478.0</ele><time>2026-04-19T09:07:27.969Z</time></trkpt><trkpt lat="43.4616421" lon="11.372636"><ele>477.99999999999994</ele><time>2026-04-19T09:07:29.967Z</time></trkpt><trkpt lat="43.4616466" lon="11.3727578"><ele>477.99999999999994</ele><time>2026-04-19T09:07:31.973Z</time></trkpt><trkpt lat="43.4616398" lon="11.3729041"><ele>478.0</ele><time>2026-04-19T09:07:33.974Z</time></trkpt><trkpt lat="43.461623" lon="11.3730527"><ele>478.0</ele><time>2026-04-19T09:07:35.966Z</time></trkpt><trkpt lat="43.4615975" lon="11.3732139"><ele>479.1666666666667</ele><time>2026-04-19T09:07:37.97Z</time></trkpt><trkpt lat="43.4615811" lon="11.3733066"><ele>480.33333333333337</ele><time>2026-04-19T09:07:38.964Z</time></trkpt><trkpt lat="43.4615585" lon="11.3733898"><ele>481.5</ele><time>2026-04-19T09:07:39.979Z</time></trkpt><trkpt lat="43.461534" lon="11.3734802"><ele>482.66666666666663</ele><time>2026-04-19T09:07:40.968Z</time></trkpt><trkpt lat="43.4615193" lon="11.3735757"><ele>483.8333333333333</ele><time>2026-04-19T09:07:41.98Z</time></trkpt><trkpt lat="43.4615022" lon="11.3736663"><ele>485.0</ele><time>2026-04-19T09:07:42.966Z</time></trkpt><trkpt lat="43.4614629" lon="11.3738409"><ele>486.7142857142858</ele><time>2026-04-19T09:07:44.971Z</time></trkpt><trkpt lat="43.4614281" lon="11.3739309"><ele>488.42857142857144</ele><time>2026-04-19T09:07:45.961Z</time></trkpt><trkpt lat="43.4614008" lon="11.3740216"><ele>490.14285714285717</ele><time>2026-04-19T09:07:46.965Z</time></trkpt><trkpt lat="43.4613741" lon="11.3741141"><ele>491.8571428571429</ele><time>2026-04-19T09:07:47.974Z</time></trkpt><trkpt lat="43.461361" lon="11.3742171"><ele>493.57142857142856</ele><time>2026-04-19T09:07:48.972Z</time></trkpt><trkpt lat="43.4613484" lon="11.3743273"><ele>495.2857142857143</ele><time>2026-04-19T09:07:49.967Z</time></trkpt><trkpt lat="43.4613377" lon="11.3744293"><ele>497.0</ele><time>2026-04-19T09:07:50.98Z</time></trkpt><trkpt lat="43.4613262" lon="11.3745439"><ele>496.99999999999994</ele><time>2026-04-19T09:07:51.964Z</time></trkpt><trkpt lat="43.4613184" lon="11.3746756"><ele>497.0</ele><time>2026-04-19T09:07:52.975Z</time></trkpt><trkpt lat="43.4613087" lon="11.3747875"><ele>497.0</ele><time>2026-04-19T09:07:53.961Z</time></trkpt><trkpt lat="43.4613052" lon="11.3748765"><ele>497.0</ele><time>2026-04-19T09:07:54.967Z</time></trkpt><trkpt lat="43.4613178" lon="11.3749993"><ele>496.99999999999994</ele><time>2026-04-19T09:07:56.967Z</time></trkpt><trkpt lat="43.4613189" lon="11.375145"><ele>497.0</ele><time>2026-04-19T09:07:58.963Z</time></trkpt><trkpt lat="43.4613242" lon="11.3752787"><ele>497.8333333333333</ele><time>2026-04-19T09:07:59.968Z</time></trkpt><trkpt lat="43.4613226" lon="11.3754209"><ele>498.66666666666663</ele><time>2026-04-19T09:08:00.981Z</time></trkpt><trkpt lat="43.4613201" lon="11.3755565"><ele>499.5</ele><time>2026-04-19T09:08:01.97Z</time></trkpt><trkpt lat="43.461322" lon="11.3756716"><ele>500.33333333333337</ele><time>2026-04-19T09:08:02.966Z</time></trkpt><trkpt lat="43.4613192" lon="11.3757664"><ele>501.1666666666667</ele><time>2026-04-19T09:08:03.967Z</time></trkpt><trkpt lat="43.4613148" lon="11.3758579"><ele>502.0</ele><time>2026-04-19T09:08:04.968Z</time></trkpt><trkpt lat="43.4613151" lon="11.3759901"><ele>499.6</ele><time>2026-04-19T09:08:06.993Z</time></trkpt><trkpt lat="43.461278" lon="11.375851"><ele>497.20000000000005</ele><time>2026-04-19T09:08:14.973Z</time></trkpt><trkpt lat="43.4612624" lon="11.3757506"><ele>494.8</ele><time>2026-04-19T09:08:15.962Z</time></trkpt><trkpt lat="43.4612625" lon="11.3756207"><ele>492.4</ele><time>2026-04-19T09:08:16.964Z</time></trkpt><trkpt lat="43.4612668" lon="11.3754799"><ele>490.0</ele><time>2026-04-19T09:08:17.967Z</time></trkpt><trkpt lat="43.4612713" lon="11.3753383"><ele>489.4</ele><time>2026-04-19T09:08:18.978Z</time></trkpt><trkpt lat="43.4612744" lon="11.3752025"><ele>488.8</ele><time>2026-04-19T09:08:19.967Z</time></trkpt><trkpt lat="43.4612697" lon="11.3750661"><ele>488.20000000000005</ele><time>2026-04-19T09:08:20.966Z</time></trkpt><trkpt lat="43.461272" lon="11.3749377"><ele>487.6</ele><time>2026-04-19T09:08:21.965Z</time></trkpt><trkpt lat="43.4612731" lon="11.3748239"><ele>487.0</ele><time>2026-04-19T09:08:22.968Z</time></trkpt><trkpt lat="43.4612814" lon="11.3747022"><ele>489.0</ele><time>2026-04-19T09:08:23.973Z</time></trkpt><trkpt lat="43.4612916" lon="11.3746003"><ele>491.00000000000006</ele><time>2026-04-19T09:08:24.983Z</time></trkpt><trkpt lat="43.4613018" lon="11.3745104"><ele>493.00000000000006</ele><time>2026-04-19T09:08:25.961Z</time></trkpt><trkpt lat="43.4613298" lon="11.374358"><ele>495.0</ele><time>2026-04-19T09:08:27.972Z</time></trkpt><trkpt lat="43.4613616" lon="11.3742277"><ele>497.0</ele><time>2026-04-19T09:08:29.97Z</time></trkpt><trkpt lat="43.461386" lon="11.3740916"><ele>497.0</ele><time>2026-04-19T09:08:31.97Z</time></trkpt><trkpt lat="43.4614176" lon="11.3739668"><ele>497.00000000000006</ele><time>2026-04-19T09:08:33.97Z</time></trkpt><trkpt lat="43.4614553" lon="11.373828"><ele>497.00000000000006</ele><time>2026-04-19T09:08:35.969Z</time></trkpt><trkpt lat="43.4614972" lon="11.373675"><ele>497.0</ele><time>2026-04-19T09:08:37.976Z</time></trkpt><trkpt lat="43.4615294" lon="11.3735252"><ele>497.0</ele><time>2026-04-19T09:08:39.978Z</time></trkpt><trkpt lat="43.4615616" lon="11.3734016"><ele>494.99999999999994</ele><time>2026-04-19T09:08:41.971Z</time></trkpt><trkpt lat="43.4615952" lon="11.37328"><ele>493.0</ele><time>2026-04-19T09:08:43.974Z</time></trkpt><trkpt lat="43.461625" lon="11.3731407"><ele>491.0</ele><time>2026-04-19T09:08:45.973Z</time></trkpt><trkpt lat="43.4616476" lon="11.373"><ele>489.0</ele><time>2026-04-19T09:08:47.969Z</time></trkpt><trkpt lat="43.461662" lon="11.3729018"><ele>486.99999999999994</ele><time>2026-04-19T09:08:49.975Z</time></trkpt><trkpt lat="43.4615989" lon="11.3728652"><ele>485.0</ele><time>2026-04-19T09:08:56.97Z</time></trkpt><trkpt lat="43.4616384" lon="11.3727423"><ele>483.6</ele><time>2026-04-19T09:08:59.968Z</time></trkpt><trkpt lat="43.4616274" lon="11.3726381"><ele>482.2</ele><time>2026-04-19T09:09:01.968Z</time></trkpt><trkpt lat="43.4615665" lon="11.3726137"><ele>480.79999999999995</ele><time>2026-04-19T09:09:05.978Z</time></trkpt><trkpt lat="43.4615218" lon="11.3727257"><ele>479.4</ele><time>2026-04-19T09:09:08.968Z</time></trkpt><trkpt lat="43.4614811" lon="11.372866"><ele>478.0</ele><time>2026-04-19T09:09:10.969Z</time></trkpt><trkpt lat="43.4613696" lon="11.3729559"><ele>478.00000000000006</ele><time>2026-04-19T09:09:12.962Z</time></trkpt><trkpt lat="43.4613005" lon="11.3729963"><ele>478.0</ele><time>2026-04-19T09:09:13.969Z</time></trkpt><trkpt lat="43.4612214" lon="11.3730315"><ele>478.0</ele><time>2026-04-19T09:09:14.979Z</time></trkpt><trkpt lat="43.4611384" lon="11.3730636"><ele>478.0</ele><time>2026-04-19T09:09:15.97Z</time></trkpt><trkpt lat="43.461059" lon="11.3730969"><ele>478.00000000000006</ele><time>2026-04-19T09:09:16.96Z</time></trkpt><trkpt lat="43.4609859" lon="11.3731267"><ele>478.0</ele><time>2026-04-19T09:09:17.966Z</time></trkpt><trkpt lat="43.4609211" lon="11.3731529"><ele>477.6666666666667</ele><time>2026-04-19T09:09:18.967Z</time></trkpt><trkpt lat="43.4608544" lon="11.3731879"><ele>477.33333333333337</ele><time>2026-04-19T09:09:19.965Z</time></trkpt><trkpt lat="43.4607471" lon="11.3732442"><ele>477.0</ele><time>2026-04-19T09:09:21.966Z</time></trkpt><trkpt lat="43.4606813" lon="11.3732688"><ele>476.66666666666663</ele><time>2026-04-19T09:09:22.972Z</time></trkpt><trkpt lat="43.4606157" lon="11.3733041"><ele>476.3333333333333</ele><time>2026-04-19T09:09:23.973Z</time></trkpt><trkpt lat="43.4605497" lon="11.373332"><ele>476.0</ele><time>2026-04-19T09:09:24.97Z</time></trkpt><trkpt lat="43.4604856" lon="11.3733597"><ele>473.0</ele><time>2026-04-19T09:09:25.966Z</time></trkpt><trkpt lat="43.4603732" lon="11.3734116"><ele>470.0</ele><time>2026-04-19T09:09:27.962Z</time></trkpt><trkpt lat="43.4602714" lon="11.3734938"><ele>467.0</ele><time>2026-04-19T09:09:29.966Z</time></trkpt><trkpt lat="43.4601828" lon="11.373598"><ele>464.0</ele><time>2026-04-19T09:09:31.967Z</time></trkpt><trkpt lat="43.4601508" lon="11.3737107"><ele>461.0</ele><time>2026-04-19T09:09:33.971Z</time></trkpt><trkpt lat="43.4601259" lon="11.3737938"><ele>462.16666666666663</ele><time>2026-04-19T09:09:39.965Z</time></trkpt><trkpt lat="43.4600824" lon="11.3738842"><ele>463.3333333333333</ele><time>2026-04-19T09:09:41.968Z</time></trkpt><trkpt lat="43.4600355" lon="11.3740366"><ele>464.5</ele><time>2026-04-19T09:09:43.973Z</time></trkpt><trkpt lat="43.4600106" lon="11.3741273"><ele>465.66666666666663</ele><time>2026-04-19T09:09:44.966Z</time></trkpt><trkpt lat="43.4599863" lon="11.3742179"><ele>466.8333333333333</ele><time>2026-04-19T09:09:45.969Z</time></trkpt><trkpt lat="43.4599543" lon="11.3743061"><ele>468.0</ele><time>2026-04-19T09:09:46.967Z</time></trkpt><trkpt lat="43.4598823" lon="11.3744233"><ele>468.0</ele><time>2026-04-19T09:09:48.966Z</time></trkpt><trkpt lat="43.4597843" lon="11.3744852"><ele>467.99999999999994</ele><time>2026-04-19T09:09:50.965Z</time></trkpt><trkpt lat="43.459665" lon="11.3744989"><ele>467.99999999999994</ele><time>2026-04-19T09:09:52.962Z</time></trkpt><trkpt lat="43.4595612" lon="11.3744931"><ele>468.0</ele><time>2026-04-19T09:09:54.966Z</time></trkpt><trkpt lat="43.4594756" lon="11.3745014"><ele>468.0</ele><time>2026-04-19T09:09:56.964Z</time></trkpt><trkpt lat="43.4593656" lon="11.3745117"><ele>465.6666666666667</ele><time>2026-04-19T09:09:58.968Z</time></trkpt><trkpt lat="43.4592989" lon="11.3745232"><ele>463.33333333333337</ele><time>2026-04-19T09:09:59.978Z</time></trkpt><trkpt lat="43.4592188" lon="11.3745356"><ele>461.0</ele><time>2026-04-19T09:10:00.958Z</time></trkpt><trkpt lat="43.4591412" lon="11.3745454"><ele>458.6666666666667</ele><time>2026-04-19T09:10:01.965Z</time></trkpt><trkpt lat="43.459076" lon="11.3745637"><ele>456.33333333333337</ele><time>2026-04-19T09:10:02.968Z</time></trkpt><trkpt lat="43.4589467" lon="11.3746089"><ele>454.0</ele><time>2026-04-19T09:10:04.978Z</time></trkpt><trkpt lat="43.4588851" lon="11.3746297"><ele>454.00000000000006</ele><time>2026-04-19T09:10:05.965Z</time></trkpt><trkpt lat="43.4588219" lon="11.3746454"><ele>454.0</ele><time>2026-04-19T09:10:06.965Z</time></trkpt><trkpt lat="43.4587361" lon="11.3746726"><ele>454.0</ele><time>2026-04-19T09:10:08.971Z</time></trkpt><trkpt lat="43.4586796" lon="11.3747156"><ele>454.0</ele><time>2026-04-19T09:10:21.966Z</time></trkpt><trkpt lat="43.4586085" lon="11.3747459"><ele>454.00000000000006</ele><time>2026-04-19T09:10:23.986Z</time></trkpt><trkpt lat="43.4585231" lon="11.3747906"><ele>454.0</ele><time>2026-04-19T09:10:25.97Z</time></trkpt><trkpt lat="43.4584487" lon="11.3748565"><ele>453.50000000000006</ele><time>2026-04-19T09:10:27.967Z</time></trkpt><trkpt lat="43.4583637" lon="11.374936"><ele>453.0</ele><time>2026-04-19T09:10:29.975Z</time></trkpt><trkpt lat="43.4582717" lon="11.3750081"><ele>452.5</ele><time>2026-04-19T09:10:31.972Z</time></trkpt><trkpt lat="43.4582086" lon="11.3750837"><ele>452.0</ele><time>2026-04-19T09:10:33.967Z</time></trkpt><trkpt lat="43.4581535" lon="11.375152"><ele>451.50000000000006</ele><time>2026-04-19T09:10:35.962Z</time></trkpt><trkpt lat="43.4580972" lon="11.3752106"><ele>451.0</ele><time>2026-04-19T09:10:37.971Z</time></trkpt><trkpt lat="43.4580299" lon="11.3753012"><ele>451.0</ele><time>2026-04-19T09:10:40.968Z</time></trkpt><trkpt lat="43.4579886" lon="11.3753701"><ele>451.0</ele><time>2026-04-19T09:10:42.977Z</time></trkpt><trkpt lat="43.457947" lon="11.3754457"><ele>451.0</ele><time>2026-04-19T09:10:44.97Z</time></trkpt><trkpt lat="43.457895" lon="11.3755171"><ele>451.0</ele><time>2026-04-19T09:10:46.98Z</time></trkpt><trkpt lat="43.4578403" lon="11.3756109"><ele>451.0</ele><time>2026-04-19T09:10:49.983Z</time></trkpt><trkpt lat="43.4577818" lon="11.3756979"><ele>451.0</ele><time>2026-04-19T09:10:51.964Z</time></trkpt><trkpt lat="43.4578086" lon="11.3757793"><ele>451.0</ele><time>2026-04-19T09:13:54.999Z</time></trkpt><trkpt lat="43.4578592" lon="11.3758326"><ele>450.1428571428571</ele><time>2026-04-19T09:13:56.966Z</time></trkpt><trkpt lat="43.4578208" lon="11.3759181"><ele>449.28571428571433</ele><time>2026-04-19T09:14:00.967Z</time></trkpt><trkpt lat="43.4577483" lon="11.3759748"><ele>448.42857142857144</ele><time>2026-04-19T09:14:03.993Z</time></trkpt><trkpt lat="43.4577119" lon="11.3760613"><ele>447.57142857142856</ele><time>2026-04-19T09:14:07.971Z</time></trkpt><trkpt lat="43.4577088" lon="11.3761557"><ele>446.71428571428567</ele><time>2026-04-19T09:14:10.977Z</time></trkpt><trkpt lat="43.4577019" lon="11.3762451"><ele>445.8571428571429</ele><time>2026-04-19T09:14:12.982Z</time></trkpt><trkpt lat="43.4576267" lon="11.3762927"><ele>445.0</ele><time>2026-04-19T09:14:15.974Z</time></trkpt><trkpt lat="43.4575678" lon="11.3762502"><ele>445.00000000000006</ele><time>2026-04-19T09:14:17.973Z</time></trkpt><trkpt lat="43.4575204" lon="11.3761718"><ele>445.0</ele><time>2026-04-19T09:14:20.967Z</time></trkpt><trkpt lat="43.4574488" lon="11.3761373"><ele>445.0</ele><time>2026-04-19T09:14:24.981Z</time></trkpt><trkpt lat="43.4573933" lon="11.3761821"><ele>445.0</ele><time>2026-04-19T09:14:26.974Z</time></trkpt><trkpt lat="43.4573146" lon="11.3762533"><ele>445.00000000000006</ele><time>2026-04-19T09:14:28.981Z</time></trkpt><trkpt lat="43.4572491" lon="11.3763375"><ele>445.0</ele><time>2026-04-19T09:14:30.966Z</time></trkpt><trkpt lat="43.4571797" lon="11.3763991"><ele>448.0</ele><time>2026-04-19T09:14:32.966Z</time></trkpt><trkpt lat="43.4570975" lon="11.376504"><ele>451.0</ele><time>2026-04-19T09:14:34.967Z</time></trkpt><trkpt lat="43.4570483" lon="11.3765664"><ele>454.0</ele><time>2026-04-19T09:14:35.97Z</time></trkpt><trkpt lat="43.4569568" lon="11.3767029"><ele>457.0</ele><time>2026-04-19T09:14:37.984Z</time></trkpt><trkpt lat="43.4569006" lon="11.3767685"><ele>460.0</ele><time>2026-04-19T09:14:38.969Z</time></trkpt><trkpt lat="43.4568441" lon="11.3768336"><ele>459.99999999999994</ele><time>2026-04-19T09:14:39.977Z</time></trkpt><trkpt lat="43.4567871" lon="11.3768842"><ele>460.0</ele><time>2026-04-19T09:14:40.984Z</time></trkpt><trkpt lat="43.4567273" lon="11.3769422"><ele>459.99999999999994</ele><time>2026-04-19T09:14:41.982Z</time></trkpt><trkpt lat="43.4566632" lon="11.3769939"><ele>459.99999999999994</ele><time>2026-04-19T09:14:42.982Z</time></trkpt><trkpt lat="43.4565999" lon="11.3770358"><ele>460.0</ele><time>2026-04-19T09:14:43.985Z</time></trkpt><trkpt lat="43.4565419" lon="11.3770765"><ele>459.99999999999994</ele><time>2026-04-19T09:14:44.973Z</time></trkpt><trkpt lat="43.4564782" lon="11.3771174"><ele>459.99999999999994</ele><time>2026-04-19T09:14:45.975Z</time></trkpt><trkpt lat="43.4564144" lon="11.3771519"><ele>460.00000000000006</ele><time>2026-04-19T09:14:46.967Z</time></trkpt><trkpt lat="43.4563453" lon="11.3771803"><ele>460.0</ele><time>2026-04-19T09:14:47.968Z</time></trkpt><trkpt lat="43.4562722" lon="11.3771988"><ele>460.0</ele><time>2026-04-19T09:14:48.965Z</time></trkpt><trkpt lat="43.4561884" lon="11.3772069"><ele>460.0</ele><time>2026-04-19T09:14:49.973Z</time></trkpt><trkpt lat="43.4561021" lon="11.377212"><ele>460.00000000000006</ele><time>2026-04-19T09:14:50.985Z</time></trkpt><trkpt lat="43.4560088" lon="11.3772197"><ele>460.0</ele><time>2026-04-19T09:14:51.961Z</time></trkpt><trkpt lat="43.4559319" lon="11.3772288"><ele>460.42857142857133</ele><time>2026-04-19T09:14:52.968Z</time></trkpt><trkpt lat="43.4558568" lon="11.3772411"><ele>460.85714285714283</ele><time>2026-04-19T09:14:53.967Z</time></trkpt><trkpt lat="43.4557867" lon="11.3772457"><ele>461.2857142857142</ele><time>2026-04-19T09:14:54.969Z</time></trkpt><trkpt lat="43.4557156" lon="11.3772406"><ele>461.71428571428567</ele><time>2026-04-19T09:14:55.973Z</time></trkpt><trkpt lat="43.4556444" lon="11.3772354"><ele>462.1428571428571</ele><time>2026-04-19T09:14:56.974Z</time></trkpt><trkpt lat="43.4555781" lon="11.3772279"><ele>462.57142857142856</ele><time>2026-04-19T09:14:57.968Z</time></trkpt><trkpt lat="43.4555136" lon="11.3772144"><ele>463.0</ele><time>2026-04-19T09:14:58.965Z</time></trkpt><trkpt lat="43.4554464" lon="11.3772103"><ele>464.4285714285714</ele><time>2026-04-19T09:14:59.976Z</time></trkpt><trkpt lat="43.455375" lon="11.3771963"><ele>465.8571428571428</ele><time>2026-04-19T09:15:00.966Z</time></trkpt><trkpt lat="43.4553108" lon="11.3771784"><ele>467.2857142857143</ele><time>2026-04-19T09:15:01.967Z</time></trkpt><trkpt lat="43.4552435" lon="11.3771521"><ele>468.71428571428567</ele><time>2026-04-19T09:15:02.974Z</time></trkpt><trkpt lat="43.4551738" lon="11.3771116"><ele>470.1428571428571</ele><time>2026-04-19T09:15:03.972Z</time></trkpt><trkpt lat="43.4551046" lon="11.3770769"><ele>471.57142857142856</ele><time>2026-04-19T09:15:04.974Z</time></trkpt><trkpt lat="43.4550322" lon="11.3770489"><ele>473.0</ele><time>2026-04-19T09:15:05.969Z</time></trkpt><trkpt lat="43.4549572" lon="11.3770341"><ele>472.99999999999994</ele><time>2026-04-19T09:15:06.969Z</time></trkpt><trkpt lat="43.4548901" lon="11.3770114"><ele>473.0</ele><time>2026-04-19T09:15:07.978Z</time></trkpt><trkpt lat="43.4547857" lon="11.3769743"><ele>473.0</ele><time>2026-04-19T09:15:09.966Z</time></trkpt><trkpt lat="43.4547079" lon="11.3769498"><ele>473.0</ele><time>2026-04-19T09:15:11.961Z</time></trkpt><trkpt lat="43.4546164" lon="11.3769844"><ele>472.99999999999994</ele><time>2026-04-19T09:15:13.991Z</time></trkpt><trkpt lat="43.454533" lon="11.3770267"><ele>473.0</ele><time>2026-04-19T09:15:15.978Z</time></trkpt><trkpt lat="43.4544807" lon="11.3771012"><ele>473.49999999999994</ele><time>2026-04-19T09:15:18.958Z</time></trkpt><trkpt lat="43.4545159" lon="11.3771897"><ele>474.0</ele><time>2026-04-19T09:15:21.963Z</time></trkpt><trkpt lat="43.4545768" lon="11.3772726"><ele>474.5</ele><time>2026-04-19T09:15:23.983Z</time></trkpt><trkpt lat="43.454622" lon="11.3773749"><ele>475.0</ele><time>2026-04-19T09:15:26.963Z</time></trkpt><trkpt lat="43.4546344" lon="11.3774693"><ele>475.49999999999994</ele><time>2026-04-19T09:15:28.966Z</time></trkpt><trkpt lat="43.4546107" lon="11.3773446"><ele>476.0</ele><time>2026-04-19T09:15:40.978Z</time></trkpt><trkpt lat="43.4545762" lon="11.3772557"><ele>477.20000000000005</ele><time>2026-04-19T09:15:42.971Z</time></trkpt><trkpt lat="43.4545239" lon="11.3771595"><ele>478.40000000000003</ele><time>2026-04-19T09:15:44.969Z</time></trkpt><trkpt lat="43.4544598" lon="11.377045"><ele>479.6</ele><time>2026-04-19T09:15:46.981Z</time></trkpt><trkpt lat="43.454377" lon="11.3769114"><ele>480.8</ele><time>2026-04-19T09:15:48.986Z</time></trkpt><trkpt lat="43.4543214" lon="11.376842"><ele>482.0</ele><time>2026-04-19T09:15:49.971Z</time></trkpt><trkpt lat="43.4542582" lon="11.3767687"><ele>481.99999999999994</ele><time>2026-04-19T09:15:50.972Z</time></trkpt><trkpt lat="43.4541996" lon="11.3767053"><ele>482.0</ele><time>2026-04-19T09:15:51.975Z</time></trkpt><trkpt lat="43.4541333" lon="11.3766338"><ele>482.0</ele><time>2026-04-19T09:15:52.968Z</time></trkpt><trkpt lat="43.4540801" lon="11.3765584"><ele>482.0</ele><time>2026-04-19T09:15:53.977Z</time></trkpt><trkpt lat="43.4540279" lon="11.3764802"><ele>481.99999999999994</ele><time>2026-04-19T09:15:54.965Z</time></trkpt><trkpt lat="43.4539743" lon="11.3764101"><ele>482.0</ele><time>2026-04-19T09:15:55.972Z</time></trkpt><trkpt lat="43.4539156" lon="11.3763494"><ele>482.8571428571429</ele><time>2026-04-19T09:15:56.97Z</time></trkpt><trkpt lat="43.453852" lon="11.3762749"><ele>483.7142857142858</ele><time>2026-04-19T09:15:57.966Z</time></trkpt><trkpt lat="43.4537929" lon="11.3762056"><ele>484.57142857142856</ele><time>2026-04-19T09:15:58.964Z</time></trkpt><trkpt lat="43.4537392" lon="11.3761388"><ele>485.42857142857144</ele><time>2026-04-19T09:15:59.972Z</time></trkpt><trkpt lat="43.4536898" lon="11.3760609"><ele>486.2857142857143</ele><time>2026-04-19T09:16:00.966Z</time></trkpt><trkpt lat="43.4536501" lon="11.3759865"><ele>487.1428571428571</ele><time>2026-04-19T09:16:01.965Z</time></trkpt><trkpt lat="43.4536124" lon="11.375914"><ele>487.99999999999994</ele><time>2026-04-19T09:16:02.975Z</time></trkpt><trkpt lat="43.4535742" lon="11.3758342"><ele>488.4</ele><time>2026-04-19T09:16:03.966Z</time></trkpt><trkpt lat="43.4535366" lon="11.3757635"><ele>488.79999999999995</ele><time>2026-04-19T09:16:04.967Z</time></trkpt><trkpt lat="43.4534897" lon="11.375625"><ele>489.2</ele><time>2026-04-19T09:16:06.967Z</time></trkpt><trkpt lat="43.4534608" lon="11.3754816"><ele>489.6</ele><time>2026-04-19T09:16:08.981Z</time></trkpt><trkpt lat="43.4534671" lon="11.3753218"><ele>490.0</ele><time>2026-04-19T09:16:10.97Z</time></trkpt><trkpt lat="43.4534843" lon="11.3752329"><ele>492.1666666666667</ele><time>2026-04-19T09:16:11.97Z</time></trkpt><trkpt lat="43.4535081" lon="11.3751418"><ele>494.33333333333337</ele><time>2026-04-19T09:16:12.971Z</time></trkpt><trkpt lat="43.4535287" lon="11.3750479"><ele>496.5</ele><time>2026-04-19T09:16:13.973Z</time></trkpt><trkpt lat="43.4535433" lon="11.3749624"><ele>498.66666666666663</ele><time>2026-04-19T09:16:14.972Z</time></trkpt><trkpt lat="43.4535239" lon="11.3748282"><ele>500.8333333333333</ele><time>2026-04-19T09:16:16.969Z</time></trkpt><trkpt lat="43.4534752" lon="11.3747565"><ele>503.0</ele><time>2026-04-19T09:16:18.968Z</time></trkpt><trkpt lat="43.4533724" lon="11.3746925"><ele>503.3333333333333</ele><time>2026-04-19T09:16:20.964Z</time></trkpt><trkpt lat="43.4533105" lon="11.3746553"><ele>503.66666666666663</ele><time>2026-04-19T09:16:21.967Z</time></trkpt><trkpt lat="43.4532376" lon="11.3746057"><ele>504.0</ele><time>2026-04-19T09:16:22.971Z</time></trkpt><trkpt lat="43.4531532" lon="11.3745551"><ele>504.33333333333337</ele><time>2026-04-19T09:16:23.977Z</time></trkpt><trkpt lat="43.4530758" lon="11.3744977"><ele>504.6666666666667</ele><time>2026-04-19T09:16:24.965Z</time></trkpt><trkpt lat="43.4530024" lon="11.3744551"><ele>505.0</ele><time>2026-04-19T09:16:25.966Z</time></trkpt><trkpt lat="43.4529227" lon="11.3744173"><ele>504.4285714285714</ele><time>2026-04-19T09:16:26.97Z</time></trkpt><trkpt lat="43.4528474" lon="11.3743943"><ele>503.8571428571428</ele><time>2026-04-19T09:16:27.969Z</time></trkpt><trkpt lat="43.4527832" lon="11.3743762"><ele>503.2857142857143</ele><time>2026-04-19T09:16:28.972Z</time></trkpt><trkpt lat="43.4527218" lon="11.3743539"><ele>502.71428571428567</ele><time>2026-04-19T09:16:29.969Z</time></trkpt><trkpt lat="43.4526632" lon="11.3743129"><ele>502.1428571428571</ele><time>2026-04-19T09:16:30.973Z</time></trkpt><trkpt lat="43.4526048" lon="11.3742601"><ele>501.57142857142856</ele><time>2026-04-19T09:16:31.97Z</time></trkpt><trkpt lat="43.452538" lon="11.3741972"><ele>501.0</ele><time>2026-04-19T09:16:32.973Z</time></trkpt><trkpt lat="43.4524651" lon="11.3741135"><ele>501.0</ele><time>2026-04-19T09:16:33.976Z</time></trkpt><trkpt lat="43.4523916" lon="11.3740239"><ele>501.0</ele><time>2026-04-19T09:16:34.96Z</time></trkpt><trkpt lat="43.4523176" lon="11.373927"><ele>501.0</ele><time>2026-04-19T09:16:35.971Z</time></trkpt><trkpt lat="43.4522266" lon="11.3738299"><ele>501.0</ele><time>2026-04-19T09:16:36.969Z</time></trkpt><trkpt lat="43.4521315" lon="11.3737242"><ele>501.0</ele><time>2026-04-19T09:16:37.966Z</time></trkpt><trkpt lat="43.4520235" lon="11.3735997"><ele>500.5</ele><time>2026-04-19T09:16:38.973Z</time></trkpt><trkpt lat="43.4519055" lon="11.3734761"><ele>500.0</ele><time>2026-04-19T09:16:39.967Z</time></trkpt><trkpt lat="43.4518005" lon="11.3733631"><ele>499.5</ele><time>2026-04-19T09:16:40.976Z</time></trkpt><trkpt lat="43.4517157" lon="11.373265"><ele>499.0</ele><time>2026-04-19T09:16:41.968Z</time></trkpt><trkpt lat="43.4516425" lon="11.3731777"><ele>499.00000000000006</ele><time>2026-04-19T09:16:42.968Z</time></trkpt><trkpt lat="43.4515747" lon="11.3731067"><ele>499.0</ele><time>2026-04-19T09:16:43.974Z</time></trkpt><trkpt lat="43.451516" lon="11.3730337"><ele>499.0</ele><time>2026-04-19T09:16:44.967Z</time></trkpt><trkpt lat="43.4514588" lon="11.3729512"><ele>499.0</ele><time>2026-04-19T09:16:45.972Z</time></trkpt><trkpt lat="43.4514034" lon="11.3728871"><ele>499.00000000000006</ele><time>2026-04-19T09:16:46.965Z</time></trkpt><trkpt lat="43.4513453" lon="11.3728338"><ele>499.0</ele><time>2026-04-19T09:16:47.969Z</time></trkpt><trkpt lat="43.4513035" lon="11.3727662"><ele>498.50000000000006</ele><time>2026-04-19T09:16:48.977Z</time></trkpt><trkpt lat="43.451261" lon="11.3726965"><ele>498.0</ele><time>2026-04-19T09:16:49.974Z</time></trkpt><trkpt lat="43.4512079" lon="11.3726125"><ele>497.5</ele><time>2026-04-19T09:16:50.966Z</time></trkpt><trkpt lat="43.4511577" lon="11.3725078"><ele>497.0</ele><time>2026-04-19T09:16:51.973Z</time></trkpt><trkpt lat="43.4510985" lon="11.3723981"><ele>496.50000000000006</ele><time>2026-04-19T09:16:52.969Z</time></trkpt><trkpt lat="43.4510335" lon="11.3722969"><ele>496.0</ele><time>2026-04-19T09:16:53.968Z</time></trkpt><trkpt lat="43.4509771" lon="11.3721874"><ele>496.00000000000006</ele><time>2026-04-19T09:16:54.969Z</time></trkpt><trkpt lat="43.4509344" lon="11.3720988"><ele>496.0</ele><time>2026-04-19T09:16:55.967Z</time></trkpt><trkpt lat="43.4508902" lon="11.3720338"><ele>496.0</ele><time>2026-04-19T09:16:56.966Z</time></trkpt><trkpt lat="43.4508458" lon="11.3719657"><ele>496.0</ele><time>2026-04-19T09:16:57.966Z</time></trkpt><trkpt lat="43.4507894" lon="11.3718052"><ele>496.00000000000006</ele><time>2026-04-19T09:16:59.964Z</time></trkpt><trkpt lat="43.4507725" lon="11.3716958"><ele>496.0</ele><time>2026-04-19T09:17:00.965Z</time></trkpt><trkpt lat="43.4507572" lon="11.3715763"><ele>496.00000000000006</ele><time>2026-04-19T09:17:01.97Z</time></trkpt><trkpt lat="43.4507284" lon="11.3714724"><ele>496.0</ele><time>2026-04-19T09:17:02.965Z</time></trkpt><trkpt lat="43.450697" lon="11.3713777"><ele>496.0</ele><time>2026-04-19T09:17:03.974Z</time></trkpt><trkpt lat="43.4506672" lon="11.3712968"><ele>496.0</ele><time>2026-04-19T09:17:04.979Z</time></trkpt><trkpt lat="43.4506462" lon="11.3711157"><ele>496.00000000000006</ele><time>2026-04-19T09:17:06.97Z</time></trkpt><trkpt lat="43.4506278" lon="11.3710166"><ele>496.0</ele><time>2026-04-19T09:17:07.967Z</time></trkpt><trkpt lat="43.4505897" lon="11.3709007"><ele>495.33333333333337</ele><time>2026-04-19T09:17:08.971Z</time></trkpt><trkpt lat="43.4505412" lon="11.370784"><ele>494.6666666666667</ele><time>2026-04-19T09:17:09.965Z</time></trkpt><trkpt lat="43.4504909" lon="11.3706795"><ele>494.0</ele><time>2026-04-19T09:17:10.973Z</time></trkpt><trkpt lat="43.4504421" lon="11.370588"><ele>493.33333333333337</ele><time>2026-04-19T09:17:11.964Z</time></trkpt><trkpt lat="43.450389" lon="11.3704988"><ele>492.6666666666667</ele><time>2026-04-19T09:17:12.968Z</time></trkpt><trkpt lat="43.4503375" lon="11.3704204"><ele>492.0</ele><time>2026-04-19T09:17:13.967Z</time></trkpt><trkpt lat="43.4502848" lon="11.3703522"><ele>491.20000000000005</ele><time>2026-04-19T09:17:14.971Z</time></trkpt><trkpt lat="43.4502403" lon="11.3702679"><ele>490.40000000000003</ele><time>2026-04-19T09:17:15.978Z</time></trkpt><trkpt lat="43.4501995" lon="11.3701803"><ele>489.59999999999997</ele><time>2026-04-19T09:17:16.99Z</time></trkpt><trkpt lat="43.4501472" lon="11.3700382"><ele>488.79999999999995</ele><time>2026-04-19T09:17:18.961Z</time></trkpt><trkpt lat="43.4500925" lon="11.3699258"><ele>488.0</ele><time>2026-04-19T09:17:20.966Z</time></trkpt><trkpt lat="43.4500351" lon="11.369816"><ele>487.99999999999994</ele><time>2026-04-19T09:17:22.983Z</time></trkpt><trkpt lat="43.4499824" lon="11.3697577"><ele>488.0</ele><time>2026-04-19T09:17:23.971Z</time></trkpt><trkpt lat="43.4499261" lon="11.3696892"><ele>488.0</ele><time>2026-04-19T09:17:24.966Z</time></trkpt><trkpt lat="43.4498735" lon="11.3696297"><ele>488.0</ele><time>2026-04-19T09:17:25.98Z</time></trkpt><trkpt lat="43.4498025" lon="11.3695114"><ele>487.99999999999994</ele><time>2026-04-19T09:17:27.967Z</time></trkpt><trkpt lat="43.4497512" lon="11.3694066"><ele>488.0</ele><time>2026-04-19T09:17:29.972Z</time></trkpt><trkpt lat="43.4496857" lon="11.3693526"><ele>486.5714285714285</ele><time>2026-04-19T09:17:31.968Z</time></trkpt><trkpt lat="43.4496119" lon="11.3693197"><ele>485.1428571428571</ele><time>2026-04-19T09:17:33.968Z</time></trkpt><trkpt lat="43.4495595" lon="11.3692643"><ele>483.7142857142857</ele><time>2026-04-19T09:17:35.984Z</time></trkpt><trkpt lat="43.4495005" lon="11.3691887"><ele>482.2857142857143</ele><time>2026-04-19T09:17:38.965Z</time></trkpt><trkpt lat="43.4494342" lon="11.3691785"><ele>480.8571428571429</ele><time>2026-04-19T09:17:40.974Z</time></trkpt><trkpt lat="43.4493575" lon="11.3691884"><ele>479.4285714285715</ele><time>2026-04-19T09:17:42.965Z</time></trkpt><trkpt lat="43.4492941" lon="11.3691856"><ele>478.00000000000006</ele><time>2026-04-19T09:17:53.969Z</time></trkpt><trkpt lat="43.4493865" lon="11.3692158"><ele>478.00000000000006</ele><time>2026-04-19T09:18:51.972Z</time></trkpt><trkpt lat="43.4494803" lon="11.3692019"><ele>478.0</ele><time>2026-04-19T09:18:53.968Z</time></trkpt><trkpt lat="43.4495569" lon="11.3692072"><ele>478.00000000000006</ele><time>2026-04-19T09:18:56.969Z</time></trkpt><trkpt lat="43.4495697" lon="11.3693025"><ele>478.00000000000006</ele><time>2026-04-19T09:19:04.969Z</time></trkpt><trkpt lat="43.4495612" lon="11.3692116"><ele>478.0</ele><time>2026-04-19T09:19:13.976Z</time></trkpt><trkpt lat="43.4495064" lon="11.3691461"><ele>478.00000000000006</ele><time>2026-04-19T09:19:19.968Z</time></trkpt><trkpt lat="43.4494712" lon="11.3690664"><ele>478.00000000000006</ele><time>2026-04-19T09:19:22.984Z</time></trkpt><trkpt lat="43.4494098" lon="11.3690146"><ele>478.00000000000006</ele><time>2026-04-19T09:19:24.969Z</time></trkpt><trkpt lat="43.4493464" lon="11.3690095"><ele>478.0</ele><time>2026-04-19T09:19:26.968Z</time></trkpt><trkpt lat="43.4492808" lon="11.3690127"><ele>478.0</ele><time>2026-04-19T09:19:28.971Z</time></trkpt><trkpt lat="43.4492054" lon="11.3690277"><ele>478.0</ele><time>2026-04-19T09:19:31.984Z</time></trkpt><trkpt lat="43.4491908" lon="11.3689287"><ele>478.00000000000006</ele><time>2026-04-19T09:19:34.974Z</time></trkpt><trkpt lat="43.4492046" lon="11.3687845"><ele>478.0</ele><time>2026-04-19T09:19:36.978Z</time></trkpt><trkpt lat="43.449216" lon="11.3686953"><ele>476.79999999999995</ele><time>2026-04-19T09:19:37.98Z</time></trkpt><trkpt lat="43.4492633" lon="11.368553"><ele>475.59999999999997</ele><time>2026-04-19T09:19:39.974Z</time></trkpt><trkpt lat="43.4492714" lon="11.3684032"><ele>474.40000000000003</ele><time>2026-04-19T09:19:41.967Z</time></trkpt><trkpt lat="43.4492415" lon="11.368264"><ele>473.20000000000005</ele><time>2026-04-19T09:19:43.968Z</time></trkpt><trkpt lat="43.4492283" lon="11.3681516"><ele>472.0</ele><time>2026-04-19T09:19:45.967Z</time></trkpt><trkpt lat="43.4492247" lon="11.3680476"><ele>469.6666666666667</ele><time>2026-04-19T09:19:47.974Z</time></trkpt><trkpt lat="43.4492054" lon="11.3679162"><ele>467.33333333333337</ele><time>2026-04-19T09:19:49.97Z</time></trkpt><trkpt lat="43.4491594" lon="11.3677988"><ele>465.0</ele><time>2026-04-19T09:19:51.969Z</time></trkpt><trkpt lat="43.4491433" lon="11.3676895"><ele>462.66666666666663</ele><time>2026-04-19T09:19:53.967Z</time></trkpt><trkpt lat="43.4491825" lon="11.3675845"><ele>460.3333333333333</ele><time>2026-04-19T09:19:56.969Z</time></trkpt><trkpt lat="43.4492391" lon="11.3675348"><ele>458.0</ele><time>2026-04-19T09:19:58.973Z</time></trkpt><trkpt lat="43.4492959" lon="11.3674659"><ele>458.0</ele><time>2026-04-19T09:20:00.959Z</time></trkpt><trkpt lat="43.4493293" lon="11.3673275"><ele>457.99999999999994</ele><time>2026-04-19T09:20:02.979Z</time></trkpt><trkpt lat="43.4493272" lon="11.3671722"><ele>457.99999999999994</ele><time>2026-04-19T09:20:04.959Z</time></trkpt><trkpt lat="43.4493148" lon="11.3670243"><ele>458.0</ele><time>2026-04-19T09:20:06.967Z</time></trkpt><trkpt lat="43.449313" lon="11.3668742"><ele>458.0</ele><time>2026-04-19T09:20:08.973Z</time></trkpt><trkpt lat="43.4492965" lon="11.3667781"><ele>455.59999999999997</ele><time>2026-04-19T09:20:10.974Z</time></trkpt><trkpt lat="43.4492192" lon="11.3666872"><ele>453.19999999999993</ele><time>2026-04-19T09:20:12.965Z</time></trkpt><trkpt lat="43.4491186" lon="11.3666603"><ele>450.8</ele><time>2026-04-19T09:20:14.972Z</time></trkpt><trkpt lat="43.4490324" lon="11.3665838"><ele>448.4</ele><time>2026-04-19T09:20:16.973Z</time></trkpt><trkpt lat="43.4489662" lon="11.3665026"><ele>446.0</ele><time>2026-04-19T09:20:18.97Z</time></trkpt><trkpt lat="43.4488768" lon="11.3664598"><ele>445.99999999999994</ele><time>2026-04-19T09:20:20.967Z</time></trkpt><trkpt lat="43.4488062" lon="11.3664281"><ele>446.0</ele><time>2026-04-19T09:20:22.971Z</time></trkpt><trkpt lat="43.4487373" lon="11.36635"><ele>446.0</ele><time>2026-04-19T09:20:25.965Z</time></trkpt><trkpt lat="43.4486677" lon="11.3662947"><ele>446.0</ele><time>2026-04-19T09:20:28.971Z</time></trkpt><trkpt lat="43.4486312" lon="11.3661681"><ele>445.99999999999994</ele><time>2026-04-19T09:20:31.972Z</time></trkpt><trkpt lat="43.4485645" lon="11.3661156"><ele>446.0</ele><time>2026-04-19T09:20:33.971Z</time></trkpt><trkpt lat="43.4484466" lon="11.366192"><ele>444.8</ele><time>2026-04-19T09:20:35.969Z</time></trkpt><trkpt lat="43.4483765" lon="11.366255"><ele>443.6</ele><time>2026-04-19T09:20:36.974Z</time></trkpt><trkpt lat="43.4482933" lon="11.3663423"><ele>442.4</ele><time>2026-04-19T09:20:37.978Z</time></trkpt><trkpt lat="43.4482138" lon="11.366438"><ele>441.2</ele><time>2026-04-19T09:20:38.971Z</time></trkpt><trkpt lat="43.4481296" lon="11.3665286"><ele>440.0</ele><time>2026-04-19T09:20:39.988Z</time></trkpt><trkpt lat="43.4480505" lon="11.3666124"><ele>439.99999999999994</ele><time>2026-04-19T09:20:40.971Z</time></trkpt><trkpt lat="43.4479739" lon="11.3666713"><ele>440.0</ele><time>2026-04-19T09:20:41.977Z</time></trkpt><trkpt lat="43.4479039" lon="11.366712"><ele>440.0</ele><time>2026-04-19T09:20:42.973Z</time></trkpt><trkpt lat="43.4478206" lon="11.3667205"><ele>440.0</ele><time>2026-04-19T09:20:43.983Z</time></trkpt><trkpt lat="43.4477359" lon="11.3667193"><ele>439.99999999999994</ele><time>2026-04-19T09:20:44.968Z</time></trkpt><trkpt lat="43.4476566" lon="11.3667213"><ele>440.0</ele><time>2026-04-19T09:20:45.968Z</time></trkpt><trkpt lat="43.4475828" lon="11.3667153"><ele>437.71428571428567</ele><time>2026-04-19T09:20:46.98Z</time></trkpt><trkpt lat="43.4475169" lon="11.3666783"><ele>435.42857142857144</ele><time>2026-04-19T09:20:47.973Z</time></trkpt><trkpt lat="43.4474511" lon="11.3666518"><ele>433.1428571428571</ele><time>2026-04-19T09:20:48.995Z</time></trkpt><trkpt lat="43.4473844" lon="11.366642"><ele>430.85714285714283</ele><time>2026-04-19T09:20:49.978Z</time></trkpt><trkpt lat="43.4473105" lon="11.366641"><ele>428.57142857142856</ele><time>2026-04-19T09:20:50.968Z</time></trkpt><trkpt lat="43.4472334" lon="11.3666526"><ele>426.2857142857143</ele><time>2026-04-19T09:20:51.977Z</time></trkpt><trkpt lat="43.4471578" lon="11.3666727"><ele>424.0</ele><time>2026-04-19T09:20:52.972Z</time></trkpt><trkpt lat="43.4470835" lon="11.3666998"><ele>421.7142857142857</ele><time>2026-04-19T09:20:53.99Z</time></trkpt><trkpt lat="43.4470175" lon="11.3667256"><ele>419.4285714285714</ele><time>2026-04-19T09:20:54.973Z</time></trkpt><trkpt lat="43.4469451" lon="11.366762"><ele>417.1428571428571</ele><time>2026-04-19T09:20:55.971Z</time></trkpt><trkpt lat="43.4468771" lon="11.3667877"><ele>414.8571428571429</ele><time>2026-04-19T09:20:56.974Z</time></trkpt><trkpt lat="43.4468108" lon="11.3668123"><ele>412.57142857142856</ele><time>2026-04-19T09:20:57.969Z</time></trkpt><trkpt lat="43.4467332" lon="11.3668304"><ele>410.2857142857143</ele><time>2026-04-19T09:20:58.967Z</time></trkpt><trkpt lat="43.4466511" lon="11.3668394"><ele>408.0</ele><time>2026-04-19T09:20:59.967Z</time></trkpt><trkpt lat="43.4465676" lon="11.3668638"><ele>408.0</ele><time>2026-04-19T09:21:00.975Z</time></trkpt><trkpt lat="43.4464884" lon="11.3668996"><ele>408.0</ele><time>2026-04-19T09:21:01.992Z</time></trkpt><trkpt lat="43.4464111" lon="11.3669295"><ele>408.0</ele><time>2026-04-19T09:21:02.98Z</time></trkpt><trkpt lat="43.4463288" lon="11.3669556"><ele>408.0</ele><time>2026-04-19T09:21:03.973Z</time></trkpt><trkpt lat="43.446251" lon="11.3669842"><ele>408.0</ele><time>2026-04-19T09:21:04.978Z</time></trkpt><trkpt lat="43.4461765" lon="11.3670192"><ele>408.0</ele><time>2026-04-19T09:21:05.976Z</time></trkpt><trkpt lat="43.4461105" lon="11.3670804"><ele>406.0</ele><time>2026-04-19T09:21:06.978Z</time></trkpt><trkpt lat="43.4460598" lon="11.3671487"><ele>404.0</ele><time>2026-04-19T09:21:07.972Z</time></trkpt><trkpt lat="43.4460135" lon="11.367234"><ele>402.0</ele><time>2026-04-19T09:21:08.973Z</time></trkpt><trkpt lat="43.4459744" lon="11.3673315"><ele>400.0</ele><time>2026-04-19T09:21:09.968Z</time></trkpt><trkpt lat="43.4459542" lon="11.3674316"><ele>398.0</ele><time>2026-04-19T09:21:10.968Z</time></trkpt><trkpt lat="43.4459422" lon="11.3675358"><ele>396.0</ele><time>2026-04-19T09:21:11.964Z</time></trkpt><trkpt lat="43.4459495" lon="11.3676349"><ele>396.0</ele><time>2026-04-19T09:21:12.971Z</time></trkpt><trkpt lat="43.4459703" lon="11.3677578"><ele>396.0</ele><time>2026-04-19T09:21:13.971Z</time></trkpt><trkpt lat="43.4460156" lon="11.3679096"><ele>396.0</ele><time>2026-04-19T09:21:14.976Z</time></trkpt><trkpt lat="43.4460665" lon="11.3680651"><ele>396.0</ele><time>2026-04-19T09:21:15.973Z</time></trkpt><trkpt lat="43.4461157" lon="11.3682216"><ele>395.4</ele><time>2026-04-19T09:21:16.969Z</time></trkpt><trkpt lat="43.4461594" lon="11.3683818"><ele>394.8</ele><time>2026-04-19T09:21:17.968Z</time></trkpt><trkpt lat="43.4462018" lon="11.3685326"><ele>394.2</ele><time>2026-04-19T09:21:18.972Z</time></trkpt><trkpt lat="43.4462309" lon="11.3686715"><ele>393.59999999999997</ele><time>2026-04-19T09:21:19.97Z</time></trkpt><trkpt lat="43.4462604" lon="11.368792"><ele>393.0</ele><time>2026-04-19T09:21:20.976Z</time></trkpt><trkpt lat="43.4462663" lon="11.3689079"><ele>394.3333333333333</ele><time>2026-04-19T09:21:21.972Z</time></trkpt><trkpt lat="43.4462782" lon="11.3690208"><ele>395.66666666666663</ele><time>2026-04-19T09:21:22.97Z</time></trkpt><trkpt lat="43.4462957" lon="11.3691395"><ele>397.0</ele><time>2026-04-19T09:21:23.967Z</time></trkpt><trkpt lat="43.4463254" lon="11.369256"><ele>398.3333333333333</ele><time>2026-04-19T09:21:24.963Z</time></trkpt><trkpt lat="43.4463816" lon="11.3693785"><ele>399.66666666666663</ele><time>2026-04-19T09:21:25.97Z</time></trkpt><trkpt lat="43.4464229" lon="11.369476"><ele>401.0</ele><time>2026-04-19T09:21:26.967Z</time></trkpt><trkpt lat="43.4464479" lon="11.36958"><ele>401.16666666666663</ele><time>2026-04-19T09:21:27.982Z</time></trkpt><trkpt lat="43.4464526" lon="11.3696836"><ele>401.3333333333333</ele><time>2026-04-19T09:21:28.963Z</time></trkpt><trkpt lat="43.4464313" lon="11.3697707"><ele>401.5</ele><time>2026-04-19T09:21:29.969Z</time></trkpt><trkpt lat="43.4463885" lon="11.3698367"><ele>401.66666666666663</ele><time>2026-04-19T09:21:30.964Z</time></trkpt><trkpt lat="43.4463295" lon="11.3698766"><ele>401.8333333333333</ele><time>2026-04-19T09:21:31.963Z</time></trkpt><trkpt lat="43.4462293" lon="11.3698945"><ele>402.0</ele><time>2026-04-19T09:21:33.967Z</time></trkpt><trkpt lat="43.4461463" lon="11.3697877"><ele>401.8333333333333</ele><time>2026-04-19T09:21:35.985Z</time></trkpt><trkpt lat="43.446094" lon="11.3697092"><ele>401.66666666666663</ele><time>2026-04-19T09:21:36.972Z</time></trkpt><trkpt lat="43.4460361" lon="11.3696382"><ele>401.5</ele><time>2026-04-19T09:21:37.973Z</time></trkpt><trkpt lat="43.4459568" lon="11.3696018"><ele>401.3333333333333</ele><time>2026-04-19T09:21:38.974Z</time></trkpt><trkpt lat="43.4458837" lon="11.3695818"><ele>401.16666666666663</ele><time>2026-04-19T09:21:39.979Z</time></trkpt><trkpt lat="43.4458123" lon="11.3695551"><ele>401.0</ele><time>2026-04-19T09:21:40.978Z</time></trkpt><trkpt lat="43.4457387" lon="11.369517"><ele>401.0</ele><time>2026-04-19T09:21:41.967Z</time></trkpt><trkpt lat="43.4456637" lon="11.3694508"><ele>401.0</ele><time>2026-04-19T09:21:42.968Z</time></trkpt><trkpt lat="43.445585" lon="11.3693643"><ele>401.0</ele><time>2026-04-19T09:21:43.969Z</time></trkpt><trkpt lat="43.445497" lon="11.3692804"><ele>401.0</ele><time>2026-04-19T09:21:44.971Z</time></trkpt><trkpt lat="43.4453946" lon="11.369199"><ele>401.0</ele><time>2026-04-19T09:21:45.965Z</time></trkpt><trkpt lat="43.445287" lon="11.3691249"><ele>405.0</ele><time>2026-04-19T09:21:46.971Z</time></trkpt><trkpt lat="43.4451772" lon="11.3690602"><ele>409.0</ele><time>2026-04-19T09:21:47.97Z</time></trkpt><trkpt lat="43.4450828" lon="11.3690113"><ele>413.0</ele><time>2026-04-19T09:21:48.968Z</time></trkpt><trkpt lat="43.4449806" lon="11.3689877"><ele>417.0</ele><time>2026-04-19T09:21:49.973Z</time></trkpt><trkpt lat="43.4448853" lon="11.3689673"><ele>421.0</ele><time>2026-04-19T09:21:50.962Z</time></trkpt><trkpt lat="43.4447843" lon="11.3689452"><ele>421.00000000000006</ele><time>2026-04-19T09:21:51.97Z</time></trkpt><trkpt lat="43.4446843" lon="11.3689262"><ele>421.0</ele><time>2026-04-19T09:21:52.971Z</time></trkpt><trkpt lat="43.4445932" lon="11.3689173"><ele>421.0</ele><time>2026-04-19T09:21:53.969Z</time></trkpt><trkpt lat="43.4445165" lon="11.3689097"><ele>421.0</ele><time>2026-04-19T09:21:54.967Z</time></trkpt><trkpt lat="43.4444474" lon="11.3688753"><ele>421.00000000000006</ele><time>2026-04-19T09:21:55.963Z</time></trkpt><trkpt lat="43.4443888" lon="11.3687913"><ele>421.0</ele><time>2026-04-19T09:21:56.966Z</time></trkpt><trkpt lat="43.4443174" lon="11.3686581"><ele>422.5</ele><time>2026-04-19T09:21:57.962Z</time></trkpt><trkpt lat="43.444244" lon="11.3685149"><ele>424.0</ele><time>2026-04-19T09:21:58.962Z</time></trkpt><trkpt lat="43.4441779" lon="11.3683747"><ele>425.5</ele><time>2026-04-19T09:21:59.962Z</time></trkpt><trkpt lat="43.4441285" lon="11.3682136"><ele>427.0</ele><time>2026-04-19T09:22:00.96Z</time></trkpt><trkpt lat="43.4440772" lon="11.3680656"><ele>426.6</ele><time>2026-04-19T09:22:01.971Z</time></trkpt><trkpt lat="43.4440407" lon="11.3679218"><ele>426.20000000000005</ele><time>2026-04-19T09:22:02.957Z</time></trkpt><trkpt lat="43.4440019" lon="11.3678149"><ele>425.8</ele><time>2026-04-19T09:22:03.959Z</time></trkpt><trkpt lat="43.4439589" lon="11.3677005"><ele>425.4</ele><time>2026-04-19T09:22:05.972Z</time></trkpt><trkpt lat="43.4438646" lon="11.3677108"><ele>425.0</ele><time>2026-04-19T09:22:08.966Z</time></trkpt><trkpt lat="43.4438288" lon="11.3678295"><ele>425.0</ele><time>2026-04-19T09:22:10.968Z</time></trkpt><trkpt lat="43.4438101" lon="11.3679302"><ele>425.0</ele><time>2026-04-19T09:22:11.966Z</time></trkpt><trkpt lat="43.4437998" lon="11.3680416"><ele>425.0</ele><time>2026-04-19T09:22:12.983Z</time></trkpt><trkpt lat="43.4437877" lon="11.3681767"><ele>425.0</ele><time>2026-04-19T09:22:13.961Z</time></trkpt><trkpt lat="43.4437765" lon="11.3683278"><ele>425.0</ele><time>2026-04-19T09:22:14.977Z</time></trkpt><trkpt lat="43.4437735" lon="11.3684853"><ele>428.0</ele><time>2026-04-19T09:22:15.97Z</time></trkpt><trkpt lat="43.4437656" lon="11.3686407"><ele>431.0</ele><time>2026-04-19T09:22:16.967Z</time></trkpt><trkpt lat="43.4437563" lon="11.3687968"><ele>434.0</ele><time>2026-04-19T09:22:17.97Z</time></trkpt><trkpt lat="43.4437426" lon="11.3689713"><ele>437.0</ele><time>2026-04-19T09:22:18.963Z</time></trkpt><trkpt lat="43.4437234" lon="11.3691478"><ele>439.5</ele><time>2026-04-19T09:22:19.967Z</time></trkpt><trkpt lat="43.4437029" lon="11.3693251"><ele>442.0</ele><time>2026-04-19T09:22:20.971Z</time></trkpt><trkpt lat="43.4436937" lon="11.3695051"><ele>444.5</ele><time>2026-04-19T09:22:21.97Z</time></trkpt><trkpt lat="43.4436926" lon="11.3696916"><ele>447.0</ele><time>2026-04-19T09:22:22.967Z</time></trkpt><trkpt lat="43.4436942" lon="11.3698714"><ele>447.8</ele><time>2026-04-19T09:22:23.968Z</time></trkpt><trkpt lat="43.4437153" lon="11.3700161"><ele>448.6</ele><time>2026-04-19T09:22:24.965Z</time></trkpt><trkpt lat="43.4437501" lon="11.3701153"><ele>449.40000000000003</ele><time>2026-04-19T09:22:25.96Z</time></trkpt><trkpt lat="43.4438041" lon="11.3701884"><ele>450.20000000000005</ele><time>2026-04-19T09:22:26.965Z</time></trkpt><trkpt lat="43.4438804" lon="11.3702498"><ele>451.0</ele><time>2026-04-19T09:22:27.967Z</time></trkpt><trkpt lat="43.4439819" lon="11.3703216"><ele>451.0</ele><time>2026-04-19T09:22:28.967Z</time></trkpt><trkpt lat="43.4440756" lon="11.3704157"><ele>451.0</ele><time>2026-04-19T09:22:29.967Z</time></trkpt><trkpt lat="43.4441548" lon="11.370514"><ele>451.0</ele><time>2026-04-19T09:22:30.964Z</time></trkpt><trkpt lat="43.444211" lon="11.3706122"><ele>451.0</ele><time>2026-04-19T09:22:31.96Z</time></trkpt><trkpt lat="43.4442634" lon="11.3706972"><ele>451.0</ele><time>2026-04-19T09:22:32.967Z</time></trkpt><trkpt lat="43.4442993" lon="11.3707806"><ele>453.33333333333337</ele><time>2026-04-19T09:22:33.974Z</time></trkpt><trkpt lat="43.444312" lon="11.3708691"><ele>455.6666666666667</ele><time>2026-04-19T09:22:34.97Z</time></trkpt><trkpt lat="43.4442729" lon="11.3709686"><ele>458.0</ele><time>2026-04-19T09:22:36.983Z</time></trkpt><trkpt lat="43.4442004" lon="11.3710354"><ele>460.33333333333337</ele><time>2026-04-19T09:22:38.966Z</time></trkpt><trkpt lat="43.444119" lon="11.371112"><ele>462.6666666666667</ele><time>2026-04-19T09:22:40.972Z</time></trkpt><trkpt lat="43.4440383" lon="11.3711721"><ele>465.0</ele><time>2026-04-19T09:22:42.97Z</time></trkpt><trkpt lat="43.4439691" lon="11.3712019"><ele>465.0</ele><time>2026-04-19T09:22:44.963Z</time></trkpt><trkpt lat="43.4439023" lon="11.3712549"><ele>465.0</ele><time>2026-04-19T09:22:46.958Z</time></trkpt><trkpt lat="43.4438536" lon="11.3713663"><ele>465.0</ele><time>2026-04-19T09:22:49.973Z</time></trkpt><trkpt lat="43.4438653" lon="11.3715017"><ele>465.0</ele><time>2026-04-19T09:22:51.97Z</time></trkpt><trkpt lat="43.4438638" lon="11.3715924"><ele>465.0</ele><time>2026-04-19T09:22:52.967Z</time></trkpt><trkpt lat="43.4438704" lon="11.3717035"><ele>465.0</ele><time>2026-04-19T09:22:53.97Z</time></trkpt><trkpt lat="43.4438776" lon="11.3718258"><ele>466.4</ele><time>2026-04-19T09:22:54.967Z</time></trkpt><trkpt lat="43.4438988" lon="11.3719401"><ele>467.8</ele><time>2026-04-19T09:22:55.969Z</time></trkpt><trkpt lat="43.4439199" lon="11.3720704"><ele>469.20000000000005</ele><time>2026-04-19T09:22:56.966Z</time></trkpt><trkpt lat="43.443944" lon="11.3721975"><ele>470.6</ele><time>2026-04-19T09:22:57.964Z</time></trkpt><trkpt lat="43.4439689" lon="11.3723294"><ele>472.0</ele><time>2026-04-19T09:22:58.97Z</time></trkpt><trkpt lat="43.4439923" lon="11.3724578"><ele>473.0</ele><time>2026-04-19T09:22:59.963Z</time></trkpt><trkpt lat="43.4440155" lon="11.3725907"><ele>474.00000000000006</ele><time>2026-04-19T09:23:00.969Z</time></trkpt><trkpt lat="43.444041" lon="11.3727359"><ele>475.00000000000006</ele><time>2026-04-19T09:23:01.97Z</time></trkpt><trkpt lat="43.4440733" lon="11.372893"><ele>476.0</ele><time>2026-04-19T09:23:02.969Z</time></trkpt><trkpt lat="43.444107" lon="11.3730394"><ele>477.0</ele><time>2026-04-19T09:23:03.973Z</time></trkpt><trkpt lat="43.4441324" lon="11.3731929"><ele>478.40000000000003</ele><time>2026-04-19T09:23:04.968Z</time></trkpt><trkpt lat="43.4441479" lon="11.3733239"><ele>479.80000000000007</ele><time>2026-04-19T09:23:05.97Z</time></trkpt><trkpt lat="43.4441521" lon="11.3734508"><ele>481.2</ele><time>2026-04-19T09:23:06.979Z</time></trkpt><trkpt lat="43.4441397" lon="11.3735886"><ele>482.6</ele><time>2026-04-19T09:23:07.972Z</time></trkpt><trkpt lat="43.4441084" lon="11.3737451"><ele>484.0</ele><time>2026-04-19T09:23:08.972Z</time></trkpt><trkpt lat="43.4440699" lon="11.3738979"><ele>485.4</ele><time>2026-04-19T09:23:09.973Z</time></trkpt><trkpt lat="43.4440339" lon="11.3740428"><ele>486.79999999999995</ele><time>2026-04-19T09:23:10.988Z</time></trkpt><trkpt lat="43.4440056" lon="11.3741964"><ele>488.20000000000005</ele><time>2026-04-19T09:23:11.968Z</time></trkpt><trkpt lat="43.4439753" lon="11.3743444"><ele>489.6</ele><time>2026-04-19T09:23:12.974Z</time></trkpt><trkpt lat="43.4439507" lon="11.3744826"><ele>491.0</ele><time>2026-04-19T09:23:13.967Z</time></trkpt><trkpt lat="43.4439372" lon="11.3746252"><ele>491.99999999999994</ele><time>2026-04-19T09:23:14.996Z</time></trkpt><trkpt lat="43.4439263" lon="11.3747409"><ele>493.0</ele><time>2026-04-19T09:23:15.967Z</time></trkpt><trkpt lat="43.4439236" lon="11.3748484"><ele>494.0</ele><time>2026-04-19T09:23:16.963Z</time></trkpt><trkpt lat="43.4439293" lon="11.3749451"><ele>495.0</ele><time>2026-04-19T09:23:17.974Z</time></trkpt><trkpt lat="43.4439431" lon="11.3750468"><ele>495.99999999999994</ele><time>2026-04-19T09:23:18.993Z</time></trkpt><trkpt lat="43.4439711" lon="11.3751478"><ele>497.0</ele><time>2026-04-19T09:23:19.968Z</time></trkpt><trkpt lat="43.444005" lon="11.3752349"><ele>497.0</ele><time>2026-04-19T09:23:20.969Z</time></trkpt><trkpt lat="43.4440938" lon="11.3753607"><ele>497.00000000000006</ele><time>2026-04-19T09:23:22.968Z</time></trkpt><trkpt lat="43.4441534" lon="11.3754107"><ele>497.00000000000006</ele><time>2026-04-19T09:23:23.971Z</time></trkpt><trkpt lat="43.4442292" lon="11.3754628"><ele>497.0</ele><time>2026-04-19T09:23:24.972Z</time></trkpt><trkpt lat="43.4443093" lon="11.3755128"><ele>497.0</ele><time>2026-04-19T09:23:25.97Z</time></trkpt><trkpt lat="43.4443918" lon="11.3755624"><ele>496.20000000000005</ele><time>2026-04-19T09:23:26.968Z</time></trkpt><trkpt lat="43.4444771" lon="11.375613"><ele>495.40000000000003</ele><time>2026-04-19T09:23:27.965Z</time></trkpt><trkpt lat="43.4445665" lon="11.3756675"><ele>494.59999999999997</ele><time>2026-04-19T09:23:28.966Z</time></trkpt><trkpt lat="43.4446712" lon="11.3757287"><ele>493.79999999999995</ele><time>2026-04-19T09:23:30.001Z</time></trkpt><trkpt lat="43.4447864" lon="11.3757964"><ele>493.0</ele><time>2026-04-19T09:23:30.972Z</time></trkpt><trkpt lat="43.4449058" lon="11.3758538"><ele>495.0</ele><time>2026-04-19T09:23:31.967Z</time></trkpt><trkpt lat="43.4450242" lon="11.3759167"><ele>497.0</ele><time>2026-04-19T09:23:32.975Z</time></trkpt><trkpt lat="43.4451468" lon="11.3759871"><ele>499.0</ele><time>2026-04-19T09:23:33.967Z</time></trkpt><trkpt lat="43.4452693" lon="11.3760658"><ele>501.0</ele><time>2026-04-19T09:23:34.974Z</time></trkpt><trkpt lat="43.4453918" lon="11.3761423"><ele>501.25</ele><time>2026-04-19T09:23:35.968Z</time></trkpt><trkpt lat="43.4455213" lon="11.3762234"><ele>501.5</ele><time>2026-04-19T09:23:36.97Z</time></trkpt><trkpt lat="43.4456389" lon="11.3762849"><ele>501.75</ele><time>2026-04-19T09:23:37.973Z</time></trkpt><trkpt lat="43.4457587" lon="11.3763511"><ele>502.0</ele><time>2026-04-19T09:23:38.966Z</time></trkpt><trkpt lat="43.4458753" lon="11.3764123"><ele>503.40000000000003</ele><time>2026-04-19T09:23:39.972Z</time></trkpt><trkpt lat="43.4459807" lon="11.3764694"><ele>504.80000000000007</ele><time>2026-04-19T09:23:40.967Z</time></trkpt><trkpt lat="43.4460708" lon="11.3765281"><ele>506.2</ele><time>2026-04-19T09:23:41.968Z</time></trkpt><trkpt lat="43.4461492" lon="11.3765872"><ele>507.6</ele><time>2026-04-19T09:23:42.976Z</time></trkpt><trkpt lat="43.4462166" lon="11.3766632"><ele>509.0</ele><time>2026-04-19T09:23:43.963Z</time></trkpt><trkpt lat="43.4462568" lon="11.376768"><ele>509.0</ele><time>2026-04-19T09:23:44.969Z</time></trkpt><trkpt lat="43.4462861" lon="11.3768698"><ele>509.0</ele><time>2026-04-19T09:23:45.967Z</time></trkpt><trkpt lat="43.4463233" lon="11.3770101"><ele>509.0</ele><time>2026-04-19T09:23:46.975Z</time></trkpt><trkpt lat="43.4463668" lon="11.3771707"><ele>509.0</ele><time>2026-04-19T09:23:47.974Z</time></trkpt><trkpt lat="43.4464151" lon="11.3773225"><ele>509.0</ele><time>2026-04-19T09:23:48.968Z</time></trkpt><trkpt lat="43.4464601" lon="11.3774522"><ele>510.49999999999994</ele><time>2026-04-19T09:23:49.963Z</time></trkpt><trkpt lat="43.4465007" lon="11.377575"><ele>512.0</ele><time>2026-04-19T09:23:50.972Z</time></trkpt><trkpt lat="43.4465374" lon="11.3776857"><ele>513.5</ele><time>2026-04-19T09:23:51.972Z</time></trkpt><trkpt lat="43.4465748" lon="11.3778006"><ele>515.0</ele><time>2026-04-19T09:23:52.966Z</time></trkpt><trkpt lat="43.4466038" lon="11.3778977"><ele>516.5</ele><time>2026-04-19T09:23:53.964Z</time></trkpt><trkpt lat="43.4466211" lon="11.3780029"><ele>518.0</ele><time>2026-04-19T09:23:54.973Z</time></trkpt><trkpt lat="43.446607" lon="11.3781106"><ele>518.8333333333333</ele><time>2026-04-19T09:23:55.971Z</time></trkpt><trkpt lat="43.4465831" lon="11.378208"><ele>519.6666666666666</ele><time>2026-04-19T09:23:56.968Z</time></trkpt><trkpt lat="43.4465514" lon="11.37829"><ele>520.5</ele><time>2026-04-19T09:23:57.977Z</time></trkpt><trkpt lat="43.4465133" lon="11.3783652"><ele>521.3333333333334</ele><time>2026-04-19T09:23:58.962Z</time></trkpt><trkpt lat="43.4464601" lon="11.3784495"><ele>522.1666666666667</ele><time>2026-04-19T09:23:59.991Z</time></trkpt><trkpt lat="43.4464255" lon="11.3785429"><ele>523.0</ele><time>2026-04-19T09:24:00.961Z</time></trkpt><trkpt lat="43.4464124" lon="11.3786654"><ele>523.0</ele><time>2026-04-19T09:24:01.968Z</time></trkpt><trkpt lat="43.4464077" lon="11.3788104"><ele>523.0</ele><time>2026-04-19T09:24:02.973Z</time></trkpt><trkpt lat="43.4464057" lon="11.3789701"><ele>523.0</ele><time>2026-04-19T09:24:03.968Z</time></trkpt><trkpt lat="43.4464057" lon="11.3791196"><ele>523.0</ele><time>2026-04-19T09:24:04.967Z</time></trkpt><trkpt lat="43.4463939" lon="11.3792571"><ele>523.0</ele><time>2026-04-19T09:24:05.971Z</time></trkpt><trkpt lat="43.4463814" lon="11.3793883"><ele>522.0</ele><time>2026-04-19T09:24:06.972Z</time></trkpt><trkpt lat="43.4463861" lon="11.3795344"><ele>521.0</ele><time>2026-04-19T09:24:07.982Z</time></trkpt><trkpt lat="43.4464158" lon="11.3796836"><ele>520.0</ele><time>2026-04-19T09:24:08.969Z</time></trkpt><trkpt lat="43.4464586" lon="11.3798363"><ele>519.0</ele><time>2026-04-19T09:24:09.981Z</time></trkpt><trkpt lat="43.4465062" lon="11.3799741"><ele>518.0</ele><time>2026-04-19T09:24:10.97Z</time></trkpt><trkpt lat="43.446558" lon="11.3800887"><ele>518.0</ele><time>2026-04-19T09:24:11.969Z</time></trkpt><trkpt lat="43.446597" lon="11.3801931"><ele>518.0</ele><time>2026-04-19T09:24:12.975Z</time></trkpt><trkpt lat="43.446629" lon="11.3802996"><ele>518.0</ele><time>2026-04-19T09:24:13.971Z</time></trkpt><trkpt lat="43.4466672" lon="11.3804256"><ele>518.0</ele><time>2026-04-19T09:24:14.97Z</time></trkpt><trkpt lat="43.4467087" lon="11.3805756"><ele>518.0</ele><time>2026-04-19T09:24:15.967Z</time></trkpt><trkpt lat="43.4467637" lon="11.3807506"><ele>518.6666666666666</ele><time>2026-04-19T09:24:16.967Z</time></trkpt><trkpt lat="43.4468232" lon="11.3809424"><ele>519.3333333333334</ele><time>2026-04-19T09:24:17.963Z</time></trkpt><trkpt lat="43.4468791" lon="11.3811396"><ele>520.0</ele><time>2026-04-19T09:24:18.971Z</time></trkpt><trkpt lat="43.4469341" lon="11.3813299"><ele>519.5</ele><time>2026-04-19T09:24:19.97Z</time></trkpt><trkpt lat="43.4469749" lon="11.3815232"><ele>519.0</ele><time>2026-04-19T09:24:20.988Z</time></trkpt><trkpt lat="43.447002" lon="11.3817127"><ele>518.5</ele><time>2026-04-19T09:24:21.969Z</time></trkpt><trkpt lat="43.4470285" lon="11.3818991"><ele>518.0</ele><time>2026-04-19T09:24:22.966Z</time></trkpt><trkpt lat="43.4470607" lon="11.3820791"><ele>517.75</ele><time>2026-04-19T09:24:23.97Z</time></trkpt><trkpt lat="43.4470939" lon="11.3822549"><ele>517.5</ele><time>2026-04-19T09:24:24.963Z</time></trkpt><trkpt lat="43.4471304" lon="11.38243"><ele>517.25</ele><time>2026-04-19T09:24:25.972Z</time></trkpt><trkpt lat="43.4471605" lon="11.3825874"><ele>517.0</ele><time>2026-04-19T09:24:26.966Z</time></trkpt><trkpt lat="43.4471903" lon="11.3827358"><ele>517.75</ele><time>2026-04-19T09:24:27.971Z</time></trkpt><trkpt lat="43.447234" lon="11.3828826"><ele>518.5</ele><time>2026-04-19T09:24:28.979Z</time></trkpt><trkpt lat="43.4472959" lon="11.3830079"><ele>519.25</ele><time>2026-04-19T09:24:29.972Z</time></trkpt><trkpt lat="43.4473694" lon="11.3831311"><ele>520.0</ele><time>2026-04-19T09:24:30.968Z</time></trkpt><trkpt lat="43.4474543" lon="11.38325"><ele>521.25</ele><time>2026-04-19T09:24:31.967Z</time></trkpt><trkpt lat="43.4475435" lon="11.3833718"><ele>522.5</ele><time>2026-04-19T09:24:32.972Z</time></trkpt><trkpt lat="43.44764" lon="11.3834955"><ele>523.75</ele><time>2026-04-19T09:24:33.967Z</time></trkpt><trkpt lat="43.4477374" lon="11.3836243"><ele>525.0</ele><time>2026-04-19T09:24:34.972Z</time></trkpt><trkpt lat="43.4478242" lon="11.3837483"><ele>524.8</ele><time>2026-04-19T09:24:35.968Z</time></trkpt><trkpt lat="43.4479045" lon="11.3838601"><ele>524.6</ele><time>2026-04-19T09:24:36.989Z</time></trkpt><trkpt lat="43.4479828" lon="11.3839551"><ele>524.4</ele><time>2026-04-19T09:24:37.971Z</time></trkpt><trkpt lat="43.4480752" lon="11.3840357"><ele>524.2</ele><time>2026-04-19T09:24:38.975Z</time></trkpt><trkpt lat="43.4481766" lon="11.3841"><ele>524.0</ele><time>2026-04-19T09:24:39.972Z</time></trkpt><trkpt lat="43.4482931" lon="11.3841557"><ele>524.0</ele><time>2026-04-19T09:24:40.966Z</time></trkpt><trkpt lat="43.448436" lon="11.3841974"><ele>524.0</ele><time>2026-04-19T09:24:41.982Z</time></trkpt><trkpt lat="43.4485791" lon="11.3842315"><ele>524.0</ele><time>2026-04-19T09:24:42.979Z</time></trkpt><trkpt lat="43.4487165" lon="11.3842826"><ele>524.0</ele><time>2026-04-19T09:24:43.97Z</time></trkpt><trkpt lat="43.4488406" lon="11.3843346"><ele>524.0</ele><time>2026-04-19T09:24:44.971Z</time></trkpt><trkpt lat="43.4489527" lon="11.3844037"><ele>524.0</ele><time>2026-04-19T09:24:45.956Z</time></trkpt><trkpt lat="43.4490667" lon="11.3844959"><ele>524.0</ele><time>2026-04-19T09:24:46.97Z</time></trkpt><trkpt lat="43.4491741" lon="11.3846244"><ele>524.0</ele><time>2026-04-19T09:24:47.988Z</time></trkpt><trkpt lat="43.4492922" lon="11.3847541"><ele>522.5</ele><time>2026-04-19T09:24:48.967Z</time></trkpt><trkpt lat="43.4494094" lon="11.3848838"><ele>521.0</ele><time>2026-04-19T09:24:49.968Z</time></trkpt><trkpt lat="43.4495119" lon="11.3850237"><ele>519.5</ele><time>2026-04-19T09:24:50.971Z</time></trkpt><trkpt lat="43.4495978" lon="11.3851698"><ele>518.0</ele><time>2026-04-19T09:24:51.97Z</time></trkpt><trkpt lat="43.4496652" lon="11.3853221"><ele>517.25</ele><time>2026-04-19T09:24:52.983Z</time></trkpt><trkpt lat="43.4497129" lon="11.3854704"><ele>516.5</ele><time>2026-04-19T09:24:53.97Z</time></trkpt><trkpt lat="43.449751" lon="11.3856293"><ele>515.75</ele><time>2026-04-19T09:24:54.971Z</time></trkpt><trkpt lat="43.4497683" lon="11.3857943"><ele>515.0</ele><time>2026-04-19T09:24:55.974Z</time></trkpt><trkpt lat="43.4497715" lon="11.3859802"><ele>514.25</ele><time>2026-04-19T09:24:56.977Z</time></trkpt><trkpt lat="43.4497508" lon="11.3861848"><ele>513.5</ele><time>2026-04-19T09:24:57.971Z</time></trkpt><trkpt lat="43.4497266" lon="11.3863856"><ele>512.75</ele><time>2026-04-19T09:24:58.976Z</time></trkpt><trkpt lat="43.4497144" lon="11.3865749"><ele>512.0</ele><time>2026-04-19T09:24:59.97Z</time></trkpt><trkpt lat="43.449716" lon="11.3867727"><ele>511.5</ele><time>2026-04-19T09:25:00.97Z</time></trkpt><trkpt lat="43.4497505" lon="11.3869654"><ele>511.0</ele><time>2026-04-19T09:25:01.992Z</time></trkpt><trkpt lat="43.4498094" lon="11.3871464"><ele>510.5</ele><time>2026-04-19T09:25:02.977Z</time></trkpt><trkpt lat="43.449875" lon="11.3873117"><ele>510.0</ele><time>2026-04-19T09:25:03.974Z</time></trkpt><trkpt lat="43.4499412" lon="11.3874775"><ele>510.0</ele><time>2026-04-19T09:25:04.99Z</time></trkpt><trkpt lat="43.4500137" lon="11.387651"><ele>510.0</ele><time>2026-04-19T09:25:05.973Z</time></trkpt><trkpt lat="43.450088" lon="11.3878247"><ele>510.0</ele><time>2026-04-19T09:25:06.982Z</time></trkpt><trkpt lat="43.4501681" lon="11.3880043"><ele>510.0</ele><time>2026-04-19T09:25:07.971Z</time></trkpt><trkpt lat="43.4502417" lon="11.3881836"><ele>509.75</ele><time>2026-04-19T09:25:08.978Z</time></trkpt><trkpt lat="43.450316" lon="11.3883578"><ele>509.5</ele><time>2026-04-19T09:25:09.972Z</time></trkpt><trkpt lat="43.4503881" lon="11.3885344"><ele>509.25</ele><time>2026-04-19T09:25:10.973Z</time></trkpt><trkpt lat="43.4504675" lon="11.3887129"><ele>509.0</ele><time>2026-04-19T09:25:11.97Z</time></trkpt><trkpt lat="43.4505459" lon="11.388891"><ele>511.3333333333333</ele><time>2026-04-19T09:25:12.971Z</time></trkpt><trkpt lat="43.4506183" lon="11.3890683"><ele>513.6666666666666</ele><time>2026-04-19T09:25:13.971Z</time></trkpt><trkpt lat="43.4506974" lon="11.3892455"><ele>516.0</ele><time>2026-04-19T09:25:14.974Z</time></trkpt><trkpt lat="43.450779" lon="11.3894251"><ele>516.0</ele><time>2026-04-19T09:25:15.97Z</time></trkpt><trkpt lat="43.4508559" lon="11.3896078"><ele>516.0</ele><time>2026-04-19T09:25:16.965Z</time></trkpt><trkpt lat="43.4509314" lon="11.3897904"><ele>516.0</ele><time>2026-04-19T09:25:17.969Z</time></trkpt><trkpt lat="43.4510056" lon="11.3899496"><ele>516.0</ele><time>2026-04-19T09:25:18.957Z</time></trkpt><trkpt lat="43.4510711" lon="11.3900847"><ele>517.0</ele><time>2026-04-19T09:25:19.962Z</time></trkpt><trkpt lat="43.4511372" lon="11.3902022"><ele>518.0</ele><time>2026-04-19T09:25:20.971Z</time></trkpt><trkpt lat="43.4512065" lon="11.3903085"><ele>519.0</ele><time>2026-04-19T09:25:21.968Z</time></trkpt><trkpt lat="43.4512753" lon="11.3904125"><ele>520.0</ele><time>2026-04-19T09:25:22.967Z</time></trkpt><trkpt lat="43.4513358" lon="11.3904997"><ele>521.0</ele><time>2026-04-19T09:25:23.959Z</time></trkpt><trkpt lat="43.4513891" lon="11.3906193"><ele>521.4</ele><time>2026-04-19T09:25:25.966Z</time></trkpt><trkpt lat="43.4514107" lon="11.390709"><ele>521.8</ele><time>2026-04-19T09:25:31.971Z</time></trkpt><trkpt lat="43.4513961" lon="11.3908435"><ele>522.1999999999999</ele><time>2026-04-19T09:25:33.972Z</time></trkpt><trkpt lat="43.4513654" lon="11.3909198"><ele>522.6</ele><time>2026-04-19T09:25:34.975Z</time></trkpt><trkpt lat="43.4512703" lon="11.3910674"><ele>523.0</ele><time>2026-04-19T09:25:36.973Z</time></trkpt><trkpt lat="43.4512133" lon="11.3911374"><ele>523.5</ele><time>2026-04-19T09:25:37.967Z</time></trkpt><trkpt lat="43.4511489" lon="11.3911947"><ele>524.0</ele><time>2026-04-19T09:25:38.964Z</time></trkpt><trkpt lat="43.4510688" lon="11.3912477"><ele>524.5</ele><time>2026-04-19T09:25:39.97Z</time></trkpt><trkpt lat="43.4509859" lon="11.3912847"><ele>525.0</ele><time>2026-04-19T09:25:40.965Z</time></trkpt><trkpt lat="43.4509161" lon="11.3913168"><ele>525.5</ele><time>2026-04-19T09:25:41.97Z</time></trkpt><trkpt lat="43.4508175" lon="11.3913696"><ele>526.0</ele><time>2026-04-19T09:25:43.969Z</time></trkpt><trkpt lat="43.4508425" lon="11.391483"><ele>524.7142857142857</ele><time>2026-04-19T09:25:46.971Z</time></trkpt><trkpt lat="43.4509046" lon="11.3915139"><ele>523.4285714285713</ele><time>2026-04-19T09:25:47.972Z</time></trkpt><trkpt lat="43.4509788" lon="11.3915447"><ele>522.1428571428571</ele><time>2026-04-19T09:25:48.967Z</time></trkpt><trkpt lat="43.4510508" lon="11.3915649"><ele>520.8571428571429</ele><time>2026-04-19T09:25:49.974Z</time></trkpt><trkpt lat="43.4511123" lon="11.3915892"><ele>519.5714285714287</ele><time>2026-04-19T09:25:50.959Z</time></trkpt><trkpt lat="43.4511728" lon="11.3916185"><ele>518.2857142857143</ele><time>2026-04-19T09:25:51.975Z</time></trkpt><trkpt lat="43.4512251" lon="11.3916669"><ele>517.0</ele><time>2026-04-19T09:25:52.987Z</time></trkpt><trkpt lat="43.4512709" lon="11.3917292"><ele>517.4</ele><time>2026-04-19T09:25:53.967Z</time></trkpt><trkpt lat="43.4513069" lon="11.3918015"><ele>517.8000000000001</ele><time>2026-04-19T09:25:54.973Z</time></trkpt><trkpt lat="43.4513365" lon="11.3919049"><ele>518.2</ele><time>2026-04-19T09:25:55.986Z</time></trkpt><trkpt lat="43.4513579" lon="11.3920345"><ele>518.6</ele><time>2026-04-19T09:25:56.967Z</time></trkpt><trkpt lat="43.451375" lon="11.3921775"><ele>519.0</ele><time>2026-04-19T09:25:57.967Z</time></trkpt><trkpt lat="43.4513964" lon="11.3923228"><ele>519.2</ele><time>2026-04-19T09:25:58.969Z</time></trkpt><trkpt lat="43.4514229" lon="11.3924685"><ele>519.4</ele><time>2026-04-19T09:25:59.979Z</time></trkpt><trkpt lat="43.4514515" lon="11.3926156"><ele>519.6</ele><time>2026-04-19T09:26:00.971Z</time></trkpt><trkpt lat="43.4514752" lon="11.3927698"><ele>519.8</ele><time>2026-04-19T09:26:01.994Z</time></trkpt><trkpt lat="43.4514944" lon="11.3929218"><ele>520.0</ele><time>2026-04-19T09:26:02.97Z</time></trkpt><trkpt lat="43.4515203" lon="11.3930724"><ele>521.4</ele><time>2026-04-19T09:26:03.971Z</time></trkpt><trkpt lat="43.4515458" lon="11.3932277"><ele>522.8</ele><time>2026-04-19T09:26:04.968Z</time></trkpt><trkpt lat="43.4515655" lon="11.3933787"><ele>524.2</ele><time>2026-04-19T09:26:05.975Z</time></trkpt><trkpt lat="43.4515883" lon="11.3935223"><ele>525.6</ele><time>2026-04-19T09:26:06.973Z</time></trkpt><trkpt lat="43.4516112" lon="11.3936655"><ele>527.0</ele><time>2026-04-19T09:26:07.969Z</time></trkpt><trkpt lat="43.4516382" lon="11.3938153"><ele>528.2</ele><time>2026-04-19T09:26:08.97Z</time></trkpt><trkpt lat="43.4516654" lon="11.3939589"><ele>529.4000000000001</ele><time>2026-04-19T09:26:09.974Z</time></trkpt><trkpt lat="43.4516936" lon="11.3940966"><ele>530.5999999999999</ele><time>2026-04-19T09:26:10.975Z</time></trkpt><trkpt lat="43.4517262" lon="11.3942381"><ele>531.8</ele><time>2026-04-19T09:26:11.978Z</time></trkpt><trkpt lat="43.4517595" lon="11.3943754"><ele>533.0</ele><time>2026-04-19T09:26:12.973Z</time></trkpt><trkpt lat="43.4517946" lon="11.394525"><ele>532.0</ele><time>2026-04-19T09:26:13.972Z</time></trkpt><trkpt lat="43.4518408" lon="11.3946758"><ele>531.0</ele><time>2026-04-19T09:26:14.963Z</time></trkpt><trkpt lat="43.4518857" lon="11.3948215"><ele>530.0</ele><time>2026-04-19T09:26:15.965Z</time></trkpt><trkpt lat="43.4519276" lon="11.3949421"><ele>529.0</ele><time>2026-04-19T09:26:16.968Z</time></trkpt><trkpt lat="43.4519631" lon="11.3950533"><ele>528.0</ele><time>2026-04-19T09:26:17.968Z</time></trkpt><trkpt lat="43.451989" lon="11.3951527"><ele>528.0</ele><time>2026-04-19T09:26:18.968Z</time></trkpt><trkpt lat="43.4519742" lon="11.3953124"><ele>528.0</ele><time>2026-04-19T09:26:20.964Z</time></trkpt><trkpt lat="43.4519462" lon="11.3953958"><ele>528.0</ele><time>2026-04-19T09:26:21.978Z</time></trkpt><trkpt lat="43.4519066" lon="11.3954979"><ele>528.0</ele><time>2026-04-19T09:26:22.971Z</time></trkpt><trkpt lat="43.4518697" lon="11.3955991"><ele>528.0</ele><time>2026-04-19T09:26:23.967Z</time></trkpt><trkpt lat="43.4518365" lon="11.3957029"><ele>528.0</ele><time>2026-04-19T09:26:24.97Z</time></trkpt><trkpt lat="43.4518055" lon="11.3958157"><ele>527.2857142857142</ele><time>2026-04-19T09:26:25.977Z</time></trkpt><trkpt lat="43.4517751" lon="11.3959269"><ele>526.5714285714286</ele><time>2026-04-19T09:26:26.965Z</time></trkpt><trkpt lat="43.4517506" lon="11.3960244"><ele>525.8571428571429</ele><time>2026-04-19T09:26:27.964Z</time></trkpt><trkpt lat="43.4517295" lon="11.3961232"><ele>525.1428571428571</ele><time>2026-04-19T09:26:28.973Z</time></trkpt><trkpt lat="43.451722" lon="11.3962142"><ele>524.4285714285714</ele><time>2026-04-19T09:26:29.975Z</time></trkpt><trkpt lat="43.4517467" lon="11.3962981"><ele>523.7142857142857</ele><time>2026-04-19T09:26:30.972Z</time></trkpt><trkpt lat="43.4517628" lon="11.3964043"><ele>523.0</ele><time>2026-04-19T09:26:31.966Z</time></trkpt><trkpt lat="43.4517787" lon="11.3965258"><ele>522.6</ele><time>2026-04-19T09:26:32.96Z</time></trkpt><trkpt lat="43.451798" lon="11.3966571"><ele>522.1999999999999</ele><time>2026-04-19T09:26:33.97Z</time></trkpt><trkpt lat="43.4518151" lon="11.3967797"><ele>521.8</ele><time>2026-04-19T09:26:34.974Z</time></trkpt><trkpt lat="43.4518267" lon="11.3969067"><ele>521.4</ele><time>2026-04-19T09:26:35.978Z</time></trkpt><trkpt lat="43.451838" lon="11.3970295"><ele>521.0</ele><time>2026-04-19T09:26:36.968Z</time></trkpt><trkpt lat="43.4518505" lon="11.3971612"><ele>520.1666666666666</ele><time>2026-04-19T09:26:37.964Z</time></trkpt><trkpt lat="43.4518587" lon="11.3972844"><ele>519.3333333333333</ele><time>2026-04-19T09:26:38.979Z</time></trkpt><trkpt lat="43.4518686" lon="11.3974075"><ele>518.5</ele><time>2026-04-19T09:26:39.967Z</time></trkpt><trkpt lat="43.4518837" lon="11.3975272"><ele>517.6666666666666</ele><time>2026-04-19T09:26:40.989Z</time></trkpt><trkpt lat="43.4518978" lon="11.3976215"><ele>516.8333333333334</ele><time>2026-04-19T09:26:41.97Z</time></trkpt><trkpt lat="43.4519407" lon="11.3976954"><ele>516.0</ele><time>2026-04-19T09:26:42.977Z</time></trkpt><trkpt lat="43.4520085" lon="11.397762"><ele>516.0</ele><time>2026-04-19T09:26:43.972Z</time></trkpt><trkpt lat="43.4521048" lon="11.3978296"><ele>516.0</ele><time>2026-04-19T09:26:44.967Z</time></trkpt><trkpt lat="43.452195" lon="11.397901"><ele>516.0</ele><time>2026-04-19T09:26:45.973Z</time></trkpt><trkpt lat="43.4522794" lon="11.3979745"><ele>516.0</ele><time>2026-04-19T09:26:46.978Z</time></trkpt><trkpt lat="43.4523373" lon="11.3980569"><ele>516.0</ele><time>2026-04-19T09:26:47.979Z</time></trkpt><trkpt lat="43.4523931" lon="11.3981506"><ele>515.0</ele><time>2026-04-19T09:26:48.972Z</time></trkpt><trkpt lat="43.4524483" lon="11.3982651"><ele>514.0</ele><time>2026-04-19T09:26:49.972Z</time></trkpt><trkpt lat="43.4525157" lon="11.3983806"><ele>513.0</ele><time>2026-04-19T09:26:50.977Z</time></trkpt><trkpt lat="43.4525963" lon="11.3984889"><ele>512.0</ele><time>2026-04-19T09:26:51.989Z</time></trkpt><trkpt lat="43.4526801" lon="11.3986012"><ele>511.0</ele><time>2026-04-19T09:26:52.983Z</time></trkpt><trkpt lat="43.4527662" lon="11.3987112"><ele>511.0</ele><time>2026-04-19T09:26:53.967Z</time></trkpt><trkpt lat="43.4528495" lon="11.3988139"><ele>511.0</ele><time>2026-04-19T09:26:54.984Z</time></trkpt><trkpt lat="43.4529259" lon="11.398917"><ele>511.0</ele><time>2026-04-19T09:26:55.973Z</time></trkpt><trkpt lat="43.4529985" lon="11.3990442"><ele>511.0</ele><time>2026-04-19T09:26:56.969Z</time></trkpt><trkpt lat="43.4530728" lon="11.3991865"><ele>512.5</ele><time>2026-04-19T09:26:57.965Z</time></trkpt><trkpt lat="43.4531446" lon="11.3993374"><ele>514.0</ele><time>2026-04-19T09:26:58.964Z</time></trkpt><trkpt lat="43.4532101" lon="11.3994936"><ele>515.5</ele><time>2026-04-19T09:26:59.976Z</time></trkpt><trkpt lat="43.4532778" lon="11.3996556"><ele>517.0</ele><time>2026-04-19T09:27:00.965Z</time></trkpt><trkpt lat="43.4533362" lon="11.3998196"><ele>519.0</ele><time>2026-04-19T09:27:01.964Z</time></trkpt><trkpt lat="43.4533969" lon="11.3999802"><ele>521.0</ele><time>2026-04-19T09:27:02.964Z</time></trkpt><trkpt lat="43.4534582" lon="11.4001343"><ele>523.0</ele><time>2026-04-19T09:27:03.968Z</time></trkpt><trkpt lat="43.4535188" lon="11.4002863"><ele>525.0</ele><time>2026-04-19T09:27:04.966Z</time></trkpt><trkpt lat="43.4535775" lon="11.4004371"><ele>527.0</ele><time>2026-04-19T09:27:05.964Z</time></trkpt><trkpt lat="43.4536351" lon="11.400581"><ele>529.0</ele><time>2026-04-19T09:27:06.969Z</time></trkpt><trkpt lat="43.4536928" lon="11.4007204"><ele>531.0</ele><time>2026-04-19T09:27:07.966Z</time></trkpt><trkpt lat="43.4537459" lon="11.4008665"><ele>533.0</ele><time>2026-04-19T09:27:08.974Z</time></trkpt><trkpt lat="43.4537998" lon="11.4010048"><ele>534.1999999999999</ele><time>2026-04-19T09:27:09.966Z</time></trkpt><trkpt lat="43.4538517" lon="11.4011316"><ele>535.4</ele><time>2026-04-19T09:27:10.968Z</time></trkpt><trkpt lat="43.4538993" lon="11.401252"><ele>536.5999999999999</ele><time>2026-04-19T09:27:11.965Z</time></trkpt><trkpt lat="43.453944" lon="11.4013702"><ele>537.8</ele><time>2026-04-19T09:27:12.976Z</time></trkpt><trkpt lat="43.4539906" lon="11.4014909"><ele>539.0</ele><time>2026-04-19T09:27:13.97Z</time></trkpt><trkpt lat="43.4540443" lon="11.4016146"><ele>541.2</ele><time>2026-04-19T09:27:14.972Z</time></trkpt><trkpt lat="43.4540933" lon="11.401745"><ele>543.4</ele><time>2026-04-19T09:27:15.984Z</time></trkpt><trkpt lat="43.4541498" lon="11.4018852"><ele>545.6</ele><time>2026-04-19T09:27:16.968Z</time></trkpt><trkpt lat="43.4542084" lon="11.402017"><ele>547.8</ele><time>2026-04-19T09:27:17.97Z</time></trkpt><trkpt lat="43.4542569" lon="11.4021465"><ele>550.0</ele><time>2026-04-19T09:27:18.971Z</time></trkpt><trkpt lat="43.4542962" lon="11.4022741"><ele>551.4</ele><time>2026-04-19T09:27:19.978Z</time></trkpt><trkpt lat="43.4543247" lon="11.4024078"><ele>552.8</ele><time>2026-04-19T09:27:20.975Z</time></trkpt><trkpt lat="43.4543398" lon="11.4025418"><ele>554.2</ele><time>2026-04-19T09:27:21.972Z</time></trkpt><trkpt lat="43.4543488" lon="11.4026777"><ele>555.6</ele><time>2026-04-19T09:27:22.967Z</time></trkpt><trkpt lat="43.4543473" lon="11.4028034"><ele>557.0</ele><time>2026-04-19T09:27:23.971Z</time></trkpt><trkpt lat="43.4543534" lon="11.402937"><ele>558.5</ele><time>2026-04-19T09:27:24.981Z</time></trkpt><trkpt lat="43.4543826" lon="11.4030862"><ele>560.0</ele><time>2026-04-19T09:27:25.968Z</time></trkpt><trkpt lat="43.4544285" lon="11.4032501"><ele>561.5</ele><time>2026-04-19T09:27:26.968Z</time></trkpt><trkpt lat="43.4544683" lon="11.4033993"><ele>563.0</ele><time>2026-04-19T09:27:27.967Z</time></trkpt><trkpt lat="43.4544967" lon="11.4035338"><ele>563.0</ele><time>2026-04-19T09:27:28.966Z</time></trkpt><trkpt lat="43.4545189" lon="11.4036755"><ele>563.0</ele><time>2026-04-19T09:27:29.97Z</time></trkpt><trkpt lat="43.4545354" lon="11.403818"><ele>563.0</ele><time>2026-04-19T09:27:30.977Z</time></trkpt><trkpt lat="43.4545555" lon="11.4039442"><ele>563.0</ele><time>2026-04-19T09:27:31.967Z</time></trkpt><trkpt lat="43.4545736" lon="11.4040612"><ele>563.0</ele><time>2026-04-19T09:27:32.97Z</time></trkpt><trkpt lat="43.4545911" lon="11.4041784"><ele>563.0</ele><time>2026-04-19T09:27:33.968Z</time></trkpt><trkpt lat="43.4545949" lon="11.4043436"><ele>563.0</ele><time>2026-04-19T09:27:35.973Z</time></trkpt><trkpt lat="43.4546029" lon="11.404431"><ele>563.0</ele><time>2026-04-19T09:27:36.965Z</time></trkpt><trkpt lat="43.4546283" lon="11.4046077"><ele>563.0</ele><time>2026-04-19T09:27:38.97Z</time></trkpt><trkpt lat="43.4546507" lon="11.4046999"><ele>563.0</ele><time>2026-04-19T09:27:39.968Z</time></trkpt><trkpt lat="43.4546741" lon="11.4048045"><ele>561.0</ele><time>2026-04-19T09:27:40.964Z</time></trkpt><trkpt lat="43.4546919" lon="11.4049096"><ele>559.0</ele><time>2026-04-19T09:27:41.964Z</time></trkpt><trkpt lat="43.4547052" lon="11.4050038"><ele>557.0</ele><time>2026-04-19T09:27:42.965Z</time></trkpt><trkpt lat="43.4547267" lon="11.4050999"><ele>555.0</ele><time>2026-04-19T09:27:43.964Z</time></trkpt><trkpt lat="43.4547466" lon="11.4051945"><ele>553.0</ele><time>2026-04-19T09:27:44.963Z</time></trkpt><trkpt lat="43.4547707" lon="11.4052764"><ele>551.0</ele><time>2026-04-19T09:27:45.974Z</time></trkpt><trkpt lat="43.4548051" lon="11.4053606"><ele>549.0</ele><time>2026-04-19T09:27:47.97Z</time></trkpt><trkpt lat="43.4548679" lon="11.4053288"><ele>549.0</ele><time>2026-04-19T09:40:52.967Z</time></trkpt><trkpt lat="43.454984" lon="11.4052886"><ele>549.0</ele><time>2026-04-19T09:40:54.988Z</time></trkpt><trkpt lat="43.4550754" lon="11.405307"><ele>549.0</ele><time>2026-04-19T09:40:55.969Z</time></trkpt><trkpt lat="43.4552059" lon="11.4053254"><ele>549.0</ele><time>2026-04-19T09:40:56.975Z</time></trkpt><trkpt lat="43.4553577" lon="11.4053469"><ele>547.8333333333334</ele><time>2026-04-19T09:40:57.964Z</time></trkpt><trkpt lat="43.4554862" lon="11.4053555"><ele>546.6666666666666</ele><time>2026-04-19T09:40:58.991Z</time></trkpt><trkpt lat="43.4555761" lon="11.4053772"><ele>545.5</ele><time>2026-04-19T09:40:59.979Z</time></trkpt><trkpt lat="43.4556424" lon="11.4053725"><ele>544.3333333333333</ele><time>2026-04-19T09:41:00.974Z</time></trkpt><trkpt lat="43.4557032" lon="11.4053254"><ele>543.1666666666666</ele><time>2026-04-19T09:41:01.977Z</time></trkpt><trkpt lat="43.4557659" lon="11.4052347"><ele>542.0</ele><time>2026-04-19T09:41:02.997Z</time></trkpt><trkpt lat="43.4558442" lon="11.4051386"><ele>542.0</ele><time>2026-04-19T09:41:03.976Z</time></trkpt><trkpt lat="43.4558911" lon="11.4050325"><ele>542.0</ele><time>2026-04-19T09:41:04.973Z</time></trkpt><trkpt lat="43.4559155" lon="11.4049477"><ele>542.0</ele><time>2026-04-19T09:41:05.977Z</time></trkpt><trkpt lat="43.4559422" lon="11.4048619"><ele>542.0</ele><time>2026-04-19T09:41:06.974Z</time></trkpt><trkpt lat="43.4559848" lon="11.4047945"><ele>542.0</ele><time>2026-04-19T09:41:07.97Z</time></trkpt><trkpt lat="43.4560593" lon="11.404745"><ele>542.0</ele><time>2026-04-19T09:41:08.981Z</time></trkpt><trkpt lat="43.4561159" lon="11.4046887"><ele>542.0</ele><time>2026-04-19T09:41:09.976Z</time></trkpt><trkpt lat="43.4561786" lon="11.4046376"><ele>540.4</ele><time>2026-04-19T09:41:10.973Z</time></trkpt><trkpt lat="43.4562363" lon="11.4045919"><ele>538.8000000000001</ele><time>2026-04-19T09:41:11.969Z</time></trkpt><trkpt lat="43.4563301" lon="11.404505"><ele>537.2</ele><time>2026-04-19T09:41:13.979Z</time></trkpt><trkpt lat="43.4564085" lon="11.404428"><ele>535.6</ele><time>2026-04-19T09:41:15.978Z</time></trkpt><trkpt lat="43.4565053" lon="11.4044205"><ele>534.0</ele><time>2026-04-19T09:41:17.996Z</time></trkpt><trkpt lat="43.4565861" lon="11.4043449"><ele>533.5</ele><time>2026-04-19T09:41:19.97Z</time></trkpt><trkpt lat="43.456631" lon="11.4042611"><ele>533.0</ele><time>2026-04-19T09:41:21.973Z</time></trkpt><trkpt lat="43.4566912" lon="11.4041955"><ele>532.5</ele><time>2026-04-19T09:41:23.97Z</time></trkpt><trkpt lat="43.456749" lon="11.4041393"><ele>532.0</ele><time>2026-04-19T09:41:25.975Z</time></trkpt><trkpt lat="43.4568084" lon="11.4040914"><ele>531.5</ele><time>2026-04-19T09:42:03.976Z</time></trkpt><trkpt lat="43.4568657" lon="11.4040073"><ele>531.0</ele><time>2026-04-19T09:42:44.982Z</time></trkpt><trkpt lat="43.4569465" lon="11.4038693"><ele>530.0</ele><time>2026-04-19T09:42:46.977Z</time></trkpt><trkpt lat="43.4569972" lon="11.4037758"><ele>529.0</ele><time>2026-04-19T09:42:48.968Z</time></trkpt><trkpt lat="43.4570799" lon="11.4036827"><ele>528.0</ele><time>2026-04-19T09:43:44.985Z</time></trkpt><trkpt lat="43.4571384" lon="11.4036244"><ele>527.0</ele><time>2026-04-19T09:43:45.977Z</time></trkpt><trkpt lat="43.4572139" lon="11.4035421"><ele>526.0</ele><time>2026-04-19T09:43:46.97Z</time></trkpt><trkpt lat="43.4572994" lon="11.4034292"><ele>526.0</ele><time>2026-04-19T09:43:47.971Z</time></trkpt><trkpt lat="43.4573734" lon="11.403326"><ele>526.0</ele><time>2026-04-19T09:43:48.983Z</time></trkpt><trkpt lat="43.4574477" lon="11.4032525"><ele>526.0</ele><time>2026-04-19T09:43:49.979Z</time></trkpt><trkpt lat="43.457525" lon="11.4031996"><ele>526.0</ele><time>2026-04-19T09:43:50.977Z</time></trkpt><trkpt lat="43.4575991" lon="11.4031572"><ele>526.0</ele><time>2026-04-19T09:43:51.977Z</time></trkpt><trkpt lat="43.4576557" lon="11.4030655"><ele>524.6</ele><time>2026-04-19T09:43:52.975Z</time></trkpt><trkpt lat="43.4577261" lon="11.4029754"><ele>523.2</ele><time>2026-04-19T09:43:53.995Z</time></trkpt><trkpt lat="43.4578206" lon="11.4028889"><ele>521.8</ele><time>2026-04-19T09:43:54.971Z</time></trkpt><trkpt lat="43.4579162" lon="11.4028095"><ele>520.4</ele><time>2026-04-19T09:43:55.971Z</time></trkpt><trkpt lat="43.4580171" lon="11.4027286"><ele>519.0</ele><time>2026-04-19T09:43:56.987Z</time></trkpt><trkpt lat="43.4581022" lon="11.4026361"><ele>518.8</ele><time>2026-04-19T09:43:57.972Z</time></trkpt><trkpt lat="43.4581639" lon="11.4025435"><ele>518.5999999999999</ele><time>2026-04-19T09:43:58.976Z</time></trkpt><trkpt lat="43.4582209" lon="11.4024182"><ele>518.4</ele><time>2026-04-19T09:43:59.972Z</time></trkpt><trkpt lat="43.4582779" lon="11.4022781"><ele>518.1999999999999</ele><time>2026-04-19T09:44:00.97Z</time></trkpt><trkpt lat="43.4583369" lon="11.4021301"><ele>518.0</ele><time>2026-04-19T09:44:01.973Z</time></trkpt><trkpt lat="43.4584095" lon="11.4019523"><ele>518.75</ele><time>2026-04-19T09:44:02.966Z</time></trkpt><trkpt lat="43.4584792" lon="11.4017715"><ele>519.5</ele><time>2026-04-19T09:44:03.969Z</time></trkpt><trkpt lat="43.4585561" lon="11.4015857"><ele>520.25</ele><time>2026-04-19T09:44:04.964Z</time></trkpt><trkpt lat="43.4586305" lon="11.4014192"><ele>521.0</ele><time>2026-04-19T09:44:05.988Z</time></trkpt><trkpt lat="43.4587122" lon="11.4012665"><ele>522.25</ele><time>2026-04-19T09:44:06.972Z</time></trkpt><trkpt lat="43.4587776" lon="11.4011059"><ele>523.5</ele><time>2026-04-19T09:44:07.969Z</time></trkpt><trkpt lat="43.4588368" lon="11.4009154"><ele>524.75</ele><time>2026-04-19T09:44:08.985Z</time></trkpt><trkpt lat="43.4588998" lon="11.4007167"><ele>526.0</ele><time>2026-04-19T09:44:09.973Z</time></trkpt><trkpt lat="43.4589685" lon="11.400519"><ele>529.0</ele><time>2026-04-19T09:44:10.97Z</time></trkpt><trkpt lat="43.4590374" lon="11.4003221"><ele>532.0</ele><time>2026-04-19T09:44:11.972Z</time></trkpt><trkpt lat="43.459113" lon="11.4001353"><ele>535.0</ele><time>2026-04-19T09:44:12.971Z</time></trkpt><trkpt lat="43.4591829" lon="11.3999542"><ele>535.0</ele><time>2026-04-19T09:44:13.988Z</time></trkpt><trkpt lat="43.4592523" lon="11.3997754"><ele>535.0</ele><time>2026-04-19T09:44:14.972Z</time></trkpt><trkpt lat="43.4593215" lon="11.3995766"><ele>535.0</ele><time>2026-04-19T09:44:15.972Z</time></trkpt><trkpt lat="43.4593985" lon="11.399357"><ele>535.0</ele><time>2026-04-19T09:44:16.971Z</time></trkpt><trkpt lat="43.4594774" lon="11.399159"><ele>535.0</ele><time>2026-04-19T09:44:17.968Z</time></trkpt><trkpt lat="43.4595446" lon="11.3989887"><ele>535.0</ele><time>2026-04-19T09:44:18.971Z</time></trkpt><trkpt lat="43.4596098" lon="11.3988094"><ele>535.8</ele><time>2026-04-19T09:44:19.974Z</time></trkpt><trkpt lat="43.4596684" lon="11.3986462"><ele>536.6</ele><time>2026-04-19T09:44:20.973Z</time></trkpt><trkpt lat="43.4597198" lon="11.3985205"><ele>537.4</ele><time>2026-04-19T09:44:21.98Z</time></trkpt><trkpt lat="43.4597685" lon="11.3984032"><ele>538.2</ele><time>2026-04-19T09:44:22.968Z</time></trkpt><trkpt lat="43.4598051" lon="11.3982883"><ele>539.0</ele><time>2026-04-19T09:44:23.976Z</time></trkpt><trkpt lat="43.4598453" lon="11.398183"><ele>539.0</ele><time>2026-04-19T09:44:25.968Z</time></trkpt><trkpt lat="43.459933" lon="11.3981314"><ele>539.0</ele><time>2026-04-19T09:45:26.968Z</time></trkpt><trkpt lat="43.4599911" lon="11.3980673"><ele>539.0</ele><time>2026-04-19T09:45:29.969Z</time></trkpt><trkpt lat="43.4600575" lon="11.3979786"><ele>539.0</ele><time>2026-04-19T09:47:51.97Z</time></trkpt><trkpt lat="43.4601557" lon="11.3978766"><ele>539.0</ele><time>2026-04-19T09:47:53.973Z</time></trkpt><trkpt lat="43.4602224" lon="11.3977907"><ele>538.8333333333333</ele><time>2026-04-19T09:47:54.969Z</time></trkpt><trkpt lat="43.4602945" lon="11.3977267"><ele>538.6666666666666</ele><time>2026-04-19T09:47:55.969Z</time></trkpt><trkpt lat="43.460371" lon="11.3976777"><ele>538.5</ele><time>2026-04-19T09:47:56.981Z</time></trkpt><trkpt lat="43.4604546" lon="11.3976295"><ele>538.3333333333334</ele><time>2026-04-19T09:47:57.98Z</time></trkpt><trkpt lat="43.460529" lon="11.3975813"><ele>538.1666666666667</ele><time>2026-04-19T09:47:58.985Z</time></trkpt><trkpt lat="43.4606022" lon="11.3975311"><ele>538.0</ele><time>2026-04-19T09:47:59.969Z</time></trkpt><trkpt lat="43.4606767" lon="11.3974931"><ele>538.0</ele><time>2026-04-19T09:48:00.969Z</time></trkpt><trkpt lat="43.460745" lon="11.3974525"><ele>538.0</ele><time>2026-04-19T09:48:01.989Z</time></trkpt><trkpt lat="43.4608562" lon="11.397423"><ele>538.0</ele><time>2026-04-19T09:48:03.972Z</time></trkpt><trkpt lat="43.460919" lon="11.3973922"><ele>538.0</ele><time>2026-04-19T09:48:04.97Z</time></trkpt><trkpt lat="43.4609882" lon="11.3973616"><ele>538.0</ele><time>2026-04-19T09:48:05.989Z</time></trkpt><trkpt lat="43.461053" lon="11.3973311"><ele>538.0</ele><time>2026-04-19T09:48:06.972Z</time></trkpt><trkpt lat="43.4611751" lon="11.3972861"><ele>538.0</ele><time>2026-04-19T09:48:08.968Z</time></trkpt><trkpt lat="43.461248" lon="11.39727"><ele>538.0</ele><time>2026-04-19T09:48:09.973Z</time></trkpt><trkpt lat="43.4613178" lon="11.3972583"><ele>538.0</ele><time>2026-04-19T09:48:10.97Z</time></trkpt><trkpt lat="43.4613817" lon="11.3972469"><ele>538.0</ele><time>2026-04-19T09:48:11.974Z</time></trkpt><trkpt lat="43.4614974" lon="11.3972267"><ele>538.0</ele><time>2026-04-19T09:48:13.97Z</time></trkpt><trkpt lat="43.4615764" lon="11.3972006"><ele>538.0</ele><time>2026-04-19T09:48:15.973Z</time></trkpt><trkpt lat="43.4616713" lon="11.3971488"><ele>536.5</ele><time>2026-04-19T09:48:17.974Z</time></trkpt><trkpt lat="43.4617561" lon="11.397027"><ele>535.0</ele><time>2026-04-19T09:48:19.968Z</time></trkpt><trkpt lat="43.4618067" lon="11.3969535"><ele>533.5</ele><time>2026-04-19T09:48:20.967Z</time></trkpt><trkpt lat="43.4618625" lon="11.3968773"><ele>532.0</ele><time>2026-04-19T09:48:21.971Z</time></trkpt><trkpt lat="43.4619162" lon="11.3968092"><ele>530.5</ele><time>2026-04-19T09:48:22.975Z</time></trkpt><trkpt lat="43.4619641" lon="11.3967432"><ele>529.0</ele><time>2026-04-19T09:48:23.964Z</time></trkpt><trkpt lat="43.4620444" lon="11.3966213"><ele>529.0</ele><time>2026-04-19T09:48:25.969Z</time></trkpt><trkpt lat="43.4620787" lon="11.3965469"><ele>529.0</ele><time>2026-04-19T09:48:26.966Z</time></trkpt><trkpt lat="43.4621069" lon="11.3964677"><ele>529.0</ele><time>2026-04-19T09:48:27.972Z</time></trkpt><trkpt lat="43.4621362" lon="11.3963892"><ele>529.0</ele><time>2026-04-19T09:48:28.971Z</time></trkpt><trkpt lat="43.4621702" lon="11.3963123"><ele>529.0</ele><time>2026-04-19T09:48:29.97Z</time></trkpt><trkpt lat="43.4622185" lon="11.3962366"><ele>529.0</ele><time>2026-04-19T09:48:30.988Z</time></trkpt><trkpt lat="43.4622977" lon="11.3961409"><ele>529.0</ele><time>2026-04-19T09:48:32.972Z</time></trkpt><trkpt lat="43.4623924" lon="11.3961008"><ele>527.0</ele><time>2026-04-19T09:48:34.975Z</time></trkpt><trkpt lat="43.4624555" lon="11.3960704"><ele>525.0</ele><time>2026-04-19T09:48:35.987Z</time></trkpt><trkpt lat="43.4625159" lon="11.3960198"><ele>523.0</ele><time>2026-04-19T09:48:36.969Z</time></trkpt><trkpt lat="43.4625768" lon="11.3959768"><ele>521.0</ele><time>2026-04-19T09:48:37.973Z</time></trkpt><trkpt lat="43.462639" lon="11.3959406"><ele>519.0</ele><time>2026-04-19T09:48:38.97Z</time></trkpt><trkpt lat="43.4627452" lon="11.3959142"><ele>517.0</ele><time>2026-04-19T09:48:40.968Z</time></trkpt><trkpt lat="43.4628463" lon="11.3958532"><ele>517.0</ele><time>2026-04-19T09:48:42.971Z</time></trkpt><trkpt lat="43.4629369" lon="11.3958053"><ele>517.0</ele><time>2026-04-19T09:48:44.972Z</time></trkpt><trkpt lat="43.4629994" lon="11.3958215"><ele>517.0</ele><time>2026-04-19T09:48:46.98Z</time></trkpt><trkpt lat="43.4630211" lon="11.3959059"><ele>517.0</ele><time>2026-04-19T09:48:48.98Z</time></trkpt><trkpt lat="43.4630058" lon="11.3960163"><ele>517.0</ele><time>2026-04-19T09:48:50.972Z</time></trkpt><trkpt lat="43.4629703" lon="11.3961102"><ele>517.0</ele><time>2026-04-19T09:48:51.966Z</time></trkpt><trkpt lat="43.4629339" lon="11.3962266"><ele>517.0</ele><time>2026-04-19T09:48:52.972Z</time></trkpt><trkpt lat="43.462906" lon="11.3963357"><ele>517.0</ele><time>2026-04-19T09:48:53.991Z</time></trkpt><trkpt lat="43.4628835" lon="11.3964432"><ele>517.0</ele><time>2026-04-19T09:48:54.978Z</time></trkpt><trkpt lat="43.4628685" lon="11.3965537"><ele>517.0</ele><time>2026-04-19T09:48:55.977Z</time></trkpt><trkpt lat="43.4628439" lon="11.3966739"><ele>517.0</ele><time>2026-04-19T09:48:56.986Z</time></trkpt><trkpt lat="43.4628216" lon="11.3968009"><ele>517.0</ele><time>2026-04-19T09:48:57.971Z</time></trkpt><trkpt lat="43.4628023" lon="11.3969285"><ele>516.8000000000001</ele><time>2026-04-19T09:48:58.974Z</time></trkpt><trkpt lat="43.4627808" lon="11.3970589"><ele>516.6</ele><time>2026-04-19T09:48:59.97Z</time></trkpt><trkpt lat="43.4627569" lon="11.3972031"><ele>516.4000000000001</ele><time>2026-04-19T09:49:00.969Z</time></trkpt><trkpt lat="43.462739" lon="11.3973489"><ele>516.2</ele><time>2026-04-19T09:49:01.972Z</time></trkpt><trkpt lat="43.4627128" lon="11.3974816"><ele>516.0</ele><time>2026-04-19T09:49:02.973Z</time></trkpt><trkpt lat="43.4626852" lon="11.3976074"><ele>515.1666666666666</ele><time>2026-04-19T09:49:03.977Z</time></trkpt><trkpt lat="43.4626632" lon="11.397733"><ele>514.3333333333334</ele><time>2026-04-19T09:49:04.968Z</time></trkpt><trkpt lat="43.4626485" lon="11.3978519"><ele>513.5</ele><time>2026-04-19T09:49:05.966Z</time></trkpt><trkpt lat="43.462636" lon="11.3979657"><ele>512.6666666666667</ele><time>2026-04-19T09:49:06.968Z</time></trkpt><trkpt lat="43.4626207" lon="11.3980729"><ele>511.83333333333337</ele><time>2026-04-19T09:49:07.97Z</time></trkpt><trkpt lat="43.4625981" lon="11.3981791"><ele>511.0</ele><time>2026-04-19T09:49:08.971Z</time></trkpt><trkpt lat="43.4625685" lon="11.3982847"><ele>509.20000000000005</ele><time>2026-04-19T09:49:09.968Z</time></trkpt><trkpt lat="43.4625382" lon="11.3983862"><ele>507.40000000000003</ele><time>2026-04-19T09:49:10.996Z</time></trkpt><trkpt lat="43.4625098" lon="11.3984981"><ele>505.6</ele><time>2026-04-19T09:49:11.972Z</time></trkpt><trkpt lat="43.4624863" lon="11.3986128"><ele>503.8</ele><time>2026-04-19T09:49:12.969Z</time></trkpt><trkpt lat="43.4624529" lon="11.3987461"><ele>502.0</ele><time>2026-04-19T09:49:13.97Z</time></trkpt><trkpt lat="43.4624118" lon="11.3988649"><ele>498.0</ele><time>2026-04-19T09:49:14.978Z</time></trkpt><trkpt lat="43.4623599" lon="11.3989892"><ele>494.0</ele><time>2026-04-19T09:49:15.989Z</time></trkpt><trkpt lat="43.4622941" lon="11.399121"><ele>490.0</ele><time>2026-04-19T09:49:16.973Z</time></trkpt><trkpt lat="43.4622232" lon="11.3992459"><ele>486.0</ele><time>2026-04-19T09:49:17.973Z</time></trkpt><trkpt lat="43.4621446" lon="11.3993684"><ele>486.6</ele><time>2026-04-19T09:49:18.973Z</time></trkpt><trkpt lat="43.4620644" lon="11.3994956"><ele>487.20000000000005</ele><time>2026-04-19T09:49:19.969Z</time></trkpt><trkpt lat="43.4619934" lon="11.3996083"><ele>487.79999999999995</ele><time>2026-04-19T09:49:20.976Z</time></trkpt><trkpt lat="43.4619265" lon="11.3997194"><ele>488.4</ele><time>2026-04-19T09:49:21.97Z</time></trkpt><trkpt lat="43.4618685" lon="11.399829"><ele>489.0</ele><time>2026-04-19T09:49:22.972Z</time></trkpt><trkpt lat="43.4618201" lon="11.3999328"><ele>489.0</ele><time>2026-04-19T09:49:23.968Z</time></trkpt><trkpt lat="43.4617758" lon="11.4000407"><ele>489.0</ele><time>2026-04-19T09:49:24.97Z</time></trkpt><trkpt lat="43.4617393" lon="11.4001706"><ele>489.0</ele><time>2026-04-19T09:49:25.973Z</time></trkpt><trkpt lat="43.461716" lon="11.4002877"><ele>489.0</ele><time>2026-04-19T09:49:26.989Z</time></trkpt><trkpt lat="43.4617014" lon="11.4003967"><ele>489.0</ele><time>2026-04-19T09:49:27.966Z</time></trkpt><trkpt lat="43.4617014" lon="11.4005018"><ele>489.0</ele><time>2026-04-19T09:49:28.973Z</time></trkpt><trkpt lat="43.4617048" lon="11.4006057"><ele>487.5</ele><time>2026-04-19T09:49:29.973Z</time></trkpt><trkpt lat="43.4617207" lon="11.4007148"><ele>486.0</ele><time>2026-04-19T09:49:30.97Z</time></trkpt><trkpt lat="43.4617425" lon="11.4008187"><ele>484.5</ele><time>2026-04-19T09:49:31.976Z</time></trkpt><trkpt lat="43.4617726" lon="11.4009204"><ele>483.0</ele><time>2026-04-19T09:49:32.976Z</time></trkpt><trkpt lat="43.4618141" lon="11.4010085"><ele>481.5</ele><time>2026-04-19T09:49:33.97Z</time></trkpt><trkpt lat="43.4618556" lon="11.4010944"><ele>480.0</ele><time>2026-04-19T09:49:34.97Z</time></trkpt><trkpt lat="43.4618994" lon="11.4011815"><ele>480.0</ele><time>2026-04-19T09:49:35.97Z</time></trkpt><trkpt lat="43.4619352" lon="11.4012758"><ele>480.0</ele><time>2026-04-19T09:49:36.974Z</time></trkpt><trkpt lat="43.4619567" lon="11.4013725"><ele>480.0</ele><time>2026-04-19T09:49:37.968Z</time></trkpt><trkpt lat="43.4619758" lon="11.4014562"><ele>480.0</ele><time>2026-04-19T09:49:39.023Z</time></trkpt><trkpt lat="43.4619872" lon="11.4015507"><ele>480.0</ele><time>2026-04-19T09:49:39.974Z</time></trkpt><trkpt lat="43.4619838" lon="11.4016553"><ele>480.0</ele><time>2026-04-19T09:49:40.97Z</time></trkpt><trkpt lat="43.4619618" lon="11.4017713"><ele>480.0</ele><time>2026-04-19T09:49:41.97Z</time></trkpt><trkpt lat="43.4619296" lon="11.4019028"><ele>479.0</ele><time>2026-04-19T09:49:42.975Z</time></trkpt><trkpt lat="43.461898" lon="11.4020498"><ele>478.0</ele><time>2026-04-19T09:49:43.966Z</time></trkpt><trkpt lat="43.4618653" lon="11.4021649"><ele>477.0</ele><time>2026-04-19T09:49:44.976Z</time></trkpt><trkpt lat="43.4618325" lon="11.4022691"><ele>476.0</ele><time>2026-04-19T09:49:45.972Z</time></trkpt><trkpt lat="43.4618262" lon="11.4023684"><ele>475.0</ele><time>2026-04-19T09:49:46.989Z</time></trkpt><trkpt lat="43.4618277" lon="11.4024705"><ele>474.0</ele><time>2026-04-19T09:49:47.97Z</time></trkpt><trkpt lat="43.4618343" lon="11.4026449"><ele>472.6666666666667</ele><time>2026-04-19T09:49:49.97Z</time></trkpt><trkpt lat="43.4618292" lon="11.4027342"><ele>471.33333333333337</ele><time>2026-04-19T09:49:50.986Z</time></trkpt><trkpt lat="43.4618092" lon="11.4028216"><ele>470.0</ele><time>2026-04-19T09:49:51.968Z</time></trkpt><trkpt lat="43.4617699" lon="11.4028986"><ele>468.6666666666667</ele><time>2026-04-19T09:49:52.973Z</time></trkpt><trkpt lat="43.4616704" lon="11.4029853"><ele>467.33333333333337</ele><time>2026-04-19T09:49:54.974Z</time></trkpt><trkpt lat="43.4615975" lon="11.4030344"><ele>466.0</ele><time>2026-04-19T09:49:55.974Z</time></trkpt><trkpt lat="43.4615002" lon="11.4030884"><ele>465.4</ele><time>2026-04-19T09:49:56.974Z</time></trkpt><trkpt lat="43.4613996" lon="11.4031489"><ele>464.8</ele><time>2026-04-19T09:49:57.974Z</time></trkpt><trkpt lat="43.4613162" lon="11.4032158"><ele>464.19999999999993</ele><time>2026-04-19T09:49:58.974Z</time></trkpt><trkpt lat="43.4612366" lon="11.4032727"><ele>463.59999999999997</ele><time>2026-04-19T09:49:59.979Z</time></trkpt><trkpt lat="43.4611616" lon="11.4033535"><ele>463.0</ele><time>2026-04-19T09:50:00.969Z</time></trkpt><trkpt lat="43.4610845" lon="11.4034395"><ele>463.0</ele><time>2026-04-19T09:50:01.972Z</time></trkpt><trkpt lat="43.4610085" lon="11.4035217"><ele>462.99999999999994</ele><time>2026-04-19T09:50:02.976Z</time></trkpt><trkpt lat="43.4609366" lon="11.4036025"><ele>462.99999999999994</ele><time>2026-04-19T09:50:03.973Z</time></trkpt><trkpt lat="43.4608638" lon="11.4036677"><ele>463.0</ele><time>2026-04-19T09:50:04.996Z</time></trkpt><trkpt lat="43.4607848" lon="11.4037417"><ele>463.0</ele><time>2026-04-19T09:50:05.976Z</time></trkpt><trkpt lat="43.4607115" lon="11.4038136"><ele>459.50000000000006</ele><time>2026-04-19T09:50:06.971Z</time></trkpt><trkpt lat="43.4606355" lon="11.4038752"><ele>456.0</ele><time>2026-04-19T09:50:07.983Z</time></trkpt><trkpt lat="43.4605676" lon="11.4039346"><ele>452.5</ele><time>2026-04-19T09:50:08.971Z</time></trkpt><trkpt lat="43.4605073" lon="11.4039877"><ele>449.0</ele><time>2026-04-19T09:50:09.971Z</time></trkpt><trkpt lat="43.4604701" lon="11.404065"><ele>445.50000000000006</ele><time>2026-04-19T09:50:10.976Z</time></trkpt><trkpt lat="43.4604561" lon="11.4041637"><ele>442.0</ele><time>2026-04-19T09:50:11.974Z</time></trkpt><trkpt lat="43.4604519" lon="11.4042669"><ele>442.00000000000006</ele><time>2026-04-19T09:50:12.984Z</time></trkpt><trkpt lat="43.4604566" lon="11.4043814"><ele>442.0</ele><time>2026-04-19T09:50:13.965Z</time></trkpt><trkpt lat="43.4604821" lon="11.4045138"><ele>442.0</ele><time>2026-04-19T09:50:14.969Z</time></trkpt><trkpt lat="43.4605091" lon="11.404622"><ele>442.0</ele><time>2026-04-19T09:50:15.976Z</time></trkpt><trkpt lat="43.4605635" lon="11.404722"><ele>442.00000000000006</ele><time>2026-04-19T09:50:16.969Z</time></trkpt><trkpt lat="43.4606177" lon="11.404823"><ele>442.0</ele><time>2026-04-19T09:50:17.977Z</time></trkpt><trkpt lat="43.460679" lon="11.4049148"><ele>440.40000000000003</ele><time>2026-04-19T09:50:18.976Z</time></trkpt><trkpt lat="43.460738" lon="11.4050079"><ele>438.80000000000007</ele><time>2026-04-19T09:50:19.971Z</time></trkpt><trkpt lat="43.4607955" lon="11.4051061"><ele>437.2</ele><time>2026-04-19T09:50:20.971Z</time></trkpt><trkpt lat="43.4608509" lon="11.4052057"><ele>435.6</ele><time>2026-04-19T09:50:21.975Z</time></trkpt><trkpt lat="43.4609048" lon="11.4053044"><ele>434.0</ele><time>2026-04-19T09:50:22.972Z</time></trkpt><trkpt lat="43.4609629" lon="11.4054043"><ele>433.66666666666663</ele><time>2026-04-19T09:50:23.968Z</time></trkpt><trkpt lat="43.4610172" lon="11.4055107"><ele>433.3333333333333</ele><time>2026-04-19T09:50:24.972Z</time></trkpt><trkpt lat="43.4610708" lon="11.4056122"><ele>433.0</ele><time>2026-04-19T09:50:25.976Z</time></trkpt><trkpt lat="43.4611154" lon="11.4057107"><ele>432.66666666666663</ele><time>2026-04-19T09:50:26.967Z</time></trkpt><trkpt lat="43.4611523" lon="11.405802"><ele>432.3333333333333</ele><time>2026-04-19T09:50:27.977Z</time></trkpt><trkpt lat="43.4611766" lon="11.4058988"><ele>432.0</ele><time>2026-04-19T09:50:28.971Z</time></trkpt><trkpt lat="43.4611859" lon="11.4060005"><ele>432.0</ele><time>2026-04-19T09:50:29.979Z</time></trkpt><trkpt lat="43.4611845" lon="11.4060948"><ele>432.0</ele><time>2026-04-19T09:50:30.969Z</time></trkpt><trkpt lat="43.4611763" lon="11.406201"><ele>432.0</ele><time>2026-04-19T09:50:31.974Z</time></trkpt><trkpt lat="43.4611506" lon="11.4063103"><ele>432.0</ele><time>2026-04-19T09:50:32.967Z</time></trkpt><trkpt lat="43.4611264" lon="11.4064222"><ele>432.0</ele><time>2026-04-19T09:50:33.975Z</time></trkpt><trkpt lat="43.4610982" lon="11.4065219"><ele>432.0</ele><time>2026-04-19T09:50:34.999Z</time></trkpt><trkpt lat="43.4610716" lon="11.4066211"><ele>429.6</ele><time>2026-04-19T09:50:35.97Z</time></trkpt><trkpt lat="43.4610507" lon="11.4067236"><ele>427.20000000000005</ele><time>2026-04-19T09:50:36.969Z</time></trkpt><trkpt lat="43.4610676" lon="11.406856"><ele>424.8</ele><time>2026-04-19T09:50:38.969Z</time></trkpt><trkpt lat="43.4611493" lon="11.4068864"><ele>422.4</ele><time>2026-04-19T09:50:40.973Z</time></trkpt><trkpt lat="43.4612573" lon="11.4068521"><ele>420.0</ele><time>2026-04-19T09:50:42.969Z</time></trkpt><trkpt lat="43.4613452" lon="11.4068231"><ele>415.8</ele><time>2026-04-19T09:50:43.97Z</time></trkpt><trkpt lat="43.4614513" lon="11.4067967"><ele>411.6</ele><time>2026-04-19T09:50:44.994Z</time></trkpt><trkpt lat="43.4615572" lon="11.406791"><ele>407.4</ele><time>2026-04-19T09:50:45.972Z</time></trkpt><trkpt lat="43.4616621" lon="11.406782"><ele>403.2</ele><time>2026-04-19T09:50:46.975Z</time></trkpt><trkpt lat="43.4617651" lon="11.4067829"><ele>399.0</ele><time>2026-04-19T09:50:47.975Z</time></trkpt><trkpt lat="43.4618615" lon="11.4067672"><ele>399.0</ele><time>2026-04-19T09:50:48.973Z</time></trkpt><trkpt lat="43.4619473" lon="11.406761"><ele>399.0</ele><time>2026-04-19T09:50:49.985Z</time></trkpt><trkpt lat="43.462028" lon="11.4067526"><ele>399.0</ele><time>2026-04-19T09:50:50.974Z</time></trkpt><trkpt lat="43.4621079" lon="11.4067559"><ele>399.0</ele><time>2026-04-19T09:50:51.965Z</time></trkpt><trkpt lat="43.4621827" lon="11.4067674"><ele>399.0</ele><time>2026-04-19T09:50:52.965Z</time></trkpt><trkpt lat="43.4622537" lon="11.4067799"><ele>399.0</ele><time>2026-04-19T09:50:53.976Z</time></trkpt><trkpt lat="43.4623242" lon="11.4067936"><ele>396.5</ele><time>2026-04-19T09:50:54.993Z</time></trkpt><trkpt lat="43.4623977" lon="11.406833"><ele>394.0</ele><time>2026-04-19T09:50:55.968Z</time></trkpt><trkpt lat="43.4624663" lon="11.4069005"><ele>391.5</ele><time>2026-04-19T09:50:56.969Z</time></trkpt><trkpt lat="43.4625239" lon="11.4069853"><ele>389.0</ele><time>2026-04-19T09:50:57.973Z</time></trkpt><trkpt lat="43.4625859" lon="11.4070785"><ele>386.5</ele><time>2026-04-19T09:50:58.969Z</time></trkpt><trkpt lat="43.4626508" lon="11.4071686"><ele>384.0</ele><time>2026-04-19T09:50:59.973Z</time></trkpt><trkpt lat="43.4627227" lon="11.4072495"><ele>382.6</ele><time>2026-04-19T09:51:00.993Z</time></trkpt><trkpt lat="43.4628063" lon="11.4073217"><ele>381.2</ele><time>2026-04-19T09:51:01.977Z</time></trkpt><trkpt lat="43.4628869" lon="11.407395"><ele>379.8</ele><time>2026-04-19T09:51:02.97Z</time></trkpt><trkpt lat="43.4629457" lon="11.4074971"><ele>378.40000000000003</ele><time>2026-04-19T09:51:03.967Z</time></trkpt><trkpt lat="43.4630043" lon="11.4076071"><ele>377.0</ele><time>2026-04-19T09:51:04.987Z</time></trkpt><trkpt lat="43.4630784" lon="11.4077105"><ele>374.6</ele><time>2026-04-19T09:51:05.974Z</time></trkpt><trkpt lat="43.4631603" lon="11.4078083"><ele>372.20000000000005</ele><time>2026-04-19T09:51:06.973Z</time></trkpt><trkpt lat="43.4632415" lon="11.4078995"><ele>369.8</ele><time>2026-04-19T09:51:07.968Z</time></trkpt><trkpt lat="43.4633179" lon="11.4079984"><ele>367.4</ele><time>2026-04-19T09:51:08.973Z</time></trkpt><trkpt lat="43.4633992" lon="11.4080934"><ele>365.0</ele><time>2026-04-19T09:51:09.967Z</time></trkpt><trkpt lat="43.4634766" lon="11.4081887"><ele>363.75</ele><time>2026-04-19T09:51:10.97Z</time></trkpt><trkpt lat="43.4635475" lon="11.4082903"><ele>362.5</ele><time>2026-04-19T09:51:11.97Z</time></trkpt><trkpt lat="43.4636302" lon="11.4084151"><ele>361.25</ele><time>2026-04-19T09:51:12.968Z</time></trkpt><trkpt lat="43.4637145" lon="11.4085463"><ele>360.0</ele><time>2026-04-19T09:51:13.968Z</time></trkpt><trkpt lat="43.4637909" lon="11.408659"><ele>359.2</ele><time>2026-04-19T09:51:14.979Z</time></trkpt><trkpt lat="43.4638647" lon="11.4087709"><ele>358.4</ele><time>2026-04-19T09:51:15.975Z</time></trkpt><trkpt lat="43.4639415" lon="11.4088834"><ele>357.6</ele><time>2026-04-19T09:51:16.968Z</time></trkpt><trkpt lat="43.4640004" lon="11.4089969"><ele>356.8</ele><time>2026-04-19T09:51:17.967Z</time></trkpt><trkpt lat="43.4640425" lon="11.4091096"><ele>356.0</ele><time>2026-04-19T09:51:18.986Z</time></trkpt><trkpt lat="43.464073" lon="11.4092057"><ele>356.0</ele><time>2026-04-19T09:51:19.97Z</time></trkpt><trkpt lat="43.4640908" lon="11.4092969"><ele>356.0</ele><time>2026-04-19T09:51:20.969Z</time></trkpt><trkpt lat="43.4641159" lon="11.4094116"><ele>356.0</ele><time>2026-04-19T09:51:22.97Z</time></trkpt><trkpt lat="43.4641395" lon="11.4095437"><ele>356.0</ele><time>2026-04-19T09:51:24.965Z</time></trkpt><trkpt lat="43.4641225" lon="11.4096632"><ele>356.0</ele><time>2026-04-19T09:51:25.965Z</time></trkpt><trkpt lat="43.4640936" lon="11.4098225"><ele>357.0</ele><time>2026-04-19T09:51:26.992Z</time></trkpt><trkpt lat="43.4640657" lon="11.4100077"><ele>358.0</ele><time>2026-04-19T09:51:27.97Z</time></trkpt><trkpt lat="43.4640181" lon="11.4101962"><ele>359.0</ele><time>2026-04-19T09:51:28.977Z</time></trkpt><trkpt lat="43.4639511" lon="11.4103869"><ele>360.0</ele><time>2026-04-19T09:51:29.973Z</time></trkpt><trkpt lat="43.46386" lon="11.4105762"><ele>358.3333333333333</ele><time>2026-04-19T09:51:30.969Z</time></trkpt><trkpt lat="43.46376" lon="11.4107646"><ele>356.66666666666663</ele><time>2026-04-19T09:51:31.988Z</time></trkpt><trkpt lat="43.4636498" lon="11.4109566"><ele>355.0</ele><time>2026-04-19T09:51:32.972Z</time></trkpt><trkpt lat="43.4635452" lon="11.4111579"><ele>355.3333333333333</ele><time>2026-04-19T09:51:33.967Z</time></trkpt><trkpt lat="43.4634438" lon="11.4113462"><ele>355.6666666666667</ele><time>2026-04-19T09:51:34.972Z</time></trkpt><trkpt lat="43.4633488" lon="11.4115145"><ele>356.0</ele><time>2026-04-19T09:51:35.969Z</time></trkpt><trkpt lat="43.4632597" lon="11.4116823"><ele>356.0</ele><time>2026-04-19T09:51:36.97Z</time></trkpt><trkpt lat="43.4631669" lon="11.4118574"><ele>356.0</ele><time>2026-04-19T09:51:37.967Z</time></trkpt><trkpt lat="43.4630746" lon="11.4120319"><ele>356.0</ele><time>2026-04-19T09:51:38.969Z</time></trkpt><trkpt lat="43.4629862" lon="11.4121964"><ele>355.0</ele><time>2026-04-19T09:51:39.975Z</time></trkpt><trkpt lat="43.4629038" lon="11.4123563"><ele>354.0</ele><time>2026-04-19T09:51:40.969Z</time></trkpt><trkpt lat="43.4628197" lon="11.4125227"><ele>353.0</ele><time>2026-04-19T09:51:41.975Z</time></trkpt><trkpt lat="43.4627312" lon="11.4126862"><ele>352.0</ele><time>2026-04-19T09:51:42.971Z</time></trkpt><trkpt lat="43.4626496" lon="11.4128346"><ele>352.0</ele><time>2026-04-19T09:51:43.972Z</time></trkpt><trkpt lat="43.4625805" lon="11.4129674"><ele>352.0</ele><time>2026-04-19T09:51:44.969Z</time></trkpt><trkpt lat="43.4625115" lon="11.4130854"><ele>352.0</ele><time>2026-04-19T09:51:45.967Z</time></trkpt><trkpt lat="43.4624605" lon="11.4131742"><ele>352.0</ele><time>2026-04-19T09:51:46.992Z</time></trkpt><trkpt lat="43.4624191" lon="11.4132464"><ele>352.0</ele><time>2026-04-19T09:51:47.977Z</time></trkpt><trkpt lat="43.4623819" lon="11.4133723"><ele>352.25</ele><time>2026-04-19T09:51:49.973Z</time></trkpt><trkpt lat="43.462428" lon="11.4135509"><ele>352.5</ele><time>2026-04-19T09:51:51.982Z</time></trkpt><trkpt lat="43.4624989" lon="11.4136541"><ele>352.75</ele><time>2026-04-19T09:51:52.967Z</time></trkpt><trkpt lat="43.4625661" lon="11.4137573"><ele>353.0</ele><time>2026-04-19T09:51:53.963Z</time></trkpt><trkpt lat="43.4626373" lon="11.4138852"><ele>355.4</ele><time>2026-04-19T09:51:54.965Z</time></trkpt><trkpt lat="43.4626934" lon="11.414009"><ele>357.79999999999995</ele><time>2026-04-19T09:51:55.976Z</time></trkpt><trkpt lat="43.4627678" lon="11.4140956"><ele>360.2</ele><time>2026-04-19T09:51:56.973Z</time></trkpt><trkpt lat="43.4628611" lon="11.414178"><ele>362.6</ele><time>2026-04-19T09:51:57.976Z</time></trkpt><trkpt lat="43.4629556" lon="11.4142688"><ele>365.0</ele><time>2026-04-19T09:51:58.974Z</time></trkpt><trkpt lat="43.4630631" lon="11.4143771"><ele>365.25</ele><time>2026-04-19T09:51:59.99Z</time></trkpt><trkpt lat="43.4631926" lon="11.4145014"><ele>365.5</ele><time>2026-04-19T09:52:00.974Z</time></trkpt><trkpt lat="43.4633004" lon="11.4146216"><ele>365.75</ele><time>2026-04-19T09:52:01.968Z</time></trkpt><trkpt lat="43.4633803" lon="11.414721"><ele>366.0</ele><time>2026-04-19T09:52:02.979Z</time></trkpt><trkpt lat="43.4634484" lon="11.4148072"><ele>366.8333333333333</ele><time>2026-04-19T09:52:03.98Z</time></trkpt><trkpt lat="43.4635099" lon="11.4148418"><ele>367.6666666666667</ele><time>2026-04-19T09:52:04.976Z</time></trkpt><trkpt lat="43.4635845" lon="11.4148689"><ele>368.5</ele><time>2026-04-19T09:52:05.975Z</time></trkpt><trkpt lat="43.4636645" lon="11.4148616"><ele>369.33333333333337</ele><time>2026-04-19T09:52:07.975Z</time></trkpt><trkpt lat="43.4637375" lon="11.4148229"><ele>370.1666666666667</ele><time>2026-04-19T09:52:09.972Z</time></trkpt><trkpt lat="43.4638463" lon="11.4147008"><ele>371.0</ele><time>2026-04-19T09:52:11.97Z</time></trkpt><trkpt lat="43.4639105" lon="11.4146666"><ele>371.0</ele><time>2026-04-19T09:52:12.97Z</time></trkpt><trkpt lat="43.4639888" lon="11.4146629"><ele>371.0</ele><time>2026-04-19T09:52:13.97Z</time></trkpt><trkpt lat="43.46407" lon="11.4146809"><ele>371.0</ele><time>2026-04-19T09:52:14.969Z</time></trkpt><trkpt lat="43.4641568" lon="11.414703"><ele>371.0</ele><time>2026-04-19T09:52:15.971Z</time></trkpt><trkpt lat="43.4642343" lon="11.4147027"><ele>371.0</ele><time>2026-04-19T09:52:16.973Z</time></trkpt><trkpt lat="43.4643071" lon="11.4147012"><ele>371.0</ele><time>2026-04-19T09:52:17.998Z</time></trkpt><trkpt lat="43.4643776" lon="11.4146895"><ele>371.0</ele><time>2026-04-19T09:52:18.971Z</time></trkpt><trkpt lat="43.4644475" lon="11.4146737"><ele>371.0</ele><time>2026-04-19T09:52:19.968Z</time></trkpt><trkpt lat="43.4645348" lon="11.4146437"><ele>371.0</ele><time>2026-04-19T09:52:20.968Z</time></trkpt><trkpt lat="43.4646034" lon="11.4146051"><ele>371.0</ele><time>2026-04-19T09:52:21.967Z</time></trkpt><trkpt lat="43.4647083" lon="11.414513"><ele>371.0</ele><time>2026-04-19T09:52:23.98Z</time></trkpt><trkpt lat="43.4647641" lon="11.4144386"><ele>371.0</ele><time>2026-04-19T09:52:24.975Z</time></trkpt><trkpt lat="43.4648224" lon="11.4143574"><ele>375.20000000000005</ele><time>2026-04-19T09:52:25.968Z</time></trkpt><trkpt lat="43.4648923" lon="11.4142819"><ele>379.40000000000003</ele><time>2026-04-19T09:52:26.971Z</time></trkpt><trkpt lat="43.4649763" lon="11.4142205"><ele>383.6</ele><time>2026-04-19T09:52:27.968Z</time></trkpt><trkpt lat="43.4650635" lon="11.4141501"><ele>387.8</ele><time>2026-04-19T09:52:28.974Z</time></trkpt><trkpt lat="43.4651443" lon="11.4140772"><ele>392.0</ele><time>2026-04-19T09:52:29.991Z</time></trkpt><trkpt lat="43.4652154" lon="11.414023"><ele>391.99999999999994</ele><time>2026-04-19T09:52:30.966Z</time></trkpt><trkpt lat="43.4652969" lon="11.4139802"><ele>392.0</ele><time>2026-04-19T09:52:31.98Z</time></trkpt><trkpt lat="43.4653727" lon="11.4139489"><ele>392.0</ele><time>2026-04-19T09:52:32.968Z</time></trkpt><trkpt lat="43.465453" lon="11.4139144"><ele>392.0</ele><time>2026-04-19T09:52:33.972Z</time></trkpt><trkpt lat="43.4655338" lon="11.4138867"><ele>391.99999999999994</ele><time>2026-04-19T09:52:34.972Z</time></trkpt><trkpt lat="43.4656138" lon="11.4138634"><ele>392.0</ele><time>2026-04-19T09:52:35.983Z</time></trkpt><trkpt lat="43.4656955" lon="11.4138507"><ele>395.20000000000005</ele><time>2026-04-19T09:52:36.979Z</time></trkpt><trkpt lat="43.4657806" lon="11.4138324"><ele>398.4</ele><time>2026-04-19T09:52:37.988Z</time></trkpt><trkpt lat="43.4658713" lon="11.4138121"><ele>401.6</ele><time>2026-04-19T09:52:38.978Z</time></trkpt><trkpt lat="43.4659603" lon="11.4137931"><ele>404.79999999999995</ele><time>2026-04-19T09:52:39.977Z</time></trkpt><trkpt lat="43.4660534" lon="11.4137681"><ele>408.0</ele><time>2026-04-19T09:52:40.975Z</time></trkpt><trkpt lat="43.4661556" lon="11.4137374"><ele>409.79999999999995</ele><time>2026-04-19T09:52:41.976Z</time></trkpt><trkpt lat="43.4662568" lon="11.4137079"><ele>411.6</ele><time>2026-04-19T09:52:42.977Z</time></trkpt><trkpt lat="43.4663484" lon="11.4136799"><ele>413.4</ele><time>2026-04-19T09:52:43.994Z</time></trkpt><trkpt lat="43.4664447" lon="11.4136527"><ele>415.20000000000005</ele><time>2026-04-19T09:52:44.981Z</time></trkpt><trkpt lat="43.4665377" lon="11.4136397"><ele>417.0</ele><time>2026-04-19T09:52:45.977Z</time></trkpt><trkpt lat="43.4666243" lon="11.4136192"><ele>420.20000000000005</ele><time>2026-04-19T09:52:47.007Z</time></trkpt><trkpt lat="43.4667127" lon="11.4136016"><ele>423.4</ele><time>2026-04-19T09:52:47.975Z</time></trkpt><trkpt lat="43.4668049" lon="11.4135723"><ele>426.59999999999997</ele><time>2026-04-19T09:52:48.975Z</time></trkpt><trkpt lat="43.4668956" lon="11.4135459"><ele>429.79999999999995</ele><time>2026-04-19T09:52:49.98Z</time></trkpt><trkpt lat="43.4669886" lon="11.413506"><ele>433.0</ele><time>2026-04-19T09:52:51.969Z</time></trkpt><trkpt lat="43.4670963" lon="11.4134884"><ele>435.2</ele><time>2026-04-19T09:52:54.966Z</time></trkpt><trkpt lat="43.4671748" lon="11.4135262"><ele>437.4</ele><time>2026-04-19T09:52:56.981Z</time></trkpt><trkpt lat="43.4672359" lon="11.4136194"><ele>439.59999999999997</ele><time>2026-04-19T09:52:58.968Z</time></trkpt><trkpt lat="43.4672806" lon="11.4137815"><ele>441.79999999999995</ele><time>2026-04-19T09:53:00.967Z</time></trkpt><trkpt lat="43.4672889" lon="11.4139271"><ele>444.0</ele><time>2026-04-19T09:53:02.97Z</time></trkpt><trkpt lat="43.4673196" lon="11.414048"><ele>444.0</ele><time>2026-04-19T09:53:04.972Z</time></trkpt><trkpt lat="43.4673546" lon="11.4141689"><ele>444.0</ele><time>2026-04-19T09:53:06.974Z</time></trkpt><trkpt lat="43.4674037" lon="11.4143049"><ele>444.0</ele><time>2026-04-19T09:53:08.992Z</time></trkpt><trkpt lat="43.4674426" lon="11.4143831"><ele>444.0</ele><time>2026-04-19T09:53:09.977Z</time></trkpt><trkpt lat="43.4675006" lon="11.4144657"><ele>444.0</ele><time>2026-04-19T09:53:10.973Z</time></trkpt><trkpt lat="43.4675584" lon="11.414554"><ele>444.0</ele><time>2026-04-19T09:53:11.972Z</time></trkpt><trkpt lat="43.4676173" lon="11.4146426"><ele>442.5</ele><time>2026-04-19T09:53:12.99Z</time></trkpt><trkpt lat="43.4676755" lon="11.4147285"><ele>441.0</ele><time>2026-04-19T09:53:13.972Z</time></trkpt><trkpt lat="43.4677311" lon="11.4148246"><ele>439.5</ele><time>2026-04-19T09:53:14.965Z</time></trkpt><trkpt lat="43.467786" lon="11.4149234"><ele>438.0</ele><time>2026-04-19T09:53:15.967Z</time></trkpt><trkpt lat="43.4678407" lon="11.4150198"><ele>436.5</ele><time>2026-04-19T09:53:16.972Z</time></trkpt><trkpt lat="43.4678958" lon="11.4151109"><ele>435.0</ele><time>2026-04-19T09:53:17.984Z</time></trkpt><trkpt lat="43.4679467" lon="11.4151926"><ele>437.7142857142858</ele><time>2026-04-19T09:53:18.971Z</time></trkpt><trkpt lat="43.4679959" lon="11.4152719"><ele>440.42857142857144</ele><time>2026-04-19T09:53:19.974Z</time></trkpt><trkpt lat="43.4680482" lon="11.4153278"><ele>443.14285714285717</ele><time>2026-04-19T09:53:20.981Z</time></trkpt><trkpt lat="43.4681111" lon="11.415378"><ele>445.8571428571429</ele><time>2026-04-19T09:53:21.971Z</time></trkpt><trkpt lat="43.4681806" lon="11.4154203"><ele>448.5714285714286</ele><time>2026-04-19T09:53:22.969Z</time></trkpt><trkpt lat="43.4682545" lon="11.4154506"><ele>451.28571428571433</ele><time>2026-04-19T09:53:23.976Z</time></trkpt><trkpt lat="43.4683275" lon="11.4154697"><ele>454.0</ele><time>2026-04-19T09:53:24.983Z</time></trkpt><trkpt lat="43.4683952" lon="11.4154786"><ele>454.0</ele><time>2026-04-19T09:53:25.979Z</time></trkpt><trkpt lat="43.4685008" lon="11.4154562"><ele>454.0</ele><time>2026-04-19T09:53:27.971Z</time></trkpt><trkpt lat="43.4685675" lon="11.4153506"><ele>454.0</ele><time>2026-04-19T09:53:29.974Z</time></trkpt><trkpt lat="43.4686132" lon="11.4152056"><ele>454.0</ele><time>2026-04-19T09:53:31.974Z</time></trkpt><trkpt lat="43.4686613" lon="11.4150802"><ele>454.0</ele><time>2026-04-19T09:53:33.972Z</time></trkpt><trkpt lat="43.4687258" lon="11.4150587"><ele>453.83333333333337</ele><time>2026-04-19T09:53:35.975Z</time></trkpt><trkpt lat="43.468785" lon="11.4151081"><ele>453.6666666666667</ele><time>2026-04-19T09:53:37.972Z</time></trkpt><trkpt lat="43.4688617" lon="11.4152294"><ele>453.5</ele><time>2026-04-19T09:53:39.977Z</time></trkpt><trkpt lat="43.468901" lon="11.4152978"><ele>453.33333333333337</ele><time>2026-04-19T09:53:40.975Z</time></trkpt><trkpt lat="43.468951" lon="11.4154583"><ele>453.1666666666667</ele><time>2026-04-19T09:53:42.971Z</time></trkpt><trkpt lat="43.468966" lon="11.4155495"><ele>453.0</ele><time>2026-04-19T09:53:43.981Z</time></trkpt><trkpt lat="43.469026" lon="11.4156766"><ele>456.79999999999995</ele><time>2026-04-19T09:53:45.976Z</time></trkpt><trkpt lat="43.4691046" lon="11.4157702"><ele>460.59999999999997</ele><time>2026-04-19T09:53:47.979Z</time></trkpt><trkpt lat="43.4691833" lon="11.4158599"><ele>464.40000000000003</ele><time>2026-04-19T09:53:49.977Z</time></trkpt><trkpt lat="43.4692152" lon="11.4160019"><ele>468.20000000000005</ele><time>2026-04-19T09:53:51.968Z</time></trkpt><trkpt lat="43.4692043" lon="11.416092"><ele>472.0</ele><time>2026-04-19T09:53:52.969Z</time></trkpt><trkpt lat="43.469195" lon="11.416259"><ele>474.0</ele><time>2026-04-19T09:53:54.993Z</time></trkpt><trkpt lat="43.4691933" lon="11.4163517"><ele>476.0</ele><time>2026-04-19T09:53:55.97Z</time></trkpt><trkpt lat="43.4691934" lon="11.4164414"><ele>478.0</ele><time>2026-04-19T09:53:56.97Z</time></trkpt><trkpt lat="43.4691952" lon="11.4165321"><ele>480.0</ele><time>2026-04-19T09:53:57.969Z</time></trkpt><trkpt lat="43.4692119" lon="11.4166298"><ele>482.0</ele><time>2026-04-19T09:53:58.968Z</time></trkpt><trkpt lat="43.4692403" lon="11.4167209"><ele>484.0</ele><time>2026-04-19T09:53:59.996Z</time></trkpt><trkpt lat="43.4692699" lon="11.4168109"><ele>486.0</ele><time>2026-04-19T09:54:00.969Z</time></trkpt><trkpt lat="43.4692934" lon="11.4168938"><ele>486.0</ele><time>2026-04-19T09:54:01.971Z</time></trkpt><trkpt lat="43.4693118" lon="11.4169802"><ele>486.0</ele><time>2026-04-19T09:54:02.971Z</time></trkpt><trkpt lat="43.4693458" lon="11.4171138"><ele>486.0</ele><time>2026-04-19T09:54:04.976Z</time></trkpt><trkpt lat="43.4694119" lon="11.4172073"><ele>486.0</ele><time>2026-04-19T09:54:06.976Z</time></trkpt><trkpt lat="43.4694864" lon="11.4172985"><ele>486.0</ele><time>2026-04-19T09:54:08.973Z</time></trkpt><trkpt lat="43.4695431" lon="11.4173905"><ele>486.6666666666667</ele><time>2026-04-19T09:54:10.97Z</time></trkpt><trkpt lat="43.4695869" lon="11.4175179"><ele>487.33333333333337</ele><time>2026-04-19T09:54:12.97Z</time></trkpt><trkpt lat="43.4696348" lon="11.4176575"><ele>488.0</ele><time>2026-04-19T09:54:14.974Z</time></trkpt><trkpt lat="43.4696693" lon="11.4177364"><ele>488.6666666666667</ele><time>2026-04-19T09:54:15.97Z</time></trkpt><trkpt lat="43.4697107" lon="11.4178094"><ele>489.33333333333337</ele><time>2026-04-19T09:54:16.968Z</time></trkpt><trkpt lat="43.4697607" lon="11.4178702"><ele>490.0</ele><time>2026-04-19T09:54:17.971Z</time></trkpt><trkpt lat="43.4698318" lon="11.4179236"><ele>492.2</ele><time>2026-04-19T09:54:18.969Z</time></trkpt><trkpt lat="43.4699027" lon="11.4179629"><ele>494.4</ele><time>2026-04-19T09:54:19.968Z</time></trkpt><trkpt lat="43.4699651" lon="11.418011"><ele>496.6</ele><time>2026-04-19T09:54:20.983Z</time></trkpt><trkpt lat="43.4700426" lon="11.4181183"><ele>498.8</ele><time>2026-04-19T09:54:22.967Z</time></trkpt><trkpt lat="43.4701173" lon="11.4182516"><ele>501.0</ele><time>2026-04-19T09:54:24.97Z</time></trkpt><trkpt lat="43.4701629" lon="11.418335"><ele>502.0</ele><time>2026-04-19T09:54:25.977Z</time></trkpt><trkpt lat="43.4702168" lon="11.4184665"><ele>502.0</ele><time>2026-04-19T09:54:27.998Z</time></trkpt></trkseg><trkseg><trkpt lat="43.4696757" lon="11.4219535"><ele>492.4</ele><time>2026-04-19T09:58:02.976Z</time></trkpt><trkpt lat="43.4696045" lon="11.4219898"><ele>491.79999999999995</ele><time>2026-04-19T09:58:03.977Z</time></trkpt><trkpt lat="43.469519" lon="11.4220401"><ele>491.2</ele><time>2026-04-19T09:58:04.974Z</time></trkpt><trkpt lat="43.4694271" lon="11.4221039"><ele>490.6</ele><time>2026-04-19T09:58:05.978Z</time></trkpt><trkpt lat="43.4693189" lon="11.4221772"><ele>490.0</ele><time>2026-04-19T09:58:06.973Z</time></trkpt><trkpt lat="43.4691923" lon="11.4222652"><ele>490.0</ele><time>2026-04-19T09:58:07.97Z</time></trkpt><trkpt lat="43.4690559" lon="11.4223652"><ele>490.0</ele><time>2026-04-19T09:58:08.97Z</time></trkpt><trkpt lat="43.4689137" lon="11.4224645"><ele>490.0</ele><time>2026-04-19T09:58:09.97Z</time></trkpt><trkpt lat="43.468769" lon="11.4225702"><ele>486.5</ele><time>2026-04-19T09:58:10.975Z</time></trkpt><trkpt lat="43.4686269" lon="11.4226728"><ele>483.0</ele><time>2026-04-19T09:58:11.976Z</time></trkpt><trkpt lat="43.4684997" lon="11.4227672"><ele>479.5</ele><time>2026-04-19T09:58:12.977Z</time></trkpt><trkpt lat="43.4683805" lon="11.4228549"><ele>476.0</ele><time>2026-04-19T09:58:13.979Z</time></trkpt><trkpt lat="43.4682752" lon="11.4229347"><ele>476.6</ele><time>2026-04-19T09:58:14.971Z</time></trkpt><trkpt lat="43.4681622" lon="11.4229987"><ele>477.20000000000005</ele><time>2026-04-19T09:58:15.967Z</time></trkpt><trkpt lat="43.468052" lon="11.4230469"><ele>477.79999999999995</ele><time>2026-04-19T09:58:16.975Z</time></trkpt><trkpt lat="43.4679497" lon="11.4230791"><ele>478.4</ele><time>2026-04-19T09:58:17.966Z</time></trkpt><trkpt lat="43.4678536" lon="11.4230958"><ele>479.0</ele><time>2026-04-19T09:58:18.969Z</time></trkpt><trkpt lat="43.4677713" lon="11.423114"><ele>478.99999999999994</ele><time>2026-04-19T09:58:19.97Z</time></trkpt><trkpt lat="43.4677105" lon="11.4231749"><ele>479.0</ele><time>2026-04-19T09:58:20.972Z</time></trkpt><trkpt lat="43.4676783" lon="11.4232533"><ele>479.0</ele><time>2026-04-19T09:58:22.008Z</time></trkpt><trkpt lat="43.4676612" lon="11.4233495"><ele>479.0</ele><time>2026-04-19T09:58:22.974Z</time></trkpt><trkpt lat="43.4676789" lon="11.4234547"><ele>478.99999999999994</ele><time>2026-04-19T09:58:23.977Z</time></trkpt><trkpt lat="43.4677211" lon="11.4235582"><ele>479.0</ele><time>2026-04-19T09:58:24.974Z</time></trkpt><trkpt lat="43.4677931" lon="11.4236487"><ele>479.0</ele><time>2026-04-19T09:58:25.97Z</time></trkpt><trkpt lat="43.4679205" lon="11.4237302"><ele>479.0</ele><time>2026-04-19T09:58:26.968Z</time></trkpt><trkpt lat="43.4680444" lon="11.4238408"><ele>479.0</ele><time>2026-04-19T09:58:27.969Z</time></trkpt><trkpt lat="43.4681586" lon="11.4239392"><ele>479.0</ele><time>2026-04-19T09:58:28.968Z</time></trkpt><trkpt lat="43.4682687" lon="11.4240417"><ele>477.0</ele><time>2026-04-19T09:58:29.974Z</time></trkpt><trkpt lat="43.4683712" lon="11.4241369"><ele>475.0</ele><time>2026-04-19T09:58:30.982Z</time></trkpt><trkpt lat="43.46846" lon="11.42422"><ele>473.0</ele><time>2026-04-19T09:58:31.969Z</time></trkpt><trkpt lat="43.4685551" lon="11.4242797"><ele>471.0</ele><time>2026-04-19T09:58:32.964Z</time></trkpt><trkpt lat="43.4686652" lon="11.4243191"><ele>469.0</ele><time>2026-04-19T09:58:33.971Z</time></trkpt><trkpt lat="43.4688043" lon="11.4243453"><ele>468.5</ele><time>2026-04-19T09:58:34.985Z</time></trkpt><trkpt lat="43.4689505" lon="11.4243587"><ele>468.0</ele><time>2026-04-19T09:58:35.977Z</time></trkpt><trkpt lat="43.4690855" lon="11.4243615"><ele>467.5</ele><time>2026-04-19T09:58:36.979Z</time></trkpt><trkpt lat="43.4692136" lon="11.4243764"><ele>467.0</ele><time>2026-04-19T09:58:37.969Z</time></trkpt><trkpt lat="43.4693388" lon="11.4244022"><ele>467.0</ele><time>2026-04-19T09:58:38.972Z</time></trkpt><trkpt lat="43.4694507" lon="11.4244406"><ele>467.00000000000006</ele><time>2026-04-19T09:58:40.03Z</time></trkpt><trkpt lat="43.4695527" lon="11.4244893"><ele>467.00000000000006</ele><time>2026-04-19T09:58:40.974Z</time></trkpt><trkpt lat="43.4696434" lon="11.4245558"><ele>467.0</ele><time>2026-04-19T09:58:41.969Z</time></trkpt><trkpt lat="43.4697257" lon="11.4246444"><ele>467.0</ele><time>2026-04-19T09:58:42.977Z</time></trkpt><trkpt lat="43.4697988" lon="11.4247539"><ele>465.25</ele><time>2026-04-19T09:58:43.97Z</time></trkpt><trkpt lat="43.4698411" lon="11.4248859"><ele>463.5</ele><time>2026-04-19T09:58:44.966Z</time></trkpt><trkpt lat="43.469861" lon="11.4250286"><ele>461.75</ele><time>2026-04-19T09:58:45.969Z</time></trkpt><trkpt lat="43.4698816" lon="11.4251955"><ele>460.0</ele><time>2026-04-19T09:58:46.968Z</time></trkpt><trkpt lat="43.4698873" lon="11.4253943"><ele>456.0</ele><time>2026-04-19T09:58:47.974Z</time></trkpt><trkpt lat="43.4698892" lon="11.4256154"><ele>452.0</ele><time>2026-04-19T09:58:48.969Z</time></trkpt><trkpt lat="43.4699002" lon="11.4258401"><ele>448.0</ele><time>2026-04-19T09:58:49.973Z</time></trkpt><trkpt lat="43.4699012" lon="11.4260338"><ele>448.0</ele><time>2026-04-19T09:58:50.968Z</time></trkpt><trkpt lat="43.4698934" lon="11.4262119"><ele>448.0</ele><time>2026-04-19T09:58:51.97Z</time></trkpt><trkpt lat="43.4698826" lon="11.4263886"><ele>448.0</ele><time>2026-04-19T09:58:52.975Z</time></trkpt><trkpt lat="43.4698763" lon="11.4265515"><ele>448.0</ele><time>2026-04-19T09:58:53.968Z</time></trkpt><trkpt lat="43.4698661" lon="11.4267061"><ele>446.4</ele><time>2026-04-19T09:58:54.972Z</time></trkpt><trkpt lat="43.469847" lon="11.4268587"><ele>444.79999999999995</ele><time>2026-04-19T09:58:56.021Z</time></trkpt><trkpt lat="43.4698274" lon="11.4270034"><ele>443.2</ele><time>2026-04-19T09:58:56.971Z</time></trkpt><trkpt lat="43.4697965" lon="11.4271472"><ele>441.6</ele><time>2026-04-19T09:58:57.981Z</time></trkpt><trkpt lat="43.469755" lon="11.4272959"><ele>440.0</ele><time>2026-04-19T09:58:58.97Z</time></trkpt><trkpt lat="43.4696972" lon="11.4274321"><ele>438.0</ele><time>2026-04-19T09:58:59.97Z</time></trkpt><trkpt lat="43.4696239" lon="11.4275679"><ele>436.0</ele><time>2026-04-19T09:59:00.97Z</time></trkpt><trkpt lat="43.4695398" lon="11.4277265"><ele>434.0</ele><time>2026-04-19T09:59:01.97Z</time></trkpt><trkpt lat="43.4694421" lon="11.4278799"><ele>432.0</ele><time>2026-04-19T09:59:02.97Z</time></trkpt><trkpt lat="43.4693458" lon="11.4280294"><ele>429.25</ele><time>2026-04-19T09:59:03.972Z</time></trkpt><trkpt lat="43.4692523" lon="11.4281772"><ele>426.5</ele><time>2026-04-19T09:59:04.971Z</time></trkpt><trkpt lat="43.4691614" lon="11.4283116"><ele>423.75</ele><time>2026-04-19T09:59:05.975Z</time></trkpt><trkpt lat="43.4690808" lon="11.4284449"><ele>421.0</ele><time>2026-04-19T09:59:06.976Z</time></trkpt><trkpt lat="43.4690028" lon="11.4285758"><ele>421.0</ele><time>2026-04-19T09:59:07.978Z</time></trkpt><trkpt lat="43.46892" lon="11.4287058"><ele>421.0</ele><time>2026-04-19T09:59:08.978Z</time></trkpt><trkpt lat="43.4688336" lon="11.4288482"><ele>421.0</ele><time>2026-04-19T09:59:09.983Z</time></trkpt><trkpt lat="43.4687449" lon="11.4289945"><ele>421.0</ele><time>2026-04-19T09:59:10.974Z</time></trkpt><trkpt lat="43.468661" lon="11.4291342"><ele>418.4</ele><time>2026-04-19T09:59:11.987Z</time></trkpt><trkpt lat="43.4685782" lon="11.4292668"><ele>415.8</ele><time>2026-04-19T09:59:12.969Z</time></trkpt><trkpt lat="43.4685053" lon="11.4293846"><ele>413.2</ele><time>2026-04-19T09:59:13.97Z</time></trkpt><trkpt lat="43.4684382" lon="11.4294931"><ele>410.59999999999997</ele><time>2026-04-19T09:59:14.966Z</time></trkpt><trkpt lat="43.4683621" lon="11.4295867"><ele>408.0</ele><time>2026-04-19T09:59:15.969Z</time></trkpt><trkpt lat="43.468272" lon="11.4296548"><ele>406.75</ele><time>2026-04-19T09:59:16.969Z</time></trkpt><trkpt lat="43.4681665" lon="11.4297213"><ele>405.5</ele><time>2026-04-19T09:59:17.969Z</time></trkpt><trkpt lat="43.4680544" lon="11.429802"><ele>404.25</ele><time>2026-04-19T09:59:18.971Z</time></trkpt><trkpt lat="43.4679368" lon="11.4298859"><ele>403.0</ele><time>2026-04-19T09:59:20.007Z</time></trkpt><trkpt lat="43.4678249" lon="11.4299601"><ele>402.0</ele><time>2026-04-19T09:59:20.974Z</time></trkpt><trkpt lat="43.4677171" lon="11.4300405"><ele>401.0</ele><time>2026-04-19T09:59:21.968Z</time></trkpt><trkpt lat="43.4676209" lon="11.4301108"><ele>400.0</ele><time>2026-04-19T09:59:22.979Z</time></trkpt><trkpt lat="43.4675312" lon="11.4301739"><ele>399.0</ele><time>2026-04-19T09:59:23.973Z</time></trkpt><trkpt lat="43.4674482" lon="11.4302358"><ele>398.0</ele><time>2026-04-19T09:59:24.974Z</time></trkpt><trkpt lat="43.467367" lon="11.4303014"><ele>397.99999999999994</ele><time>2026-04-19T09:59:25.969Z</time></trkpt><trkpt lat="43.4672846" lon="11.4303651"><ele>398.0</ele><time>2026-04-19T09:59:26.972Z</time></trkpt><trkpt lat="43.4672077" lon="11.4304197"><ele>398.0</ele><time>2026-04-19T09:59:27.97Z</time></trkpt><trkpt lat="43.4671298" lon="11.430476"><ele>398.0</ele><time>2026-04-19T09:59:28.969Z</time></trkpt><trkpt lat="43.4670543" lon="11.4305314"><ele>397.99999999999994</ele><time>2026-04-19T09:59:29.975Z</time></trkpt><trkpt lat="43.4669693" lon="11.4305809"><ele>398.0</ele><time>2026-04-19T09:59:30.972Z</time></trkpt><trkpt lat="43.466886" lon="11.4306197"><ele>396.3333333333333</ele><time>2026-04-19T09:59:31.981Z</time></trkpt><trkpt lat="43.4668119" lon="11.4306607"><ele>394.66666666666663</ele><time>2026-04-19T09:59:32.971Z</time></trkpt><trkpt lat="43.4667381" lon="11.4307001"><ele>393.0</ele><time>2026-04-19T09:59:33.973Z</time></trkpt><trkpt lat="43.4666837" lon="11.4307446"><ele>391.33333333333337</ele><time>2026-04-19T09:59:34.975Z</time></trkpt><trkpt lat="43.4666285" lon="11.4308527"><ele>389.6666666666667</ele><time>2026-04-19T09:59:36.972Z</time></trkpt><trkpt lat="43.4666664" lon="11.4310074"><ele>388.0</ele><time>2026-04-19T09:59:38.977Z</time></trkpt><trkpt lat="43.4667227" lon="11.4310877"><ele>388.0</ele><time>2026-04-19T09:59:39.969Z</time></trkpt><trkpt lat="43.4668021" lon="11.4311922"><ele>388.0</ele><time>2026-04-19T09:59:40.971Z</time></trkpt><trkpt lat="43.4668997" lon="11.4312685"><ele>388.0</ele><time>2026-04-19T09:59:41.97Z</time></trkpt><trkpt lat="43.4670115" lon="11.4313202"><ele>388.0</ele><time>2026-04-19T09:59:42.974Z</time></trkpt><trkpt lat="43.4671173" lon="11.4313547"><ele>388.0</ele><time>2026-04-19T09:59:43.971Z</time></trkpt><trkpt lat="43.467215" lon="11.4313921"><ele>385.59999999999997</ele><time>2026-04-19T09:59:44.975Z</time></trkpt><trkpt lat="43.4673083" lon="11.4314338"><ele>383.2</ele><time>2026-04-19T09:59:45.993Z</time></trkpt><trkpt lat="43.4674054" lon="11.4314849"><ele>380.8</ele><time>2026-04-19T09:59:47.007Z</time></trkpt><trkpt lat="43.4675088" lon="11.4315475"><ele>378.4</ele><time>2026-04-19T09:59:47.967Z</time></trkpt><trkpt lat="43.4676116" lon="11.4316213"><ele>376.0</ele><time>2026-04-19T09:59:48.964Z</time></trkpt><trkpt lat="43.4677156" lon="11.431708"><ele>376.0</ele><time>2026-04-19T09:59:49.969Z</time></trkpt><trkpt lat="43.4678198" lon="11.4317988"><ele>376.0</ele><time>2026-04-19T09:59:50.965Z</time></trkpt><trkpt lat="43.4679142" lon="11.4318989"><ele>376.0</ele><time>2026-04-19T09:59:51.972Z</time></trkpt><trkpt lat="43.468003" lon="11.4320111"><ele>376.0</ele><time>2026-04-19T09:59:52.987Z</time></trkpt><trkpt lat="43.4680844" lon="11.4321172"><ele>373.6</ele><time>2026-04-19T09:59:53.974Z</time></trkpt><trkpt lat="43.4681593" lon="11.432233"><ele>371.20000000000005</ele><time>2026-04-19T09:59:54.97Z</time></trkpt><trkpt lat="43.4682261" lon="11.4323388"><ele>368.79999999999995</ele><time>2026-04-19T09:59:55.995Z</time></trkpt><trkpt lat="43.4683011" lon="11.4324395"><ele>366.4</ele><time>2026-04-19T09:59:56.975Z</time></trkpt><trkpt lat="43.4683686" lon="11.4325244"><ele>364.0</ele><time>2026-04-19T09:59:57.972Z</time></trkpt><trkpt lat="43.4684186" lon="11.4326092"><ele>364.0</ele><time>2026-04-19T09:59:58.974Z</time></trkpt><trkpt lat="43.4684558" lon="11.4327211"><ele>364.0</ele><time>2026-04-19T09:59:59.986Z</time></trkpt><trkpt lat="43.4684782" lon="11.432822"><ele>364.0</ele><time>2026-04-19T10:00:00.973Z</time></trkpt><trkpt lat="43.4685" lon="11.4329095"><ele>364.0</ele><time>2026-04-19T10:00:01.979Z</time></trkpt><trkpt lat="43.4685314" lon="11.4330527"><ele>364.0</ele><time>2026-04-19T10:00:03.994Z</time></trkpt><trkpt lat="43.4685283" lon="11.4331798"><ele>364.0</ele><time>2026-04-19T10:00:06.977Z</time></trkpt><trkpt lat="43.4684479" lon="11.4332472"><ele>362.5</ele><time>2026-04-19T10:00:08.969Z</time></trkpt><trkpt lat="43.4683739" lon="11.4332921"><ele>361.0</ele><time>2026-04-19T10:00:09.974Z</time></trkpt><trkpt lat="43.4682731" lon="11.4333515"><ele>359.5</ele><time>2026-04-19T10:00:10.972Z</time></trkpt><trkpt lat="43.4681536" lon="11.433438"><ele>358.0</ele><time>2026-04-19T10:00:11.976Z</time></trkpt><trkpt lat="43.4680335" lon="11.4335418"><ele>357.4</ele><time>2026-04-19T10:00:12.973Z</time></trkpt><trkpt lat="43.4679312" lon="11.4336428"><ele>356.79999999999995</ele><time>2026-04-19T10:00:13.98Z</time></trkpt><trkpt lat="43.4678549" lon="11.4337376"><ele>356.2</ele><time>2026-04-19T10:00:14.977Z</time></trkpt><trkpt lat="43.4677819" lon="11.4338284"><ele>355.6</ele><time>2026-04-19T10:00:15.976Z</time></trkpt><trkpt lat="43.4677136" lon="11.4339021"><ele>355.0</ele><time>2026-04-19T10:00:16.972Z</time></trkpt><trkpt lat="43.4676455" lon="11.4339709"><ele>354.8</ele><time>2026-04-19T10:00:17.989Z</time></trkpt><trkpt lat="43.4675652" lon="11.4340407"><ele>354.6</ele><time>2026-04-19T10:00:18.978Z</time></trkpt><trkpt lat="43.4674879" lon="11.4340949"><ele>354.4</ele><time>2026-04-19T10:00:19.975Z</time></trkpt><trkpt lat="43.4674095" lon="11.4341424"><ele>354.2</ele><time>2026-04-19T10:00:20.998Z</time></trkpt><trkpt lat="43.4673229" lon="11.4341867"><ele>354.0</ele><time>2026-04-19T10:00:21.97Z</time></trkpt><trkpt lat="43.467224" lon="11.4342268"><ele>354.0</ele><time>2026-04-19T10:00:22.975Z</time></trkpt><trkpt lat="43.4671135" lon="11.4342645"><ele>354.0</ele><time>2026-04-19T10:00:23.974Z</time></trkpt><trkpt lat="43.467003" lon="11.4342991"><ele>354.0</ele><time>2026-04-19T10:00:24.973Z</time></trkpt><trkpt lat="43.4668778" lon="11.4343276"><ele>354.0</ele><time>2026-04-19T10:00:25.977Z</time></trkpt><trkpt lat="43.4667518" lon="11.4343396"><ele>353.25</ele><time>2026-04-19T10:00:26.973Z</time></trkpt><trkpt lat="43.4666269" lon="11.4343496"><ele>352.5</ele><time>2026-04-19T10:00:27.973Z</time></trkpt><trkpt lat="43.4665073" lon="11.434346"><ele>351.75</ele><time>2026-04-19T10:00:28.984Z</time></trkpt><trkpt lat="43.4663941" lon="11.4343365"><ele>351.0</ele><time>2026-04-19T10:00:29.966Z</time></trkpt><trkpt lat="43.4662795" lon="11.4343202"><ele>350.25</ele><time>2026-04-19T10:00:30.972Z</time></trkpt><trkpt lat="43.4661636" lon="11.4342901"><ele>349.5</ele><time>2026-04-19T10:00:31.977Z</time></trkpt><trkpt lat="43.4660498" lon="11.434255"><ele>348.75</ele><time>2026-04-19T10:00:32.971Z</time></trkpt><trkpt lat="43.465934" lon="11.4342129"><ele>348.0</ele><time>2026-04-19T10:00:33.967Z</time></trkpt><trkpt lat="43.4658169" lon="11.4341711"><ele>348.0</ele><time>2026-04-19T10:00:34.98Z</time></trkpt><trkpt lat="43.4656989" lon="11.4341082"><ele>348.0</ele><time>2026-04-19T10:00:35.969Z</time></trkpt><trkpt lat="43.4655879" lon="11.4340417"><ele>348.0</ele><time>2026-04-19T10:00:36.98Z</time></trkpt><trkpt lat="43.4654889" lon="11.4339427"><ele>348.0</ele><time>2026-04-19T10:00:37.976Z</time></trkpt><trkpt lat="43.4653901" lon="11.4338097"><ele>348.0</ele><time>2026-04-19T10:00:38.967Z</time></trkpt><trkpt lat="43.4652891" lon="11.4336629"><ele>348.0</ele><time>2026-04-19T10:00:40.006Z</time></trkpt><trkpt lat="43.4651877" lon="11.4335162"><ele>348.0</ele><time>2026-04-19T10:00:40.982Z</time></trkpt><trkpt lat="43.4650898" lon="11.433376"><ele>348.0</ele><time>2026-04-19T10:00:41.974Z</time></trkpt><trkpt lat="43.4649949" lon="11.4332684"><ele>348.0</ele><time>2026-04-19T10:00:42.967Z</time></trkpt><trkpt lat="43.4648927" lon="11.4331821"><ele>348.0</ele><time>2026-04-19T10:00:43.972Z</time></trkpt><trkpt lat="43.4648025" lon="11.4331168"><ele>348.0</ele><time>2026-04-19T10:00:44.972Z</time></trkpt><trkpt lat="43.4647114" lon="11.4330626"><ele>348.0</ele><time>2026-04-19T10:00:45.975Z</time></trkpt><trkpt lat="43.4646329" lon="11.4330056"><ele>348.0</ele><time>2026-04-19T10:00:46.993Z</time></trkpt><trkpt lat="43.4645448" lon="11.4329186"><ele>348.2</ele><time>2026-04-19T10:00:48.97Z</time></trkpt><trkpt lat="43.464471" lon="11.4328635"><ele>348.4</ele><time>2026-04-19T10:00:50.979Z</time></trkpt><trkpt lat="43.4643922" lon="11.432894"><ele>348.59999999999997</ele><time>2026-04-19T10:00:52.968Z</time></trkpt><trkpt lat="43.4643597" lon="11.4330623"><ele>348.79999999999995</ele><time>2026-04-19T10:00:54.975Z</time></trkpt><trkpt lat="43.4643655" lon="11.4331733"><ele>349.0</ele><time>2026-04-19T10:00:55.978Z</time></trkpt><trkpt lat="43.4643829" lon="11.4333109"><ele>348.0</ele><time>2026-04-19T10:00:56.971Z</time></trkpt><trkpt lat="43.4643996" lon="11.4334757"><ele>347.0</ele><time>2026-04-19T10:00:58.025Z</time></trkpt><trkpt lat="43.4644174" lon="11.4336624"><ele>346.0</ele><time>2026-04-19T10:00:58.971Z</time></trkpt><trkpt lat="43.4644304" lon="11.433843"><ele>345.0</ele><time>2026-04-19T10:00:59.965Z</time></trkpt><trkpt lat="43.464444" lon="11.4340027"><ele>345.0</ele><time>2026-04-19T10:01:00.971Z</time></trkpt><trkpt lat="43.4644537" lon="11.4341478"><ele>345.0</ele><time>2026-04-19T10:01:01.968Z</time></trkpt><trkpt lat="43.4644643" lon="11.4342926"><ele>345.0</ele><time>2026-04-19T10:01:02.972Z</time></trkpt><trkpt lat="43.4644794" lon="11.4344541"><ele>345.0</ele><time>2026-04-19T10:01:03.974Z</time></trkpt><trkpt lat="43.4645009" lon="11.4346185"><ele>345.25</ele><time>2026-04-19T10:01:04.964Z</time></trkpt><trkpt lat="43.4645198" lon="11.434792"><ele>345.5</ele><time>2026-04-19T10:01:05.973Z</time></trkpt><trkpt lat="43.4645482" lon="11.4349614"><ele>345.75</ele><time>2026-04-19T10:01:06.977Z</time></trkpt><trkpt lat="43.4645891" lon="11.4351272"><ele>346.0</ele><time>2026-04-19T10:01:07.974Z</time></trkpt><trkpt lat="43.464644" lon="11.4352776"><ele>346.25</ele><time>2026-04-19T10:01:08.967Z</time></trkpt><trkpt lat="43.4647193" lon="11.4354048"><ele>346.5</ele><time>2026-04-19T10:01:09.972Z</time></trkpt><trkpt lat="43.4648131" lon="11.4355157"><ele>346.75</ele><time>2026-04-19T10:01:10.973Z</time></trkpt><trkpt lat="43.464918" lon="11.4356194"><ele>347.0</ele><time>2026-04-19T10:01:11.971Z</time></trkpt><trkpt lat="43.4650268" lon="11.435715"><ele>347.0</ele><time>2026-04-19T10:01:12.965Z</time></trkpt><trkpt lat="43.4651457" lon="11.4358077"><ele>347.0</ele><time>2026-04-19T10:01:13.971Z</time></trkpt><trkpt lat="43.4652694" lon="11.4359038"><ele>347.0</ele><time>2026-04-19T10:01:14.983Z</time></trkpt><trkpt lat="43.4653991" lon="11.4360067"><ele>347.0</ele><time>2026-04-19T10:01:15.975Z</time></trkpt><trkpt lat="43.4655244" lon="11.4361158"><ele>347.8</ele><time>2026-04-19T10:01:17.03Z</time></trkpt><trkpt lat="43.4656383" lon="11.4362259"><ele>348.6</ele><time>2026-04-19T10:01:17.975Z</time></trkpt><trkpt lat="43.4657337" lon="11.4363166"><ele>349.40000000000003</ele><time>2026-04-19T10:01:18.962Z</time></trkpt><trkpt lat="43.4658021" lon="11.4364019"><ele>350.20000000000005</ele><time>2026-04-19T10:01:19.968Z</time></trkpt><trkpt lat="43.4658486" lon="11.4364862"><ele>351.0</ele><time>2026-04-19T10:01:20.975Z</time></trkpt><trkpt lat="43.4658845" lon="11.4365576"><ele>351.75</ele><time>2026-04-19T10:01:21.963Z</time></trkpt><trkpt lat="43.4658801" lon="11.4367299"><ele>352.5</ele><time>2026-04-19T10:01:23.974Z</time></trkpt><trkpt lat="43.4658413" lon="11.4368445"><ele>353.25</ele><time>2026-04-19T10:01:24.969Z</time></trkpt><trkpt lat="43.4657814" lon="11.4369883"><ele>354.0</ele><time>2026-04-19T10:01:25.968Z</time></trkpt><trkpt lat="43.4656976" lon="11.437159"><ele>353.0</ele><time>2026-04-19T10:01:26.975Z</time></trkpt><trkpt lat="43.4656207" lon="11.4373227"><ele>352.0</ele><time>2026-04-19T10:01:27.965Z</time></trkpt><trkpt lat="43.465555" lon="11.4374763"><ele>351.0</ele><time>2026-04-19T10:01:28.968Z</time></trkpt><trkpt lat="43.4654824" lon="11.4376136"><ele>350.0</ele><time>2026-04-19T10:01:29.966Z</time></trkpt><trkpt lat="43.4654243" lon="11.4377444"><ele>350.0</ele><time>2026-04-19T10:01:30.97Z</time></trkpt><trkpt lat="43.4653718" lon="11.4378634"><ele>350.0</ele><time>2026-04-19T10:01:31.97Z</time></trkpt><trkpt lat="43.465322" lon="11.4379795"><ele>350.0</ele><time>2026-04-19T10:01:32.969Z</time></trkpt><trkpt lat="43.4652722" lon="11.4380808"><ele>350.0</ele><time>2026-04-19T10:01:33.969Z</time></trkpt><trkpt lat="43.4652239" lon="11.4381782"><ele>350.0</ele><time>2026-04-19T10:01:34.971Z</time></trkpt><trkpt lat="43.465167" lon="11.4382883"><ele>350.2</ele><time>2026-04-19T10:01:35.97Z</time></trkpt><trkpt lat="43.4651032" lon="11.4384154"><ele>350.4</ele><time>2026-04-19T10:01:37.001Z</time></trkpt><trkpt lat="43.4650414" lon="11.4385441"><ele>350.6</ele><time>2026-04-19T10:01:37.97Z</time></trkpt><trkpt lat="43.4649754" lon="11.4386711"><ele>350.8</ele><time>2026-04-19T10:01:38.968Z</time></trkpt><trkpt lat="43.4649158" lon="11.4387954"><ele>351.0</ele><time>2026-04-19T10:01:39.973Z</time></trkpt><trkpt lat="43.4648531" lon="11.4389059"><ele>351.0</ele><time>2026-04-19T10:01:40.961Z</time></trkpt><trkpt lat="43.4647969" lon="11.439011"><ele>351.0</ele><time>2026-04-19T10:01:41.976Z</time></trkpt><trkpt lat="43.4647365" lon="11.439129"><ele>351.0</ele><time>2026-04-19T10:01:42.97Z</time></trkpt><trkpt lat="43.4646823" lon="11.439229"><ele>351.0</ele><time>2026-04-19T10:01:43.962Z</time></trkpt><trkpt lat="43.464643" lon="11.4393039"><ele>351.0</ele><time>2026-04-19T10:01:44.965Z</time></trkpt><trkpt lat="43.4645757" lon="11.4394461"><ele>351.0</ele><time>2026-04-19T10:01:46.966Z</time></trkpt><trkpt lat="43.4645297" lon="11.439536"><ele>351.0</ele><time>2026-04-19T10:01:47.982Z</time></trkpt><trkpt lat="43.4644701" lon="11.4396528"><ele>351.0</ele><time>2026-04-19T10:01:48.967Z</time></trkpt><trkpt lat="43.4643878" lon="11.4398171"><ele>351.0</ele><time>2026-04-19T10:01:49.973Z</time></trkpt><trkpt lat="43.4643001" lon="11.4399996"><ele>351.3333333333333</ele><time>2026-04-19T10:01:50.971Z</time></trkpt><trkpt lat="43.4642056" lon="11.4402137"><ele>351.66666666666663</ele><time>2026-04-19T10:01:51.971Z</time></trkpt><trkpt lat="43.4641063" lon="11.4404391"><ele>352.0</ele><time>2026-04-19T10:01:52.983Z</time></trkpt><trkpt lat="43.4640147" lon="11.4406765"><ele>353.0</ele><time>2026-04-19T10:01:53.964Z</time></trkpt><trkpt lat="43.463924" lon="11.4409288"><ele>354.0</ele><time>2026-04-19T10:01:54.971Z</time></trkpt><trkpt lat="43.4638397" lon="11.4411862"><ele>355.0</ele><time>2026-04-19T10:01:55.967Z</time></trkpt><trkpt lat="43.4637662" lon="11.4414165"><ele>355.0</ele><time>2026-04-19T10:01:56.972Z</time></trkpt><trkpt lat="43.4636998" lon="11.4416256"><ele>355.0</ele><time>2026-04-19T10:01:58.007Z</time></trkpt><trkpt lat="43.4636349" lon="11.4418184"><ele>355.0</ele><time>2026-04-19T10:01:58.973Z</time></trkpt><trkpt lat="43.4635721" lon="11.4420022"><ele>356.0</ele><time>2026-04-19T10:01:59.983Z</time></trkpt><trkpt lat="43.4635112" lon="11.4421918"><ele>357.0</ele><time>2026-04-19T10:02:00.971Z</time></trkpt><trkpt lat="43.4634573" lon="11.442387"><ele>358.0</ele><time>2026-04-19T10:02:01.972Z</time></trkpt><trkpt lat="43.4634123" lon="11.4425743"><ele>359.0</ele><time>2026-04-19T10:02:02.97Z</time></trkpt><trkpt lat="43.4633722" lon="11.4427616"><ele>359.0</ele><time>2026-04-19T10:02:03.969Z</time></trkpt><trkpt lat="43.4633536" lon="11.4429564"><ele>359.0</ele><time>2026-04-19T10:02:04.983Z</time></trkpt><trkpt lat="43.4633416" lon="11.4431589"><ele>359.0</ele><time>2026-04-19T10:02:05.976Z</time></trkpt><trkpt lat="43.4633446" lon="11.4433713"><ele>359.0</ele><time>2026-04-19T10:02:06.982Z</time></trkpt><trkpt lat="43.4633596" lon="11.443607"><ele>360.33333333333337</ele><time>2026-04-19T10:02:07.978Z</time></trkpt><trkpt lat="43.4633736" lon="11.4438433"><ele>361.6666666666667</ele><time>2026-04-19T10:02:08.975Z</time></trkpt><trkpt lat="43.4633972" lon="11.4440762"><ele>363.0</ele><time>2026-04-19T10:02:09.993Z</time></trkpt><trkpt lat="43.4634145" lon="11.4443296"><ele>363.0</ele><time>2026-04-19T10:02:10.969Z</time></trkpt><trkpt lat="43.4634246" lon="11.4445837"><ele>363.0</ele><time>2026-04-19T10:02:11.978Z</time></trkpt><trkpt lat="43.4634251" lon="11.444838"><ele>363.0</ele><time>2026-04-19T10:02:12.967Z</time></trkpt><trkpt lat="43.4634236" lon="11.4450892"><ele>363.0</ele><time>2026-04-19T10:02:13.972Z</time></trkpt><trkpt lat="43.4634124" lon="11.4453249"><ele>363.0</ele><time>2026-04-19T10:02:14.982Z</time></trkpt><trkpt lat="43.4633978" lon="11.4455617"><ele>363.0</ele><time>2026-04-19T10:02:15.97Z</time></trkpt><trkpt lat="43.4633779" lon="11.4457962"><ele>364.0</ele><time>2026-04-19T10:02:16.993Z</time></trkpt><trkpt lat="43.4633517" lon="11.4460308"><ele>365.0</ele><time>2026-04-19T10:02:17.999Z</time></trkpt><trkpt lat="43.463321" lon="11.4462648"><ele>366.0</ele><time>2026-04-19T10:02:18.968Z</time></trkpt><trkpt lat="43.4632819" lon="11.4464975"><ele>366.0</ele><time>2026-04-19T10:02:19.968Z</time></trkpt><trkpt lat="43.4632334" lon="11.4467159"><ele>366.0</ele><time>2026-04-19T10:02:20.971Z</time></trkpt><trkpt lat="43.4631954" lon="11.4469155"><ele>366.0</ele><time>2026-04-19T10:02:21.981Z</time></trkpt><trkpt lat="43.4631588" lon="11.4471087"><ele>365.75</ele><time>2026-04-19T10:02:22.97Z</time></trkpt><trkpt lat="43.4631238" lon="11.4473066"><ele>365.5</ele><time>2026-04-19T10:02:23.972Z</time></trkpt><trkpt lat="43.4630802" lon="11.4475014"><ele>365.25</ele><time>2026-04-19T10:02:24.973Z</time></trkpt><trkpt lat="43.4630404" lon="11.4477015"><ele>365.0</ele><time>2026-04-19T10:02:25.968Z</time></trkpt><trkpt lat="43.4629986" lon="11.4479034"><ele>365.0</ele><time>2026-04-19T10:02:26.982Z</time></trkpt><trkpt lat="43.4629628" lon="11.4481029"><ele>365.0</ele><time>2026-04-19T10:02:27.973Z</time></trkpt><trkpt lat="43.4629339" lon="11.4482888"><ele>365.0</ele><time>2026-04-19T10:02:28.972Z</time></trkpt><trkpt lat="43.462915" lon="11.4484639"><ele>365.0</ele><time>2026-04-19T10:02:29.971Z</time></trkpt><trkpt lat="43.4629137" lon="11.4486323"><ele>366.5</ele><time>2026-04-19T10:02:30.969Z</time></trkpt><trkpt lat="43.4629416" lon="11.4488068"><ele>368.0</ele><time>2026-04-19T10:02:31.979Z</time></trkpt><trkpt lat="43.4629809" lon="11.4489761"><ele>369.5</ele><time>2026-04-19T10:02:32.969Z</time></trkpt><trkpt lat="43.4630255" lon="11.449144"><ele>371.0</ele><time>2026-04-19T10:02:33.975Z</time></trkpt><trkpt lat="43.463077" lon="11.4493144"><ele>371.0</ele><time>2026-04-19T10:02:34.99Z</time></trkpt><trkpt lat="43.4631376" lon="11.4494734"><ele>371.0</ele><time>2026-04-19T10:02:35.969Z</time></trkpt><trkpt lat="43.4632166" lon="11.449616"><ele>371.0</ele><time>2026-04-19T10:02:36.968Z</time></trkpt><trkpt lat="43.4633044" lon="11.4497466"><ele>371.0</ele><time>2026-04-19T10:02:37.98Z</time></trkpt><trkpt lat="43.4633974" lon="11.4498854"><ele>371.6</ele><time>2026-04-19T10:02:38.973Z</time></trkpt><trkpt lat="43.4634782" lon="11.4500205"><ele>372.20000000000005</ele><time>2026-04-19T10:02:39.98Z</time></trkpt><trkpt lat="43.463549" lon="11.4501363"><ele>372.79999999999995</ele><time>2026-04-19T10:02:41.02Z</time></trkpt><trkpt lat="43.4636171" lon="11.4502297"><ele>373.4</ele><time>2026-04-19T10:02:41.979Z</time></trkpt><trkpt lat="43.4636849" lon="11.4503102"><ele>374.0</ele><time>2026-04-19T10:02:42.984Z</time></trkpt><trkpt lat="43.463735" lon="11.4503867"><ele>375.5</ele><time>2026-04-19T10:02:43.981Z</time></trkpt><trkpt lat="43.4637732" lon="11.4504645"><ele>377.0</ele><time>2026-04-19T10:02:44.975Z</time></trkpt><trkpt lat="43.4638016" lon="11.4506007"><ele>378.5</ele><time>2026-04-19T10:02:46.97Z</time></trkpt><trkpt lat="43.4637696" lon="11.4507849"><ele>380.0</ele><time>2026-04-19T10:02:48.989Z</time></trkpt><trkpt lat="43.4636785" lon="11.4509803"><ele>380.0</ele><time>2026-04-19T10:02:49.962Z</time></trkpt><trkpt lat="43.4636044" lon="11.4511893"><ele>380.0</ele><time>2026-04-19T10:02:50.97Z</time></trkpt><trkpt lat="43.46355" lon="11.4513917"><ele>380.0</ele><time>2026-04-19T10:02:51.966Z</time></trkpt><trkpt lat="43.4635175" lon="11.4515758"><ele>380.6</ele><time>2026-04-19T10:02:52.967Z</time></trkpt><trkpt lat="43.4634817" lon="11.4517728"><ele>381.2</ele><time>2026-04-19T10:02:53.973Z</time></trkpt><trkpt lat="43.4634376" lon="11.4519532"><ele>381.79999999999995</ele><time>2026-04-19T10:02:54.97Z</time></trkpt><trkpt lat="43.4634093" lon="11.4520785"><ele>382.4</ele><time>2026-04-19T10:02:55.971Z</time></trkpt><trkpt lat="43.4633851" lon="11.4521603"><ele>383.0</ele><time>2026-04-19T10:02:56.975Z</time></trkpt><trkpt lat="43.4633276" lon="11.4522086"><ele>383.0</ele><time>2026-04-19T10:02:57.972Z</time></trkpt><trkpt lat="43.4632655" lon="11.4522236"><ele>383.0</ele><time>2026-04-19T10:02:58.961Z</time></trkpt><trkpt lat="43.4631787" lon="11.4520813"><ele>383.0</ele><time>2026-04-19T10:03:00.974Z</time></trkpt><trkpt lat="43.4631443" lon="11.4519634"><ele>383.0</ele><time>2026-04-19T10:03:01.976Z</time></trkpt><trkpt lat="43.4631249" lon="11.4518053"><ele>383.0</ele><time>2026-04-19T10:03:02.973Z</time></trkpt><trkpt lat="43.4631141" lon="11.4516176"><ele>383.0</ele><time>2026-04-19T10:03:03.976Z</time></trkpt><trkpt lat="43.4630985" lon="11.4514127"><ele>383.0</ele><time>2026-04-19T10:03:04.978Z</time></trkpt><trkpt lat="43.4630745" lon="11.4512292"><ele>383.0</ele><time>2026-04-19T10:03:05.973Z</time></trkpt><trkpt lat="43.463052" lon="11.4510835"><ele>383.0</ele><time>2026-04-19T10:03:06.967Z</time></trkpt><trkpt lat="43.4630281" lon="11.4509716"><ele>382.4</ele><time>2026-04-19T10:03:07.984Z</time></trkpt><trkpt lat="43.4629807" lon="11.4508918"><ele>381.79999999999995</ele><time>2026-04-19T10:03:08.973Z</time></trkpt><trkpt lat="43.4629247" lon="11.4508239"><ele>381.2</ele><time>2026-04-19T10:03:09.97Z</time></trkpt><trkpt lat="43.462837" lon="11.4507447"><ele>380.6</ele><time>2026-04-19T10:03:10.969Z</time></trkpt><trkpt lat="43.4627219" lon="11.4506675"><ele>380.0</ele><time>2026-04-19T10:03:11.969Z</time></trkpt><trkpt lat="43.4626103" lon="11.4506043"><ele>383.4</ele><time>2026-04-19T10:03:12.967Z</time></trkpt><trkpt lat="43.4625267" lon="11.4505238"><ele>386.8</ele><time>2026-04-19T10:03:13.972Z</time></trkpt><trkpt lat="43.4624617" lon="11.4504287"><ele>390.20000000000005</ele><time>2026-04-19T10:03:14.99Z</time></trkpt><trkpt lat="43.4624121" lon="11.4502958"><ele>393.6</ele><time>2026-04-19T10:03:15.969Z</time></trkpt><trkpt lat="43.4623763" lon="11.4501562"><ele>397.0</ele><time>2026-04-19T10:03:16.966Z</time></trkpt><trkpt lat="43.4623453" lon="11.4500511"><ele>397.0</ele><time>2026-04-19T10:03:17.976Z</time></trkpt><trkpt lat="43.4622763" lon="11.4499127"><ele>397.0</ele><time>2026-04-19T10:03:20Z</time></trkpt><trkpt lat="43.4621775" lon="11.4498856"><ele>397.0</ele><time>2026-04-19T10:03:21.972Z</time></trkpt><trkpt lat="43.4621331" lon="11.4499619"><ele>397.0</ele><time>2026-04-19T10:03:22.969Z</time></trkpt><trkpt lat="43.462111" lon="11.4500562"><ele>397.0</ele><time>2026-04-19T10:03:23.967Z</time></trkpt><trkpt lat="43.4621248" lon="11.4501951"><ele>397.0</ele><time>2026-04-19T10:03:24.966Z</time></trkpt><trkpt lat="43.4621461" lon="11.4503616"><ele>397.0</ele><time>2026-04-19T10:03:25.974Z</time></trkpt><trkpt lat="43.462202" lon="11.4505792"><ele>397.0</ele><time>2026-04-19T10:03:26.973Z</time></trkpt><trkpt lat="43.4622672" lon="11.4507911"><ele>399.5</ele><time>2026-04-19T10:03:27.973Z</time></trkpt><trkpt lat="43.4623509" lon="11.4509635"><ele>402.0</ele><time>2026-04-19T10:03:28.971Z</time></trkpt><trkpt lat="43.4624283" lon="11.4511014"><ele>404.5</ele><time>2026-04-19T10:03:29.965Z</time></trkpt><trkpt lat="43.462476" lon="11.4512269"><ele>407.0</ele><time>2026-04-19T10:03:30.977Z</time></trkpt><trkpt lat="43.4624956" lon="11.451351"><ele>408.6</ele><time>2026-04-19T10:03:31.976Z</time></trkpt><trkpt lat="43.4624959" lon="11.4514698"><ele>410.20000000000005</ele><time>2026-04-19T10:03:32.975Z</time></trkpt><trkpt lat="43.4624672" lon="11.4515872"><ele>411.8</ele><time>2026-04-19T10:03:33.971Z</time></trkpt><trkpt lat="43.462409" lon="11.4517284"><ele>413.4</ele><time>2026-04-19T10:03:34.974Z</time></trkpt><trkpt lat="43.4623246" lon="11.4518877"><ele>415.0</ele><time>2026-04-19T10:03:35.969Z</time></trkpt><trkpt lat="43.4622186" lon="11.4520294"><ele>422.33333333333337</ele><time>2026-04-19T10:03:36.97Z</time></trkpt><trkpt lat="43.4620844" lon="11.4521586"><ele>429.66666666666663</ele><time>2026-04-19T10:03:37.966Z</time></trkpt><trkpt lat="43.4619478" lon="11.4522696"><ele>437.0</ele><time>2026-04-19T10:03:38.974Z</time></trkpt><trkpt lat="43.4618325" lon="11.4523559"><ele>436.99999999999994</ele><time>2026-04-19T10:03:39.97Z</time></trkpt><trkpt lat="43.4617497" lon="11.4524337"><ele>437.0</ele><time>2026-04-19T10:03:40.972Z</time></trkpt><trkpt lat="43.4617013" lon="11.4525142"><ele>437.0</ele><time>2026-04-19T10:03:41.969Z</time></trkpt><trkpt lat="43.4616929" lon="11.4526154"><ele>437.0</ele><time>2026-04-19T10:03:42.968Z</time></trkpt><trkpt lat="43.4617203" lon="11.4527186"><ele>436.99999999999994</ele><time>2026-04-19T10:03:43.976Z</time></trkpt><trkpt lat="43.4617804" lon="11.452831"><ele>437.0</ele><time>2026-04-19T10:03:44.966Z</time></trkpt><trkpt lat="43.4618665" lon="11.4529524"><ele>438.0</ele><time>2026-04-19T10:03:45.964Z</time></trkpt><trkpt lat="43.461957" lon="11.4530679"><ele>439.0</ele><time>2026-04-19T10:03:46.964Z</time></trkpt><trkpt lat="43.4620067" lon="11.4532129"><ele>440.0</ele><time>2026-04-19T10:03:47.974Z</time></trkpt><trkpt lat="43.4620134" lon="11.4533967"><ele>441.0</ele><time>2026-04-19T10:03:48.966Z</time></trkpt><trkpt lat="43.4619916" lon="11.4536104"><ele>441.75</ele><time>2026-04-19T10:03:49.976Z</time></trkpt><trkpt lat="43.4619394" lon="11.4538236"><ele>442.5</ele><time>2026-04-19T10:03:50.973Z</time></trkpt><trkpt lat="43.4618821" lon="11.4540033"><ele>443.25</ele><time>2026-04-19T10:03:51.972Z</time></trkpt><trkpt lat="43.4618322" lon="11.4541411"><ele>444.0</ele><time>2026-04-19T10:03:52.979Z</time></trkpt><trkpt lat="43.4617478" lon="11.4542608"><ele>444.0</ele><time>2026-04-19T10:03:53.969Z</time></trkpt><trkpt lat="43.4616231" lon="11.4543838"><ele>444.0</ele><time>2026-04-19T10:03:54.977Z</time></trkpt><trkpt lat="43.4614737" lon="11.4545234"><ele>444.0</ele><time>2026-04-19T10:03:55.972Z</time></trkpt><trkpt lat="43.4613229" lon="11.454649"><ele>447.75</ele><time>2026-04-19T10:03:56.964Z</time></trkpt><trkpt lat="43.461183" lon="11.4547425"><ele>451.5</ele><time>2026-04-19T10:03:57.969Z</time></trkpt><trkpt lat="43.4610655" lon="11.4548054"><ele>455.25</ele><time>2026-04-19T10:03:58.964Z</time></trkpt><trkpt lat="43.4609839" lon="11.4548607"><ele>459.0</ele><time>2026-04-19T10:03:59.968Z</time></trkpt><trkpt lat="43.4609104" lon="11.4549608"><ele>459.0</ele><time>2026-04-19T10:04:01.969Z</time></trkpt><trkpt lat="43.4609195" lon="11.4550482"><ele>459.0</ele><time>2026-04-19T10:04:02.964Z</time></trkpt><trkpt lat="43.4610247" lon="11.455238"><ele>459.0</ele><time>2026-04-19T10:04:04.979Z</time></trkpt><trkpt lat="43.4610808" lon="11.4552922"><ele>459.0</ele><time>2026-04-19T10:04:05.961Z</time></trkpt><trkpt lat="43.4611515" lon="11.4553236"><ele>459.0</ele><time>2026-04-19T10:04:06.963Z</time></trkpt><trkpt lat="43.4612292" lon="11.4553303"><ele>456.79999999999995</ele><time>2026-04-19T10:04:07.974Z</time></trkpt><trkpt lat="43.4613162" lon="11.4553222"><ele>454.59999999999997</ele><time>2026-04-19T10:04:08.967Z</time></trkpt><trkpt lat="43.4614141" lon="11.4553002"><ele>452.4</ele><time>2026-04-19T10:04:09.965Z</time></trkpt><trkpt lat="43.4615183" lon="11.4552691"><ele>450.2</ele><time>2026-04-19T10:04:10.967Z</time></trkpt><trkpt lat="43.4616177" lon="11.45525"><ele>448.0</ele><time>2026-04-19T10:04:11.97Z</time></trkpt><trkpt lat="43.4617091" lon="11.4552468"><ele>448.0</ele><time>2026-04-19T10:04:12.972Z</time></trkpt><trkpt lat="43.4617891" lon="11.4552802"><ele>447.99999999999994</ele><time>2026-04-19T10:04:13.967Z</time></trkpt><trkpt lat="43.4618733" lon="11.4553171"><ele>447.99999999999994</ele><time>2026-04-19T10:04:14.97Z</time></trkpt><trkpt lat="43.4619689" lon="11.4553286"><ele>448.0</ele><time>2026-04-19T10:04:15.969Z</time></trkpt><trkpt lat="43.4620747" lon="11.4552946"><ele>448.0</ele><time>2026-04-19T10:04:16.97Z</time></trkpt><trkpt lat="43.4621675" lon="11.4552732"><ele>448.00000000000006</ele><time>2026-04-19T10:04:17.963Z</time></trkpt><trkpt lat="43.4622338" lon="11.4552544"><ele>448.0</ele><time>2026-04-19T10:04:18.967Z</time></trkpt><trkpt lat="43.4622794" lon="11.4553546"><ele>448.0</ele><time>2026-04-19T10:04:21.978Z</time></trkpt><trkpt lat="43.4621976" lon="11.4554306"><ele>448.0</ele><time>2026-04-19T10:04:23.969Z</time></trkpt><trkpt lat="43.4621377" lon="11.4555015"><ele>448.00000000000006</ele><time>2026-04-19T10:04:24.981Z</time></trkpt><trkpt lat="43.4620965" lon="11.4555879"><ele>448.0</ele><time>2026-04-19T10:04:25.974Z</time></trkpt><trkpt lat="43.4620292" lon="11.4557068"><ele>449.79999999999995</ele><time>2026-04-19T10:04:27.971Z</time></trkpt><trkpt lat="43.4619525" lon="11.4557638"><ele>451.59999999999997</ele><time>2026-04-19T10:04:28.97Z</time></trkpt><trkpt lat="43.4618573" lon="11.4558108"><ele>453.40000000000003</ele><time>2026-04-19T10:04:29.982Z</time></trkpt><trkpt lat="43.4617554" lon="11.4558523"><ele>455.20000000000005</ele><time>2026-04-19T10:04:30.976Z</time></trkpt><trkpt lat="43.4616552" lon="11.4558991"><ele>457.0</ele><time>2026-04-19T10:04:31.975Z</time></trkpt><trkpt lat="43.4615509" lon="11.455952"><ele>457.0</ele><time>2026-04-19T10:04:32.971Z</time></trkpt><trkpt lat="43.461443" lon="11.4560081"><ele>457.0</ele><time>2026-04-19T10:04:33.972Z</time></trkpt><trkpt lat="43.4613297" lon="11.4560596"><ele>457.0</ele><time>2026-04-19T10:04:34.969Z</time></trkpt><trkpt lat="43.4612097" lon="11.4561086"><ele>457.0</ele><time>2026-04-19T10:04:35.981Z</time></trkpt><trkpt lat="43.4610926" lon="11.4561668"><ele>458.0</ele><time>2026-04-19T10:04:36.971Z</time></trkpt><trkpt lat="43.4609701" lon="11.4562156"><ele>459.0</ele><time>2026-04-19T10:04:37.969Z</time></trkpt><trkpt lat="43.4608511" lon="11.4562464"><ele>460.0</ele><time>2026-04-19T10:04:38.974Z</time></trkpt><trkpt lat="43.4607337" lon="11.4562619"><ele>461.0</ele><time>2026-04-19T10:04:39.97Z</time></trkpt><trkpt lat="43.4606075" lon="11.4562724"><ele>461.0</ele><time>2026-04-19T10:04:40.981Z</time></trkpt><trkpt lat="43.4604873" lon="11.4562595"><ele>461.0</ele><time>2026-04-19T10:04:41.971Z</time></trkpt><trkpt lat="43.4603835" lon="11.4562263"><ele>461.0</ele><time>2026-04-19T10:04:42.972Z</time></trkpt><trkpt lat="43.4602661" lon="11.4561813"><ele>461.0</ele><time>2026-04-19T10:04:43.967Z</time></trkpt><trkpt lat="43.4601477" lon="11.4561302"><ele>464.6</ele><time>2026-04-19T10:04:44.973Z</time></trkpt><trkpt lat="43.4600203" lon="11.4560686"><ele>468.20000000000005</ele><time>2026-04-19T10:04:45.968Z</time></trkpt><trkpt lat="43.4599022" lon="11.4560046"><ele>471.79999999999995</ele><time>2026-04-19T10:04:46.966Z</time></trkpt><trkpt lat="43.4598157" lon="11.4559537"><ele>475.4</ele><time>2026-04-19T10:04:47.975Z</time></trkpt><trkpt lat="43.4597453" lon="11.4559106"><ele>479.0</ele><time>2026-04-19T10:04:48.959Z</time></trkpt><trkpt lat="43.4596787" lon="11.4558848"><ele>479.0</ele><time>2026-04-19T10:04:49.97Z</time></trkpt><trkpt lat="43.4595818" lon="11.4559564"><ele>479.0</ele><time>2026-04-19T10:04:51.967Z</time></trkpt><trkpt lat="43.4595687" lon="11.4560999"><ele>479.0</ele><time>2026-04-19T10:04:53.967Z</time></trkpt><trkpt lat="43.4596253" lon="11.4562374"><ele>479.0</ele><time>2026-04-19T10:04:55.984Z</time></trkpt><trkpt lat="43.459659" lon="11.4563134"><ele>479.0</ele><time>2026-04-19T10:04:56.97Z</time></trkpt><trkpt lat="43.459672" lon="11.4564609"><ele>479.4</ele><time>2026-04-19T10:04:58.962Z</time></trkpt><trkpt lat="43.4596403" lon="11.4565706"><ele>479.79999999999995</ele><time>2026-04-19T10:05:00.969Z</time></trkpt><trkpt lat="43.4595688" lon="11.4566855"><ele>480.20000000000005</ele><time>2026-04-19T10:05:02.977Z</time></trkpt><trkpt lat="43.4595276" lon="11.4568215"><ele>480.6</ele><time>2026-04-19T10:05:04.964Z</time></trkpt><trkpt lat="43.4595372" lon="11.4569732"><ele>481.0</ele><time>2026-04-19T10:05:06.979Z</time></trkpt><trkpt lat="43.4595367" lon="11.4570761"><ele>484.71428571428567</ele><time>2026-04-19T10:05:07.97Z</time></trkpt><trkpt lat="43.4595404" lon="11.4571754"><ele>488.42857142857144</ele><time>2026-04-19T10:05:08.974Z</time></trkpt><trkpt lat="43.4595523" lon="11.4572823"><ele>492.1428571428571</ele><time>2026-04-19T10:05:09.973Z</time></trkpt><trkpt lat="43.4595668" lon="11.4573862"><ele>495.85714285714283</ele><time>2026-04-19T10:05:10.976Z</time></trkpt><trkpt lat="43.4595698" lon="11.4574801"><ele>499.57142857142856</ele><time>2026-04-19T10:05:11.971Z</time></trkpt><trkpt lat="43.4595713" lon="11.4575702"><ele>503.2857142857143</ele><time>2026-04-19T10:05:12.971Z</time></trkpt><trkpt lat="43.4595655" lon="11.4576607"><ele>507.0</ele><time>2026-04-19T10:05:13.971Z</time></trkpt><trkpt lat="43.4594926" lon="11.457757"><ele>507.0</ele><time>2026-04-19T10:05:15.966Z</time></trkpt><trkpt lat="43.4593707" lon="11.4577863"><ele>507.00000000000006</ele><time>2026-04-19T10:05:17.976Z</time></trkpt><trkpt lat="43.4592917" lon="11.4577903"><ele>507.00000000000006</ele><time>2026-04-19T10:05:18.976Z</time></trkpt><trkpt lat="43.4591987" lon="11.4577998"><ele>507.0</ele><time>2026-04-19T10:05:19.962Z</time></trkpt><trkpt lat="43.4591091" lon="11.4577902"><ele>507.0</ele><time>2026-04-19T10:05:20.979Z</time></trkpt><trkpt lat="43.4590131" lon="11.4577672"><ele>507.0</ele><time>2026-04-19T10:05:21.971Z</time></trkpt><trkpt lat="43.4589162" lon="11.4577332"><ele>507.00000000000006</ele><time>2026-04-19T10:05:23.003Z</time></trkpt><trkpt lat="43.4588141" lon="11.4577044"><ele>507.00000000000006</ele><time>2026-04-19T10:05:23.971Z</time></trkpt><trkpt lat="43.4587141" lon="11.457672"><ele>507.0</ele><time>2026-04-19T10:05:24.978Z</time></trkpt><trkpt lat="43.4586124" lon="11.457642"><ele>507.0</ele><time>2026-04-19T10:05:25.984Z</time></trkpt><trkpt lat="43.4585209" lon="11.4576143"><ele>509.5</ele><time>2026-04-19T10:05:26.97Z</time></trkpt><trkpt lat="43.4584313" lon="11.457595"><ele>512.0</ele><time>2026-04-19T10:05:27.975Z</time></trkpt><trkpt lat="43.4583611" lon="11.4576099"><ele>514.5</ele><time>2026-04-19T10:05:28.971Z</time></trkpt><trkpt lat="43.4582902" lon="11.4576578"><ele>517.0</ele><time>2026-04-19T10:05:29.976Z</time></trkpt><trkpt lat="43.4582326" lon="11.4577274"><ele>519.5</ele><time>2026-04-19T10:05:30.976Z</time></trkpt><trkpt lat="43.4581759" lon="11.4578002"><ele>522.0</ele><time>2026-04-19T10:05:31.968Z</time></trkpt><trkpt lat="43.4581199" lon="11.4578854"><ele>522.0</ele><time>2026-04-19T10:05:32.974Z</time></trkpt><trkpt lat="43.4580525" lon="11.45798"><ele>522.0</ele><time>2026-04-19T10:05:33.976Z</time></trkpt><trkpt lat="43.4580058" lon="11.4580636"><ele>522.0</ele><time>2026-04-19T10:05:34.967Z</time></trkpt><trkpt lat="43.4579692" lon="11.4582159"><ele>522.0</ele><time>2026-04-19T10:05:36.972Z</time></trkpt><trkpt lat="43.4579658" lon="11.458306"><ele>522.0</ele><time>2026-04-19T10:05:37.972Z</time></trkpt><trkpt lat="43.457971" lon="11.4583988"><ele>522.0</ele><time>2026-04-19T10:05:38.974Z</time></trkpt><trkpt lat="43.4579956" lon="11.458566"><ele>522.0</ele><time>2026-04-19T10:05:40.966Z</time></trkpt><trkpt lat="43.4580251" lon="11.4586581"><ele>522.0</ele><time>2026-04-19T10:05:41.967Z</time></trkpt><trkpt lat="43.4580722" lon="11.4587379"><ele>522.0</ele><time>2026-04-19T10:05:42.968Z</time></trkpt><trkpt lat="43.458125" lon="11.4588151"><ele>522.0</ele><time>2026-04-19T10:05:43.976Z</time></trkpt><trkpt lat="43.4581772" lon="11.4588855"><ele>522.0</ele><time>2026-04-19T10:05:44.971Z</time></trkpt><trkpt lat="43.4582108" lon="11.4589651"><ele>522.0</ele><time>2026-04-19T10:05:45.973Z</time></trkpt><trkpt lat="43.458213" lon="11.4590546"><ele>522.0</ele><time>2026-04-19T10:05:46.967Z</time></trkpt><trkpt lat="43.4581829" lon="11.4591434"><ele>522.3333333333334</ele><time>2026-04-19T10:05:47.979Z</time></trkpt><trkpt lat="43.4581194" lon="11.459219"><ele>522.6666666666666</ele><time>2026-04-19T10:05:48.971Z</time></trkpt><trkpt lat="43.4580543" lon="11.4592582"><ele>523.0</ele><time>2026-04-19T10:05:49.966Z</time></trkpt><trkpt lat="43.4579417" lon="11.4592245"><ele>523.3333333333333</ele><time>2026-04-19T10:05:51.966Z</time></trkpt><trkpt lat="43.4578661" lon="11.4591817"><ele>523.6666666666666</ele><time>2026-04-19T10:05:52.977Z</time></trkpt><trkpt lat="43.457782" lon="11.4591781"><ele>524.0</ele><time>2026-04-19T10:05:53.969Z</time></trkpt><trkpt lat="43.4576897" lon="11.4591884"><ele>525.0</ele><time>2026-04-19T10:05:54.974Z</time></trkpt><trkpt lat="43.4576071" lon="11.4592468"><ele>526.0</ele><time>2026-04-19T10:05:55.965Z</time></trkpt><trkpt lat="43.4575352" lon="11.4593612"><ele>527.0</ele><time>2026-04-19T10:05:56.966Z</time></trkpt><trkpt lat="43.4574667" lon="11.4594811"><ele>528.0</ele><time>2026-04-19T10:05:57.966Z</time></trkpt><trkpt lat="43.4574001" lon="11.4596318"><ele>529.0</ele><time>2026-04-19T10:05:58.976Z</time></trkpt><trkpt lat="43.4573268" lon="11.4597885"><ele>528.75</ele><time>2026-04-19T10:05:59.987Z</time></trkpt><trkpt lat="43.4572459" lon="11.4599526"><ele>528.5</ele><time>2026-04-19T10:06:00.968Z</time></trkpt><trkpt lat="43.4571641" lon="11.4601166"><ele>528.25</ele><time>2026-04-19T10:06:01.971Z</time></trkpt><trkpt lat="43.4570994" lon="11.4602484"><ele>528.0</ele><time>2026-04-19T10:06:02.971Z</time></trkpt><trkpt lat="43.4570403" lon="11.4603651"><ele>531.0</ele><time>2026-04-19T10:06:03.965Z</time></trkpt><trkpt lat="43.4569811" lon="11.4604686"><ele>534.0</ele><time>2026-04-19T10:06:04.982Z</time></trkpt><trkpt lat="43.4569046" lon="11.460532"><ele>537.0</ele><time>2026-04-19T10:06:05.969Z</time></trkpt><trkpt lat="43.4568186" lon="11.4605449"><ele>540.0</ele><time>2026-04-19T10:06:06.968Z</time></trkpt><trkpt lat="43.4567413" lon="11.4605703"><ele>543.0</ele><time>2026-04-19T10:06:07.973Z</time></trkpt><trkpt lat="43.456662" lon="11.4607032"><ele>543.0</ele><time>2026-04-19T10:06:09.979Z</time></trkpt><trkpt lat="43.4566436" lon="11.4607889"><ele>543.0</ele><time>2026-04-19T10:06:10.968Z</time></trkpt><trkpt lat="43.4566442" lon="11.4608853"><ele>543.0</ele><time>2026-04-19T10:06:11.968Z</time></trkpt><trkpt lat="43.4566794" lon="11.4609702"><ele>543.0</ele><time>2026-04-19T10:06:12.973Z</time></trkpt><trkpt lat="43.4567403" lon="11.4610427"><ele>543.0</ele><time>2026-04-19T10:06:13.971Z</time></trkpt><trkpt lat="43.4568195" lon="11.4610915"><ele>543.0</ele><time>2026-04-19T10:06:14.971Z</time></trkpt><trkpt lat="43.4569125" lon="11.4611074"><ele>543.0</ele><time>2026-04-19T10:06:15.973Z</time></trkpt><trkpt lat="43.4570076" lon="11.4611213"><ele>543.0</ele><time>2026-04-19T10:06:16.973Z</time></trkpt><trkpt lat="43.4570978" lon="11.4611448"><ele>543.0</ele><time>2026-04-19T10:06:17.973Z</time></trkpt><trkpt lat="43.4571935" lon="11.4611937"><ele>543.0</ele><time>2026-04-19T10:06:18.973Z</time></trkpt><trkpt lat="43.4572559" lon="11.4612684"><ele>543.0</ele><time>2026-04-19T10:06:19.986Z</time></trkpt><trkpt lat="43.457299" lon="11.4613839"><ele>544.4</ele><time>2026-04-19T10:06:20.973Z</time></trkpt><trkpt lat="43.4573245" lon="11.461501"><ele>545.8</ele><time>2026-04-19T10:06:21.965Z</time></trkpt><trkpt lat="43.4573316" lon="11.461646"><ele>547.2</ele><time>2026-04-19T10:06:22.974Z</time></trkpt><trkpt lat="43.4573333" lon="11.4618228"><ele>548.6</ele><time>2026-04-19T10:06:23.968Z</time></trkpt><trkpt lat="43.457324" lon="11.4619785"><ele>550.0</ele><time>2026-04-19T10:06:24.981Z</time></trkpt><trkpt lat="43.4572963" lon="11.4621142"><ele>551.3333333333334</ele><time>2026-04-19T10:06:25.971Z</time></trkpt><trkpt lat="43.4572495" lon="11.462231"><ele>552.6666666666667</ele><time>2026-04-19T10:06:26.971Z</time></trkpt><trkpt lat="43.4572146" lon="11.4623374"><ele>554.0</ele><time>2026-04-19T10:06:27.968Z</time></trkpt><trkpt lat="43.4571815" lon="11.4624384"><ele>555.3333333333334</ele><time>2026-04-19T10:06:28.971Z</time></trkpt><trkpt lat="43.4571852" lon="11.4625398"><ele>556.6666666666666</ele><time>2026-04-19T10:06:29.966Z</time></trkpt><trkpt lat="43.4572146" lon="11.4626555"><ele>558.0</ele><time>2026-04-19T10:06:30.97Z</time></trkpt><trkpt lat="43.4572474" lon="11.4627735"><ele>557.9999999999999</ele><time>2026-04-19T10:06:31.974Z</time></trkpt><trkpt lat="43.4572587" lon="11.4628723"><ele>558.0</ele><time>2026-04-19T10:06:32.975Z</time></trkpt><trkpt lat="43.4572324" lon="11.4629679"><ele>558.0</ele><time>2026-04-19T10:06:33.964Z</time></trkpt><trkpt lat="43.457187" lon="11.4630465"><ele>558.0</ele><time>2026-04-19T10:06:34.971Z</time></trkpt><trkpt lat="43.4571444" lon="11.4631381"><ele>558.0</ele><time>2026-04-19T10:06:35.969Z</time></trkpt><trkpt lat="43.4571295" lon="11.4632248"><ele>557.9999999999999</ele><time>2026-04-19T10:06:36.97Z</time></trkpt><trkpt lat="43.4571347" lon="11.4633252"><ele>558.0</ele><time>2026-04-19T10:06:37.979Z</time></trkpt><trkpt lat="43.4571614" lon="11.4634297"><ele>559.5</ele><time>2026-04-19T10:06:38.974Z</time></trkpt><trkpt lat="43.4571951" lon="11.4635257"><ele>561.0</ele><time>2026-04-19T10:06:39.981Z</time></trkpt><trkpt lat="43.4572408" lon="11.4636066"><ele>562.5</ele><time>2026-04-19T10:06:40.968Z</time></trkpt><trkpt lat="43.457308" lon="11.4636747"><ele>564.0</ele><time>2026-04-19T10:06:41.967Z</time></trkpt><trkpt lat="43.4573849" lon="11.4637294"><ele>565.5</ele><time>2026-04-19T10:06:42.972Z</time></trkpt><trkpt lat="43.4574483" lon="11.4637925"><ele>567.0</ele><time>2026-04-19T10:06:43.97Z</time></trkpt><trkpt lat="43.457487" lon="11.4638748"><ele>568.6</ele><time>2026-04-19T10:06:44.966Z</time></trkpt><trkpt lat="43.4575" lon="11.4639653"><ele>570.2</ele><time>2026-04-19T10:06:45.976Z</time></trkpt><trkpt lat="43.457512" lon="11.4641456"><ele>571.8</ele><time>2026-04-19T10:06:47.971Z</time></trkpt><trkpt lat="43.4575294" lon="11.4642717"><ele>573.4</ele><time>2026-04-19T10:06:48.994Z</time></trkpt><trkpt lat="43.4575331" lon="11.4644058"><ele>575.0</ele><time>2026-04-19T10:06:49.968Z</time></trkpt><trkpt lat="43.4575222" lon="11.4645348"><ele>577.0</ele><time>2026-04-19T10:06:50.97Z</time></trkpt><trkpt lat="43.4574862" lon="11.4646506"><ele>579.0</ele><time>2026-04-19T10:06:51.972Z</time></trkpt><trkpt lat="43.4574356" lon="11.4647515"><ele>581.0</ele><time>2026-04-19T10:06:52.97Z</time></trkpt><trkpt lat="43.4573707" lon="11.4648361"><ele>583.0</ele><time>2026-04-19T10:06:53.991Z</time></trkpt><trkpt lat="43.4573014" lon="11.4649241"><ele>585.0</ele><time>2026-04-19T10:06:54.975Z</time></trkpt><trkpt lat="43.4572501" lon="11.4650262"><ele>585.0</ele><time>2026-04-19T10:06:55.973Z</time></trkpt><trkpt lat="43.4572131" lon="11.4651586"><ele>585.0</ele><time>2026-04-19T10:06:56.967Z</time></trkpt><trkpt lat="43.4571853" lon="11.4652992"><ele>585.0</ele><time>2026-04-19T10:06:57.968Z</time></trkpt><trkpt lat="43.4571741" lon="11.4654542"><ele>585.0</ele><time>2026-04-19T10:06:58.972Z</time></trkpt><trkpt lat="43.4571697" lon="11.4656131"><ele>585.0</ele><time>2026-04-19T10:06:59.967Z</time></trkpt><trkpt lat="43.4571678" lon="11.4657836"><ele>586.2</ele><time>2026-04-19T10:07:00.966Z</time></trkpt><trkpt lat="43.4571697" lon="11.4659436"><ele>587.4</ele><time>2026-04-19T10:07:01.976Z</time></trkpt><trkpt lat="43.4571853" lon="11.4660765"><ele>588.6</ele><time>2026-04-19T10:07:02.97Z</time></trkpt><trkpt lat="43.4571837" lon="11.4661783"><ele>589.8</ele><time>2026-04-19T10:07:03.978Z</time></trkpt><trkpt lat="43.457077" lon="11.4662555"><ele>591.0</ele><time>2026-04-19T10:07:05.968Z</time></trkpt><trkpt lat="43.4569954" lon="11.4662368"><ele>591.0</ele><time>2026-04-19T10:07:06.974Z</time></trkpt><trkpt lat="43.4569054" lon="11.4661688"><ele>591.0</ele><time>2026-04-19T10:07:07.966Z</time></trkpt><trkpt lat="43.4568136" lon="11.4660793"><ele>591.0</ele><time>2026-04-19T10:07:08.96Z</time></trkpt><trkpt lat="43.4567165" lon="11.4659744"><ele>591.0</ele><time>2026-04-19T10:07:09.968Z</time></trkpt><trkpt lat="43.456605" lon="11.4658752"><ele>591.0</ele><time>2026-04-19T10:07:10.971Z</time></trkpt><trkpt lat="43.4565029" lon="11.4657927"><ele>591.0</ele><time>2026-04-19T10:07:11.987Z</time></trkpt><trkpt lat="43.4564032" lon="11.4657346"><ele>591.0</ele><time>2026-04-19T10:07:12.965Z</time></trkpt><trkpt lat="43.4562983" lon="11.4657028"><ele>591.0</ele><time>2026-04-19T10:07:13.969Z</time></trkpt><trkpt lat="43.4562089" lon="11.4657066"><ele>591.0</ele><time>2026-04-19T10:07:14.967Z</time></trkpt><trkpt lat="43.4561137" lon="11.4657358"><ele>592.6</ele><time>2026-04-19T10:07:15.97Z</time></trkpt><trkpt lat="43.4560194" lon="11.4657877"><ele>594.2</ele><time>2026-04-19T10:07:16.972Z</time></trkpt><trkpt lat="43.4559416" lon="11.4658519"><ele>595.8</ele><time>2026-04-19T10:07:17.982Z</time></trkpt><trkpt lat="43.4558896" lon="11.4659334"><ele>597.4</ele><time>2026-04-19T10:07:18.969Z</time></trkpt><trkpt lat="43.4558419" lon="11.4660153"><ele>599.0</ele><time>2026-04-19T10:07:19.968Z</time></trkpt><trkpt lat="43.4557417" lon="11.4660786"><ele>599.0</ele><time>2026-04-19T10:07:21.966Z</time></trkpt><trkpt lat="43.4556531" lon="11.4660586"><ele>599.0</ele><time>2026-04-19T10:07:22.969Z</time></trkpt><trkpt lat="43.4555491" lon="11.4660116"><ele>599.0</ele><time>2026-04-19T10:07:23.97Z</time></trkpt><trkpt lat="43.4554439" lon="11.4659554"><ele>599.0</ele><time>2026-04-19T10:07:24.972Z</time></trkpt><trkpt lat="43.4553441" lon="11.4659248"><ele>599.0</ele><time>2026-04-19T10:07:25.972Z</time></trkpt><trkpt lat="43.4552411" lon="11.4659047"><ele>596.8</ele><time>2026-04-19T10:07:26.97Z</time></trkpt><trkpt lat="43.4551415" lon="11.4659046"><ele>594.5999999999999</ele><time>2026-04-19T10:07:27.983Z</time></trkpt><trkpt lat="43.4550491" lon="11.465946"><ele>592.4</ele><time>2026-04-19T10:07:28.985Z</time></trkpt><trkpt lat="43.4549676" lon="11.4660048"><ele>590.1999999999999</ele><time>2026-04-19T10:07:29.968Z</time></trkpt><trkpt lat="43.4549117" lon="11.4660957"><ele>588.0</ele><time>2026-04-19T10:07:30.972Z</time></trkpt><trkpt lat="43.454877" lon="11.4661967"><ele>589.8</ele><time>2026-04-19T10:07:31.972Z</time></trkpt><trkpt lat="43.4548596" lon="11.4662953"><ele>591.5999999999999</ele><time>2026-04-19T10:07:32.978Z</time></trkpt><trkpt lat="43.4548502" lon="11.4664159"><ele>593.4000000000001</ele><time>2026-04-19T10:07:33.973Z</time></trkpt><trkpt lat="43.4548342" lon="11.4665841"><ele>595.2</ele><time>2026-04-19T10:07:34.966Z</time></trkpt><trkpt lat="43.4548175" lon="11.4667543"><ele>597.0</ele><time>2026-04-19T10:07:35.977Z</time></trkpt><trkpt lat="43.4547843" lon="11.4669045"><ele>597.0</ele><time>2026-04-19T10:07:36.972Z</time></trkpt><trkpt lat="43.4547286" lon="11.4670232"><ele>597.0</ele><time>2026-04-19T10:07:37.976Z</time></trkpt><trkpt lat="43.4546627" lon="11.4671195"><ele>597.0</ele><time>2026-04-19T10:07:38.972Z</time></trkpt><trkpt lat="43.4545873" lon="11.4672039"><ele>597.0</ele><time>2026-04-19T10:07:39.969Z</time></trkpt><trkpt lat="43.4545007" lon="11.4672697"><ele>597.0</ele><time>2026-04-19T10:07:40.983Z</time></trkpt><trkpt lat="43.454416" lon="11.4673712"><ele>596.75</ele><time>2026-04-19T10:07:41.958Z</time></trkpt><trkpt lat="43.4543301" lon="11.4674843"><ele>596.5</ele><time>2026-04-19T10:07:42.966Z</time></trkpt><trkpt lat="43.4542691" lon="11.4676012"><ele>596.25</ele><time>2026-04-19T10:07:43.977Z</time></trkpt><trkpt lat="43.4542007" lon="11.4677347"><ele>596.0</ele><time>2026-04-19T10:07:44.97Z</time></trkpt><trkpt lat="43.4541252" lon="11.4678726"><ele>599.25</ele><time>2026-04-19T10:07:45.974Z</time></trkpt><trkpt lat="43.4540497" lon="11.4680246"><ele>602.5</ele><time>2026-04-19T10:07:46.963Z</time></trkpt><trkpt lat="43.4539697" lon="11.4681734"><ele>605.75</ele><time>2026-04-19T10:07:47.969Z</time></trkpt><trkpt lat="43.4538917" lon="11.4683274"><ele>609.0</ele><time>2026-04-19T10:07:48.989Z</time></trkpt><trkpt lat="43.4538309" lon="11.4684632"><ele>609.0</ele><time>2026-04-19T10:07:49.969Z</time></trkpt><trkpt lat="43.4537864" lon="11.468562"><ele>609.0</ele><time>2026-04-19T10:07:50.97Z</time></trkpt><trkpt lat="43.453798" lon="11.4687635"><ele>609.0</ele><time>2026-04-19T10:07:52.968Z</time></trkpt><trkpt lat="43.453799" lon="11.4688849"><ele>609.0</ele><time>2026-04-19T10:07:53.995Z</time></trkpt><trkpt lat="43.4538129" lon="11.4689868"><ele>609.0</ele><time>2026-04-19T10:07:54.967Z</time></trkpt><trkpt lat="43.4538365" lon="11.4690822"><ele>610.4</ele><time>2026-04-19T10:07:55.969Z</time></trkpt><trkpt lat="43.4539108" lon="11.4692547"><ele>611.8</ele><time>2026-04-19T10:07:57.973Z</time></trkpt><trkpt lat="43.453966" lon="11.4693571"><ele>613.2</ele><time>2026-04-19T10:07:58.967Z</time></trkpt><trkpt lat="43.4540116" lon="11.4694695"><ele>614.6</ele><time>2026-04-19T10:07:59.99Z</time></trkpt><trkpt lat="43.4540526" lon="11.4695933"><ele>616.0</ele><time>2026-04-19T10:08:00.972Z</time></trkpt><trkpt lat="43.4541002" lon="11.46971"><ele>616.6</ele><time>2026-04-19T10:08:01.974Z</time></trkpt><trkpt lat="43.45415" lon="11.469816"><ele>617.2</ele><time>2026-04-19T10:08:02.971Z</time></trkpt><trkpt lat="43.4541959" lon="11.4699278"><ele>617.8</ele><time>2026-04-19T10:08:03.969Z</time></trkpt><trkpt lat="43.4542416" lon="11.4700372"><ele>618.4</ele><time>2026-04-19T10:08:04.971Z</time></trkpt><trkpt lat="43.4542958" lon="11.4701421"><ele>619.0</ele><time>2026-04-19T10:08:05.97Z</time></trkpt><trkpt lat="43.4543492" lon="11.4702419"><ele>619.0</ele><time>2026-04-19T10:08:06.969Z</time></trkpt><trkpt lat="43.4543968" lon="11.4703427"><ele>619.0</ele><time>2026-04-19T10:08:07.968Z</time></trkpt><trkpt lat="43.4544377" lon="11.4704363"><ele>619.0</ele><time>2026-04-19T10:08:08.972Z</time></trkpt><trkpt lat="43.4544807" lon="11.4705297"><ele>619.0</ele><time>2026-04-19T10:08:09.969Z</time></trkpt><trkpt lat="43.4545289" lon="11.4706162"><ele>619.0</ele><time>2026-04-19T10:08:10.988Z</time></trkpt><trkpt lat="43.4545742" lon="11.4706948"><ele>619.0</ele><time>2026-04-19T10:08:11.974Z</time></trkpt><trkpt lat="43.4546359" lon="11.4707572"><ele>621.6666666666667</ele><time>2026-04-19T10:08:12.964Z</time></trkpt><trkpt lat="43.4547" lon="11.4708145"><ele>624.3333333333334</ele><time>2026-04-19T10:08:13.971Z</time></trkpt><trkpt lat="43.4547714" lon="11.4708721"><ele>627.0</ele><time>2026-04-19T10:08:14.97Z</time></trkpt><trkpt lat="43.4548538" lon="11.4709146"><ele>629.6666666666666</ele><time>2026-04-19T10:08:15.971Z</time></trkpt><trkpt lat="43.4549477" lon="11.4709454"><ele>632.3333333333333</ele><time>2026-04-19T10:08:16.976Z</time></trkpt><trkpt lat="43.4550458" lon="11.4709743"><ele>635.0</ele><time>2026-04-19T10:08:17.974Z</time></trkpt><trkpt lat="43.4551423" lon="11.471013"><ele>635.0</ele><time>2026-04-19T10:08:18.969Z</time></trkpt><trkpt lat="43.4552488" lon="11.4710605"><ele>635.0</ele><time>2026-04-19T10:08:19.972Z</time></trkpt><trkpt lat="43.4553544" lon="11.4710973"><ele>635.0</ele><time>2026-04-19T10:08:20.974Z</time></trkpt><trkpt lat="43.4554545" lon="11.4711247"><ele>635.0</ele><time>2026-04-19T10:08:21.971Z</time></trkpt><trkpt lat="43.4555484" lon="11.4711567"><ele>635.0</ele><time>2026-04-19T10:08:22.978Z</time></trkpt><trkpt lat="43.4556395" lon="11.4711854"><ele>637.4</ele><time>2026-04-19T10:08:23.969Z</time></trkpt><trkpt lat="43.4557216" lon="11.4712073"><ele>639.8</ele><time>2026-04-19T10:08:24.975Z</time></trkpt><trkpt lat="43.4558043" lon="11.471213"><ele>642.2</ele><time>2026-04-19T10:08:25.988Z</time></trkpt><trkpt lat="43.4558709" lon="11.4711957"><ele>644.6</ele><time>2026-04-19T10:08:26.982Z</time></trkpt><trkpt lat="43.4559801" lon="11.471076"><ele>647.0</ele><time>2026-04-19T10:08:28.97Z</time></trkpt><trkpt lat="43.456057" lon="11.4709733"><ele>647.0</ele><time>2026-04-19T10:08:29.975Z</time></trkpt><trkpt lat="43.4561208" lon="11.4708668"><ele>647.0</ele><time>2026-04-19T10:08:30.97Z</time></trkpt><trkpt lat="43.4561981" lon="11.4707513"><ele>647.0</ele><time>2026-04-19T10:08:31.99Z</time></trkpt><trkpt lat="43.4562948" lon="11.470636"><ele>647.0</ele><time>2026-04-19T10:08:32.975Z</time></trkpt><trkpt lat="43.4563949" lon="11.4705258"><ele>650.5</ele><time>2026-04-19T10:08:33.969Z</time></trkpt><trkpt lat="43.4564868" lon="11.4704223"><ele>654.0</ele><time>2026-04-19T10:08:34.972Z</time></trkpt><trkpt lat="43.45659" lon="11.4703814"><ele>657.5</ele><time>2026-04-19T10:08:35.974Z</time></trkpt><trkpt lat="43.4567077" lon="11.4703748"><ele>661.0</ele><time>2026-04-19T10:08:36.977Z</time></trkpt><trkpt lat="43.4568301" lon="11.4703981"><ele>661.0</ele><time>2026-04-19T10:08:37.968Z</time></trkpt><trkpt lat="43.4569604" lon="11.470424"><ele>661.0</ele><time>2026-04-19T10:08:39.003Z</time></trkpt><trkpt lat="43.4571038" lon="11.4704597"><ele>661.0</ele><time>2026-04-19T10:08:39.968Z</time></trkpt><trkpt lat="43.4572461" lon="11.470501"><ele>661.0</ele><time>2026-04-19T10:08:40.974Z</time></trkpt><trkpt lat="43.4573604" lon="11.4705445"><ele>660.25</ele><time>2026-04-19T10:08:41.979Z</time></trkpt><trkpt lat="43.4574819" lon="11.4705974"><ele>659.5</ele><time>2026-04-19T10:08:42.971Z</time></trkpt><trkpt lat="43.4575903" lon="11.4706663"><ele>658.75</ele><time>2026-04-19T10:08:43.99Z</time></trkpt><trkpt lat="43.4576894" lon="11.4707751"><ele>658.0</ele><time>2026-04-19T10:08:44.966Z</time></trkpt><trkpt lat="43.45778" lon="11.4708917"><ele>658.0</ele><time>2026-04-19T10:08:45.977Z</time></trkpt><trkpt lat="43.4578782" lon="11.4710263"><ele>658.0</ele><time>2026-04-19T10:08:46.967Z</time></trkpt><trkpt lat="43.4579681" lon="11.4711742"><ele>658.0</ele><time>2026-04-19T10:08:47.974Z</time></trkpt><trkpt lat="43.4580568" lon="11.4713321"><ele>658.0</ele><time>2026-04-19T10:08:48.978Z</time></trkpt><trkpt lat="43.4581639" lon="11.4715271"><ele>660.6666666666667</ele><time>2026-04-19T10:08:49.975Z</time></trkpt><trkpt lat="43.4582851" lon="11.4717135"><ele>663.3333333333334</ele><time>2026-04-19T10:08:50.965Z</time></trkpt><trkpt lat="43.4584" lon="11.4718904"><ele>666.0</ele><time>2026-04-19T10:08:51.966Z</time></trkpt><trkpt lat="43.4584929" lon="11.4720493"><ele>664.75</ele><time>2026-04-19T10:08:52.972Z</time></trkpt><trkpt lat="43.4585775" lon="11.4721924"><ele>663.5</ele><time>2026-04-19T10:08:53.97Z</time></trkpt><trkpt lat="43.4586524" lon="11.4723336"><ele>662.25</ele><time>2026-04-19T10:08:54.972Z</time></trkpt><trkpt lat="43.4587153" lon="11.4724627"><ele>661.0</ele><time>2026-04-19T10:08:55.972Z</time></trkpt><trkpt lat="43.4587641" lon="11.4725848"><ele>660.8</ele><time>2026-04-19T10:08:56.97Z</time></trkpt><trkpt lat="43.4588088" lon="11.4727133"><ele>660.5999999999999</ele><time>2026-04-19T10:08:57.969Z</time></trkpt><trkpt lat="43.4588493" lon="11.4728427"><ele>660.4</ele><time>2026-04-19T10:08:58.964Z</time></trkpt><trkpt lat="43.4588742" lon="11.4729796"><ele>660.2</ele><time>2026-04-19T10:08:59.967Z</time></trkpt><trkpt lat="43.4588845" lon="11.4731397"><ele>660.0</ele><time>2026-04-19T10:09:00.959Z</time></trkpt><trkpt lat="43.4588711" lon="11.4733202"><ele>659.0</ele><time>2026-04-19T10:09:01.963Z</time></trkpt><trkpt lat="43.458838" lon="11.4735279"><ele>658.0</ele><time>2026-04-19T10:09:02.967Z</time></trkpt><trkpt lat="43.4588005" lon="11.4737402"><ele>657.0</ele><time>2026-04-19T10:09:03.967Z</time></trkpt><trkpt lat="43.4587778" lon="11.4739497"><ele>656.75</ele><time>2026-04-19T10:09:04.977Z</time></trkpt><trkpt lat="43.4587496" lon="11.4741466"><ele>656.5</ele><time>2026-04-19T10:09:05.978Z</time></trkpt><trkpt lat="43.4587225" lon="11.4743363"><ele>656.25</ele><time>2026-04-19T10:09:06.967Z</time></trkpt><trkpt lat="43.458691" lon="11.4744915"><ele>656.0</ele><time>2026-04-19T10:09:07.977Z</time></trkpt><trkpt lat="43.4586905" lon="11.4746269"><ele>656.0</ele><time>2026-04-19T10:09:08.972Z</time></trkpt><trkpt lat="43.4586898" lon="11.4747709"><ele>656.0</ele><time>2026-04-19T10:09:09.972Z</time></trkpt><trkpt lat="43.4587076" lon="11.4749244"><ele>656.0</ele><time>2026-04-19T10:09:10.968Z</time></trkpt><trkpt lat="43.4587525" lon="11.4751029"><ele>656.0</ele><time>2026-04-19T10:09:11.968Z</time></trkpt><trkpt lat="43.4588055" lon="11.4752857"><ele>657.75</ele><time>2026-04-19T10:09:12.96Z</time></trkpt><trkpt lat="43.4588584" lon="11.4754589"><ele>659.5</ele><time>2026-04-19T10:09:13.974Z</time></trkpt><trkpt lat="43.4589079" lon="11.4756264"><ele>661.25</ele><time>2026-04-19T10:09:14.965Z</time></trkpt><trkpt lat="43.4589643" lon="11.4757921"><ele>663.0</ele><time>2026-04-19T10:09:15.969Z</time></trkpt><trkpt lat="43.4590234" lon="11.4759225"><ele>663.0</ele><time>2026-04-19T10:09:16.96Z</time></trkpt><trkpt lat="43.4590853" lon="11.4760398"><ele>663.0</ele><time>2026-04-19T10:09:17.971Z</time></trkpt><trkpt lat="43.4591459" lon="11.4761605"><ele>663.0</ele><time>2026-04-19T10:09:18.976Z</time></trkpt><trkpt lat="43.4592023" lon="11.4762763"><ele>663.0</ele><time>2026-04-19T10:09:19.975Z</time></trkpt><trkpt lat="43.4592371" lon="11.4763782"><ele>663.0</ele><time>2026-04-19T10:09:20.967Z</time></trkpt><trkpt lat="43.4592754" lon="11.4764609"><ele>662.3333333333334</ele><time>2026-04-19T10:09:21.983Z</time></trkpt><trkpt lat="43.4593204" lon="11.4765461"><ele>661.6666666666666</ele><time>2026-04-19T10:09:23.977Z</time></trkpt><trkpt lat="43.4593956" lon="11.4766235"><ele>661.0</ele><time>2026-04-19T10:09:39.971Z</time></trkpt><trkpt lat="43.4594439" lon="11.4766802"><ele>660.3333333333333</ele><time>2026-04-19T10:09:40.993Z</time></trkpt><trkpt lat="43.4595006" lon="11.4767666"><ele>659.6666666666666</ele><time>2026-04-19T10:09:41.967Z</time></trkpt><trkpt lat="43.4595666" lon="11.4768679"><ele>659.0</ele><time>2026-04-19T10:09:42.973Z</time></trkpt><trkpt lat="43.459636" lon="11.4769953"><ele>658.4000000000001</ele><time>2026-04-19T10:09:43.981Z</time></trkpt><trkpt lat="43.4596873" lon="11.4771196"><ele>657.8</ele><time>2026-04-19T10:09:44.973Z</time></trkpt><trkpt lat="43.4597309" lon="11.4772193"><ele>657.2</ele><time>2026-04-19T10:09:45.976Z</time></trkpt><trkpt lat="43.459761" lon="11.4773844"><ele>656.5999999999999</ele><time>2026-04-19T10:09:47.97Z</time></trkpt><trkpt lat="43.4597755" lon="11.4774894"><ele>656.0</ele><time>2026-04-19T10:09:48.98Z</time></trkpt><trkpt lat="43.4597903" lon="11.4775952"><ele>656.0</ele><time>2026-04-19T10:09:49.969Z</time></trkpt><trkpt lat="43.4598053" lon="11.4777254"><ele>656.0</ele><time>2026-04-19T10:09:50.978Z</time></trkpt><trkpt lat="43.4598273" lon="11.4778633"><ele>656.0</ele><time>2026-04-19T10:09:51.984Z</time></trkpt><trkpt lat="43.4598721" lon="11.4779627"><ele>656.0</ele><time>2026-04-19T10:09:52.969Z</time></trkpt><trkpt lat="43.4599379" lon="11.478036"><ele>656.0</ele><time>2026-04-19T10:09:53.972Z</time></trkpt><trkpt lat="43.4600093" lon="11.4781301"><ele>658.5999999999999</ele><time>2026-04-19T10:09:54.978Z</time></trkpt><trkpt lat="43.4600749" lon="11.4782249"><ele>661.2</ele><time>2026-04-19T10:09:55.982Z</time></trkpt><trkpt lat="43.4601356" lon="11.4783233"><ele>663.8</ele><time>2026-04-19T10:09:56.974Z</time></trkpt><trkpt lat="43.4601949" lon="11.4784195"><ele>666.4000000000001</ele><time>2026-04-19T10:09:57.985Z</time></trkpt><trkpt lat="43.4602722" lon="11.4785245"><ele>669.0</ele><time>2026-04-19T10:09:58.962Z</time></trkpt><trkpt lat="43.4603627" lon="11.4786167"><ele>669.0</ele><time>2026-04-19T10:09:59.969Z</time></trkpt><trkpt lat="43.4604323" lon="11.4787169"><ele>669.0</ele><time>2026-04-19T10:10:00.967Z</time></trkpt><trkpt lat="43.4605026" lon="11.4788079"><ele>669.0</ele><time>2026-04-19T10:10:01.983Z</time></trkpt><trkpt lat="43.4605689" lon="11.4789158"><ele>669.0</ele><time>2026-04-19T10:10:02.977Z</time></trkpt><trkpt lat="43.460604" lon="11.4790117"><ele>669.0</ele><time>2026-04-19T10:10:03.964Z</time></trkpt><trkpt lat="43.4606341" lon="11.4791106"><ele>668.6</ele><time>2026-04-19T10:10:04.972Z</time></trkpt><trkpt lat="43.4606776" lon="11.4792126"><ele>668.2</ele><time>2026-04-19T10:10:05.973Z</time></trkpt><trkpt lat="43.4607386" lon="11.4793055"><ele>667.8000000000001</ele><time>2026-04-19T10:10:06.968Z</time></trkpt><trkpt lat="43.4608134" lon="11.4794025"><ele>667.4000000000001</ele><time>2026-04-19T10:10:07.965Z</time></trkpt><trkpt lat="43.4608879" lon="11.4794774"><ele>667.0</ele><time>2026-04-19T10:10:08.971Z</time></trkpt><trkpt lat="43.4609601" lon="11.4795486"><ele>669.3333333333334</ele><time>2026-04-19T10:10:09.971Z</time></trkpt><trkpt lat="43.461032" lon="11.4796314"><ele>671.6666666666667</ele><time>2026-04-19T10:10:10.979Z</time></trkpt><trkpt lat="43.4610927" lon="11.4797003"><ele>674.0</ele><time>2026-04-19T10:10:11.971Z</time></trkpt><trkpt lat="43.461141" lon="11.4797799"><ele>676.3333333333334</ele><time>2026-04-19T10:10:12.966Z</time></trkpt><trkpt lat="43.4611713" lon="11.479864"><ele>678.6666666666666</ele><time>2026-04-19T10:10:13.966Z</time></trkpt><trkpt lat="43.4611921" lon="11.4799769"><ele>681.0</ele><time>2026-04-19T10:10:14.971Z</time></trkpt><trkpt lat="43.4612243" lon="11.4800946"><ele>681.0</ele><time>2026-04-19T10:10:15.969Z</time></trkpt><trkpt lat="43.4612671" lon="11.4802633"><ele>681.0</ele><time>2026-04-19T10:10:16.962Z</time></trkpt><trkpt lat="43.4613063" lon="11.4804502"><ele>681.0</ele><time>2026-04-19T10:10:17.974Z</time></trkpt><trkpt lat="43.461348" lon="11.4806003"><ele>681.0</ele><time>2026-04-19T10:10:18.976Z</time></trkpt><trkpt lat="43.4614042" lon="11.4806813"><ele>678.5999999999999</ele><time>2026-04-19T10:10:19.97Z</time></trkpt><trkpt lat="43.4614788" lon="11.4807631"><ele>676.2</ele><time>2026-04-19T10:10:20.971Z</time></trkpt><trkpt lat="43.4615675" lon="11.4808396"><ele>673.8</ele><time>2026-04-19T10:10:21.961Z</time></trkpt><trkpt lat="43.4616556" lon="11.4809147"><ele>671.4000000000001</ele><time>2026-04-19T10:10:22.973Z</time></trkpt><trkpt lat="43.4617384" lon="11.4809886"><ele>669.0</ele><time>2026-04-19T10:10:23.969Z</time></trkpt><trkpt lat="43.4618097" lon="11.4810587"><ele>669.0</ele><time>2026-04-19T10:10:24.977Z</time></trkpt><trkpt lat="43.4618761" lon="11.4810976"><ele>669.0</ele><time>2026-04-19T10:10:25.967Z</time></trkpt><trkpt lat="43.4619943" lon="11.4811244"><ele>669.0</ele><time>2026-04-19T10:10:27.973Z</time></trkpt><trkpt lat="43.4621223" lon="11.4811317"><ele>669.0</ele><time>2026-04-19T10:10:29.965Z</time></trkpt><trkpt lat="43.4621923" lon="11.4811303"><ele>669.0</ele><time>2026-04-19T10:10:30.971Z</time></trkpt><trkpt lat="43.4622693" lon="11.4811277"><ele>670.6</ele><time>2026-04-19T10:10:31.971Z</time></trkpt><trkpt lat="43.462357" lon="11.4811042"><ele>672.2</ele><time>2026-04-19T10:10:32.973Z</time></trkpt><trkpt lat="43.4624482" lon="11.481085"><ele>673.8000000000001</ele><time>2026-04-19T10:10:33.973Z</time></trkpt><trkpt lat="43.4625324" lon="11.4810616"><ele>675.4000000000001</ele><time>2026-04-19T10:10:34.975Z</time></trkpt><trkpt lat="43.4626224" lon="11.4810698"><ele>677.0</ele><time>2026-04-19T10:10:35.974Z</time></trkpt><trkpt lat="43.4627134" lon="11.4810892"><ele>677.0</ele><time>2026-04-19T10:10:36.975Z</time></trkpt><trkpt lat="43.4628135" lon="11.4811081"><ele>677.0</ele><time>2026-04-19T10:10:37.975Z</time></trkpt><trkpt lat="43.4629245" lon="11.4811231"><ele>677.0</ele><time>2026-04-19T10:10:38.973Z</time></trkpt><trkpt lat="43.4630483" lon="11.4811389"><ele>677.0</ele><time>2026-04-19T10:10:39.977Z</time></trkpt><trkpt lat="43.4631661" lon="11.4811567"><ele>677.2</ele><time>2026-04-19T10:10:40.975Z</time></trkpt><trkpt lat="43.4632832" lon="11.481136"><ele>677.4000000000001</ele><time>2026-04-19T10:10:41.971Z</time></trkpt><trkpt lat="43.4633793" lon="11.4810949"><ele>677.5999999999999</ele><time>2026-04-19T10:10:42.975Z</time></trkpt><trkpt lat="43.4634659" lon="11.481069"><ele>677.8</ele><time>2026-04-19T10:10:43.961Z</time></trkpt><trkpt lat="43.4635791" lon="11.4810966"><ele>678.0</ele><time>2026-04-19T10:10:45.972Z</time></trkpt><trkpt lat="43.4636199" lon="11.4811974"><ele>678.0</ele><time>2026-04-19T10:10:47.97Z</time></trkpt><trkpt lat="43.4636404" lon="11.4812827"><ele>678.0</ele><time>2026-04-19T10:10:48.99Z</time></trkpt><trkpt lat="43.4636802" lon="11.4813832"><ele>678.0</ele><time>2026-04-19T10:10:49.971Z</time></trkpt><trkpt lat="43.463732" lon="11.4814895"><ele>678.0</ele><time>2026-04-19T10:10:50.973Z</time></trkpt><trkpt lat="43.4637709" lon="11.4816091"><ele>678.0</ele><time>2026-04-19T10:10:51.97Z</time></trkpt><trkpt lat="43.4637875" lon="11.4817154"><ele>678.0</ele><time>2026-04-19T10:10:52.972Z</time></trkpt><trkpt lat="43.4637753" lon="11.4818318"><ele>678.0</ele><time>2026-04-19T10:10:53.97Z</time></trkpt><trkpt lat="43.4637597" lon="11.4819439"><ele>678.0</ele><time>2026-04-19T10:10:54.97Z</time></trkpt><trkpt lat="43.4637158" lon="11.4820668"><ele>678.0</ele><time>2026-04-19T10:10:55.973Z</time></trkpt><trkpt lat="43.4636489" lon="11.4821873"><ele>678.0</ele><time>2026-04-19T10:10:56.97Z</time></trkpt><trkpt lat="43.4635933" lon="11.4823001"><ele>678.0</ele><time>2026-04-19T10:10:57.971Z</time></trkpt><trkpt lat="43.4635372" lon="11.4824061"><ele>679.5999999999999</ele><time>2026-04-19T10:10:58.969Z</time></trkpt><trkpt lat="43.4634786" lon="11.4825198"><ele>681.1999999999999</ele><time>2026-04-19T10:10:59.978Z</time></trkpt><trkpt lat="43.4634302" lon="11.4826103"><ele>682.8</ele><time>2026-04-19T10:11:00.966Z</time></trkpt><trkpt lat="43.4633903" lon="11.4827831"><ele>684.4</ele><time>2026-04-19T10:11:02.966Z</time></trkpt><trkpt lat="43.4633938" lon="11.4828872"><ele>686.0</ele><time>2026-04-19T10:11:03.965Z</time></trkpt><trkpt lat="43.4634154" lon="11.482983"><ele>687.5</ele><time>2026-04-19T10:11:04.973Z</time></trkpt><trkpt lat="43.463445" lon="11.4830828"><ele>689.0</ele><time>2026-04-19T10:11:05.973Z</time></trkpt><trkpt lat="43.4634797" lon="11.4831756"><ele>690.5</ele><time>2026-04-19T10:11:06.982Z</time></trkpt><trkpt lat="43.4635004" lon="11.4832872"><ele>692.0</ele><time>2026-04-19T10:11:07.974Z</time></trkpt><trkpt lat="43.4635213" lon="11.4834206"><ele>693.5</ele><time>2026-04-19T10:11:08.98Z</time></trkpt><trkpt lat="43.4635438" lon="11.4835594"><ele>695.0</ele><time>2026-04-19T10:11:09.971Z</time></trkpt><trkpt lat="43.4635619" lon="11.483682"><ele>695.25</ele><time>2026-04-19T10:11:10.967Z</time></trkpt><trkpt lat="43.46355" lon="11.4838292"><ele>695.5</ele><time>2026-04-19T10:11:11.97Z</time></trkpt><trkpt lat="43.4635202" lon="11.4839872"><ele>695.75</ele><time>2026-04-19T10:11:12.974Z</time></trkpt><trkpt lat="43.463503" lon="11.484163"><ele>696.0</ele><time>2026-04-19T10:11:13.974Z</time></trkpt><trkpt lat="43.4635008" lon="11.4843389"><ele>696.0</ele><time>2026-04-19T10:11:14.973Z</time></trkpt><trkpt lat="43.4635167" lon="11.4844941"><ele>696.0</ele><time>2026-04-19T10:11:15.97Z</time></trkpt><trkpt lat="43.4635429" lon="11.4846464"><ele>696.0</ele><time>2026-04-19T10:11:16.965Z</time></trkpt><trkpt lat="43.4635799" lon="11.4847794"><ele>696.0</ele><time>2026-04-19T10:11:17.989Z</time></trkpt><trkpt lat="43.4636142" lon="11.4848963"><ele>696.0</ele><time>2026-04-19T10:11:18.966Z</time></trkpt><trkpt lat="43.4636039" lon="11.4850171"><ele>696.4</ele><time>2026-04-19T10:11:19.978Z</time></trkpt><trkpt lat="43.4635699" lon="11.4851302"><ele>696.8</ele><time>2026-04-19T10:11:20.963Z</time></trkpt><trkpt lat="43.4635204" lon="11.485227"><ele>697.1999999999999</ele><time>2026-04-19T10:11:21.965Z</time></trkpt><trkpt lat="43.4634495" lon="11.4853189"><ele>697.5999999999999</ele><time>2026-04-19T10:11:22.967Z</time></trkpt><trkpt lat="43.4633626" lon="11.4854144"><ele>698.0</ele><time>2026-04-19T10:11:23.968Z</time></trkpt><trkpt lat="43.4632731" lon="11.4855128"><ele>698.2</ele><time>2026-04-19T10:11:24.965Z</time></trkpt><trkpt lat="43.4631667" lon="11.4856052"><ele>698.4</ele><time>2026-04-19T10:11:25.965Z</time></trkpt><trkpt lat="43.4630594" lon="11.4857025"><ele>698.6</ele><time>2026-04-19T10:11:26.983Z</time></trkpt><trkpt lat="43.4629668" lon="11.4857755"><ele>698.8000000000001</ele><time>2026-04-19T10:11:27.967Z</time></trkpt><trkpt lat="43.4629035" lon="11.4858452"><ele>699.0</ele><time>2026-04-19T10:11:28.967Z</time></trkpt><trkpt lat="43.462859" lon="11.4859185"><ele>699.0</ele><time>2026-04-19T10:11:29.968Z</time></trkpt><trkpt lat="43.462821" lon="11.4860253"><ele>699.0</ele><time>2026-04-19T10:11:30.968Z</time></trkpt><trkpt lat="43.4627828" lon="11.4861385"><ele>699.0</ele><time>2026-04-19T10:11:31.972Z</time></trkpt><trkpt lat="43.4627482" lon="11.4862541"><ele>699.0</ele><time>2026-04-19T10:11:32.968Z</time></trkpt><trkpt lat="43.4627183" lon="11.4863842"><ele>699.0</ele><time>2026-04-19T10:11:33.967Z</time></trkpt><trkpt lat="43.4627039" lon="11.4865304"><ele>700.4285714285714</ele><time>2026-04-19T10:11:34.974Z</time></trkpt><trkpt lat="43.4627196" lon="11.4866405"><ele>701.8571428571429</ele><time>2026-04-19T10:11:35.968Z</time></trkpt><trkpt lat="43.4627659" lon="11.4867046"><ele>703.2857142857143</ele><time>2026-04-19T10:11:36.969Z</time></trkpt><trkpt lat="43.4628204" lon="11.48675"><ele>704.7142857142858</ele><time>2026-04-19T10:11:37.983Z</time></trkpt><trkpt lat="43.4628819" lon="11.4867858"><ele>706.1428571428571</ele><time>2026-04-19T10:11:38.968Z</time></trkpt><trkpt lat="43.4629448" lon="11.4868104"><ele>707.5714285714287</ele><time>2026-04-19T10:11:39.965Z</time></trkpt><trkpt lat="43.4630035" lon="11.4868541"><ele>709.0</ele><time>2026-04-19T10:11:40.993Z</time></trkpt><trkpt lat="43.4630873" lon="11.4869445"><ele>709.8000000000001</ele><time>2026-04-19T10:11:42.965Z</time></trkpt><trkpt lat="43.4631648" lon="11.4870453"><ele>710.6</ele><time>2026-04-19T10:11:44.972Z</time></trkpt><trkpt lat="43.4632644" lon="11.4871375"><ele>711.4</ele><time>2026-04-19T10:11:46.973Z</time></trkpt><trkpt lat="43.4633568" lon="11.4872283"><ele>712.2</ele><time>2026-04-19T10:11:48.974Z</time></trkpt><trkpt lat="43.4634242" lon="11.4872692"><ele>713.0</ele><time>2026-04-19T10:11:50.968Z</time></trkpt><trkpt lat="43.4635062" lon="11.4873205"><ele>713.0</ele><time>2026-04-19T10:11:52.969Z</time></trkpt><trkpt lat="43.4635978" lon="11.4873526"><ele>713.0</ele><time>2026-04-19T10:11:55.969Z</time></trkpt><trkpt lat="43.4636938" lon="11.4873604"><ele>713.0</ele><time>2026-04-19T10:11:57.972Z</time></trkpt><trkpt lat="43.4637867" lon="11.4874031"><ele>713.0</ele><time>2026-04-19T10:11:59.984Z</time></trkpt><trkpt lat="43.4638786" lon="11.4874496"><ele>713.0</ele><time>2026-04-19T10:12:01.972Z</time></trkpt><trkpt lat="43.4639997" lon="11.4874484"><ele>716.0</ele><time>2026-04-19T10:12:03.971Z</time></trkpt><trkpt lat="43.4641148" lon="11.4874968"><ele>719.0</ele><time>2026-04-19T10:12:05.961Z</time></trkpt><trkpt lat="43.4641908" lon="11.4875317"><ele>722.0</ele><time>2026-04-19T10:12:06.969Z</time></trkpt><trkpt lat="43.4642904" lon="11.4875583"><ele>725.0</ele><time>2026-04-19T10:12:07.973Z</time></trkpt><trkpt lat="43.464413" lon="11.4875851"><ele>728.0</ele><time>2026-04-19T10:12:08.969Z</time></trkpt><trkpt lat="43.4645195" lon="11.4876144"><ele>728.0</ele><time>2026-04-19T10:12:09.978Z</time></trkpt><trkpt lat="43.4646013" lon="11.4876415"><ele>728.0</ele><time>2026-04-19T10:12:10.975Z</time></trkpt><trkpt lat="43.4646834" lon="11.4876771"><ele>728.0</ele><time>2026-04-19T10:12:17.974Z</time></trkpt><trkpt lat="43.4647323" lon="11.4878154"><ele>728.0</ele><time>2026-04-19T10:12:19.973Z</time></trkpt><trkpt lat="43.464774" lon="11.487924"><ele>728.0</ele><time>2026-04-19T10:12:20.966Z</time></trkpt><trkpt lat="43.4648092" lon="11.4880455"><ele>728.0</ele><time>2026-04-19T10:12:21.969Z</time></trkpt><trkpt lat="43.4648393" lon="11.4881582"><ele>728.0</ele><time>2026-04-19T10:12:22.966Z</time></trkpt><trkpt lat="43.4648539" lon="11.4882801"><ele>728.0</ele><time>2026-04-19T10:12:23.966Z</time></trkpt><trkpt lat="43.4648448" lon="11.4883795"><ele>728.0</ele><time>2026-04-19T10:12:24.972Z</time></trkpt><trkpt lat="43.4648554" lon="11.4885433"><ele>728.0</ele><time>2026-04-19T10:12:26.968Z</time></trkpt><trkpt lat="43.464894" lon="11.4886589"><ele>728.0</ele><time>2026-04-19T10:12:28.969Z</time></trkpt><trkpt lat="43.4649873" lon="11.4886895"><ele>728.0</ele><time>2026-04-19T10:12:30.977Z</time></trkpt><trkpt lat="43.4650869" lon="11.4887252"><ele>728.0</ele><time>2026-04-19T10:12:32.969Z</time></trkpt><trkpt lat="43.465174" lon="11.4888308"><ele>728.0</ele><time>2026-04-19T10:12:34.969Z</time></trkpt><trkpt lat="43.4652457" lon="11.4889209"><ele>728.0</ele><time>2026-04-19T10:12:36.967Z</time></trkpt><trkpt lat="43.4653104" lon="11.4889932"><ele>727.5999999999999</ele><time>2026-04-19T10:12:38.974Z</time></trkpt><trkpt lat="43.4653639" lon="11.4890803"><ele>727.1999999999999</ele><time>2026-04-19T10:12:40.974Z</time></trkpt><trkpt lat="43.4654327" lon="11.4891791"><ele>726.8</ele><time>2026-04-19T10:12:42.972Z</time></trkpt><trkpt lat="43.4654864" lon="11.4892913"><ele>726.4</ele><time>2026-04-19T10:12:44.969Z</time></trkpt><trkpt lat="43.465522" lon="11.489424"><ele>726.0</ele><time>2026-04-19T10:12:46.967Z</time></trkpt><trkpt lat="43.4655135" lon="11.4896141"><ele>728.3333333333334</ele><time>2026-04-19T10:12:48.967Z</time></trkpt><trkpt lat="43.4654968" lon="11.4897291"><ele>730.6666666666666</ele><time>2026-04-19T10:12:49.965Z</time></trkpt><trkpt lat="43.4654926" lon="11.4898269"><ele>733.0</ele><time>2026-04-19T10:12:50.971Z</time></trkpt><trkpt lat="43.4654777" lon="11.4899869"><ele>735.3333333333333</ele><time>2026-04-19T10:12:52.966Z</time></trkpt><trkpt lat="43.4654723" lon="11.4900794"><ele>737.6666666666666</ele><time>2026-04-19T10:12:53.972Z</time></trkpt><trkpt lat="43.4654682" lon="11.4902258"><ele>740.0</ele><time>2026-04-19T10:12:55.968Z</time></trkpt><trkpt lat="43.4654444" lon="11.4903576"><ele>743.3333333333333</ele><time>2026-04-19T10:12:57.969Z</time></trkpt><trkpt lat="43.4653857" lon="11.4904606"><ele>746.6666666666666</ele><time>2026-04-19T10:12:59.984Z</time></trkpt><trkpt lat="43.4652954" lon="11.4905866"><ele>750.0</ele><time>2026-04-19T10:13:01.965Z</time></trkpt><trkpt lat="43.4652382" lon="11.4906501"><ele>753.3333333333334</ele><time>2026-04-19T10:13:02.974Z</time></trkpt><trkpt lat="43.465181" lon="11.4907114"><ele>756.6666666666667</ele><time>2026-04-19T10:13:03.961Z</time></trkpt><trkpt lat="43.4651321" lon="11.4907809"><ele>760.0</ele><time>2026-04-19T10:13:04.967Z</time></trkpt><trkpt lat="43.4650779" lon="11.4908586"><ele>760.0</ele><time>2026-04-19T10:13:05.965Z</time></trkpt><trkpt lat="43.4650077" lon="11.4909424"><ele>760.0</ele><time>2026-04-19T10:13:06.966Z</time></trkpt><trkpt lat="43.4649397" lon="11.4910397"><ele>760.0</ele><time>2026-04-19T10:13:07.97Z</time></trkpt><trkpt lat="43.4648725" lon="11.4911448"><ele>760.0</ele><time>2026-04-19T10:13:08.975Z</time></trkpt><trkpt lat="43.4648259" lon="11.4912826"><ele>760.0</ele><time>2026-04-19T10:13:09.976Z</time></trkpt><trkpt lat="43.464808" lon="11.4914532"><ele>761.25</ele><time>2026-04-19T10:13:10.972Z</time></trkpt><trkpt lat="43.4647844" lon="11.491628"><ele>762.5</ele><time>2026-04-19T10:13:11.964Z</time></trkpt><trkpt lat="43.4647603" lon="11.4917918"><ele>763.75</ele><time>2026-04-19T10:13:12.974Z</time></trkpt><trkpt lat="43.4647593" lon="11.4919412"><ele>765.0</ele><time>2026-04-19T10:13:13.969Z</time></trkpt><trkpt lat="43.4647614" lon="11.4920899"><ele>764.2</ele><time>2026-04-19T10:13:14.971Z</time></trkpt><trkpt lat="43.4647471" lon="11.4922084"><ele>763.4</ele><time>2026-04-19T10:13:15.978Z</time></trkpt><trkpt lat="43.464715" lon="11.4922888"><ele>762.5999999999999</ele><time>2026-04-19T10:13:16.968Z</time></trkpt><trkpt lat="43.4646602" lon="11.4923616"><ele>761.8</ele><time>2026-04-19T10:13:18.972Z</time></trkpt><trkpt lat="43.4645889" lon="11.4923893"><ele>761.0</ele><time>2026-04-19T10:13:20.974Z</time></trkpt><trkpt lat="43.4644398" lon="11.4923854"><ele>761.0</ele><time>2026-04-19T10:13:22.968Z</time></trkpt><trkpt lat="43.4643487" lon="11.4923733"><ele>761.0</ele><time>2026-04-19T10:13:23.976Z</time></trkpt><trkpt lat="43.4642506" lon="11.4923759"><ele>761.0</ele><time>2026-04-19T10:13:24.966Z</time></trkpt><trkpt lat="43.4641731" lon="11.4924249"><ele>761.0</ele><time>2026-04-19T10:13:25.982Z</time></trkpt><trkpt lat="43.4641307" lon="11.492569"><ele>761.0</ele><time>2026-04-19T10:13:27.969Z</time></trkpt><trkpt lat="43.4641656" lon="11.4927356"><ele>761.0</ele><time>2026-04-19T10:13:29.971Z</time></trkpt><trkpt lat="43.4642063" lon="11.4928246"><ele>761.0</ele><time>2026-04-19T10:13:30.974Z</time></trkpt><trkpt lat="43.4642544" lon="11.4929027"><ele>761.0</ele><time>2026-04-19T10:13:31.975Z</time></trkpt><trkpt lat="43.4642933" lon="11.4930651"><ele>761.0</ele><time>2026-04-19T10:13:33.965Z</time></trkpt><trkpt lat="43.4643048" lon="11.4931529"><ele>761.0</ele><time>2026-04-19T10:13:34.966Z</time></trkpt><trkpt lat="43.4643078" lon="11.493337"><ele>761.5999999999999</ele><time>2026-04-19T10:13:36.966Z</time></trkpt><trkpt lat="43.4643148" lon="11.493446"><ele>762.2</ele><time>2026-04-19T10:13:37.961Z</time></trkpt><trkpt lat="43.464317" lon="11.4935518"><ele>762.8</ele><time>2026-04-19T10:13:38.97Z</time></trkpt><trkpt lat="43.4642951" lon="11.4936833"><ele>763.4000000000001</ele><time>2026-04-19T10:13:40.97Z</time></trkpt><trkpt lat="43.4642554" lon="11.4938744"><ele>764.0</ele><time>2026-04-19T10:13:42.972Z</time></trkpt><trkpt lat="43.4642209" lon="11.49402"><ele>764.0</ele><time>2026-04-19T10:13:43.972Z</time></trkpt><trkpt lat="43.4642032" lon="11.4941693"><ele>764.0</ele><time>2026-04-19T10:13:44.968Z</time></trkpt><trkpt lat="43.4641979" lon="11.4943187"><ele>764.0</ele><time>2026-04-19T10:13:45.97Z</time></trkpt></trkseg><trkseg><trkpt lat="43.465333" lon="11.4980581"><ele>775.0</ele><time>2026-04-19T10:18:16.965Z</time></trkpt><trkpt lat="43.4653959" lon="11.4980737"><ele>775.0</ele><time>2026-04-19T10:18:17.972Z</time></trkpt><trkpt lat="43.4654637" lon="11.4981018"><ele>775.0</ele><time>2026-04-19T10:18:18.977Z</time></trkpt><trkpt lat="43.4655638" lon="11.4981559"><ele>775.0</ele><time>2026-04-19T10:18:19.976Z</time></trkpt><trkpt lat="43.4656718" lon="11.4982281"><ele>775.0</ele><time>2026-04-19T10:18:20.972Z</time></trkpt><trkpt lat="43.4657776" lon="11.4982872"><ele>776.0</ele><time>2026-04-19T10:18:21.971Z</time></trkpt><trkpt lat="43.465898" lon="11.4983304"><ele>777.0</ele><time>2026-04-19T10:18:22.974Z</time></trkpt><trkpt lat="43.4660153" lon="11.4983702"><ele>778.0</ele><time>2026-04-19T10:18:23.97Z</time></trkpt><trkpt lat="43.4661231" lon="11.4983931"><ele>779.0</ele><time>2026-04-19T10:18:24.969Z</time></trkpt><trkpt lat="43.4662366" lon="11.4983849"><ele>779.4000000000001</ele><time>2026-04-19T10:18:25.977Z</time></trkpt><trkpt lat="43.4663425" lon="11.4983649"><ele>779.8</ele><time>2026-04-19T10:18:26.974Z</time></trkpt><trkpt lat="43.4664617" lon="11.498344"><ele>780.2</ele><time>2026-04-19T10:18:27.972Z</time></trkpt><trkpt lat="43.4665508" lon="11.4983374"><ele>780.5999999999999</ele><time>2026-04-19T10:18:28.976Z</time></trkpt><trkpt lat="43.4666739" lon="11.4983428"><ele>781.0</ele><time>2026-04-19T10:18:30.972Z</time></trkpt><trkpt lat="43.4667347" lon="11.4983144"><ele>781.0</ele><time>2026-04-19T10:18:31.967Z</time></trkpt><trkpt lat="43.4668477" lon="11.4983082"><ele>781.0</ele><time>2026-04-19T10:18:32.975Z</time></trkpt><trkpt lat="43.4669597" lon="11.4983024"><ele>781.0</ele><time>2026-04-19T10:18:33.972Z</time></trkpt><trkpt lat="43.4670442" lon="11.4983027"><ele>781.0</ele><time>2026-04-19T10:18:34.973Z</time></trkpt><trkpt lat="43.4671225" lon="11.4982808"><ele>781.0</ele><time>2026-04-19T10:18:35.986Z</time></trkpt><trkpt lat="43.467209" lon="11.4982477"><ele>779.6666666666666</ele><time>2026-04-19T10:18:36.972Z</time></trkpt><trkpt lat="43.4672829" lon="11.4982234"><ele>778.3333333333333</ele><time>2026-04-19T10:18:37.976Z</time></trkpt><trkpt lat="43.4673623" lon="11.4982034"><ele>777.0</ele><time>2026-04-19T10:18:38.967Z</time></trkpt><trkpt lat="43.4674349" lon="11.4981853"><ele>775.6666666666667</ele><time>2026-04-19T10:18:39.976Z</time></trkpt><trkpt lat="43.4675069" lon="11.4981737"><ele>774.3333333333334</ele><time>2026-04-19T10:18:40.972Z</time></trkpt><trkpt lat="43.4675881" lon="11.498155"><ele>773.0</ele><time>2026-04-19T10:18:41.972Z</time></trkpt><trkpt lat="43.4676981" lon="11.4981345"><ele>773.0</ele><time>2026-04-19T10:18:43.976Z</time></trkpt><trkpt lat="43.467814" lon="11.4981035"><ele>773.0</ele><time>2026-04-19T10:18:45.972Z</time></trkpt><trkpt lat="43.467878" lon="11.4980937"><ele>773.0</ele><time>2026-04-19T10:18:46.968Z</time></trkpt><trkpt lat="43.4680059" lon="11.498023"><ele>773.0</ele><time>2026-04-19T10:18:48.966Z</time></trkpt><trkpt lat="43.4680563" lon="11.497968"><ele>773.0</ele><time>2026-04-19T10:18:49.972Z</time></trkpt><trkpt lat="43.4681356" lon="11.4978582"><ele>768.0</ele><time>2026-04-19T10:18:51.971Z</time></trkpt><trkpt lat="43.4681968" lon="11.4977398"><ele>763.0</ele><time>2026-04-19T10:18:53.972Z</time></trkpt><trkpt lat="43.468223" lon="11.4976203"><ele>758.0</ele><time>2026-04-19T10:18:55.968Z</time></trkpt><trkpt lat="43.4682348" lon="11.497438"><ele>753.0</ele><time>2026-04-19T10:18:57.974Z</time></trkpt><trkpt lat="43.4682486" lon="11.497264"><ele>753.0</ele><time>2026-04-19T10:18:59.979Z</time></trkpt><trkpt lat="43.4682244" lon="11.4971004"><ele>753.0</ele><time>2026-04-19T10:19:01.966Z</time></trkpt><trkpt lat="43.4681577" lon="11.4969675"><ele>753.0</ele><time>2026-04-19T10:19:03.982Z</time></trkpt><trkpt lat="43.4680912" lon="11.4968206"><ele>753.0</ele><time>2026-04-19T10:19:05.978Z</time></trkpt><trkpt lat="43.4680592" lon="11.4967344"><ele>753.0</ele><time>2026-04-19T10:19:06.966Z</time></trkpt><trkpt lat="43.4680482" lon="11.496638"><ele>750.5999999999999</ele><time>2026-04-19T10:19:07.972Z</time></trkpt><trkpt lat="43.4680329" lon="11.4965355"><ele>748.1999999999999</ele><time>2026-04-19T10:19:08.974Z</time></trkpt><trkpt lat="43.468024" lon="11.4964263"><ele>745.8</ele><time>2026-04-19T10:19:09.967Z</time></trkpt><trkpt lat="43.4680209" lon="11.496299"><ele>743.4</ele><time>2026-04-19T10:19:10.975Z</time></trkpt><trkpt lat="43.4680422" lon="11.4961576"><ele>741.0</ele><time>2026-04-19T10:19:11.971Z</time></trkpt><trkpt lat="43.4680612" lon="11.4960128"><ele>740.6666666666666</ele><time>2026-04-19T10:19:12.971Z</time></trkpt><trkpt lat="43.4680833" lon="11.4958966"><ele>740.3333333333334</ele><time>2026-04-19T10:19:14Z</time></trkpt><trkpt lat="43.4680974" lon="11.4958033"><ele>740.0</ele><time>2026-04-19T10:19:14.967Z</time></trkpt><trkpt lat="43.468106" lon="11.4957025"><ele>739.6666666666667</ele><time>2026-04-19T10:19:15.97Z</time></trkpt><trkpt lat="43.4681099" lon="11.4955983"><ele>739.3333333333334</ele><time>2026-04-19T10:19:16.975Z</time></trkpt><trkpt lat="43.4681168" lon="11.4955056"><ele>739.0</ele><time>2026-04-19T10:19:17.97Z</time></trkpt><trkpt lat="43.4681282" lon="11.4953831"><ele>738.8333333333334</ele><time>2026-04-19T10:19:19.968Z</time></trkpt><trkpt lat="43.4681106" lon="11.49522"><ele>738.6666666666667</ele><time>2026-04-19T10:19:21.992Z</time></trkpt><trkpt lat="43.468096" lon="11.4951318"><ele>738.5</ele><time>2026-04-19T10:19:22.969Z</time></trkpt><trkpt lat="43.4680748" lon="11.4950433"><ele>738.3333333333334</ele><time>2026-04-19T10:19:23.981Z</time></trkpt><trkpt lat="43.4680499" lon="11.4949479"><ele>738.1666666666666</ele><time>2026-04-19T10:19:24.988Z</time></trkpt><trkpt lat="43.4680255" lon="11.4948501"><ele>738.0</ele><time>2026-04-19T10:19:25.974Z</time></trkpt><trkpt lat="43.468001" lon="11.494759"><ele>738.0</ele><time>2026-04-19T10:19:26.976Z</time></trkpt><trkpt lat="43.4679818" lon="11.49461"><ele>738.0</ele><time>2026-04-19T10:19:28.969Z</time></trkpt><trkpt lat="43.4680066" lon="11.4944939"><ele>738.0</ele><time>2026-04-19T10:19:30.962Z</time></trkpt><trkpt lat="43.4681321" lon="11.4944808"><ele>738.0</ele><time>2026-04-19T10:19:32.974Z</time></trkpt><trkpt lat="43.4682214" lon="11.4945343"><ele>738.0</ele><time>2026-04-19T10:19:33.973Z</time></trkpt><trkpt lat="43.4683111" lon="11.4946187"><ele>738.0</ele><time>2026-04-19T10:19:34.976Z</time></trkpt><trkpt lat="43.4683953" lon="11.4946996"><ele>738.0</ele><time>2026-04-19T10:19:35.967Z</time></trkpt><trkpt lat="43.4684767" lon="11.4947631"><ele>738.0</ele><time>2026-04-19T10:19:36.962Z</time></trkpt><trkpt lat="43.4685641" lon="11.4948315"><ele>738.0</ele><time>2026-04-19T10:19:37.978Z</time></trkpt><trkpt lat="43.4686534" lon="11.4948972"><ele>738.0</ele><time>2026-04-19T10:19:38.968Z</time></trkpt><trkpt lat="43.4687175" lon="11.4949465"><ele>735.1666666666666</ele><time>2026-04-19T10:19:39.973Z</time></trkpt><trkpt lat="43.4687792" lon="11.4949802"><ele>732.3333333333334</ele><time>2026-04-19T10:19:40.972Z</time></trkpt><trkpt lat="43.4688414" lon="11.4950096"><ele>729.5</ele><time>2026-04-19T10:19:41.972Z</time></trkpt><trkpt lat="43.4689039" lon="11.4950597"><ele>726.6666666666667</ele><time>2026-04-19T10:19:42.972Z</time></trkpt><trkpt lat="43.4689513" lon="11.4951221"><ele>723.8333333333334</ele><time>2026-04-19T10:19:43.964Z</time></trkpt><trkpt lat="43.4690248" lon="11.4952619"><ele>721.0</ele><time>2026-04-19T10:19:45.983Z</time></trkpt><trkpt lat="43.4690605" lon="11.4953401"><ele>720.8333333333334</ele><time>2026-04-19T10:19:46.966Z</time></trkpt><trkpt lat="43.4691107" lon="11.495425"><ele>720.6666666666667</ele><time>2026-04-19T10:19:47.97Z</time></trkpt><trkpt lat="43.469155" lon="11.4954927"><ele>720.5</ele><time>2026-04-19T10:19:48.976Z</time></trkpt><trkpt lat="43.4692367" lon="11.4956309"><ele>720.3333333333334</ele><time>2026-04-19T10:19:50.967Z</time></trkpt><trkpt lat="43.4692774" lon="11.4956982"><ele>720.1666666666666</ele><time>2026-04-19T10:19:51.966Z</time></trkpt><trkpt lat="43.469315" lon="11.495776"><ele>720.0</ele><time>2026-04-19T10:19:52.974Z</time></trkpt><trkpt lat="43.4693593" lon="11.4958701"><ele>720.0</ele><time>2026-04-19T10:19:53.97Z</time></trkpt><trkpt lat="43.4694076" lon="11.4959707"><ele>720.0</ele><time>2026-04-19T10:19:54.97Z</time></trkpt><trkpt lat="43.4694629" lon="11.4960448"><ele>720.0</ele><time>2026-04-19T10:19:55.974Z</time></trkpt><trkpt lat="43.4695167" lon="11.4961077"><ele>720.0</ele><time>2026-04-19T10:19:56.969Z</time></trkpt><trkpt lat="43.4695741" lon="11.4961545"><ele>720.0</ele><time>2026-04-19T10:19:57.962Z</time></trkpt><trkpt lat="43.4696848" lon="11.4961617"><ele>720.0</ele><time>2026-04-19T10:19:59.973Z</time></trkpt><trkpt lat="43.4697664" lon="11.4960968"><ele>716.2</ele><time>2026-04-19T10:20:01.992Z</time></trkpt><trkpt lat="43.4698451" lon="11.4959659"><ele>712.4</ele><time>2026-04-19T10:20:03.971Z</time></trkpt><trkpt lat="43.4698972" lon="11.4958939"><ele>708.5999999999999</ele><time>2026-04-19T10:20:04.972Z</time></trkpt><trkpt lat="43.4699565" lon="11.4958048"><ele>704.8</ele><time>2026-04-19T10:20:05.977Z</time></trkpt><trkpt lat="43.4700161" lon="11.495698"><ele>701.0</ele><time>2026-04-19T10:20:06.97Z</time></trkpt><trkpt lat="43.4700571" lon="11.4955654"><ele>701.0</ele><time>2026-04-19T10:20:07.97Z</time></trkpt><trkpt lat="43.4700914" lon="11.4954158"><ele>701.0</ele><time>2026-04-19T10:20:08.975Z</time></trkpt><trkpt lat="43.4701192" lon="11.495283"><ele>701.0</ele><time>2026-04-19T10:20:09.97Z</time></trkpt><trkpt lat="43.4701513" lon="11.4951927"><ele>701.0</ele><time>2026-04-19T10:20:10.963Z</time></trkpt><trkpt lat="43.4702266" lon="11.4950961"><ele>701.0</ele><time>2026-04-19T10:20:12.971Z</time></trkpt><trkpt lat="43.4703471" lon="11.4950567"><ele>701.0</ele><time>2026-04-19T10:20:14.98Z</time></trkpt><trkpt lat="43.4704223" lon="11.4950526"><ele>701.0</ele><time>2026-04-19T10:20:15.982Z</time></trkpt><trkpt lat="43.4704921" lon="11.4950504"><ele>701.0</ele><time>2026-04-19T10:20:16.976Z</time></trkpt><trkpt lat="43.4705561" lon="11.4950464"><ele>701.0</ele><time>2026-04-19T10:20:17.973Z</time></trkpt><trkpt lat="43.4706162" lon="11.4950186"><ele>701.0</ele><time>2026-04-19T10:20:18.974Z</time></trkpt><trkpt lat="43.470719" lon="11.4949634"><ele>701.0</ele><time>2026-04-19T10:20:20.968Z</time></trkpt><trkpt lat="43.470813" lon="11.4949262"><ele>699.1999999999999</ele><time>2026-04-19T10:20:22.973Z</time></trkpt><trkpt lat="43.4709377" lon="11.4948855"><ele>697.4</ele><time>2026-04-19T10:20:24.974Z</time></trkpt><trkpt lat="43.4710159" lon="11.4948555"><ele>695.6</ele><time>2026-04-19T10:20:25.97Z</time></trkpt><trkpt lat="43.4711003" lon="11.4947884"><ele>693.8</ele><time>2026-04-19T10:20:26.972Z</time></trkpt><trkpt lat="43.4711919" lon="11.4946966"><ele>692.0</ele><time>2026-04-19T10:20:27.975Z</time></trkpt><trkpt lat="43.4712862" lon="11.4946015"><ele>691.1666666666666</ele><time>2026-04-19T10:20:28.975Z</time></trkpt><trkpt lat="43.47135" lon="11.4945063"><ele>690.3333333333333</ele><time>2026-04-19T10:20:29.972Z</time></trkpt><trkpt lat="43.4713978" lon="11.4944235"><ele>689.5</ele><time>2026-04-19T10:20:30.978Z</time></trkpt><trkpt lat="43.4714563" lon="11.4943467"><ele>688.6666666666666</ele><time>2026-04-19T10:20:31.975Z</time></trkpt><trkpt lat="43.4715183" lon="11.4942966"><ele>687.8333333333334</ele><time>2026-04-19T10:20:32.968Z</time></trkpt><trkpt lat="43.471589" lon="11.4942495"><ele>687.0</ele><time>2026-04-19T10:20:33.969Z</time></trkpt><trkpt lat="43.4716672" lon="11.4941958"><ele>687.0</ele><time>2026-04-19T10:20:34.975Z</time></trkpt><trkpt lat="43.4717618" lon="11.4941419"><ele>687.0</ele><time>2026-04-19T10:20:35.984Z</time></trkpt><trkpt lat="43.4718823" lon="11.4940732"><ele>687.0</ele><time>2026-04-19T10:20:36.968Z</time></trkpt><trkpt lat="43.4720283" lon="11.4940095"><ele>687.0</ele><time>2026-04-19T10:20:37.979Z</time></trkpt><trkpt lat="43.472151" lon="11.4939477"><ele>686.4000000000001</ele><time>2026-04-19T10:20:38.97Z</time></trkpt><trkpt lat="43.4722533" lon="11.4938897"><ele>685.8000000000001</ele><time>2026-04-19T10:20:39.976Z</time></trkpt><trkpt lat="43.4723197" lon="11.4938154"><ele>685.2</ele><time>2026-04-19T10:20:40.972Z</time></trkpt><trkpt lat="43.4723813" lon="11.4937405"><ele>684.6</ele><time>2026-04-19T10:20:41.978Z</time></trkpt><trkpt lat="43.4724243" lon="11.4936394"><ele>684.0</ele><time>2026-04-19T10:20:42.979Z</time></trkpt><trkpt lat="43.4724634" lon="11.4935126"><ele>684.0</ele><time>2026-04-19T10:20:43.968Z</time></trkpt><trkpt lat="43.4725063" lon="11.4933707"><ele>684.0</ele><time>2026-04-19T10:20:44.975Z</time></trkpt><trkpt lat="43.4725621" lon="11.4932139"><ele>684.0</ele><time>2026-04-19T10:20:45.971Z</time></trkpt><trkpt lat="43.4726199" lon="11.4930509"><ele>684.0</ele><time>2026-04-19T10:20:46.972Z</time></trkpt><trkpt lat="43.4726686" lon="11.4929245"><ele>684.0</ele><time>2026-04-19T10:20:47.967Z</time></trkpt><trkpt lat="43.4727255" lon="11.4927967"><ele>684.0</ele><time>2026-04-19T10:20:48.969Z</time></trkpt><trkpt lat="43.4727854" lon="11.4926804"><ele>684.0</ele><time>2026-04-19T10:20:49.974Z</time></trkpt><trkpt lat="43.4728642" lon="11.4925808"><ele>684.0</ele><time>2026-04-19T10:20:50.965Z</time></trkpt><trkpt lat="43.4729578" lon="11.4924764"><ele>684.0</ele><time>2026-04-19T10:20:51.975Z</time></trkpt><trkpt lat="43.47305" lon="11.492389"><ele>684.2</ele><time>2026-04-19T10:20:52.966Z</time></trkpt><trkpt lat="43.4731344" lon="11.4923287"><ele>684.4000000000001</ele><time>2026-04-19T10:20:53.969Z</time></trkpt><trkpt lat="43.4732239" lon="11.4922744"><ele>684.6</ele><time>2026-04-19T10:20:54.972Z</time></trkpt><trkpt lat="43.4733202" lon="11.4922205"><ele>684.8</ele><time>2026-04-19T10:20:55.975Z</time></trkpt><trkpt lat="43.473438" lon="11.4921953"><ele>685.0</ele><time>2026-04-19T10:20:56.97Z</time></trkpt><trkpt lat="43.4735603" lon="11.492166"><ele>685.0</ele><time>2026-04-19T10:20:57.977Z</time></trkpt><trkpt lat="43.4736661" lon="11.4921187"><ele>685.0</ele><time>2026-04-19T10:20:58.974Z</time></trkpt><trkpt lat="43.4737657" lon="11.4920518"><ele>685.0</ele><time>2026-04-19T10:20:59.97Z</time></trkpt><trkpt lat="43.4738325" lon="11.4919727"><ele>685.0</ele><time>2026-04-19T10:21:00.969Z</time></trkpt><trkpt lat="43.4738961" lon="11.4918933"><ele>685.0</ele><time>2026-04-19T10:21:01.971Z</time></trkpt><trkpt lat="43.4739571" lon="11.4918149"><ele>684.2</ele><time>2026-04-19T10:21:02.97Z</time></trkpt><trkpt lat="43.4740189" lon="11.4917307"><ele>683.4</ele><time>2026-04-19T10:21:03.974Z</time></trkpt><trkpt lat="43.474073" lon="11.4916265"><ele>682.5999999999999</ele><time>2026-04-19T10:21:04.973Z</time></trkpt><trkpt lat="43.4741177" lon="11.4914989"><ele>681.8</ele><time>2026-04-19T10:21:05.975Z</time></trkpt><trkpt lat="43.4741616" lon="11.4913683"><ele>681.0</ele><time>2026-04-19T10:21:06.969Z</time></trkpt><trkpt lat="43.4742095" lon="11.491262"><ele>680.3333333333334</ele><time>2026-04-19T10:21:07.971Z</time></trkpt><trkpt lat="43.474256" lon="11.4911786"><ele>679.6666666666666</ele><time>2026-04-19T10:21:08.978Z</time></trkpt><trkpt lat="43.4743051" lon="11.4910943"><ele>679.0</ele><time>2026-04-19T10:21:09.975Z</time></trkpt><trkpt lat="43.4743712" lon="11.4910215"><ele>678.3333333333333</ele><time>2026-04-19T10:21:10.972Z</time></trkpt><trkpt lat="43.47445" lon="11.4909489"><ele>677.6666666666666</ele><time>2026-04-19T10:21:11.984Z</time></trkpt><trkpt lat="43.4745313" lon="11.49089"><ele>677.0</ele><time>2026-04-19T10:21:12.965Z</time></trkpt><trkpt lat="43.4746391" lon="11.4908314"><ele>675.6</ele><time>2026-04-19T10:21:13.973Z</time></trkpt><trkpt lat="43.4747636" lon="11.4907778"><ele>674.2</ele><time>2026-04-19T10:21:14.966Z</time></trkpt><trkpt lat="43.4748688" lon="11.4907311"><ele>672.8</ele><time>2026-04-19T10:21:15.97Z</time></trkpt><trkpt lat="43.4749798" lon="11.4906849"><ele>671.4</ele><time>2026-04-19T10:21:16.971Z</time></trkpt><trkpt lat="43.4750638" lon="11.4906367"><ele>670.0</ele><time>2026-04-19T10:21:17.969Z</time></trkpt><trkpt lat="43.4751418" lon="11.4906025"><ele>670.0</ele><time>2026-04-19T10:21:18.976Z</time></trkpt><trkpt lat="43.4752231" lon="11.4905645"><ele>670.0</ele><time>2026-04-19T10:21:19.972Z</time></trkpt><trkpt lat="43.4752886" lon="11.4905175"><ele>670.0</ele><time>2026-04-19T10:21:20.967Z</time></trkpt><trkpt lat="43.4753422" lon="11.4904603"><ele>670.0</ele><time>2026-04-19T10:21:21.964Z</time></trkpt><trkpt lat="43.4753835" lon="11.490383"><ele>670.0</ele><time>2026-04-19T10:21:22.976Z</time></trkpt><trkpt lat="43.4754153" lon="11.4902899"><ele>670.0</ele><time>2026-04-19T10:21:23.972Z</time></trkpt><trkpt lat="43.475445" lon="11.4901889"><ele>667.8333333333334</ele><time>2026-04-19T10:21:24.966Z</time></trkpt><trkpt lat="43.4754762" lon="11.4900744"><ele>665.6666666666667</ele><time>2026-04-19T10:21:25.993Z</time></trkpt><trkpt lat="43.4755129" lon="11.4899685"><ele>663.5</ele><time>2026-04-19T10:21:26.974Z</time></trkpt><trkpt lat="43.4755664" lon="11.4898603"><ele>661.3333333333334</ele><time>2026-04-19T10:21:27.984Z</time></trkpt><trkpt lat="43.475623" lon="11.4897788"><ele>659.1666666666666</ele><time>2026-04-19T10:21:28.969Z</time></trkpt><trkpt lat="43.4757007" lon="11.489707"><ele>657.0</ele><time>2026-04-19T10:21:29.966Z</time></trkpt><trkpt lat="43.4757942" lon="11.4896404"><ele>658.25</ele><time>2026-04-19T10:21:30.975Z</time></trkpt><trkpt lat="43.4759004" lon="11.489582"><ele>659.5</ele><time>2026-04-19T10:21:31.963Z</time></trkpt><trkpt lat="43.4760173" lon="11.4895286"><ele>660.75</ele><time>2026-04-19T10:21:32.979Z</time></trkpt><trkpt lat="43.4761295" lon="11.4894852"><ele>662.0</ele><time>2026-04-19T10:21:33.972Z</time></trkpt><trkpt lat="43.4762499" lon="11.4894506"><ele>660.0</ele><time>2026-04-19T10:21:34.978Z</time></trkpt><trkpt lat="43.4763737" lon="11.4894379"><ele>658.0</ele><time>2026-04-19T10:21:35.977Z</time></trkpt><trkpt lat="43.4764889" lon="11.4894271"><ele>656.0</ele><time>2026-04-19T10:21:36.97Z</time></trkpt><trkpt lat="43.476597" lon="11.4894081"><ele>654.0</ele><time>2026-04-19T10:21:37.968Z</time></trkpt><trkpt lat="43.4767089" lon="11.4893721"><ele>654.0</ele><time>2026-04-19T10:21:38.974Z</time></trkpt><trkpt lat="43.4768454" lon="11.489306"><ele>654.0</ele><time>2026-04-19T10:21:39.986Z</time></trkpt><trkpt lat="43.4769785" lon="11.4892178"><ele>654.0</ele><time>2026-04-19T10:21:40.972Z</time></trkpt><trkpt lat="43.4770755" lon="11.4891427"><ele>654.0</ele><time>2026-04-19T10:21:41.981Z</time></trkpt><trkpt lat="43.4771741" lon="11.4890312"><ele>653.8000000000001</ele><time>2026-04-19T10:21:42.973Z</time></trkpt><trkpt lat="43.4772469" lon="11.4889139"><ele>653.6</ele><time>2026-04-19T10:21:43.989Z</time></trkpt><trkpt lat="43.4773104" lon="11.4888018"><ele>653.4</ele><time>2026-04-19T10:21:44.971Z</time></trkpt><trkpt lat="43.4773645" lon="11.4886807"><ele>653.2</ele><time>2026-04-19T10:21:45.976Z</time></trkpt><trkpt lat="43.4774227" lon="11.4885558"><ele>653.0</ele><time>2026-04-19T10:21:46.972Z</time></trkpt><trkpt lat="43.4774779" lon="11.4884104"><ele>653.0</ele><time>2026-04-19T10:21:47.976Z</time></trkpt><trkpt lat="43.4775302" lon="11.4882632"><ele>653.0</ele><time>2026-04-19T10:21:48.984Z</time></trkpt><trkpt lat="43.4775791" lon="11.4881234"><ele>653.0</ele><time>2026-04-19T10:21:49.987Z</time></trkpt><trkpt lat="43.4776229" lon="11.487989"><ele>653.0</ele><time>2026-04-19T10:21:50.97Z</time></trkpt><trkpt lat="43.4776623" lon="11.4878481"><ele>653.0</ele><time>2026-04-19T10:21:51.973Z</time></trkpt><trkpt lat="43.477686" lon="11.487719"><ele>653.2</ele><time>2026-04-19T10:21:52.973Z</time></trkpt><trkpt lat="43.4776862" lon="11.4875963"><ele>653.4</ele><time>2026-04-19T10:21:53.98Z</time></trkpt><trkpt lat="43.477665" lon="11.4874698"><ele>653.6</ele><time>2026-04-19T10:21:54.969Z</time></trkpt><trkpt lat="43.4776467" lon="11.4873419"><ele>653.8000000000001</ele><time>2026-04-19T10:21:55.973Z</time></trkpt><trkpt lat="43.4776132" lon="11.4872168"><ele>654.0</ele><time>2026-04-19T10:21:56.97Z</time></trkpt><trkpt lat="43.4775656" lon="11.4870853"><ele>654.8000000000001</ele><time>2026-04-19T10:21:57.974Z</time></trkpt><trkpt lat="43.4775171" lon="11.4869695"><ele>655.6</ele><time>2026-04-19T10:21:58.972Z</time></trkpt><trkpt lat="43.4774722" lon="11.4868531"><ele>656.4</ele><time>2026-04-19T10:21:59.963Z</time></trkpt><trkpt lat="43.4774309" lon="11.4867293"><ele>657.2</ele><time>2026-04-19T10:22:00.972Z</time></trkpt><trkpt lat="43.4774176" lon="11.4866065"><ele>658.0</ele><time>2026-04-19T10:22:01.977Z</time></trkpt><trkpt lat="43.4774106" lon="11.4864781"><ele>658.0</ele><time>2026-04-19T10:22:02.968Z</time></trkpt><trkpt lat="43.477424" lon="11.4863398"><ele>658.0</ele><time>2026-04-19T10:22:03.969Z</time></trkpt><trkpt lat="43.4774489" lon="11.486203"><ele>658.0</ele><time>2026-04-19T10:22:04.972Z</time></trkpt><trkpt lat="43.4774726" lon="11.486078"><ele>658.0</ele><time>2026-04-19T10:22:05.978Z</time></trkpt><trkpt lat="43.4774798" lon="11.4859529"><ele>658.0</ele><time>2026-04-19T10:22:06.97Z</time></trkpt><trkpt lat="43.4774621" lon="11.485817"><ele>657.8333333333334</ele><time>2026-04-19T10:22:07.969Z</time></trkpt><trkpt lat="43.4774304" lon="11.4856803"><ele>657.6666666666667</ele><time>2026-04-19T10:22:08.971Z</time></trkpt><trkpt lat="43.4774123" lon="11.4855652"><ele>657.5</ele><time>2026-04-19T10:22:09.979Z</time></trkpt><trkpt lat="43.4773915" lon="11.4854578"><ele>657.3333333333334</ele><time>2026-04-19T10:22:10.972Z</time></trkpt><trkpt lat="43.4773568" lon="11.4853587"><ele>657.1666666666666</ele><time>2026-04-19T10:22:11.976Z</time></trkpt><trkpt lat="43.4773235" lon="11.485271"><ele>657.0</ele><time>2026-04-19T10:22:12.973Z</time></trkpt><trkpt lat="43.4772754" lon="11.4851993"><ele>656.0</ele><time>2026-04-19T10:22:13.974Z</time></trkpt><trkpt lat="43.4772051" lon="11.4851509"><ele>655.0</ele><time>2026-04-19T10:22:14.969Z</time></trkpt><trkpt lat="43.4771223" lon="11.4851132"><ele>654.0</ele><time>2026-04-19T10:22:15.982Z</time></trkpt><trkpt lat="43.4770335" lon="11.4850872"><ele>653.0</ele><time>2026-04-19T10:22:16.973Z</time></trkpt><trkpt lat="43.4769592" lon="11.4850488"><ele>652.0</ele><time>2026-04-19T10:22:17.975Z</time></trkpt><trkpt lat="43.4768862" lon="11.4850119"><ele>651.0</ele><time>2026-04-19T10:22:18.969Z</time></trkpt><trkpt lat="43.4768289" lon="11.4849601"><ele>650.0</ele><time>2026-04-19T10:22:19.974Z</time></trkpt><trkpt lat="43.4767773" lon="11.4848753"><ele>649.0</ele><time>2026-04-19T10:22:20.973Z</time></trkpt><trkpt lat="43.4767389" lon="11.4847765"><ele>648.0</ele><time>2026-04-19T10:22:21.978Z</time></trkpt><trkpt lat="43.4767165" lon="11.4846842"><ele>647.0</ele><time>2026-04-19T10:22:22.974Z</time></trkpt><trkpt lat="43.4767312" lon="11.4845897"><ele>646.0</ele><time>2026-04-19T10:22:23.973Z</time></trkpt><trkpt lat="43.4767558" lon="11.4845027"><ele>645.0</ele><time>2026-04-19T10:22:24.967Z</time></trkpt><trkpt lat="43.4768181" lon="11.484448"><ele>644.0</ele><time>2026-04-19T10:22:25.972Z</time></trkpt><trkpt lat="43.4768791" lon="11.4844246"><ele>642.8000000000001</ele><time>2026-04-19T10:22:26.976Z</time></trkpt><trkpt lat="43.4769534" lon="11.4844279"><ele>641.6</ele><time>2026-04-19T10:22:27.971Z</time></trkpt><trkpt lat="43.4770429" lon="11.4844563"><ele>640.4</ele><time>2026-04-19T10:22:28.973Z</time></trkpt><trkpt lat="43.4771657" lon="11.484496"><ele>639.2</ele><time>2026-04-19T10:22:29.968Z</time></trkpt><trkpt lat="43.4772868" lon="11.4845337"><ele>638.0</ele><time>2026-04-19T10:22:30.971Z</time></trkpt><trkpt lat="43.4773809" lon="11.4845522"><ele>638.0</ele><time>2026-04-19T10:22:31.968Z</time></trkpt><trkpt lat="43.4774638" lon="11.4845576"><ele>638.0</ele><time>2026-04-19T10:22:32.97Z</time></trkpt><trkpt lat="43.4775317" lon="11.4845578"><ele>638.0</ele><time>2026-04-19T10:22:33.979Z</time></trkpt><trkpt lat="43.4776151" lon="11.4845398"><ele>638.0</ele><time>2026-04-19T10:22:34.983Z</time></trkpt><trkpt lat="43.4776894" lon="11.4845091"><ele>638.0</ele><time>2026-04-19T10:22:36.006Z</time></trkpt><trkpt lat="43.47775" lon="11.4844562"><ele>638.0</ele><time>2026-04-19T10:22:36.967Z</time></trkpt><trkpt lat="43.4778093" lon="11.4843909"><ele>638.0</ele><time>2026-04-19T10:22:37.976Z</time></trkpt><trkpt lat="43.4778704" lon="11.4843086"><ele>638.0</ele><time>2026-04-19T10:22:38.968Z</time></trkpt><trkpt lat="43.4779271" lon="11.4842219"><ele>638.0</ele><time>2026-04-19T10:22:39.967Z</time></trkpt><trkpt lat="43.4779834" lon="11.4841276"><ele>638.0</ele><time>2026-04-19T10:22:40.968Z</time></trkpt><trkpt lat="43.4780323" lon="11.4840399"><ele>638.0</ele><time>2026-04-19T10:22:41.971Z</time></trkpt><trkpt lat="43.4780833" lon="11.4839692"><ele>638.0</ele><time>2026-04-19T10:22:42.97Z</time></trkpt><trkpt lat="43.478147" lon="11.4838925"><ele>637.8333333333333</ele><time>2026-04-19T10:22:43.975Z</time></trkpt><trkpt lat="43.4782039" lon="11.4838141"><ele>637.6666666666666</ele><time>2026-04-19T10:22:44.974Z</time></trkpt><trkpt lat="43.4782655" lon="11.483727"><ele>637.5</ele><time>2026-04-19T10:22:45.962Z</time></trkpt><trkpt lat="43.4783189" lon="11.4836456"><ele>637.3333333333334</ele><time>2026-04-19T10:22:46.976Z</time></trkpt><trkpt lat="43.4783726" lon="11.4835475"><ele>637.1666666666667</ele><time>2026-04-19T10:22:47.977Z</time></trkpt><trkpt lat="43.4784196" lon="11.4834501"><ele>637.0</ele><time>2026-04-19T10:22:48.972Z</time></trkpt><trkpt lat="43.4784612" lon="11.4833279"><ele>636.0</ele><time>2026-04-19T10:22:49.975Z</time></trkpt><trkpt lat="43.4785013" lon="11.4831945"><ele>635.0</ele><time>2026-04-19T10:22:50.972Z</time></trkpt><trkpt lat="43.4785177" lon="11.4830574"><ele>634.0</ele><time>2026-04-19T10:22:51.976Z</time></trkpt><trkpt lat="43.4785246" lon="11.4829058"><ele>633.0</ele><time>2026-04-19T10:22:52.979Z</time></trkpt><trkpt lat="43.4785318" lon="11.482752"><ele>632.0</ele><time>2026-04-19T10:22:53.978Z</time></trkpt><trkpt lat="43.4785331" lon="11.4826218"><ele>631.1666666666666</ele><time>2026-04-19T10:22:54.974Z</time></trkpt><trkpt lat="43.4785441" lon="11.4824965"><ele>630.3333333333333</ele><time>2026-04-19T10:22:56.03Z</time></trkpt><trkpt lat="43.4785663" lon="11.4823738"><ele>629.5</ele><time>2026-04-19T10:22:56.968Z</time></trkpt><trkpt lat="43.4785855" lon="11.4822583"><ele>628.6666666666666</ele><time>2026-04-19T10:22:57.97Z</time></trkpt><trkpt lat="43.4786112" lon="11.4821589"><ele>627.8333333333334</ele><time>2026-04-19T10:22:58.977Z</time></trkpt><trkpt lat="43.4786367" lon="11.4820467"><ele>627.0</ele><time>2026-04-19T10:22:59.973Z</time></trkpt><trkpt lat="43.4786703" lon="11.4819424"><ele>626.8333333333334</ele><time>2026-04-19T10:23:00.974Z</time></trkpt><trkpt lat="43.4786978" lon="11.4818486"><ele>626.6666666666666</ele><time>2026-04-19T10:23:01.972Z</time></trkpt><trkpt lat="43.4787039" lon="11.4816891"><ele>626.5</ele><time>2026-04-19T10:23:03.976Z</time></trkpt><trkpt lat="43.4786927" lon="11.4815984"><ele>626.3333333333333</ele><time>2026-04-19T10:23:04.969Z</time></trkpt><trkpt lat="43.478672" lon="11.4815019"><ele>626.1666666666666</ele><time>2026-04-19T10:23:05.973Z</time></trkpt><trkpt lat="43.4786331" lon="11.4813824"><ele>626.0</ele><time>2026-04-19T10:23:06.966Z</time></trkpt><trkpt lat="43.4785868" lon="11.481225"><ele>625.6</ele><time>2026-04-19T10:23:07.966Z</time></trkpt><trkpt lat="43.4785533" lon="11.481077"><ele>625.2</ele><time>2026-04-19T10:23:08.981Z</time></trkpt><trkpt lat="43.4785417" lon="11.4809312"><ele>624.8</ele><time>2026-04-19T10:23:09.972Z</time></trkpt><trkpt lat="43.4785533" lon="11.480791"><ele>624.4</ele><time>2026-04-19T10:23:10.97Z</time></trkpt><trkpt lat="43.4785809" lon="11.4806481"><ele>624.0</ele><time>2026-04-19T10:23:11.975Z</time></trkpt><trkpt lat="43.4786383" lon="11.4804463"><ele>623.75</ele><time>2026-04-19T10:23:12.972Z</time></trkpt><trkpt lat="43.4787036" lon="11.4802308"><ele>623.5</ele><time>2026-04-19T10:23:13.969Z</time></trkpt><trkpt lat="43.4787653" lon="11.4800494"><ele>623.25</ele><time>2026-04-19T10:23:14.974Z</time></trkpt><trkpt lat="43.4787863" lon="11.4798873"><ele>623.0</ele><time>2026-04-19T10:23:15.978Z</time></trkpt><trkpt lat="43.4788068" lon="11.479764"><ele>623.0</ele><time>2026-04-19T10:23:16.971Z</time></trkpt><trkpt lat="43.4788366" lon="11.479646"><ele>623.0</ele><time>2026-04-19T10:23:17.979Z</time></trkpt><trkpt lat="43.4788808" lon="11.4795335"><ele>623.0</ele><time>2026-04-19T10:23:18.986Z</time></trkpt><trkpt lat="43.4789359" lon="11.479423"><ele>623.0</ele><time>2026-04-19T10:23:19.975Z</time></trkpt><trkpt lat="43.4790152" lon="11.4793217"><ele>623.0</ele><time>2026-04-19T10:23:20.974Z</time></trkpt><trkpt lat="43.4790938" lon="11.4792293"><ele>623.0</ele><time>2026-04-19T10:23:21.975Z</time></trkpt><trkpt lat="43.4791747" lon="11.4791392"><ele>623.0</ele><time>2026-04-19T10:23:22.968Z</time></trkpt><trkpt lat="43.4792546" lon="11.4790407"><ele>623.0</ele><time>2026-04-19T10:23:23.973Z</time></trkpt><trkpt lat="43.4793428" lon="11.4789339"><ele>623.0</ele><time>2026-04-19T10:23:24.974Z</time></trkpt><trkpt lat="43.4794295" lon="11.4788161"><ele>621.6</ele><time>2026-04-19T10:23:25.971Z</time></trkpt><trkpt lat="43.4795189" lon="11.4786943"><ele>620.1999999999999</ele><time>2026-04-19T10:23:26.971Z</time></trkpt><trkpt lat="43.4795924" lon="11.478586"><ele>618.8</ele><time>2026-04-19T10:23:27.971Z</time></trkpt><trkpt lat="43.4796435" lon="11.4784836"><ele>617.4</ele><time>2026-04-19T10:23:28.976Z</time></trkpt><trkpt lat="43.4796986" lon="11.4783617"><ele>616.0</ele><time>2026-04-19T10:23:29.972Z</time></trkpt><trkpt lat="43.4797431" lon="11.4782382"><ele>615.6</ele><time>2026-04-19T10:23:30.969Z</time></trkpt><trkpt lat="43.4797845" lon="11.4781233"><ele>615.2</ele><time>2026-04-19T10:23:31.972Z</time></trkpt><trkpt lat="43.4798275" lon="11.4780088"><ele>614.8</ele><time>2026-04-19T10:23:32.97Z</time></trkpt><trkpt lat="43.47986" lon="11.477899"><ele>614.4</ele><time>2026-04-19T10:23:33.97Z</time></trkpt><trkpt lat="43.4798787" lon="11.4777778"><ele>614.0</ele><time>2026-04-19T10:23:34.967Z</time></trkpt><trkpt lat="43.479895" lon="11.4776375"><ele>613.6</ele><time>2026-04-19T10:23:35.966Z</time></trkpt><trkpt lat="43.4799005" lon="11.4775121"><ele>613.2</ele><time>2026-04-19T10:23:36.973Z</time></trkpt><trkpt lat="43.4798828" lon="11.4773978"><ele>612.8000000000001</ele><time>2026-04-19T10:23:37.966Z</time></trkpt><trkpt lat="43.47986" lon="11.4772797"><ele>612.4</ele><time>2026-04-19T10:23:38.968Z</time></trkpt><trkpt lat="43.4798228" lon="11.4771639"><ele>612.0</ele><time>2026-04-19T10:23:39.966Z</time></trkpt><trkpt lat="43.4797712" lon="11.4770176"><ele>612.75</ele><time>2026-04-19T10:23:40.97Z</time></trkpt><trkpt lat="43.4797142" lon="11.4768602"><ele>613.5</ele><time>2026-04-19T10:23:41.972Z</time></trkpt><trkpt lat="43.4796479" lon="11.4766981"><ele>614.25</ele><time>2026-04-19T10:23:42.971Z</time></trkpt><trkpt lat="43.4795747" lon="11.4765346"><ele>615.0</ele><time>2026-04-19T10:23:43.973Z</time></trkpt><trkpt lat="43.4794859" lon="11.4763424"><ele>616.25</ele><time>2026-04-19T10:23:44.973Z</time></trkpt><trkpt lat="43.4793922" lon="11.4761473"><ele>617.5</ele><time>2026-04-19T10:23:45.973Z</time></trkpt><trkpt lat="43.4793123" lon="11.4760163"><ele>618.75</ele><time>2026-04-19T10:23:46.974Z</time></trkpt><trkpt lat="43.479259" lon="11.4759126"><ele>620.0</ele><time>2026-04-19T10:23:47.971Z</time></trkpt><trkpt lat="43.4792133" lon="11.4758319"><ele>620.0</ele><time>2026-04-19T10:23:48.97Z</time></trkpt><trkpt lat="43.4791514" lon="11.4757491"><ele>620.0</ele><time>2026-04-19T10:23:50.969Z</time></trkpt><trkpt lat="43.4791094" lon="11.475865"><ele>620.0</ele><time>2026-04-19T10:23:55.975Z</time></trkpt><trkpt lat="43.4790722" lon="11.4759844"><ele>620.0</ele><time>2026-04-19T10:23:57.971Z</time></trkpt><trkpt lat="43.4789872" lon="11.4760481"><ele>620.0</ele><time>2026-04-19T10:23:59.972Z</time></trkpt><trkpt lat="43.4788994" lon="11.4760654"><ele>620.0</ele><time>2026-04-19T10:24:01.971Z</time></trkpt><trkpt lat="43.4788378" lon="11.476041"><ele>620.0</ele><time>2026-04-19T10:24:03.971Z</time></trkpt><trkpt lat="43.4787444" lon="11.4760261"><ele>620.0</ele><time>2026-04-19T10:24:05.97Z</time></trkpt><trkpt lat="43.4786531" lon="11.4759931"><ele>620.0</ele><time>2026-04-19T10:24:07.976Z</time></trkpt><trkpt lat="43.4785657" lon="11.4759353"><ele>620.0</ele><time>2026-04-19T10:24:09.968Z</time></trkpt><trkpt lat="43.4784781" lon="11.4758445"><ele>621.4</ele><time>2026-04-19T10:24:11.97Z</time></trkpt><trkpt lat="43.4783807" lon="11.4757495"><ele>622.8</ele><time>2026-04-19T10:24:13.972Z</time></trkpt><trkpt lat="43.4782868" lon="11.4756625"><ele>624.2</ele><time>2026-04-19T10:24:15.969Z</time></trkpt><trkpt lat="43.4782761" lon="11.4755736"><ele>625.6</ele><time>2026-04-19T10:24:17.974Z</time></trkpt><trkpt lat="43.4783317" lon="11.4754609"><ele>627.0</ele><time>2026-04-19T10:24:19.97Z</time></trkpt><trkpt lat="43.4783866" lon="11.4753401"><ele>629.2</ele><time>2026-04-19T10:24:21.969Z</time></trkpt><trkpt lat="43.4783915" lon="11.4752144"><ele>631.4000000000001</ele><time>2026-04-19T10:24:23.977Z</time></trkpt><trkpt lat="43.4784025" lon="11.4750738"><ele>633.5999999999999</ele><time>2026-04-19T10:24:25.977Z</time></trkpt><trkpt lat="43.478436" lon="11.4749424"><ele>635.8</ele><time>2026-04-19T10:24:27.971Z</time></trkpt><trkpt lat="43.4784921" lon="11.4748343"><ele>638.0</ele><time>2026-04-19T10:24:29.971Z</time></trkpt><trkpt lat="43.47854" lon="11.4746981"><ele>638.0</ele><time>2026-04-19T10:24:31.971Z</time></trkpt><trkpt lat="43.478581" lon="11.4746296"><ele>638.0</ele><time>2026-04-19T10:24:32.965Z</time></trkpt><trkpt lat="43.4786288" lon="11.4745726"><ele>638.0</ele><time>2026-04-19T10:24:33.97Z</time></trkpt><trkpt lat="43.4786901" lon="11.4744552"><ele>638.0</ele><time>2026-04-19T10:24:35.968Z</time></trkpt><trkpt lat="43.4787583" lon="11.4743388"><ele>638.0</ele><time>2026-04-19T10:24:37.968Z</time></trkpt><trkpt lat="43.4788176" lon="11.4742799"><ele>638.0</ele><time>2026-04-19T10:24:38.97Z</time></trkpt><trkpt lat="43.47889" lon="11.4742126"><ele>641.0</ele><time>2026-04-19T10:24:39.967Z</time></trkpt><trkpt lat="43.4789614" lon="11.4741533"><ele>644.0</ele><time>2026-04-19T10:24:40.969Z</time></trkpt><trkpt lat="43.4790322" lon="11.4740595"><ele>647.0</ele><time>2026-04-19T10:24:41.971Z</time></trkpt><trkpt lat="43.4791085" lon="11.4739343"><ele>650.0</ele><time>2026-04-19T10:24:42.971Z</time></trkpt><trkpt lat="43.479168" lon="11.4738521"><ele>653.0</ele><time>2026-04-19T10:24:43.973Z</time></trkpt><trkpt lat="43.4792493" lon="11.4737271"><ele>654.5999999999999</ele><time>2026-04-19T10:24:45.966Z</time></trkpt><trkpt lat="43.4792847" lon="11.4736498"><ele>656.1999999999999</ele><time>2026-04-19T10:24:46.975Z</time></trkpt><trkpt lat="43.4793064" lon="11.4734891"><ele>657.8</ele><time>2026-04-19T10:24:48.974Z</time></trkpt><trkpt lat="43.4793223" lon="11.4733762"><ele>659.4</ele><time>2026-04-19T10:24:49.969Z</time></trkpt><trkpt lat="43.4793547" lon="11.4732393"><ele>661.0</ele><time>2026-04-19T10:24:50.98Z</time></trkpt><trkpt lat="43.4793944" lon="11.4730817"><ele>661.5999999999999</ele><time>2026-04-19T10:24:51.963Z</time></trkpt><trkpt lat="43.4794391" lon="11.4729342"><ele>662.2</ele><time>2026-04-19T10:24:52.969Z</time></trkpt><trkpt lat="43.4794864" lon="11.4728206"><ele>662.8</ele><time>2026-04-19T10:24:53.981Z</time></trkpt><trkpt lat="43.4795181" lon="11.4727122"><ele>663.4000000000001</ele><time>2026-04-19T10:24:54.964Z</time></trkpt><trkpt lat="43.4795564" lon="11.4726116"><ele>664.0</ele><time>2026-04-19T10:24:55.961Z</time></trkpt><trkpt lat="43.4795965" lon="11.4725246"><ele>662.3333333333334</ele><time>2026-04-19T10:24:56.973Z</time></trkpt><trkpt lat="43.4796412" lon="11.4724471"><ele>660.6666666666667</ele><time>2026-04-19T10:24:57.985Z</time></trkpt><trkpt lat="43.4797002" lon="11.4723669"><ele>659.0</ele><time>2026-04-19T10:24:58.972Z</time></trkpt><trkpt lat="43.4797565" lon="11.4722817"><ele>657.3333333333334</ele><time>2026-04-19T10:24:59.97Z</time></trkpt><trkpt lat="43.4798042" lon="11.4722102"><ele>655.6666666666666</ele><time>2026-04-19T10:25:00.965Z</time></trkpt><trkpt lat="43.4798878" lon="11.4721955"><ele>654.0</ele><time>2026-04-19T10:25:02.97Z</time></trkpt><trkpt lat="43.4799537" lon="11.4721837"><ele>654.0</ele><time>2026-04-19T10:25:03.962Z</time></trkpt><trkpt lat="43.4800217" lon="11.4721701"><ele>654.0</ele><time>2026-04-19T10:25:04.975Z</time></trkpt><trkpt lat="43.4800875" lon="11.4721815"><ele>654.0</ele><time>2026-04-19T10:25:05.966Z</time></trkpt><trkpt lat="43.4802152" lon="11.4722158"><ele>654.0</ele><time>2026-04-19T10:25:07.971Z</time></trkpt><trkpt lat="43.4802911" lon="11.4722469"><ele>654.0</ele><time>2026-04-19T10:25:08.97Z</time></trkpt><trkpt lat="43.4803809" lon="11.4722938"><ele>654.0</ele><time>2026-04-19T10:25:09.975Z</time></trkpt><trkpt lat="43.4804705" lon="11.472341"><ele>653.6666666666666</ele><time>2026-04-19T10:25:10.977Z</time></trkpt><trkpt lat="43.4805647" lon="11.4723769"><ele>653.3333333333334</ele><time>2026-04-19T10:25:11.969Z</time></trkpt><trkpt lat="43.4806544" lon="11.4723944"><ele>653.0</ele><time>2026-04-19T10:25:12.962Z</time></trkpt><trkpt lat="43.480733" lon="11.4724128"><ele>652.6666666666667</ele><time>2026-04-19T10:25:13.981Z</time></trkpt><trkpt lat="43.4808096" lon="11.4724268"><ele>652.3333333333334</ele><time>2026-04-19T10:25:14.965Z</time></trkpt><trkpt lat="43.480871" lon="11.4723995"><ele>652.0</ele><time>2026-04-19T10:25:15.976Z</time></trkpt><trkpt lat="43.4809415" lon="11.4723596"><ele>652.0</ele><time>2026-04-19T10:25:16.971Z</time></trkpt><trkpt lat="43.4810105" lon="11.4723317"><ele>652.0</ele><time>2026-04-19T10:25:17.97Z</time></trkpt><trkpt lat="43.4810759" lon="11.4723027"><ele>652.0</ele><time>2026-04-19T10:25:18.972Z</time></trkpt><trkpt lat="43.4811459" lon="11.4722686"><ele>652.0</ele><time>2026-04-19T10:25:19.983Z</time></trkpt><trkpt lat="43.4812248" lon="11.4722357"><ele>652.0</ele><time>2026-04-19T10:25:20.982Z</time></trkpt><trkpt lat="43.4812984" lon="11.4722038"><ele>652.0</ele><time>2026-04-19T10:25:21.96Z</time></trkpt><trkpt lat="43.4813716" lon="11.4721781"><ele>649.6666666666667</ele><time>2026-04-19T10:25:22.974Z</time></trkpt><trkpt lat="43.4814408" lon="11.4721555"><ele>647.3333333333334</ele><time>2026-04-19T10:25:23.97Z</time></trkpt><trkpt lat="43.4815501" lon="11.4721093"><ele>645.0</ele><time>2026-04-19T10:25:25.974Z</time></trkpt><trkpt lat="43.4815982" lon="11.4720488"><ele>642.6666666666666</ele><time>2026-04-19T10:25:26.972Z</time></trkpt><trkpt lat="43.4816399" lon="11.4719618"><ele>640.3333333333333</ele><time>2026-04-19T10:25:27.969Z</time></trkpt><trkpt lat="43.4816983" lon="11.4718539"><ele>638.0</ele><time>2026-04-19T10:25:28.969Z</time></trkpt><trkpt lat="43.4817656" lon="11.4717438"><ele>637.8333333333333</ele><time>2026-04-19T10:25:29.975Z</time></trkpt><trkpt lat="43.4818012" lon="11.4716345"><ele>637.6666666666666</ele><time>2026-04-19T10:25:30.975Z</time></trkpt><trkpt lat="43.4818343" lon="11.4715324"><ele>637.5</ele><time>2026-04-19T10:25:31.968Z</time></trkpt><trkpt lat="43.4818715" lon="11.4714183"><ele>637.3333333333334</ele><time>2026-04-19T10:25:32.973Z</time></trkpt><trkpt lat="43.4819009" lon="11.4712887"><ele>637.1666666666667</ele><time>2026-04-19T10:25:33.983Z</time></trkpt><trkpt lat="43.4819195" lon="11.4711677"><ele>637.0</ele><time>2026-04-19T10:25:34.971Z</time></trkpt><trkpt lat="43.4819519" lon="11.4710621"><ele>636.4</ele><time>2026-04-19T10:25:35.969Z</time></trkpt><trkpt lat="43.4819979" lon="11.4709624"><ele>635.8000000000001</ele><time>2026-04-19T10:25:36.975Z</time></trkpt><trkpt lat="43.4820577" lon="11.4708597"><ele>635.2</ele><time>2026-04-19T10:25:37.97Z</time></trkpt><trkpt lat="43.4821305" lon="11.4707695"><ele>634.6</ele><time>2026-04-19T10:25:38.97Z</time></trkpt><trkpt lat="43.4822144" lon="11.4706847"><ele>634.0</ele><time>2026-04-19T10:25:39.971Z</time></trkpt><trkpt lat="43.4822982" lon="11.4706036"><ele>634.0</ele><time>2026-04-19T10:25:40.973Z</time></trkpt><trkpt lat="43.4823774" lon="11.4705216"><ele>634.0</ele><time>2026-04-19T10:25:41.968Z</time></trkpt><trkpt lat="43.4824614" lon="11.470455"><ele>634.0</ele><time>2026-04-19T10:25:42.971Z</time></trkpt><trkpt lat="43.4825415" lon="11.4704094"><ele>634.0</ele><time>2026-04-19T10:25:43.973Z</time></trkpt><trkpt lat="43.4826411" lon="11.4703554"><ele>634.0</ele><time>2026-04-19T10:25:45.976Z</time></trkpt><trkpt lat="43.482751" lon="11.4702907"><ele>633.5</ele><time>2026-04-19T10:25:47.984Z</time></trkpt><trkpt lat="43.4828258" lon="11.4702546"><ele>633.0</ele><time>2026-04-19T10:25:48.971Z</time></trkpt><trkpt lat="43.4829157" lon="11.4702234"><ele>632.5</ele><time>2026-04-19T10:25:49.968Z</time></trkpt><trkpt lat="43.4830006" lon="11.4701877"><ele>632.0</ele><time>2026-04-19T10:25:50.97Z</time></trkpt><trkpt lat="43.4830815" lon="11.4701652"><ele>631.5</ele><time>2026-04-19T10:25:51.97Z</time></trkpt><trkpt lat="43.4831596" lon="11.4701627"><ele>631.0</ele><time>2026-04-19T10:25:52.969Z</time></trkpt><trkpt lat="43.4832391" lon="11.470172"><ele>632.4</ele><time>2026-04-19T10:25:53.97Z</time></trkpt><trkpt lat="43.4833228" lon="11.4701812"><ele>633.8</ele><time>2026-04-19T10:25:54.972Z</time></trkpt><trkpt lat="43.4834144" lon="11.470184"><ele>635.1999999999999</ele><time>2026-04-19T10:25:55.97Z</time></trkpt><trkpt lat="43.483513" lon="11.4701856"><ele>636.6</ele><time>2026-04-19T10:25:56.972Z</time></trkpt><trkpt lat="43.4836154" lon="11.4701827"><ele>638.0</ele><time>2026-04-19T10:25:57.975Z</time></trkpt><trkpt lat="43.483712" lon="11.4701769"><ele>638.5</ele><time>2026-04-19T10:25:58.976Z</time></trkpt><trkpt lat="43.4837962" lon="11.4701546"><ele>639.0</ele><time>2026-04-19T10:25:59.973Z</time></trkpt><trkpt lat="43.4838725" lon="11.4701219"><ele>639.5</ele><time>2026-04-19T10:26:00.975Z</time></trkpt><trkpt lat="43.4839485" lon="11.4700616"><ele>640.0</ele><time>2026-04-19T10:26:01.971Z</time></trkpt><trkpt lat="43.4840246" lon="11.4699984"><ele>640.5</ele><time>2026-04-19T10:26:02.973Z</time></trkpt><trkpt lat="43.4840982" lon="11.4699366"><ele>641.0</ele><time>2026-04-19T10:26:03.976Z</time></trkpt><trkpt lat="43.4841533" lon="11.4698731"><ele>641.0</ele><time>2026-04-19T10:26:04.974Z</time></trkpt><trkpt lat="43.4842015" lon="11.4698095"><ele>641.0</ele><time>2026-04-19T10:26:05.974Z</time></trkpt><trkpt lat="43.4842461" lon="11.46973"><ele>641.0</ele><time>2026-04-19T10:26:06.984Z</time></trkpt><trkpt lat="43.4842808" lon="11.4696387"><ele>641.0</ele><time>2026-04-19T10:26:07.973Z</time></trkpt><trkpt lat="43.4842966" lon="11.469541"><ele>641.0</ele><time>2026-04-19T10:26:08.968Z</time></trkpt><trkpt lat="43.4843065" lon="11.4694391"><ele>641.0</ele><time>2026-04-19T10:26:09.976Z</time></trkpt><trkpt lat="43.4843082" lon="11.4693271"><ele>641.0</ele><time>2026-04-19T10:26:11.001Z</time></trkpt><trkpt lat="43.4842872" lon="11.469201"><ele>640.0</ele><time>2026-04-19T10:26:11.975Z</time></trkpt><trkpt lat="43.4842455" lon="11.4690663"><ele>639.0</ele><time>2026-04-19T10:26:12.967Z</time></trkpt><trkpt lat="43.4842074" lon="11.4689371"><ele>638.0</ele><time>2026-04-19T10:26:13.972Z</time></trkpt><trkpt lat="43.484158" lon="11.4688053"><ele>637.0</ele><time>2026-04-19T10:26:14.974Z</time></trkpt><trkpt lat="43.484108" lon="11.4686778"><ele>636.0</ele><time>2026-04-19T10:26:15.977Z</time></trkpt><trkpt lat="43.4840591" lon="11.4685539"><ele>635.8</ele><time>2026-04-19T10:26:16.975Z</time></trkpt><trkpt lat="43.484009" lon="11.4684528"><ele>635.6</ele><time>2026-04-19T10:26:17.967Z</time></trkpt><trkpt lat="43.4839541" lon="11.4683434"><ele>635.4</ele><time>2026-04-19T10:26:18.977Z</time></trkpt><trkpt lat="43.4839001" lon="11.4682317"><ele>635.2</ele><time>2026-04-19T10:26:19.976Z</time></trkpt><trkpt lat="43.4838402" lon="11.468118"><ele>635.0</ele><time>2026-04-19T10:26:20.973Z</time></trkpt><trkpt lat="43.4837932" lon="11.4680099"><ele>634.8333333333333</ele><time>2026-04-19T10:26:21.974Z</time></trkpt><trkpt lat="43.4837612" lon="11.4678987"><ele>634.6666666666666</ele><time>2026-04-19T10:26:22.989Z</time></trkpt><trkpt lat="43.4837488" lon="11.4677852"><ele>634.5</ele><time>2026-04-19T10:26:23.979Z</time></trkpt><trkpt lat="43.4837456" lon="11.4676859"><ele>634.3333333333334</ele><time>2026-04-19T10:26:24.968Z</time></trkpt><trkpt lat="43.4837426" lon="11.4675923"><ele>634.1666666666667</ele><time>2026-04-19T10:26:25.974Z</time></trkpt><trkpt lat="43.4837523" lon="11.4674892"><ele>634.0</ele><time>2026-04-19T10:26:26.97Z</time></trkpt><trkpt lat="43.4837679" lon="11.467367"><ele>634.0</ele><time>2026-04-19T10:26:27.985Z</time></trkpt><trkpt lat="43.4837945" lon="11.467245"><ele>634.0</ele><time>2026-04-19T10:26:28.979Z</time></trkpt><trkpt lat="43.48384" lon="11.4671264"><ele>634.0</ele><time>2026-04-19T10:26:29.973Z</time></trkpt><trkpt lat="43.4839096" lon="11.4670199"><ele>634.0</ele><time>2026-04-19T10:26:30.967Z</time></trkpt><trkpt lat="43.4839853" lon="11.4669419"><ele>634.0</ele><time>2026-04-19T10:26:31.964Z</time></trkpt><trkpt lat="43.4840726" lon="11.4668701"><ele>635.6666666666667</ele><time>2026-04-19T10:26:32.972Z</time></trkpt><trkpt lat="43.4841529" lon="11.466823"><ele>637.3333333333334</ele><time>2026-04-19T10:26:33.973Z</time></trkpt><trkpt lat="43.4842269" lon="11.4667804"><ele>639.0</ele><time>2026-04-19T10:26:34.99Z</time></trkpt><trkpt lat="43.4842918" lon="11.4667409"><ele>640.6666666666666</ele><time>2026-04-19T10:26:35.985Z</time></trkpt><trkpt lat="43.4843639" lon="11.4666849"><ele>642.3333333333333</ele><time>2026-04-19T10:26:36.972Z</time></trkpt><trkpt lat="43.4844334" lon="11.4666206"><ele>644.0</ele><time>2026-04-19T10:26:37.976Z</time></trkpt><trkpt lat="43.4844849" lon="11.4665495"><ele>644.0</ele><time>2026-04-19T10:26:38.974Z</time></trkpt><trkpt lat="43.4845169" lon="11.4664542"><ele>644.0</ele><time>2026-04-19T10:26:39.987Z</time></trkpt><trkpt lat="43.4845324" lon="11.4663373"><ele>644.0</ele><time>2026-04-19T10:26:40.986Z</time></trkpt><trkpt lat="43.4845452" lon="11.4662391"><ele>644.0</ele><time>2026-04-19T10:26:41.973Z</time></trkpt><trkpt lat="43.4845434" lon="11.4661424"><ele>644.0</ele><time>2026-04-19T10:26:42.983Z</time></trkpt><trkpt lat="43.4845161" lon="11.4660562"><ele>644.0</ele><time>2026-04-19T10:26:43.97Z</time></trkpt><trkpt lat="43.4844777" lon="11.4659716"><ele>644.0</ele><time>2026-04-19T10:26:44.971Z</time></trkpt><trkpt lat="43.4844214" lon="11.4658774"><ele>643.75</ele><time>2026-04-19T10:26:45.975Z</time></trkpt><trkpt lat="43.4843457" lon="11.4657774"><ele>643.5</ele><time>2026-04-19T10:26:46.972Z</time></trkpt><trkpt lat="43.4842621" lon="11.4656585"><ele>643.25</ele><time>2026-04-19T10:26:47.978Z</time></trkpt><trkpt lat="43.4841802" lon="11.4655357"><ele>643.0</ele><time>2026-04-19T10:26:48.971Z</time></trkpt><trkpt lat="43.4841153" lon="11.4654196"><ele>642.0</ele><time>2026-04-19T10:26:49.985Z</time></trkpt><trkpt lat="43.4840733" lon="11.4652894"><ele>641.0</ele><time>2026-04-19T10:26:50.973Z</time></trkpt><trkpt lat="43.4840326" lon="11.4651526"><ele>640.0</ele><time>2026-04-19T10:26:51.974Z</time></trkpt><trkpt lat="43.4840408" lon="11.4650538"><ele>639.0</ele><time>2026-04-19T10:26:52.967Z</time></trkpt><trkpt lat="43.4840645" lon="11.4649554"><ele>638.0</ele><time>2026-04-19T10:26:53.97Z</time></trkpt><trkpt lat="43.4841156" lon="11.4648813"><ele>637.0</ele><time>2026-04-19T10:26:54.973Z</time></trkpt><trkpt lat="43.4841999" lon="11.4648243"><ele>637.0</ele><time>2026-04-19T10:26:55.966Z</time></trkpt><trkpt lat="43.4843023" lon="11.4647646"><ele>637.0</ele><time>2026-04-19T10:26:56.974Z</time></trkpt><trkpt lat="43.4844059" lon="11.4646958"><ele>637.0</ele><time>2026-04-19T10:26:57.967Z</time></trkpt><trkpt lat="43.4845058" lon="11.4646424"><ele>637.0</ele><time>2026-04-19T10:26:58.968Z</time></trkpt><trkpt lat="43.4845955" lon="11.4645927"><ele>637.0</ele><time>2026-04-19T10:26:59.974Z</time></trkpt><trkpt lat="43.4846692" lon="11.4645238"><ele>636.6</ele><time>2026-04-19T10:27:00.971Z</time></trkpt><trkpt lat="43.4847278" lon="11.4644417"><ele>636.2</ele><time>2026-04-19T10:27:01.979Z</time></trkpt><trkpt lat="43.4847744" lon="11.4643401"><ele>635.8</ele><time>2026-04-19T10:27:02.971Z</time></trkpt><trkpt lat="43.484814" lon="11.4642142"><ele>635.4</ele><time>2026-04-19T10:27:03.97Z</time></trkpt><trkpt lat="43.4848521" lon="11.4640731"><ele>635.0</ele><time>2026-04-19T10:27:04.972Z</time></trkpt><trkpt lat="43.4848796" lon="11.4639304"><ele>637.0</ele><time>2026-04-19T10:27:05.972Z</time></trkpt><trkpt lat="43.4848999" lon="11.4637796"><ele>639.0</ele><time>2026-04-19T10:27:06.974Z</time></trkpt><trkpt lat="43.4849257" lon="11.4636163"><ele>641.0</ele><time>2026-04-19T10:27:07.965Z</time></trkpt><trkpt lat="43.4849426" lon="11.4634675"><ele>643.0</ele><time>2026-04-19T10:27:08.971Z</time></trkpt><trkpt lat="43.4849682" lon="11.4633551"><ele>645.0</ele><time>2026-04-19T10:27:09.981Z</time></trkpt><trkpt lat="43.4850152" lon="11.4632502"><ele>645.0</ele><time>2026-04-19T10:27:10.972Z</time></trkpt><trkpt lat="43.4850775" lon="11.463135"><ele>645.0</ele><time>2026-04-19T10:27:11.996Z</time></trkpt><trkpt lat="43.4851353" lon="11.4629989"><ele>645.0</ele><time>2026-04-19T10:27:12.973Z</time></trkpt><trkpt lat="43.485201" lon="11.4628401"><ele>645.0</ele><time>2026-04-19T10:27:13.974Z</time></trkpt><trkpt lat="43.4852448" lon="11.4627212"><ele>645.0</ele><time>2026-04-19T10:27:14.983Z</time></trkpt><trkpt lat="43.4852873" lon="11.4626321"><ele>644.5</ele><time>2026-04-19T10:27:15.97Z</time></trkpt><trkpt lat="43.4853194" lon="11.4625496"><ele>644.0</ele><time>2026-04-19T10:27:16.972Z</time></trkpt><trkpt lat="43.4853311" lon="11.46246"><ele>643.5</ele><time>2026-04-19T10:27:17.974Z</time></trkpt><trkpt lat="43.4853325" lon="11.462367"><ele>643.0</ele><time>2026-04-19T10:27:18.974Z</time></trkpt><trkpt lat="43.4853186" lon="11.4622538"><ele>642.5</ele><time>2026-04-19T10:27:19.995Z</time></trkpt><trkpt lat="43.4852777" lon="11.4621379"><ele>642.0</ele><time>2026-04-19T10:27:20.975Z</time></trkpt><trkpt lat="43.4852421" lon="11.4620141"><ele>642.0</ele><time>2026-04-19T10:27:21.979Z</time></trkpt><trkpt lat="43.4851965" lon="11.4618815"><ele>642.0</ele><time>2026-04-19T10:27:22.971Z</time></trkpt><trkpt lat="43.4851393" lon="11.4617489"><ele>642.0</ele><time>2026-04-19T10:27:23.973Z</time></trkpt><trkpt lat="43.4850714" lon="11.4616141"><ele>642.0</ele><time>2026-04-19T10:27:24.977Z</time></trkpt><trkpt lat="43.4849977" lon="11.4614818"><ele>642.0</ele><time>2026-04-19T10:27:25.964Z</time></trkpt><trkpt lat="43.4849122" lon="11.4613318"><ele>642.0</ele><time>2026-04-19T10:27:26.975Z</time></trkpt><trkpt lat="43.4848114" lon="11.4611942"><ele>642.0</ele><time>2026-04-19T10:27:27.972Z</time></trkpt><trkpt lat="43.484716" lon="11.4610951"><ele>642.0</ele><time>2026-04-19T10:27:28.969Z</time></trkpt><trkpt lat="43.4846133" lon="11.4610106"><ele>641.5</ele><time>2026-04-19T10:27:29.97Z</time></trkpt><trkpt lat="43.4845189" lon="11.4609371"><ele>641.0</ele><time>2026-04-19T10:27:30.968Z</time></trkpt><trkpt lat="43.4844058" lon="11.4608609"><ele>640.5</ele><time>2026-04-19T10:27:31.976Z</time></trkpt><trkpt lat="43.4842774" lon="11.4608013"><ele>640.0</ele><time>2026-04-19T10:27:32.967Z</time></trkpt><trkpt lat="43.4841515" lon="11.4607469"><ele>640.0</ele><time>2026-04-19T10:27:33.968Z</time></trkpt><trkpt lat="43.484014" lon="11.4606925"><ele>640.0</ele><time>2026-04-19T10:27:34.97Z</time></trkpt><trkpt lat="43.4838904" lon="11.4606304"><ele>640.0</ele><time>2026-04-19T10:27:35.969Z</time></trkpt><trkpt lat="43.4837612" lon="11.4605655"><ele>640.0</ele><time>2026-04-19T10:27:36.973Z</time></trkpt><trkpt lat="43.483619" lon="11.4604914"><ele>638.3333333333334</ele><time>2026-04-19T10:27:37.97Z</time></trkpt><trkpt lat="43.4834603" lon="11.4604123"><ele>636.6666666666666</ele><time>2026-04-19T10:27:38.995Z</time></trkpt><trkpt lat="43.4832982" lon="11.4603222"><ele>635.0</ele><time>2026-04-19T10:27:39.971Z</time></trkpt><trkpt lat="43.4831648" lon="11.4602325"><ele>635.0</ele><time>2026-04-19T10:27:40.974Z</time></trkpt><trkpt lat="43.4830387" lon="11.4601713"><ele>635.0</ele><time>2026-04-19T10:27:41.972Z</time></trkpt><trkpt lat="43.4829276" lon="11.4601126"><ele>635.0</ele><time>2026-04-19T10:27:42.977Z</time></trkpt><trkpt lat="43.4828242" lon="11.4600264"><ele>635.0</ele><time>2026-04-19T10:27:43.974Z</time></trkpt><trkpt lat="43.482732" lon="11.4599461"><ele>635.2</ele><time>2026-04-19T10:27:44.97Z</time></trkpt><trkpt lat="43.4826513" lon="11.459871"><ele>635.4</ele><time>2026-04-19T10:27:45.969Z</time></trkpt><trkpt lat="43.4825782" lon="11.459795"><ele>635.6</ele><time>2026-04-19T10:27:46.975Z</time></trkpt><trkpt lat="43.4825046" lon="11.4597084"><ele>635.8</ele><time>2026-04-19T10:27:47.981Z</time></trkpt><trkpt lat="43.4824552" lon="11.4596004"><ele>636.0</ele><time>2026-04-19T10:27:48.973Z</time></trkpt><trkpt lat="43.4824094" lon="11.4594756"><ele>636.0</ele><time>2026-04-19T10:27:49.974Z</time></trkpt><trkpt lat="43.4823818" lon="11.4593388"><ele>636.0</ele><time>2026-04-19T10:27:50.969Z</time></trkpt><trkpt lat="43.4823916" lon="11.4592081"><ele>636.0</ele><time>2026-04-19T10:27:51.995Z</time></trkpt><trkpt lat="43.4824129" lon="11.4590796"><ele>636.0</ele><time>2026-04-19T10:27:52.971Z</time></trkpt><trkpt lat="43.4824417" lon="11.4589638"><ele>636.0</ele><time>2026-04-19T10:27:53.979Z</time></trkpt><trkpt lat="43.4824392" lon="11.4588633"><ele>634.6</ele><time>2026-04-19T10:27:54.974Z</time></trkpt><trkpt lat="43.48241" lon="11.4586935"><ele>633.2</ele><time>2026-04-19T10:27:56.968Z</time></trkpt><trkpt lat="43.4823082" lon="11.458564"><ele>631.8</ele><time>2026-04-19T10:27:58.977Z</time></trkpt><trkpt lat="43.4822339" lon="11.4584919"><ele>630.4</ele><time>2026-04-19T10:27:59.971Z</time></trkpt><trkpt lat="43.4821579" lon="11.4584231"><ele>629.0</ele><time>2026-04-19T10:28:00.973Z</time></trkpt><trkpt lat="43.4821122" lon="11.4583542"><ele>629.8333333333333</ele><time>2026-04-19T10:28:01.976Z</time></trkpt><trkpt lat="43.4820543" lon="11.4582031"><ele>630.6666666666666</ele><time>2026-04-19T10:28:03.977Z</time></trkpt><trkpt lat="43.4820378" lon="11.4581051"><ele>631.5</ele><time>2026-04-19T10:28:04.995Z</time></trkpt><trkpt lat="43.4820335" lon="11.458004"><ele>632.3333333333334</ele><time>2026-04-19T10:28:05.975Z</time></trkpt><trkpt lat="43.4820366" lon="11.4579027"><ele>633.1666666666667</ele><time>2026-04-19T10:28:06.972Z</time></trkpt><trkpt lat="43.4820531" lon="11.4577979"><ele>634.0</ele><time>2026-04-19T10:28:07.971Z</time></trkpt><trkpt lat="43.4820541" lon="11.4576972"><ele>634.0</ele><time>2026-04-19T10:28:08.972Z</time></trkpt><trkpt lat="43.4820561" lon="11.457608"><ele>634.0</ele><time>2026-04-19T10:28:09.979Z</time></trkpt><trkpt lat="43.4820588" lon="11.4575061"><ele>634.0</ele><time>2026-04-19T10:28:10.974Z</time></trkpt><trkpt lat="43.4820629" lon="11.4574055"><ele>634.0</ele><time>2026-04-19T10:28:11.969Z</time></trkpt><trkpt lat="43.4820476" lon="11.4573184"><ele>634.0</ele><time>2026-04-19T10:28:12.972Z</time></trkpt><trkpt lat="43.4820057" lon="11.4571733"><ele>634.0</ele><time>2026-04-19T10:28:14.98Z</time></trkpt><trkpt lat="43.4819556" lon="11.4570396"><ele>633.3333333333334</ele><time>2026-04-19T10:28:16.973Z</time></trkpt><trkpt lat="43.4819063" lon="11.4568962"><ele>632.6666666666667</ele><time>2026-04-19T10:28:18.974Z</time></trkpt><trkpt lat="43.4818769" lon="11.4568141"><ele>632.0</ele><time>2026-04-19T10:28:19.976Z</time></trkpt><trkpt lat="43.4818541" lon="11.4567249"><ele>631.3333333333334</ele><time>2026-04-19T10:28:20.973Z</time></trkpt><trkpt lat="43.4818267" lon="11.456616"><ele>630.6666666666666</ele><time>2026-04-19T10:28:21.979Z</time></trkpt><trkpt lat="43.4818014" lon="11.4565086"><ele>630.0</ele><time>2026-04-19T10:28:22.969Z</time></trkpt><trkpt lat="43.4817904" lon="11.4563944"><ele>630.1666666666666</ele><time>2026-04-19T10:28:23.979Z</time></trkpt><trkpt lat="43.4817986" lon="11.4562714"><ele>630.3333333333334</ele><time>2026-04-19T10:28:24.973Z</time></trkpt><trkpt lat="43.481823" lon="11.4561581"><ele>630.5</ele><time>2026-04-19T10:28:25.989Z</time></trkpt><trkpt lat="43.4818445" lon="11.4560622"><ele>630.6666666666667</ele><time>2026-04-19T10:28:26.97Z</time></trkpt><trkpt lat="43.4818662" lon="11.4559697"><ele>630.8333333333334</ele><time>2026-04-19T10:28:27.978Z</time></trkpt><trkpt lat="43.4819026" lon="11.45589"><ele>631.0</ele><time>2026-04-19T10:28:28.978Z</time></trkpt><trkpt lat="43.4819401" lon="11.455805"><ele>631.0</ele><time>2026-04-19T10:28:29.998Z</time></trkpt><trkpt lat="43.4819735" lon="11.4557197"><ele>631.0</ele><time>2026-04-19T10:28:30.975Z</time></trkpt><trkpt lat="43.4820066" lon="11.4555804"><ele>631.0</ele><time>2026-04-19T10:28:32.969Z</time></trkpt><trkpt lat="43.4820116" lon="11.4554336"><ele>631.0</ele><time>2026-04-19T10:28:34.967Z</time></trkpt><trkpt lat="43.4819979" lon="11.4552827"><ele>631.0</ele><time>2026-04-19T10:28:36.983Z</time></trkpt><trkpt lat="43.4819662" lon="11.4551754"><ele>631.1666666666667</ele><time>2026-04-19T10:28:38.98Z</time></trkpt><trkpt lat="43.4819316" lon="11.4550965"><ele>631.3333333333334</ele><time>2026-04-19T10:28:41.97Z</time></trkpt><trkpt lat="43.481922" lon="11.4550088"><ele>631.5</ele><time>2026-04-19T10:28:44.972Z</time></trkpt><trkpt lat="43.4818703" lon="11.4548831"><ele>631.6666666666666</ele><time>2026-04-19T10:28:46.973Z</time></trkpt><trkpt lat="43.4818425" lon="11.4547934"><ele>631.8333333333333</ele><time>2026-04-19T10:28:47.969Z</time></trkpt><trkpt lat="43.4818135" lon="11.4547028"><ele>632.0</ele><time>2026-04-19T10:28:48.967Z</time></trkpt><trkpt lat="43.4817695" lon="11.4545971"><ele>632.0</ele><time>2026-04-19T10:28:50.009Z</time></trkpt><trkpt lat="43.4817345" lon="11.4544909"><ele>632.0</ele><time>2026-04-19T10:28:51.003Z</time></trkpt><trkpt lat="43.4817041" lon="11.4543807"><ele>632.0</ele><time>2026-04-19T10:28:51.975Z</time></trkpt><trkpt lat="43.4816881" lon="11.454261"><ele>632.0</ele><time>2026-04-19T10:28:52.968Z</time></trkpt><trkpt lat="43.4816837" lon="11.4541405"><ele>632.0</ele><time>2026-04-19T10:28:53.972Z</time></trkpt><trkpt lat="43.4816905" lon="11.4540211"><ele>632.0</ele><time>2026-04-19T10:28:54.974Z</time></trkpt><trkpt lat="43.4816998" lon="11.4539246"><ele>632.0</ele><time>2026-04-19T10:28:55.965Z</time></trkpt><trkpt lat="43.4817017" lon="11.453832"><ele>632.0</ele><time>2026-04-19T10:28:56.974Z</time></trkpt><trkpt lat="43.4816916" lon="11.4536582"><ele>632.0</ele><time>2026-04-19T10:28:58.975Z</time></trkpt><trkpt lat="43.4815965" lon="11.453522"><ele>632.0</ele><time>2026-04-19T10:29:00.959Z</time></trkpt><trkpt lat="43.4815152" lon="11.453459"><ele>632.0</ele><time>2026-04-19T10:29:01.972Z</time></trkpt><trkpt lat="43.4814107" lon="11.4534121"><ele>633.75</ele><time>2026-04-19T10:29:02.98Z</time></trkpt><trkpt lat="43.4813024" lon="11.4533684"><ele>635.5</ele><time>2026-04-19T10:29:03.973Z</time></trkpt><trkpt lat="43.481176" lon="11.4533252"><ele>637.25</ele><time>2026-04-19T10:29:04.969Z</time></trkpt><trkpt lat="43.4810502" lon="11.4532834"><ele>639.0</ele><time>2026-04-19T10:29:05.967Z</time></trkpt><trkpt lat="43.4809565" lon="11.453242"><ele>639.0</ele><time>2026-04-19T10:29:06.974Z</time></trkpt><trkpt lat="43.4808698" lon="11.4531966"><ele>639.0</ele><time>2026-04-19T10:29:08.01Z</time></trkpt><trkpt lat="43.480794" lon="11.4531349"><ele>639.0</ele><time>2026-04-19T10:29:08.985Z</time></trkpt><trkpt lat="43.4807344" lon="11.4530512"><ele>639.0</ele><time>2026-04-19T10:29:09.97Z</time></trkpt><trkpt lat="43.4806891" lon="11.4529489"><ele>639.0</ele><time>2026-04-19T10:29:10.977Z</time></trkpt><trkpt lat="43.4806725" lon="11.4528248"><ele>639.0</ele><time>2026-04-19T10:29:11.97Z</time></trkpt><trkpt lat="43.4806774" lon="11.4526594"><ele>637.0</ele><time>2026-04-19T10:29:12.97Z</time></trkpt><trkpt lat="43.4806855" lon="11.4524908"><ele>635.0</ele><time>2026-04-19T10:29:13.977Z</time></trkpt><trkpt lat="43.4806889" lon="11.4523347"><ele>633.0</ele><time>2026-04-19T10:29:14.98Z</time></trkpt><trkpt lat="43.4806935" lon="11.4522221"><ele>631.0</ele><time>2026-04-19T10:29:15.976Z</time></trkpt><trkpt lat="43.4807247" lon="11.4521342"><ele>629.0</ele><time>2026-04-19T10:29:16.974Z</time></trkpt><trkpt lat="43.4807727" lon="11.4520568"><ele>629.0</ele><time>2026-04-19T10:29:17.978Z</time></trkpt><trkpt lat="43.480848" lon="11.451992"><ele>629.0</ele><time>2026-04-19T10:29:18.973Z</time></trkpt><trkpt lat="43.4809421" lon="11.4519507"><ele>629.0</ele><time>2026-04-19T10:29:19.984Z</time></trkpt><trkpt lat="43.4810505" lon="11.4519143"><ele>629.0</ele><time>2026-04-19T10:29:20.972Z</time></trkpt><trkpt lat="43.4811692" lon="11.4518934"><ele>629.0</ele><time>2026-04-19T10:29:21.982Z</time></trkpt><trkpt lat="43.4812961" lon="11.45187"><ele>632.5</ele><time>2026-04-19T10:29:22.968Z</time></trkpt><trkpt lat="43.481414" lon="11.4518322"><ele>636.0</ele><time>2026-04-19T10:29:23.972Z</time></trkpt><trkpt lat="43.4815322" lon="11.4517902"><ele>639.5</ele><time>2026-04-19T10:29:25.027Z</time></trkpt><trkpt lat="43.481646" lon="11.4517365"><ele>643.0</ele><time>2026-04-19T10:29:25.971Z</time></trkpt><trkpt lat="43.481764" lon="11.4516802"><ele>643.0</ele><time>2026-04-19T10:29:26.968Z</time></trkpt><trkpt lat="43.4818784" lon="11.4516191"><ele>643.0</ele><time>2026-04-19T10:29:27.972Z</time></trkpt><trkpt lat="43.4820001" lon="11.4515475"><ele>643.0</ele><time>2026-04-19T10:29:28.968Z</time></trkpt><trkpt lat="43.4821093" lon="11.4514742"><ele>643.0</ele><time>2026-04-19T10:29:29.966Z</time></trkpt><trkpt lat="43.482219" lon="11.4513951"><ele>642.75</ele><time>2026-04-19T10:29:30.966Z</time></trkpt><trkpt lat="43.4823243" lon="11.4513118"><ele>642.5</ele><time>2026-04-19T10:29:31.979Z</time></trkpt><trkpt lat="43.4824277" lon="11.4512241"><ele>642.25</ele><time>2026-04-19T10:29:32.97Z</time></trkpt><trkpt lat="43.4825257" lon="11.451143"><ele>642.0</ele><time>2026-04-19T10:29:33.972Z</time></trkpt><trkpt lat="43.4826301" lon="11.4510669"><ele>642.0</ele><time>2026-04-19T10:29:34.966Z</time></trkpt><trkpt lat="43.4827355" lon="11.450989"><ele>642.0</ele><time>2026-04-19T10:29:35.959Z</time></trkpt><trkpt lat="43.4828426" lon="11.4509068"><ele>642.0</ele><time>2026-04-19T10:29:36.968Z</time></trkpt><trkpt lat="43.4829517" lon="11.4508263"><ele>642.0</ele><time>2026-04-19T10:29:37.964Z</time></trkpt><trkpt lat="43.4830506" lon="11.4507578"><ele>644.2</ele><time>2026-04-19T10:29:38.956Z</time></trkpt><trkpt lat="43.4831463" lon="11.4507039"><ele>646.4000000000001</ele><time>2026-04-19T10:29:39.969Z</time></trkpt><trkpt lat="43.4832384" lon="11.4506618"><ele>648.5999999999999</ele><time>2026-04-19T10:29:40.968Z</time></trkpt><trkpt lat="43.4833456" lon="11.4506355"><ele>650.8</ele><time>2026-04-19T10:29:41.971Z</time></trkpt><trkpt lat="43.4834596" lon="11.4506207"><ele>653.0</ele><time>2026-04-19T10:29:42.968Z</time></trkpt><trkpt lat="43.4835787" lon="11.4506138"><ele>653.0</ele><time>2026-04-19T10:29:43.974Z</time></trkpt><trkpt lat="43.4837001" lon="11.4506187"><ele>653.0</ele><time>2026-04-19T10:29:44.97Z</time></trkpt><trkpt lat="43.4838173" lon="11.4506222"><ele>653.0</ele><time>2026-04-19T10:29:45.974Z</time></trkpt><trkpt lat="43.4839315" lon="11.450624"><ele>653.0</ele><time>2026-04-19T10:29:46.964Z</time></trkpt><trkpt lat="43.4840436" lon="11.4506378"><ele>651.5</ele><time>2026-04-19T10:29:47.974Z</time></trkpt><trkpt lat="43.4841511" lon="11.4506575"><ele>650.0</ele><time>2026-04-19T10:29:48.97Z</time></trkpt><trkpt lat="43.484273" lon="11.4507001"><ele>648.5</ele><time>2026-04-19T10:29:49.972Z</time></trkpt><trkpt lat="43.4844058" lon="11.4507475"><ele>647.0</ele><time>2026-04-19T10:29:50.972Z</time></trkpt><trkpt lat="43.4845338" lon="11.4508018"><ele>644.0</ele><time>2026-04-19T10:29:51.978Z</time></trkpt><trkpt lat="43.4846641" lon="11.450853"><ele>641.0</ele><time>2026-04-19T10:29:52.972Z</time></trkpt><trkpt lat="43.4847871" lon="11.4508976"><ele>638.0</ele><time>2026-04-19T10:29:53.971Z</time></trkpt><trkpt lat="43.4849042" lon="11.4509366"><ele>635.0</ele><time>2026-04-19T10:29:54.978Z</time></trkpt><trkpt lat="43.48502" lon="11.4509709"><ele>635.0</ele><time>2026-04-19T10:29:55.971Z</time></trkpt><trkpt lat="43.4851299" lon="11.4510033"><ele>635.0</ele><time>2026-04-19T10:29:56.979Z</time></trkpt><trkpt lat="43.4852424" lon="11.4510301"><ele>635.0</ele><time>2026-04-19T10:29:57.973Z</time></trkpt><trkpt lat="43.4853562" lon="11.4510526"><ele>635.0</ele><time>2026-04-19T10:29:58.965Z</time></trkpt><trkpt lat="43.4854899" lon="11.4510649"><ele>631.3333333333333</ele><time>2026-04-19T10:29:59.979Z</time></trkpt><trkpt lat="43.4856371" lon="11.4510845"><ele>627.6666666666666</ele><time>2026-04-19T10:30:01.005Z</time></trkpt><trkpt lat="43.4857932" lon="11.4511047"><ele>624.0</ele><time>2026-04-19T10:30:01.974Z</time></trkpt><trkpt lat="43.4859578" lon="11.4511357"><ele>624.0</ele><time>2026-04-19T10:30:02.994Z</time></trkpt><trkpt lat="43.4861165" lon="11.4511752"><ele>624.0</ele><time>2026-04-19T10:30:03.975Z</time></trkpt><trkpt lat="43.4862646" lon="11.4512157"><ele>624.0</ele><time>2026-04-19T10:30:04.974Z</time></trkpt><trkpt lat="43.4864113" lon="11.4512515"><ele>621.5</ele><time>2026-04-19T10:30:05.977Z</time></trkpt><trkpt lat="43.4865555" lon="11.4512791"><ele>619.0</ele><time>2026-04-19T10:30:06.974Z</time></trkpt><trkpt lat="43.4866938" lon="11.4512995"><ele>616.5</ele><time>2026-04-19T10:30:07.973Z</time></trkpt><trkpt lat="43.4868203" lon="11.4513253"><ele>614.0</ele><time>2026-04-19T10:30:08.974Z</time></trkpt><trkpt lat="43.4869457" lon="11.4513699"><ele>614.0</ele><time>2026-04-19T10:30:09.973Z</time></trkpt><trkpt lat="43.4870702" lon="11.4514264"><ele>614.0</ele><time>2026-04-19T10:30:10.974Z</time></trkpt><trkpt lat="43.4872157" lon="11.4514891"><ele>614.0</ele><time>2026-04-19T10:30:11.968Z</time></trkpt><trkpt lat="43.4873619" lon="11.4515524"><ele>614.0</ele><time>2026-04-19T10:30:12.966Z</time></trkpt><trkpt lat="43.4875048" lon="11.4516154"><ele>613.75</ele><time>2026-04-19T10:30:13.967Z</time></trkpt><trkpt lat="43.4876362" lon="11.4516734"><ele>613.5</ele><time>2026-04-19T10:30:14.972Z</time></trkpt><trkpt lat="43.487756" lon="11.4517196"><ele>613.25</ele><time>2026-04-19T10:30:15.972Z</time></trkpt><trkpt lat="43.4878728" lon="11.4517653"><ele>613.0</ele><time>2026-04-19T10:30:16.97Z</time></trkpt><trkpt lat="43.4879806" lon="11.4517882"><ele>612.0</ele><time>2026-04-19T10:30:17.975Z</time></trkpt><trkpt lat="43.4880889" lon="11.4517957"><ele>611.0</ele><time>2026-04-19T10:30:18.979Z</time></trkpt><trkpt lat="43.4881853" lon="11.451778"><ele>610.0</ele><time>2026-04-19T10:30:19.974Z</time></trkpt><trkpt lat="43.4882755" lon="11.4517339"><ele>609.0</ele><time>2026-04-19T10:30:20.975Z</time></trkpt><trkpt lat="43.4883487" lon="11.4516696"><ele>608.0</ele><time>2026-04-19T10:30:21.969Z</time></trkpt><trkpt lat="43.4884069" lon="11.4515865"><ele>608.0</ele><time>2026-04-19T10:30:22.967Z</time></trkpt><trkpt lat="43.4884574" lon="11.4515023"><ele>608.0</ele><time>2026-04-19T10:30:23.969Z</time></trkpt><trkpt lat="43.4885198" lon="11.4514316"><ele>608.0</ele><time>2026-04-19T10:30:24.968Z</time></trkpt><trkpt lat="43.488587" lon="11.4513711"><ele>608.0</ele><time>2026-04-19T10:30:25.965Z</time></trkpt><trkpt lat="43.4886487" lon="11.4513085"><ele>608.0</ele><time>2026-04-19T10:30:26.972Z</time></trkpt><trkpt lat="43.4887014" lon="11.4512549"><ele>608.0</ele><time>2026-04-19T10:30:27.971Z</time></trkpt><trkpt lat="43.4888168" lon="11.4511608"><ele>605.0</ele><time>2026-04-19T10:30:29.969Z</time></trkpt><trkpt lat="43.4888786" lon="11.4511285"><ele>602.0</ele><time>2026-04-19T10:30:30.97Z</time></trkpt><trkpt lat="43.4889415" lon="11.4511029"><ele>599.0</ele><time>2026-04-19T10:30:31.975Z</time></trkpt><trkpt lat="43.4890607" lon="11.4510487"><ele>596.0</ele><time>2026-04-19T10:30:33.973Z</time></trkpt><trkpt lat="43.4891235" lon="11.4510167"><ele>593.0</ele><time>2026-04-19T10:30:34.974Z</time></trkpt><trkpt lat="43.4892425" lon="11.4509567"><ele>593.0</ele><time>2026-04-19T10:30:36.975Z</time></trkpt><trkpt lat="43.4893407" lon="11.4509277"><ele>593.0</ele><time>2026-04-19T10:30:38.969Z</time></trkpt><trkpt lat="43.4894164" lon="11.4508861"><ele>593.0</ele><time>2026-04-19T10:30:42.014Z</time></trkpt><trkpt lat="43.4894612" lon="11.4507649"><ele>593.0</ele><time>2026-04-19T10:30:49.98Z</time></trkpt><trkpt lat="43.4895023" lon="11.4505968"><ele>593.0</ele><time>2026-04-19T10:30:51.973Z</time></trkpt><trkpt lat="43.4895703" lon="11.4505116"><ele>593.0</ele><time>2026-04-19T10:30:52.967Z</time></trkpt><trkpt lat="43.4896672" lon="11.4504479"><ele>593.0</ele><time>2026-04-19T10:30:53.973Z</time></trkpt><trkpt lat="43.4897626" lon="11.4504186"><ele>593.0</ele><time>2026-04-19T10:30:54.979Z</time></trkpt><trkpt lat="43.4898564" lon="11.4504075"><ele>593.0</ele><time>2026-04-19T10:30:55.978Z</time></trkpt><trkpt lat="43.4899627" lon="11.4504245"><ele>593.0</ele><time>2026-04-19T10:30:56.972Z</time></trkpt><trkpt lat="43.4900934" lon="11.4504599"><ele>593.0</ele><time>2026-04-19T10:30:57.969Z</time></trkpt><trkpt lat="43.490234" lon="11.4505025"><ele>593.0</ele><time>2026-04-19T10:30:58.972Z</time></trkpt><trkpt lat="43.4903701" lon="11.4505276"><ele>593.0</ele><time>2026-04-19T10:30:59.976Z</time></trkpt><trkpt lat="43.4905109" lon="11.4505358"><ele>593.0</ele><time>2026-04-19T10:31:00.97Z</time></trkpt><trkpt lat="43.4906375" lon="11.4505026"><ele>598.0</ele><time>2026-04-19T10:31:01.967Z</time></trkpt><trkpt lat="43.4907454" lon="11.4504448"><ele>603.0</ele><time>2026-04-19T10:31:02.979Z</time></trkpt><trkpt lat="43.490826" lon="11.4503695"><ele>608.0</ele><time>2026-04-19T10:31:03.973Z</time></trkpt><trkpt lat="43.4908768" lon="11.4502697"><ele>613.0</ele><time>2026-04-19T10:31:04.969Z</time></trkpt><trkpt lat="43.4908971" lon="11.4501521"><ele>618.0</ele><time>2026-04-19T10:31:05.977Z</time></trkpt><trkpt lat="43.4908782" lon="11.4500539"><ele>618.0</ele><time>2026-04-19T10:31:06.974Z</time></trkpt><trkpt lat="43.4908213" lon="11.4499808"><ele>618.0</ele><time>2026-04-19T10:31:07.967Z</time></trkpt><trkpt lat="43.4907398" lon="11.4499553"><ele>618.0</ele><time>2026-04-19T10:31:08.976Z</time></trkpt><trkpt lat="43.490665" lon="11.4499455"><ele>618.0</ele><time>2026-04-19T10:31:09.975Z</time></trkpt><trkpt lat="43.4905999" lon="11.449965"><ele>618.0</ele><time>2026-04-19T10:31:10.965Z</time></trkpt><trkpt lat="43.4904853" lon="11.4500101"><ele>618.0</ele><time>2026-04-19T10:31:12.974Z</time></trkpt><trkpt lat="43.4904072" lon="11.4500166"><ele>618.0000000000001</ele><time>2026-04-19T10:31:14.965Z</time></trkpt><trkpt lat="43.4904881" lon="11.4500039"><ele>618.0</ele><time>2026-04-19T10:31:19.971Z</time></trkpt><trkpt lat="43.4905544" lon="11.4499897"><ele>618.0</ele><time>2026-04-19T10:31:20.977Z</time></trkpt><trkpt lat="43.4906319" lon="11.44997"><ele>618.0</ele><time>2026-04-19T10:31:21.972Z</time></trkpt><trkpt lat="43.4907025" lon="11.4499597"><ele>618.0</ele><time>2026-04-19T10:31:22.975Z</time></trkpt><trkpt lat="43.4907715" lon="11.4499868"><ele>618.0000000000001</ele><time>2026-04-19T10:31:23.969Z</time></trkpt><trkpt lat="43.4908211" lon="11.4500576"><ele>618.0</ele><time>2026-04-19T10:31:24.972Z</time></trkpt><trkpt lat="43.4908491" lon="11.4501583"><ele>618.0</ele><time>2026-04-19T10:31:25.972Z</time></trkpt><trkpt lat="43.4908504" lon="11.4502518"><ele>618.0</ele><time>2026-04-19T10:31:26.969Z</time></trkpt><trkpt lat="43.4908234" lon="11.4503406"><ele>618.0</ele><time>2026-04-19T10:31:27.969Z</time></trkpt><trkpt lat="43.4907585" lon="11.4504106"><ele>618.0</ele><time>2026-04-19T10:31:28.965Z</time></trkpt><trkpt lat="43.4906608" lon="11.4504492"><ele>618.0</ele><time>2026-04-19T10:31:29.977Z</time></trkpt><trkpt lat="43.4905485" lon="11.4504728"><ele>618.0</ele><time>2026-04-19T10:31:30.966Z</time></trkpt><trkpt lat="43.4904089" lon="11.4504766"><ele>615.25</ele><time>2026-04-19T10:31:31.97Z</time></trkpt><trkpt lat="43.4902541" lon="11.4504776"><ele>612.5</ele><time>2026-04-19T10:31:32.972Z</time></trkpt><trkpt lat="43.490118" lon="11.4504388"><ele>609.75</ele><time>2026-04-19T10:31:33.971Z</time></trkpt><trkpt lat="43.4900011" lon="11.450394"><ele>607.0</ele><time>2026-04-19T10:31:34.973Z</time></trkpt><trkpt lat="43.4899077" lon="11.4503627"><ele>607.0</ele><time>2026-04-19T10:31:36.023Z</time></trkpt><trkpt lat="43.4898328" lon="11.4503594"><ele>607.0</ele><time>2026-04-19T10:31:36.975Z</time></trkpt><trkpt lat="43.4897789" lon="11.450434"><ele>607.0</ele><time>2026-04-19T10:31:38.974Z</time></trkpt><trkpt lat="43.4898927" lon="11.4505566"><ele>607.0</ele><time>2026-04-19T10:31:41.973Z</time></trkpt><trkpt lat="43.4899729" lon="11.4505872"><ele>607.0</ele><time>2026-04-19T10:31:42.972Z</time></trkpt><trkpt lat="43.4900577" lon="11.4506328"><ele>605.6</ele><time>2026-04-19T10:31:43.977Z</time></trkpt><trkpt lat="43.4901511" lon="11.4506839"><ele>604.2</ele><time>2026-04-19T10:31:44.969Z</time></trkpt><trkpt lat="43.4902528" lon="11.4507162"><ele>602.8</ele><time>2026-04-19T10:31:45.968Z</time></trkpt><trkpt lat="43.4903513" lon="11.450726"><ele>601.4</ele><time>2026-04-19T10:31:46.965Z</time></trkpt><trkpt lat="43.4904543" lon="11.4507115"><ele>600.0</ele><time>2026-04-19T10:31:47.974Z</time></trkpt><trkpt lat="43.4905389" lon="11.4506879"><ele>600.0</ele><time>2026-04-19T10:31:48.974Z</time></trkpt><trkpt lat="43.490616" lon="11.4506639"><ele>600.0</ele><time>2026-04-19T10:31:49.97Z</time></trkpt><trkpt lat="43.4906947" lon="11.4506396"><ele>600.0</ele><time>2026-04-19T10:31:50.972Z</time></trkpt><trkpt lat="43.4907862" lon="11.4506255"><ele>600.0</ele><time>2026-04-19T10:31:51.971Z</time></trkpt><trkpt lat="43.4908832" lon="11.4506224"><ele>600.0</ele><time>2026-04-19T10:31:52.971Z</time></trkpt><trkpt lat="43.4909842" lon="11.4506603"><ele>600.0</ele><time>2026-04-19T10:31:53.965Z</time></trkpt><trkpt lat="43.4910837" lon="11.4507088"><ele>600.0</ele><time>2026-04-19T10:31:54.967Z</time></trkpt><trkpt lat="43.4911854" lon="11.4508296"><ele>600.0</ele><time>2026-04-19T10:31:55.971Z</time></trkpt><trkpt lat="43.491273" lon="11.4509771"><ele>600.0</ele><time>2026-04-19T10:31:56.97Z</time></trkpt><trkpt lat="43.4913553" lon="11.4511041"><ele>599.25</ele><time>2026-04-19T10:31:57.967Z</time></trkpt><trkpt lat="43.4914493" lon="11.4512199"><ele>598.5</ele><time>2026-04-19T10:31:58.974Z</time></trkpt><trkpt lat="43.491572" lon="11.4512987"><ele>597.75</ele><time>2026-04-19T10:31:59.973Z</time></trkpt><trkpt lat="43.4916812" lon="11.4513363"><ele>597.0</ele><time>2026-04-19T10:32:00.974Z</time></trkpt><trkpt lat="43.4917922" lon="11.4513156"><ele>600.75</ele><time>2026-04-19T10:32:01.978Z</time></trkpt><trkpt lat="43.4918792" lon="11.4512535"><ele>604.5</ele><time>2026-04-19T10:32:02.969Z</time></trkpt><trkpt lat="43.4919858" lon="11.4511785"><ele>608.25</ele><time>2026-04-19T10:32:03.977Z</time></trkpt><trkpt lat="43.492102" lon="11.4511738"><ele>612.0</ele><time>2026-04-19T10:32:04.972Z</time></trkpt><trkpt lat="43.4922278" lon="11.4511842"><ele>612.75</ele><time>2026-04-19T10:32:05.97Z</time></trkpt><trkpt lat="43.4923357" lon="11.4511719"><ele>613.5</ele><time>2026-04-19T10:32:06.971Z</time></trkpt><trkpt lat="43.4924411" lon="11.4511088"><ele>614.25</ele><time>2026-04-19T10:32:07.971Z</time></trkpt><trkpt lat="43.4925357" lon="11.4510109"><ele>615.0</ele><time>2026-04-19T10:32:08.966Z</time></trkpt><trkpt lat="43.4926377" lon="11.450899"><ele>615.0</ele><time>2026-04-19T10:32:09.97Z</time></trkpt><trkpt lat="43.4927672" lon="11.4507978"><ele>615.0</ele><time>2026-04-19T10:32:10.967Z</time></trkpt><trkpt lat="43.4928984" lon="11.4507454"><ele>615.0</ele><time>2026-04-19T10:32:11.968Z</time></trkpt><trkpt lat="43.4930122" lon="11.450698"><ele>615.0</ele><time>2026-04-19T10:32:12.967Z</time></trkpt><trkpt lat="43.4931147" lon="11.4506489"><ele>615.4</ele><time>2026-04-19T10:32:13.972Z</time></trkpt><trkpt lat="43.4932137" lon="11.4506005"><ele>615.8</ele><time>2026-04-19T10:32:14.967Z</time></trkpt><trkpt lat="43.4932996" lon="11.4505419"><ele>616.2</ele><time>2026-04-19T10:32:15.975Z</time></trkpt><trkpt lat="43.4933848" lon="11.4504967"><ele>616.6</ele><time>2026-04-19T10:32:16.97Z</time></trkpt><trkpt lat="43.493464" lon="11.4504427"><ele>617.0</ele><time>2026-04-19T10:32:17.965Z</time></trkpt><trkpt lat="43.4935343" lon="11.4503986"><ele>617.0</ele><time>2026-04-19T10:32:18.97Z</time></trkpt><trkpt lat="43.4936026" lon="11.4504012"><ele>617.0</ele><time>2026-04-19T10:32:19.969Z</time></trkpt><trkpt lat="43.4936793" lon="11.4504655"><ele>617.0</ele><time>2026-04-19T10:32:20.971Z</time></trkpt><trkpt lat="43.4937321" lon="11.4505649"><ele>617.0</ele><time>2026-04-19T10:32:21.968Z</time></trkpt><trkpt lat="43.4937473" lon="11.4506799"><ele>617.0</ele><time>2026-04-19T10:32:22.96Z</time></trkpt><trkpt lat="43.4937494" lon="11.4508177"><ele>617.0</ele><time>2026-04-19T10:32:23.967Z</time></trkpt><trkpt lat="43.493729" lon="11.4509687"><ele>617.0</ele><time>2026-04-19T10:32:24.965Z</time></trkpt><trkpt lat="43.4937176" lon="11.4510995"><ele>617.0</ele><time>2026-04-19T10:32:25.973Z</time></trkpt><trkpt lat="43.493728" lon="11.4512124"><ele>617.0</ele><time>2026-04-19T10:32:26.973Z</time></trkpt><trkpt lat="43.4937738" lon="11.4513008"><ele>617.0</ele><time>2026-04-19T10:32:27.969Z</time></trkpt><trkpt lat="43.4938418" lon="11.4513295"><ele>617.0</ele><time>2026-04-19T10:32:28.969Z</time></trkpt><trkpt lat="43.4939063" lon="11.4513253"><ele>617.0</ele><time>2026-04-19T10:32:29.976Z</time></trkpt><trkpt lat="43.4939717" lon="11.4512884"><ele>617.8333333333333</ele><time>2026-04-19T10:32:30.98Z</time></trkpt><trkpt lat="43.4940526" lon="11.4512368"><ele>618.6666666666666</ele><time>2026-04-19T10:32:31.97Z</time></trkpt><trkpt lat="43.4941364" lon="11.4512043"><ele>619.5</ele><time>2026-04-19T10:32:32.968Z</time></trkpt><trkpt lat="43.4942113" lon="11.4511987"><ele>620.3333333333334</ele><time>2026-04-19T10:32:33.962Z</time></trkpt><trkpt lat="43.4942925" lon="11.4511927"><ele>621.1666666666667</ele><time>2026-04-19T10:32:34.97Z</time></trkpt><trkpt lat="43.494375" lon="11.4511918"><ele>622.0</ele><time>2026-04-19T10:32:35.972Z</time></trkpt><trkpt lat="43.4944489" lon="11.4511896"><ele>622.0</ele><time>2026-04-19T10:32:36.972Z</time></trkpt><trkpt lat="43.4945213" lon="11.4511845"><ele>622.0</ele><time>2026-04-19T10:32:37.969Z</time></trkpt><trkpt lat="43.4945894" lon="11.4511814"><ele>622.0</ele><time>2026-04-19T10:32:38.969Z</time></trkpt><trkpt lat="43.4946902" lon="11.451142"><ele>622.0</ele><time>2026-04-19T10:32:40.971Z</time></trkpt><trkpt lat="43.4947242" lon="11.4510127"><ele>622.0</ele><time>2026-04-19T10:32:42.976Z</time></trkpt><trkpt lat="43.4947146" lon="11.4509209"><ele>622.0</ele><time>2026-04-19T10:32:43.969Z</time></trkpt><trkpt lat="43.4947011" lon="11.4508255"><ele>622.0</ele><time>2026-04-19T10:32:44.975Z</time></trkpt><trkpt lat="43.4946805" lon="11.4507395"><ele>622.0</ele><time>2026-04-19T10:32:45.973Z</time></trkpt><trkpt lat="43.4946433" lon="11.4505806"><ele>622.0</ele><time>2026-04-19T10:32:47.983Z</time></trkpt><trkpt lat="43.4946324" lon="11.4504264"><ele>622.0</ele><time>2026-04-19T10:32:49.971Z</time></trkpt><trkpt lat="43.4946871" lon="11.4503121"><ele>622.0</ele><time>2026-04-19T10:32:51.967Z</time></trkpt><trkpt lat="43.4947566" lon="11.4502706"><ele>623.3333333333334</ele><time>2026-04-19T10:32:52.964Z</time></trkpt><trkpt lat="43.4948545" lon="11.4502557"><ele>624.6666666666667</ele><time>2026-04-19T10:32:53.975Z</time></trkpt><trkpt lat="43.4949389" lon="11.4502386"><ele>626.0</ele><time>2026-04-19T10:32:54.966Z</time></trkpt><trkpt lat="43.495013" lon="11.4502066"><ele>627.3333333333334</ele><time>2026-04-19T10:32:55.969Z</time></trkpt><trkpt lat="43.495082" lon="11.4501712"><ele>628.6666666666666</ele><time>2026-04-19T10:32:56.971Z</time></trkpt><trkpt lat="43.4951403" lon="11.4501313"><ele>630.0</ele><time>2026-04-19T10:32:57.97Z</time></trkpt><trkpt lat="43.4952497" lon="11.4500499"><ele>630.0</ele><time>2026-04-19T10:32:59.97Z</time></trkpt><trkpt lat="43.4953027" lon="11.4499766"><ele>630.0</ele><time>2026-04-19T10:33:01.971Z</time></trkpt><trkpt lat="43.4953568" lon="11.4498921"><ele>630.0</ele><time>2026-04-19T10:33:04.967Z</time></trkpt><trkpt lat="43.4954071" lon="11.449821"><ele>630.0</ele><time>2026-04-19T10:33:06.972Z</time></trkpt><trkpt lat="43.4954649" lon="11.4497533"><ele>630.0</ele><time>2026-04-19T10:33:08.972Z</time></trkpt><trkpt lat="43.4954981" lon="11.4496768"><ele>630.0</ele><time>2026-04-19T10:33:10.983Z</time></trkpt><trkpt lat="43.4955024" lon="11.4495415"><ele>630.5</ele><time>2026-04-19T10:33:12.971Z</time></trkpt><trkpt lat="43.4954858" lon="11.4493734"><ele>631.0</ele><time>2026-04-19T10:33:14.973Z</time></trkpt><trkpt lat="43.4954883" lon="11.4492863"><ele>631.5</ele><time>2026-04-19T10:33:15.978Z</time></trkpt><trkpt lat="43.4954945" lon="11.4491886"><ele>632.0</ele><time>2026-04-19T10:33:16.971Z</time></trkpt><trkpt lat="43.4955019" lon="11.449093"><ele>632.5</ele><time>2026-04-19T10:33:17.981Z</time></trkpt><trkpt lat="43.4955114" lon="11.448999"><ele>633.0</ele><time>2026-04-19T10:33:18.97Z</time></trkpt><trkpt lat="43.4955174" lon="11.4488985"><ele>633.0</ele><time>2026-04-19T10:33:19.974Z</time></trkpt><trkpt lat="43.4955219" lon="11.4488034"><ele>633.0</ele><time>2026-04-19T10:33:20.972Z</time></trkpt><trkpt lat="43.4955261" lon="11.4486902"><ele>633.0</ele><time>2026-04-19T10:33:21.973Z</time></trkpt><trkpt lat="43.4955316" lon="11.4485716"><ele>633.0</ele><time>2026-04-19T10:33:22.97Z</time></trkpt><trkpt lat="43.4955427" lon="11.4484657"><ele>633.0</ele><time>2026-04-19T10:33:23.971Z</time></trkpt><trkpt lat="43.4955736" lon="11.448315"><ele>633.0</ele><time>2026-04-19T10:33:25.974Z</time></trkpt><trkpt lat="43.4955802" lon="11.4482265"><ele>636.4</ele><time>2026-04-19T10:33:26.972Z</time></trkpt><trkpt lat="43.4955877" lon="11.4481182"><ele>639.8</ele><time>2026-04-19T10:33:27.973Z</time></trkpt><trkpt lat="43.4955638" lon="11.4479565"><ele>643.2</ele><time>2026-04-19T10:33:29.97Z</time></trkpt><trkpt lat="43.4955514" lon="11.4478207"><ele>646.6</ele><time>2026-04-19T10:33:31.968Z</time></trkpt><trkpt lat="43.4955883" lon="11.4477314"><ele>650.0</ele><time>2026-04-19T10:33:33.968Z</time></trkpt><trkpt lat="43.4956587" lon="11.4475943"><ele>654.6</ele><time>2026-04-19T10:33:35.97Z</time></trkpt><trkpt lat="43.4957265" lon="11.4474939"><ele>659.2</ele><time>2026-04-19T10:33:37.967Z</time></trkpt><trkpt lat="43.495813" lon="11.4473648"><ele>663.8</ele><time>2026-04-19T10:33:39.973Z</time></trkpt><trkpt lat="43.4958596" lon="11.4472875"><ele>668.4</ele><time>2026-04-19T10:33:40.967Z</time></trkpt><trkpt lat="43.4959622" lon="11.4472159"><ele>673.0</ele><time>2026-04-19T10:33:42.972Z</time></trkpt><trkpt lat="43.4960494" lon="11.4472605"><ele>673.0</ele><time>2026-04-19T10:33:44.983Z</time></trkpt><trkpt lat="43.4961543" lon="11.4473143"><ele>673.0</ele><time>2026-04-19T10:33:46.97Z</time></trkpt><trkpt lat="43.4962339" lon="11.447362"><ele>673.0</ele><time>2026-04-19T10:33:48.97Z</time></trkpt><trkpt lat="43.4963412" lon="11.4474268"><ele>673.0</ele><time>2026-04-19T10:33:50.971Z</time></trkpt><trkpt lat="43.4964596" lon="11.4474734"><ele>673.0</ele><time>2026-04-19T10:33:52.978Z</time></trkpt><trkpt lat="43.4965803" lon="11.4474537"><ele>672.3333333333334</ele><time>2026-04-19T10:33:54.971Z</time></trkpt><trkpt lat="43.4966939" lon="11.4474052"><ele>671.6666666666667</ele><time>2026-04-19T10:33:56.981Z</time></trkpt><trkpt lat="43.496757" lon="11.4473667"><ele>671.0</ele><time>2026-04-19T10:33:57.968Z</time></trkpt><trkpt lat="43.4968249" lon="11.4473051"><ele>670.3333333333334</ele><time>2026-04-19T10:33:58.976Z</time></trkpt><trkpt lat="43.4968824" lon="11.4472253"><ele>669.6666666666666</ele><time>2026-04-19T10:33:59.973Z</time></trkpt><trkpt lat="43.4969399" lon="11.4471484"><ele>669.0</ele><time>2026-04-19T10:34:00.971Z</time></trkpt><trkpt lat="43.496996" lon="11.4470936"><ele>673.1428571428571</ele><time>2026-04-19T10:34:01.974Z</time></trkpt><trkpt lat="43.4970506" lon="11.4470463"><ele>677.2857142857142</ele><time>2026-04-19T10:34:02.974Z</time></trkpt><trkpt lat="43.4971074" lon="11.4470036"><ele>681.4285714285713</ele><time>2026-04-19T10:34:03.993Z</time></trkpt><trkpt lat="43.4971707" lon="11.4469658"><ele>685.5714285714286</ele><time>2026-04-19T10:34:04.969Z</time></trkpt><trkpt lat="43.4972323" lon="11.4469409"><ele>689.7142857142857</ele><time>2026-04-19T10:34:05.975Z</time></trkpt><trkpt lat="43.4973066" lon="11.446899"><ele>693.8571428571428</ele><time>2026-04-19T10:34:06.965Z</time></trkpt><trkpt lat="43.4973817" lon="11.4468684"><ele>698.0</ele><time>2026-04-19T10:34:07.972Z</time></trkpt><trkpt lat="43.4974633" lon="11.4468509"><ele>698.0</ele><time>2026-04-19T10:34:08.968Z</time></trkpt><trkpt lat="43.4975532" lon="11.4469052"><ele>698.0</ele><time>2026-04-19T10:34:10.979Z</time></trkpt><trkpt lat="43.4975591" lon="11.4469936"><ele>698.0</ele><time>2026-04-19T10:34:12.973Z</time></trkpt><trkpt lat="43.4975859" lon="11.4471025"><ele>698.0</ele><time>2026-04-19T10:34:14.974Z</time></trkpt><trkpt lat="43.4976061" lon="11.4472236"><ele>698.0</ele><time>2026-04-19T10:34:16.974Z</time></trkpt><trkpt lat="43.4976208" lon="11.4473401"><ele>698.0</ele><time>2026-04-19T10:34:18.97Z</time></trkpt><trkpt lat="43.4976586" lon="11.4474973"><ele>694.5</ele><time>2026-04-19T10:34:20.966Z</time></trkpt><trkpt lat="43.4976825" lon="11.4475887"><ele>691.0</ele><time>2026-04-19T10:34:21.972Z</time></trkpt><trkpt lat="43.4977121" lon="11.4476899"><ele>687.5</ele><time>2026-04-19T10:34:22.968Z</time></trkpt><trkpt lat="43.4977415" lon="11.4477842"><ele>684.0</ele><time>2026-04-19T10:34:23.962Z</time></trkpt><trkpt lat="43.4977767" lon="11.4478825"><ele>680.5</ele><time>2026-04-19T10:34:24.969Z</time></trkpt><trkpt lat="43.4978211" lon="11.4479692"><ele>677.0</ele><time>2026-04-19T10:34:25.973Z</time></trkpt><trkpt lat="43.4978757" lon="11.4480413"><ele>680.4000000000001</ele><time>2026-04-19T10:34:26.97Z</time></trkpt><trkpt lat="43.4979276" lon="11.4481031"><ele>683.8000000000001</ele><time>2026-04-19T10:34:27.967Z</time></trkpt><trkpt lat="43.4979933" lon="11.4482436"><ele>687.2</ele><time>2026-04-19T10:34:29.972Z</time></trkpt><trkpt lat="43.4980553" lon="11.4483892"><ele>690.6</ele><time>2026-04-19T10:34:31.979Z</time></trkpt><trkpt lat="43.4981184" lon="11.4485218"><ele>694.0</ele><time>2026-04-19T10:34:33.98Z</time></trkpt><trkpt lat="43.4981915" lon="11.4486721"><ele>694.0</ele><time>2026-04-19T10:34:35.976Z</time></trkpt><trkpt lat="43.4982347" lon="11.4487494"><ele>694.0</ele><time>2026-04-19T10:34:36.992Z</time></trkpt><trkpt lat="43.498288" lon="11.4488327"><ele>694.0</ele><time>2026-04-19T10:34:37.973Z</time></trkpt><trkpt lat="43.498331" lon="11.4489016"><ele>694.0</ele><time>2026-04-19T10:34:38.973Z</time></trkpt><trkpt lat="43.4984064" lon="11.4489981"><ele>694.0</ele><time>2026-04-19T10:34:40.969Z</time></trkpt><trkpt lat="43.4985099" lon="11.4490511"><ele>694.0</ele><time>2026-04-19T10:34:42.972Z</time></trkpt><trkpt lat="43.4985976" lon="11.4489992"><ele>692.4000000000001</ele><time>2026-04-19T10:34:44.97Z</time></trkpt><trkpt lat="43.498676" lon="11.4488868"><ele>690.8</ele><time>2026-04-19T10:34:46.974Z</time></trkpt><trkpt lat="43.498746" lon="11.4488215"><ele>689.2</ele><time>2026-04-19T10:34:48.993Z</time></trkpt><trkpt lat="43.4988016" lon="11.4487433"><ele>687.5999999999999</ele><time>2026-04-19T10:34:50.968Z</time></trkpt><trkpt lat="43.4988948" lon="11.4486699"><ele>686.0</ele><time>2026-04-19T10:34:53.001Z</time></trkpt><trkpt lat="43.4989527" lon="11.4486151"><ele>689.5999999999999</ele><time>2026-04-19T10:34:53.976Z</time></trkpt><trkpt lat="43.499009" lon="11.4485391"><ele>693.2</ele><time>2026-04-19T10:34:54.972Z</time></trkpt><trkpt lat="43.4990719" lon="11.4484534"><ele>696.8</ele><time>2026-04-19T10:34:55.97Z</time></trkpt><trkpt lat="43.4991445" lon="11.4483743"><ele>700.4000000000001</ele><time>2026-04-19T10:34:56.967Z</time></trkpt><trkpt lat="43.4992316" lon="11.4483195"><ele>704.0</ele><time>2026-04-19T10:34:57.974Z</time></trkpt><trkpt lat="43.4993188" lon="11.4482669"><ele>704.0</ele><time>2026-04-19T10:34:58.974Z</time></trkpt><trkpt lat="43.4993867" lon="11.4482226"><ele>704.0</ele><time>2026-04-19T10:34:59.97Z</time></trkpt><trkpt lat="43.4994546" lon="11.4481971"><ele>704.0</ele><time>2026-04-19T10:35:00.969Z</time></trkpt><trkpt lat="43.4995211" lon="11.4481758"><ele>704.0</ele><time>2026-04-19T10:35:01.984Z</time></trkpt><trkpt lat="43.4995819" lon="11.4481358"><ele>704.0</ele><time>2026-04-19T10:35:02.974Z</time></trkpt><trkpt lat="43.4996354" lon="11.4480803"><ele>704.0</ele><time>2026-04-19T10:35:03.977Z</time></trkpt><trkpt lat="43.4996914" lon="11.448009"><ele>704.0</ele><time>2026-04-19T10:35:04.975Z</time></trkpt><trkpt lat="43.499739" lon="11.4479181"><ele>706.2</ele><time>2026-04-19T10:35:05.972Z</time></trkpt><trkpt lat="43.4997793" lon="11.4478192"><ele>708.4000000000001</ele><time>2026-04-19T10:35:06.997Z</time></trkpt><trkpt lat="43.499819" lon="11.4477186"><ele>710.6</ele><time>2026-04-19T10:35:07.974Z</time></trkpt><trkpt lat="43.4998505" lon="11.4476119"><ele>712.8</ele><time>2026-04-19T10:35:08.971Z</time></trkpt><trkpt lat="43.4998692" lon="11.4475069"><ele>715.0</ele><time>2026-04-19T10:35:09.971Z</time></trkpt><trkpt lat="43.4999265" lon="11.4473518"><ele>715.0</ele><time>2026-04-19T10:35:11.969Z</time></trkpt><trkpt lat="43.4999507" lon="11.4472453"><ele>715.0</ele><time>2026-04-19T10:35:12.97Z</time></trkpt><trkpt lat="43.4999683" lon="11.4471261"><ele>715.0</ele><time>2026-04-19T10:35:13.965Z</time></trkpt><trkpt lat="43.4999703" lon="11.447028"><ele>715.0</ele><time>2026-04-19T10:35:14.972Z</time></trkpt><trkpt lat="43.49997" lon="11.4468542"><ele>715.0</ele><time>2026-04-19T10:35:16.969Z</time></trkpt><trkpt lat="43.4999715" lon="11.4467557"><ele>715.0</ele><time>2026-04-19T10:35:17.967Z</time></trkpt><trkpt lat="43.4999747" lon="11.4466606"><ele>717.5</ele><time>2026-04-19T10:35:18.969Z</time></trkpt><trkpt lat="43.4999866" lon="11.4465533"><ele>720.0</ele><time>2026-04-19T10:35:19.973Z</time></trkpt><trkpt lat="43.5000171" lon="11.4464629"><ele>722.5</ele><time>2026-04-19T10:35:20.981Z</time></trkpt><trkpt lat="43.5001293" lon="11.4463696"><ele>725.0</ele><time>2026-04-19T10:35:22.97Z</time></trkpt><trkpt lat="43.5002014" lon="11.4463421"><ele>727.5</ele><time>2026-04-19T10:35:23.973Z</time></trkpt><trkpt lat="43.5002669" lon="11.4462996"><ele>730.0</ele><time>2026-04-19T10:35:24.973Z</time></trkpt><trkpt lat="43.5003361" lon="11.4462373"><ele>732.3333333333334</ele><time>2026-04-19T10:35:25.979Z</time></trkpt><trkpt lat="43.5003908" lon="11.4461757"><ele>734.6666666666667</ele><time>2026-04-19T10:35:26.97Z</time></trkpt><trkpt lat="43.5004408" lon="11.4460886"><ele>737.0</ele><time>2026-04-19T10:35:27.975Z</time></trkpt><trkpt lat="43.5004781" lon="11.4460156"><ele>739.3333333333334</ele><time>2026-04-19T10:35:28.969Z</time></trkpt><trkpt lat="43.5004936" lon="11.4459049"><ele>741.6666666666666</ele><time>2026-04-19T10:35:29.968Z</time></trkpt><trkpt lat="43.5005022" lon="11.4457884"><ele>744.0</ele><time>2026-04-19T10:35:30.969Z</time></trkpt><trkpt lat="43.5005111" lon="11.4456727"><ele>740.0</ele><time>2026-04-19T10:35:31.966Z</time></trkpt><trkpt lat="43.500517" lon="11.4455584"><ele>736.0</ele><time>2026-04-19T10:35:32.994Z</time></trkpt><trkpt lat="43.5005216" lon="11.4454524"><ele>732.0</ele><time>2026-04-19T10:35:33.975Z</time></trkpt><trkpt lat="43.5005278" lon="11.445346"><ele>728.0</ele><time>2026-04-19T10:35:34.969Z</time></trkpt><trkpt lat="43.5005276" lon="11.4452485"><ele>724.0</ele><time>2026-04-19T10:35:35.97Z</time></trkpt><trkpt lat="43.5005313" lon="11.4451565"><ele>720.0</ele><time>2026-04-19T10:35:36.971Z</time></trkpt><trkpt lat="43.5005585" lon="11.4450205"><ele>720.0</ele><time>2026-04-19T10:35:38.973Z</time></trkpt><trkpt lat="43.5005984" lon="11.4449233"><ele>720.0</ele><time>2026-04-19T10:35:40.965Z</time></trkpt><trkpt lat="43.5006555" lon="11.4448249"><ele>720.0</ele><time>2026-04-19T10:35:42.974Z</time></trkpt><trkpt lat="43.5007027" lon="11.4446945"><ele>720.0</ele><time>2026-04-19T10:35:44.973Z</time></trkpt><trkpt lat="43.5007333" lon="11.444618"><ele>720.0</ele><time>2026-04-19T10:35:45.975Z</time></trkpt><trkpt lat="43.5007589" lon="11.4444667"><ele>719.4</ele><time>2026-04-19T10:35:47.977Z</time></trkpt><trkpt lat="43.5007705" lon="11.4443134"><ele>718.8</ele><time>2026-04-19T10:35:49.976Z</time></trkpt><trkpt lat="43.5007564" lon="11.444138"><ele>718.2</ele><time>2026-04-19T10:35:51.992Z</time></trkpt><trkpt lat="43.5007355" lon="11.4440524"><ele>717.6</ele><time>2026-04-19T10:35:52.969Z</time></trkpt><trkpt lat="43.5007117" lon="11.4439613"><ele>717.0</ele><time>2026-04-19T10:35:53.97Z</time></trkpt><trkpt lat="43.5006618" lon="11.443827"><ele>716.8333333333334</ele><time>2026-04-19T10:35:55.97Z</time></trkpt><trkpt lat="43.5006305" lon="11.4437284"><ele>716.6666666666666</ele><time>2026-04-19T10:35:57.974Z</time></trkpt><trkpt lat="43.5006171" lon="11.4436402"><ele>716.5</ele><time>2026-04-19T10:35:59.971Z</time></trkpt><trkpt lat="43.5006199" lon="11.4435415"><ele>716.3333333333333</ele><time>2026-04-19T10:36:01.968Z</time></trkpt><trkpt lat="43.5006203" lon="11.4434059"><ele>716.1666666666666</ele><time>2026-04-19T10:36:03.976Z</time></trkpt><trkpt lat="43.5006174" lon="11.443292"><ele>716.0</ele><time>2026-04-19T10:36:05.971Z</time></trkpt><trkpt lat="43.500596" lon="11.4431403"><ele>716.0</ele><time>2026-04-19T10:36:07.971Z</time></trkpt><trkpt lat="43.5005976" lon="11.4429844"><ele>716.0</ele><time>2026-04-19T10:36:09.967Z</time></trkpt><trkpt lat="43.5006027" lon="11.442888"><ele>716.0</ele><time>2026-04-19T10:36:10.972Z</time></trkpt><trkpt lat="43.5006222" lon="11.4427533"><ele>716.0</ele><time>2026-04-19T10:36:12.967Z</time></trkpt><trkpt lat="43.5007338" lon="11.4426382"><ele>716.0</ele><time>2026-04-19T10:36:15.976Z</time></trkpt><trkpt lat="43.5008396" lon="11.4425987"><ele>714.8</ele><time>2026-04-19T10:36:17.97Z</time></trkpt><trkpt lat="43.5009178" lon="11.4426001"><ele>713.5999999999999</ele><time>2026-04-19T10:36:19.982Z</time></trkpt><trkpt lat="43.5010231" lon="11.4426233"><ele>712.4</ele><time>2026-04-19T10:36:21.971Z</time></trkpt><trkpt lat="43.5011264" lon="11.4426497"><ele>711.2</ele><time>2026-04-19T10:36:23.97Z</time></trkpt><trkpt lat="43.5012097" lon="11.4426624"><ele>710.0</ele><time>2026-04-19T10:36:25.963Z</time></trkpt><trkpt lat="43.5012997" lon="11.4426279"><ele>710.0</ele><time>2026-04-19T10:36:28.967Z</time></trkpt><trkpt lat="43.5013587" lon="11.4425498"><ele>710.0</ele><time>2026-04-19T10:36:30.979Z</time></trkpt><trkpt lat="43.5013966" lon="11.4424319"><ele>710.0</ele><time>2026-04-19T10:36:32.972Z</time></trkpt><trkpt lat="43.5014188" lon="11.4422612"><ele>710.0</ele><time>2026-04-19T10:36:34.968Z</time></trkpt><trkpt lat="43.5014461" lon="11.4421271"><ele>710.0</ele><time>2026-04-19T10:36:36.973Z</time></trkpt><trkpt lat="43.5014967" lon="11.4419958"><ele>714.2</ele><time>2026-04-19T10:36:38.973Z</time></trkpt><trkpt lat="43.5015891" lon="11.441896"><ele>718.4</ele><time>2026-04-19T10:36:40.975Z</time></trkpt><trkpt lat="43.5016649" lon="11.4418154"><ele>722.5999999999999</ele><time>2026-04-19T10:36:42.97Z</time></trkpt><trkpt lat="43.501724" lon="11.4417175"><ele>726.8</ele><time>2026-04-19T10:36:44.972Z</time></trkpt><trkpt lat="43.5017792" lon="11.4415786"><ele>731.0</ele><time>2026-04-19T10:36:46.976Z</time></trkpt><trkpt lat="43.5018283" lon="11.4414541"><ele>731.0</ele><time>2026-04-19T10:36:48.988Z</time></trkpt><trkpt lat="43.5018659" lon="11.4413578"><ele>731.0</ele><time>2026-04-19T10:36:50.97Z</time></trkpt><trkpt lat="43.5019361" lon="11.4413006"><ele>731.0</ele><time>2026-04-19T10:36:57.964Z</time></trkpt><trkpt lat="43.5020416" lon="11.4413365"><ele>731.0</ele><time>2026-04-19T10:37:01.972Z</time></trkpt><trkpt lat="43.5021626" lon="11.441413"><ele>731.0</ele><time>2026-04-19T10:37:03.965Z</time></trkpt><trkpt lat="43.5022254" lon="11.4414432"><ele>728.1999999999999</ele><time>2026-04-19T10:37:04.973Z</time></trkpt><trkpt lat="43.5022873" lon="11.4414601"><ele>725.4</ele><time>2026-04-19T10:37:05.972Z</time></trkpt><trkpt lat="43.502411" lon="11.4415038"><ele>722.6</ele><time>2026-04-19T10:37:07.976Z</time></trkpt><trkpt lat="43.5024782" lon="11.4415122"><ele>719.8</ele><time>2026-04-19T10:37:08.985Z</time></trkpt><trkpt lat="43.5025784" lon="11.4414763"><ele>717.0</ele><time>2026-04-19T10:37:10.967Z</time></trkpt><trkpt lat="43.50266" lon="11.4413805"><ele>717.0</ele><time>2026-04-19T10:37:12.97Z</time></trkpt><trkpt lat="43.5026902" lon="11.4413008"><ele>717.0</ele><time>2026-04-19T10:37:13.978Z</time></trkpt><trkpt lat="43.5027174" lon="11.4412201"><ele>717.0</ele><time>2026-04-19T10:37:14.974Z</time></trkpt><trkpt lat="43.5027422" lon="11.4410513"><ele>717.0</ele><time>2026-04-19T10:37:16.971Z</time></trkpt><trkpt lat="43.5027488" lon="11.4409539"><ele>717.0</ele><time>2026-04-19T10:37:17.973Z</time></trkpt><trkpt lat="43.5027571" lon="11.4408567"><ele>717.0</ele><time>2026-04-19T10:37:18.967Z</time></trkpt><trkpt lat="43.5027645" lon="11.440764"><ele>718.4000000000001</ele><time>2026-04-19T10:37:19.97Z</time></trkpt><trkpt lat="43.5028184" lon="11.4406135"><ele>719.8000000000001</ele><time>2026-04-19T10:37:21.971Z</time></trkpt><trkpt lat="43.5028547" lon="11.440489"><ele>721.2</ele><time>2026-04-19T10:37:23.975Z</time></trkpt><trkpt lat="43.5028908" lon="11.4404092"><ele>722.6</ele><time>2026-04-19T10:37:24.97Z</time></trkpt><trkpt lat="43.5029602" lon="11.4402544"><ele>724.0</ele><time>2026-04-19T10:37:26.969Z</time></trkpt><trkpt lat="43.502998" lon="11.4401845"><ele>724.0</ele><time>2026-04-19T10:37:27.968Z</time></trkpt><trkpt lat="43.5030513" lon="11.4400666"><ele>724.0</ele><time>2026-04-19T10:37:29.973Z</time></trkpt><trkpt lat="43.5030954" lon="11.4399564"><ele>724.0</ele><time>2026-04-19T10:37:31.968Z</time></trkpt><trkpt lat="43.5031332" lon="11.4398768"><ele>724.0</ele><time>2026-04-19T10:37:32.977Z</time></trkpt><trkpt lat="43.5031659" lon="11.4397987"><ele>724.0</ele><time>2026-04-19T10:37:33.972Z</time></trkpt><trkpt lat="43.5031971" lon="11.4397084"><ele>724.0</ele><time>2026-04-19T10:37:34.969Z</time></trkpt><trkpt lat="43.5032361" lon="11.4396096"><ele>726.5714285714286</ele><time>2026-04-19T10:37:35.974Z</time></trkpt><trkpt lat="43.5032701" lon="11.4395153"><ele>729.1428571428571</ele><time>2026-04-19T10:37:36.966Z</time></trkpt><trkpt lat="43.5032959" lon="11.439435"><ele>731.7142857142858</ele><time>2026-04-19T10:37:37.967Z</time></trkpt><trkpt lat="43.503313" lon="11.4393488"><ele>734.2857142857142</ele><time>2026-04-19T10:37:38.97Z</time></trkpt><trkpt lat="43.5033262" lon="11.4392535"><ele>736.8571428571429</ele><time>2026-04-19T10:37:39.972Z</time></trkpt><trkpt lat="43.5033373" lon="11.4391568"><ele>739.4285714285714</ele><time>2026-04-19T10:37:40.968Z</time></trkpt><trkpt lat="43.5033394" lon="11.4390619"><ele>742.0</ele><time>2026-04-19T10:37:41.974Z</time></trkpt><trkpt lat="43.5033256" lon="11.438893"><ele>742.0</ele><time>2026-04-19T10:37:43.971Z</time></trkpt><trkpt lat="43.5033289" lon="11.4388017"><ele>742.0</ele><time>2026-04-19T10:37:44.968Z</time></trkpt><trkpt lat="43.5033332" lon="11.4387087"><ele>742.0</ele><time>2026-04-19T10:37:45.965Z</time></trkpt><trkpt lat="43.5033392" lon="11.4386217"><ele>742.0</ele><time>2026-04-19T10:37:46.968Z</time></trkpt><trkpt lat="43.5033821" lon="11.4385437"><ele>742.0</ele><time>2026-04-19T10:37:47.984Z</time></trkpt><trkpt lat="43.503342" lon="11.4384654"><ele>742.0</ele><time>2026-04-19T10:37:52.971Z</time></trkpt><trkpt lat="43.5032269" lon="11.4384554"><ele>742.0</ele><time>2026-04-19T10:37:54.983Z</time></trkpt><trkpt lat="43.5031511" lon="11.4384535"><ele>742.0</ele><time>2026-04-19T10:37:55.968Z</time></trkpt><trkpt lat="43.5030637" lon="11.4384363"><ele>742.0</ele><time>2026-04-19T10:37:56.97Z</time></trkpt><trkpt lat="43.5029696" lon="11.4384195"><ele>742.0</ele><time>2026-04-19T10:37:57.967Z</time></trkpt><trkpt lat="43.5028758" lon="11.4384069"><ele>742.0</ele><time>2026-04-19T10:37:58.976Z</time></trkpt><trkpt lat="43.502806" lon="11.4384005"><ele>742.0</ele><time>2026-04-19T10:37:59.974Z</time></trkpt><trkpt lat="43.5026818" lon="11.438374"><ele>744.8333333333334</ele><time>2026-04-19T10:38:01.973Z</time></trkpt><trkpt lat="43.5026107" lon="11.4383651"><ele>747.6666666666667</ele><time>2026-04-19T10:38:02.974Z</time></trkpt><trkpt lat="43.5025422" lon="11.4383443"><ele>750.5</ele><time>2026-04-19T10:38:03.971Z</time></trkpt><trkpt lat="43.5024614" lon="11.4383277"><ele>753.3333333333334</ele><time>2026-04-19T10:38:04.978Z</time></trkpt><trkpt lat="43.5023728" lon="11.4383255"><ele>756.1666666666666</ele><time>2026-04-19T10:38:05.971Z</time></trkpt><trkpt lat="43.5022795" lon="11.4383586"><ele>759.0</ele><time>2026-04-19T10:38:06.978Z</time></trkpt><trkpt lat="43.5021957" lon="11.4384182"><ele>759.0</ele><time>2026-04-19T10:38:07.974Z</time></trkpt><trkpt lat="43.5021245" lon="11.4384515"><ele>759.0</ele><time>2026-04-19T10:38:08.976Z</time></trkpt><trkpt lat="43.5020303" lon="11.4385021"><ele>759.0</ele><time>2026-04-19T10:38:10.98Z</time></trkpt><trkpt lat="43.5019617" lon="11.4385318"><ele>759.0</ele><time>2026-04-19T10:39:00.978Z</time></trkpt><trkpt lat="43.5019949" lon="11.438457"><ele>759.0</ele><time>2026-04-19T10:39:10.987Z</time></trkpt><trkpt lat="43.502048" lon="11.4384093"><ele>759.0</ele><time>2026-04-19T10:39:12.975Z</time></trkpt><trkpt lat="43.5021114" lon="11.4383648"><ele>759.0</ele><time>2026-04-19T10:39:13.974Z</time></trkpt><trkpt lat="43.5021942" lon="11.4383342"><ele>759.0</ele><time>2026-04-19T10:39:14.973Z</time></trkpt><trkpt lat="43.5022668" lon="11.438329"><ele>759.0</ele><time>2026-04-19T10:39:15.972Z</time></trkpt><trkpt lat="43.5023394" lon="11.4383303"><ele>759.0</ele><time>2026-04-19T10:39:16.974Z</time></trkpt><trkpt lat="43.5024104" lon="11.4383319"><ele>759.0</ele><time>2026-04-19T10:39:17.98Z</time></trkpt><trkpt lat="43.5024788" lon="11.4383249"><ele>759.0</ele><time>2026-04-19T10:39:18.977Z</time></trkpt><trkpt lat="43.5025567" lon="11.438338"><ele>759.0</ele><time>2026-04-19T10:39:19.991Z</time></trkpt><trkpt lat="43.5026414" lon="11.4383485"><ele>759.0</ele><time>2026-04-19T10:39:20.976Z</time></trkpt><trkpt lat="43.502719" lon="11.4383597"><ele>759.0</ele><time>2026-04-19T10:39:21.977Z</time></trkpt><trkpt lat="43.5027919" lon="11.438378"><ele>759.0</ele><time>2026-04-19T10:39:22.973Z</time></trkpt><trkpt lat="43.5028682" lon="11.4383872"><ele>759.0</ele><time>2026-04-19T10:39:23.973Z</time></trkpt><trkpt lat="43.5029408" lon="11.4384"><ele>759.0</ele><time>2026-04-19T10:39:24.978Z</time></trkpt><trkpt lat="43.5030078" lon="11.4384075"><ele>759.0</ele><time>2026-04-19T10:39:25.98Z</time></trkpt><trkpt lat="43.5030758" lon="11.4384073"><ele>759.0</ele><time>2026-04-19T10:39:26.987Z</time></trkpt><trkpt lat="43.5031437" lon="11.4384155"><ele>759.0</ele><time>2026-04-19T10:39:27.977Z</time></trkpt><trkpt lat="43.503221" lon="11.4384383"><ele>756.1666666666666</ele><time>2026-04-19T10:39:28.974Z</time></trkpt><trkpt lat="43.5032997" lon="11.4384567"><ele>753.3333333333334</ele><time>2026-04-19T10:39:29.971Z</time></trkpt><trkpt lat="43.5033791" lon="11.4384929"><ele>750.5</ele><time>2026-04-19T10:39:30.976Z</time></trkpt><trkpt lat="43.5034486" lon="11.4385356"><ele>747.6666666666667</ele><time>2026-04-19T10:39:31.983Z</time></trkpt><trkpt lat="43.5035082" lon="11.4385807"><ele>744.8333333333334</ele><time>2026-04-19T10:39:32.973Z</time></trkpt><trkpt lat="43.5035733" lon="11.4386541"><ele>742.0</ele><time>2026-04-19T10:39:33.984Z</time></trkpt><trkpt lat="43.503661" lon="11.4387533"><ele>742.2</ele><time>2026-04-19T10:39:34.989Z</time></trkpt><trkpt lat="43.5037599" lon="11.4388532"><ele>742.4000000000001</ele><time>2026-04-19T10:39:35.969Z</time></trkpt><trkpt lat="43.5038417" lon="11.4389427"><ele>742.5999999999999</ele><time>2026-04-19T10:39:37.005Z</time></trkpt><trkpt lat="43.5039089" lon="11.4390139"><ele>742.8</ele><time>2026-04-19T10:39:37.978Z</time></trkpt><trkpt lat="43.5039878" lon="11.4390558"><ele>743.0</ele><time>2026-04-19T10:39:38.981Z</time></trkpt><trkpt lat="43.504061" lon="11.4390845"><ele>743.0</ele><time>2026-04-19T10:39:39.974Z</time></trkpt><trkpt lat="43.504135" lon="11.4391131"><ele>743.0</ele><time>2026-04-19T10:39:40.97Z</time></trkpt><trkpt lat="43.5042022" lon="11.4391471"><ele>743.0</ele><time>2026-04-19T10:39:41.972Z</time></trkpt><trkpt lat="43.5042559" lon="11.4392034"><ele>743.0</ele><time>2026-04-19T10:39:42.976Z</time></trkpt><trkpt lat="43.5043373" lon="11.4393274"><ele>743.0</ele><time>2026-04-19T10:39:44.972Z</time></trkpt><trkpt lat="43.5043748" lon="11.4393983"><ele>743.0</ele><time>2026-04-19T10:39:45.974Z</time></trkpt><trkpt lat="43.5044075" lon="11.4395945"><ele>741.0</ele><time>2026-04-19T10:39:47.978Z</time></trkpt><trkpt lat="43.5044346" lon="11.4397223"><ele>739.0</ele><time>2026-04-19T10:39:48.973Z</time></trkpt><trkpt lat="43.504457" lon="11.4398092"><ele>737.0</ele><time>2026-04-19T10:39:49.982Z</time></trkpt><trkpt lat="43.5045101" lon="11.4399575"><ele>735.0</ele><time>2026-04-19T10:39:51.981Z</time></trkpt><trkpt lat="43.5045484" lon="11.4400274"><ele>733.0</ele><time>2026-04-19T10:39:52.973Z</time></trkpt><trkpt lat="43.5045859" lon="11.4401169"><ele>731.0</ele><time>2026-04-19T10:39:53.982Z</time></trkpt><trkpt lat="43.5046329" lon="11.4402027"><ele>735.5</ele><time>2026-04-19T10:39:54.975Z</time></trkpt><trkpt lat="43.504671" lon="11.440273"><ele>740.0</ele><time>2026-04-19T10:39:55.979Z</time></trkpt><trkpt lat="43.5047731" lon="11.4403635"><ele>744.5</ele><time>2026-04-19T10:39:57.974Z</time></trkpt><trkpt lat="43.5048316" lon="11.4404088"><ele>749.0</ele><time>2026-04-19T10:39:58.993Z</time></trkpt><trkpt lat="43.5049099" lon="11.4404443"><ele>753.5</ele><time>2026-04-19T10:39:59.975Z</time></trkpt><trkpt lat="43.5049931" lon="11.4404583"><ele>758.0</ele><time>2026-04-19T10:40:00.966Z</time></trkpt><trkpt lat="43.5050698" lon="11.4404558"><ele>758.0</ele><time>2026-04-19T10:40:01.984Z</time></trkpt><trkpt lat="43.5051353" lon="11.4404296"><ele>758.0</ele><time>2026-04-19T10:40:02.971Z</time></trkpt><trkpt lat="43.5052202" lon="11.4403967"><ele>758.0</ele><time>2026-04-19T10:40:03.975Z</time></trkpt><trkpt lat="43.5053104" lon="11.4403833"><ele>758.0</ele><time>2026-04-19T10:40:04.974Z</time></trkpt><trkpt lat="43.5054125" lon="11.4403664"><ele>758.0</ele><time>2026-04-19T10:40:05.971Z</time></trkpt><trkpt lat="43.5055073" lon="11.4403498"><ele>758.0</ele><time>2026-04-19T10:40:06.971Z</time></trkpt><trkpt lat="43.5055867" lon="11.4403454"><ele>757.5999999999999</ele><time>2026-04-19T10:40:08.002Z</time></trkpt><trkpt lat="43.5056544" lon="11.4403435"><ele>757.1999999999999</ele><time>2026-04-19T10:40:08.972Z</time></trkpt><trkpt lat="43.5057771" lon="11.4402948"><ele>756.8</ele><time>2026-04-19T10:40:10.972Z</time></trkpt><trkpt lat="43.5058355" lon="11.4402283"><ele>756.4</ele><time>2026-04-19T10:40:11.973Z</time></trkpt><trkpt lat="43.5059176" lon="11.4401409"><ele>756.0</ele><time>2026-04-19T10:40:12.975Z</time></trkpt><trkpt lat="43.5060079" lon="11.4400499"><ele>756.0</ele><time>2026-04-19T10:40:13.975Z</time></trkpt><trkpt lat="43.5060945" lon="11.4399654"><ele>756.0</ele><time>2026-04-19T10:40:14.987Z</time></trkpt><trkpt lat="43.5061722" lon="11.4398817"><ele>756.0</ele><time>2026-04-19T10:40:15.974Z</time></trkpt><trkpt lat="43.5062552" lon="11.439791"><ele>756.0</ele><time>2026-04-19T10:40:16.975Z</time></trkpt><trkpt lat="43.5063322" lon="11.4396994"><ele>756.0</ele><time>2026-04-19T10:40:17.98Z</time></trkpt><trkpt lat="43.5063948" lon="11.4396056"><ele>755.3333333333334</ele><time>2026-04-19T10:40:18.973Z</time></trkpt><trkpt lat="43.506427" lon="11.4394958"><ele>754.6666666666666</ele><time>2026-04-19T10:40:19.983Z</time></trkpt><trkpt lat="43.5064481" lon="11.4393678"><ele>754.0</ele><time>2026-04-19T10:40:20.971Z</time></trkpt><trkpt lat="43.5064424" lon="11.4392379"><ele>753.3333333333333</ele><time>2026-04-19T10:40:21.971Z</time></trkpt><trkpt lat="43.506427" lon="11.4391122"><ele>752.6666666666666</ele><time>2026-04-19T10:40:22.989Z</time></trkpt><trkpt lat="43.5064138" lon="11.4390204"><ele>752.0</ele><time>2026-04-19T10:40:23.972Z</time></trkpt><trkpt lat="43.5064203" lon="11.4388655"><ele>756.6</ele><time>2026-04-19T10:40:25.977Z</time></trkpt><trkpt lat="43.5065138" lon="11.4387513"><ele>761.2</ele><time>2026-04-19T10:40:27.99Z</time></trkpt><trkpt lat="43.506578" lon="11.4387382"><ele>765.8</ele><time>2026-04-19T10:40:28.971Z</time></trkpt><trkpt lat="43.5066477" lon="11.4387366"><ele>770.4</ele><time>2026-04-19T10:40:29.972Z</time></trkpt><trkpt lat="43.5067774" lon="11.4387815"><ele>775.0</ele><time>2026-04-19T10:40:31.976Z</time></trkpt><trkpt lat="43.5068942" lon="11.4387973"><ele>775.0</ele><time>2026-04-19T10:40:33.975Z</time></trkpt><trkpt lat="43.5069907" lon="11.4387213"><ele>775.0</ele><time>2026-04-19T10:40:35.973Z</time></trkpt><trkpt lat="43.5070348" lon="11.4386513"><ele>775.0</ele><time>2026-04-19T10:40:36.97Z</time></trkpt><trkpt lat="43.507083" lon="11.4385865"><ele>775.0</ele><time>2026-04-19T10:40:37.977Z</time></trkpt><trkpt lat="43.5071839" lon="11.4384937"><ele>775.0</ele><time>2026-04-19T10:40:39.965Z</time></trkpt><trkpt lat="43.5072861" lon="11.4384993"><ele>774.4</ele><time>2026-04-19T10:40:41.971Z</time></trkpt><trkpt lat="43.5074016" lon="11.4385439"><ele>773.8</ele><time>2026-04-19T10:40:43.985Z</time></trkpt><trkpt lat="43.5075115" lon="11.4385108"><ele>773.2</ele><time>2026-04-19T10:40:45.966Z</time></trkpt><trkpt lat="43.5075691" lon="11.4384552"><ele>772.6</ele><time>2026-04-19T10:40:46.984Z</time></trkpt><trkpt lat="43.5076246" lon="11.43839"><ele>772.0</ele><time>2026-04-19T10:40:47.977Z</time></trkpt><trkpt lat="43.5077125" lon="11.4382892"><ele>772.0</ele><time>2026-04-19T10:40:49.971Z</time></trkpt><trkpt lat="43.507826" lon="11.4381848"><ele>772.0</ele><time>2026-04-19T10:40:51.97Z</time></trkpt><trkpt lat="43.5078826" lon="11.4381349"><ele>772.0</ele><time>2026-04-19T10:40:52.971Z</time></trkpt><trkpt lat="43.5080003" lon="11.4381141"><ele>772.0</ele><time>2026-04-19T10:40:54.968Z</time></trkpt><trkpt lat="43.5080655" lon="11.43812"><ele>772.0</ele><time>2026-04-19T10:40:55.969Z</time></trkpt><trkpt lat="43.5082078" lon="11.4380502"><ele>770.4000000000001</ele><time>2026-04-19T10:40:57.967Z</time></trkpt><trkpt lat="43.50828" lon="11.437969"><ele>768.8000000000001</ele><time>2026-04-19T10:40:58.97Z</time></trkpt><trkpt lat="43.5083846" lon="11.4378814"><ele>767.2</ele><time>2026-04-19T10:40:59.966Z</time></trkpt><trkpt lat="43.5084927" lon="11.4378145"><ele>765.6</ele><time>2026-04-19T10:41:00.969Z</time></trkpt><trkpt lat="43.5085866" lon="11.4377881"><ele>764.0</ele><time>2026-04-19T10:41:01.964Z</time></trkpt><trkpt lat="43.5086683" lon="11.4377548"><ele>767.0</ele><time>2026-04-19T10:41:02.97Z</time></trkpt><trkpt lat="43.508753" lon="11.4376921"><ele>770.0</ele><time>2026-04-19T10:41:03.966Z</time></trkpt><trkpt lat="43.5088097" lon="11.4375853"><ele>773.0</ele><time>2026-04-19T10:41:04.964Z</time></trkpt><trkpt lat="43.5088584" lon="11.4374764"><ele>776.0</ele><time>2026-04-19T10:41:05.97Z</time></trkpt><trkpt lat="43.5089059" lon="11.4373706"><ele>779.0</ele><time>2026-04-19T10:41:06.974Z</time></trkpt><trkpt lat="43.5089642" lon="11.4372885"><ele>779.0</ele><time>2026-04-19T10:41:07.966Z</time></trkpt><trkpt lat="43.5090379" lon="11.437209"><ele>779.0</ele><time>2026-04-19T10:41:08.971Z</time></trkpt><trkpt lat="43.5091243" lon="11.4371646"><ele>779.0</ele><time>2026-04-19T10:41:09.965Z</time></trkpt><trkpt lat="43.5092151" lon="11.4371332"><ele>779.0</ele><time>2026-04-19T10:41:10.969Z</time></trkpt><trkpt lat="43.509304" lon="11.4370853"><ele>779.0</ele><time>2026-04-19T10:41:11.965Z</time></trkpt><trkpt lat="43.509398" lon="11.4370302"><ele>780.3333333333334</ele><time>2026-04-19T10:41:12.967Z</time></trkpt><trkpt lat="43.5094853" lon="11.4369816"><ele>781.6666666666667</ele><time>2026-04-19T10:41:13.966Z</time></trkpt><trkpt lat="43.5095493" lon="11.436956"><ele>783.0</ele><time>2026-04-19T10:41:14.97Z</time></trkpt><trkpt lat="43.5096205" lon="11.4369204"><ele>784.3333333333333</ele><time>2026-04-19T10:41:15.97Z</time></trkpt><trkpt lat="43.5096913" lon="11.4368835"><ele>785.6666666666666</ele><time>2026-04-19T10:41:16.969Z</time></trkpt><trkpt lat="43.5097553" lon="11.436847"><ele>787.0</ele><time>2026-04-19T10:41:17.971Z</time></trkpt><trkpt lat="43.5098222" lon="11.4367992"><ele>787.4000000000001</ele><time>2026-04-19T10:41:18.973Z</time></trkpt><trkpt lat="43.5098862" lon="11.4367438"><ele>787.8000000000001</ele><time>2026-04-19T10:41:19.977Z</time></trkpt><trkpt lat="43.509966" lon="11.4366579"><ele>788.2</ele><time>2026-04-19T10:41:20.966Z</time></trkpt><trkpt lat="43.5100512" lon="11.436573"><ele>788.6</ele><time>2026-04-19T10:41:21.968Z</time></trkpt><trkpt lat="43.5101483" lon="11.4365039"><ele>789.0</ele><time>2026-04-19T10:41:22.969Z</time></trkpt><trkpt lat="43.51023" lon="11.4364184"><ele>789.0</ele><time>2026-04-19T10:41:23.969Z</time></trkpt><trkpt lat="43.5103168" lon="11.4363259"><ele>789.0</ele><time>2026-04-19T10:41:24.97Z</time></trkpt><trkpt lat="43.5104236" lon="11.4362312"><ele>789.0</ele><time>2026-04-19T10:41:25.977Z</time></trkpt><trkpt lat="43.5104974" lon="11.436142"><ele>789.0</ele><time>2026-04-19T10:41:26.973Z</time></trkpt><trkpt lat="43.5105806" lon="11.4360669"><ele>789.0</ele><time>2026-04-19T10:41:27.973Z</time></trkpt><trkpt lat="43.5106537" lon="11.4359877"><ele>789.5</ele><time>2026-04-19T10:41:28.978Z</time></trkpt><trkpt lat="43.5107272" lon="11.4359027"><ele>790.0</ele><time>2026-04-19T10:41:29.981Z</time></trkpt><trkpt lat="43.5107988" lon="11.4358272"><ele>790.5</ele><time>2026-04-19T10:41:30.983Z</time></trkpt><trkpt lat="43.5108527" lon="11.4357665"><ele>791.0</ele><time>2026-04-19T10:41:31.974Z</time></trkpt><trkpt lat="43.5109096" lon="11.435713"><ele>791.5</ele><time>2026-04-19T10:41:32.975Z</time></trkpt><trkpt lat="43.5109743" lon="11.4356449"><ele>792.0</ele><time>2026-04-19T10:41:33.976Z</time></trkpt><trkpt lat="43.5110388" lon="11.4355712"><ele>792.0</ele><time>2026-04-19T10:41:34.979Z</time></trkpt><trkpt lat="43.5110968" lon="11.4354831"><ele>792.0</ele><time>2026-04-19T10:41:35.975Z</time></trkpt><trkpt lat="43.5111395" lon="11.4354061"><ele>792.0</ele><time>2026-04-19T10:41:36.972Z</time></trkpt><trkpt lat="43.5111902" lon="11.4353057"><ele>792.0</ele><time>2026-04-19T10:41:37.971Z</time></trkpt><trkpt lat="43.5112284" lon="11.435208"><ele>792.0</ele><time>2026-04-19T10:41:38.969Z</time></trkpt><trkpt lat="43.5112591" lon="11.4350929"><ele>792.0</ele><time>2026-04-19T10:41:39.99Z</time></trkpt><trkpt lat="43.5112871" lon="11.4349645"><ele>793.6</ele><time>2026-04-19T10:41:40.964Z</time></trkpt><trkpt lat="43.5113085" lon="11.4348288"><ele>795.2</ele><time>2026-04-19T10:41:41.975Z</time></trkpt><trkpt lat="43.5113328" lon="11.4346879"><ele>796.8</ele><time>2026-04-19T10:41:42.974Z</time></trkpt><trkpt lat="43.5113512" lon="11.4345522"><ele>798.4</ele><time>2026-04-19T10:41:43.975Z</time></trkpt><trkpt lat="43.5113695" lon="11.4344329"><ele>800.0</ele><time>2026-04-19T10:41:44.971Z</time></trkpt><trkpt lat="43.5113805" lon="11.434319"><ele>800.3333333333334</ele><time>2026-04-19T10:41:45.972Z</time></trkpt><trkpt lat="43.5113918" lon="11.4342098"><ele>800.6666666666667</ele><time>2026-04-19T10:41:46.969Z</time></trkpt><trkpt lat="43.5114069" lon="11.4341134"><ele>801.0</ele><time>2026-04-19T10:41:47.976Z</time></trkpt><trkpt lat="43.5114315" lon="11.4340331"><ele>801.3333333333333</ele><time>2026-04-19T10:41:48.978Z</time></trkpt><trkpt lat="43.5114936" lon="11.4338709"><ele>801.6666666666666</ele><time>2026-04-19T10:41:50.985Z</time></trkpt><trkpt lat="43.511554" lon="11.4337746"><ele>802.0</ele><time>2026-04-19T10:41:51.987Z</time></trkpt><trkpt lat="43.5116319" lon="11.4336906"><ele>800.9999999999999</ele><time>2026-04-19T10:41:52.975Z</time></trkpt><trkpt lat="43.5117094" lon="11.433644"><ele>800.0</ele><time>2026-04-19T10:41:53.969Z</time></trkpt><trkpt lat="43.5117928" lon="11.4336172"><ele>799.0</ele><time>2026-04-19T10:41:54.969Z</time></trkpt><trkpt lat="43.5118622" lon="11.4336008"><ele>798.0</ele><time>2026-04-19T10:41:55.973Z</time></trkpt><trkpt lat="43.5119266" lon="11.4335735"><ele>796.9999999999999</ele><time>2026-04-19T10:41:56.979Z</time></trkpt><trkpt lat="43.5120013" lon="11.4335224"><ele>796.0</ele><time>2026-04-19T10:41:57.977Z</time></trkpt><trkpt lat="43.5120684" lon="11.4334478"><ele>796.4999999999999</ele><time>2026-04-19T10:41:58.975Z</time></trkpt><trkpt lat="43.512149" lon="11.4333677"><ele>797.0</ele><time>2026-04-19T10:41:59.975Z</time></trkpt><trkpt lat="43.5122315" lon="11.4333006"><ele>797.5</ele><time>2026-04-19T10:42:00.973Z</time></trkpt><trkpt lat="43.5123131" lon="11.4332592"><ele>798.0</ele><time>2026-04-19T10:42:01.975Z</time></trkpt><trkpt lat="43.5123767" lon="11.4332043"><ele>798.4999999999999</ele><time>2026-04-19T10:42:02.979Z</time></trkpt><trkpt lat="43.5124317" lon="11.4331061"><ele>799.0</ele><time>2026-04-19T10:42:03.978Z</time></trkpt><trkpt lat="43.5125184" lon="11.4330054"><ele>799.0</ele><time>2026-04-19T10:42:04.973Z</time></trkpt><trkpt lat="43.5126058" lon="11.4328925"><ele>799.0</ele><time>2026-04-19T10:42:05.983Z</time></trkpt><trkpt lat="43.5127024" lon="11.4328033"><ele>799.0</ele><time>2026-04-19T10:42:06.976Z</time></trkpt><trkpt lat="43.5127874" lon="11.4327386"><ele>799.0</ele><time>2026-04-19T10:42:07.974Z</time></trkpt><trkpt lat="43.5128849" lon="11.4326856"><ele>799.0</ele><time>2026-04-19T10:42:08.971Z</time></trkpt><trkpt lat="43.5129899" lon="11.4326345"><ele>799.8333333333333</ele><time>2026-04-19T10:42:09.971Z</time></trkpt><trkpt lat="43.5130616" lon="11.4325733"><ele>800.6666666666666</ele><time>2026-04-19T10:42:10.974Z</time></trkpt><trkpt lat="43.5131304" lon="11.4325218"><ele>801.5</ele><time>2026-04-19T10:42:11.977Z</time></trkpt><trkpt lat="43.5131925" lon="11.432494"><ele>802.3333333333333</ele><time>2026-04-19T10:42:12.974Z</time></trkpt><trkpt lat="43.5132778" lon="11.4324746"><ele>803.1666666666666</ele><time>2026-04-19T10:42:13.965Z</time></trkpt><trkpt lat="43.5133643" lon="11.4324493"><ele>804.0</ele><time>2026-04-19T10:42:14.986Z</time></trkpt><trkpt lat="43.5134531" lon="11.4324281"><ele>804.0</ele><time>2026-04-19T10:42:15.968Z</time></trkpt><trkpt lat="43.5135443" lon="11.4324216"><ele>804.0</ele><time>2026-04-19T10:42:16.974Z</time></trkpt><trkpt lat="43.5136346" lon="11.4324208"><ele>804.0</ele><time>2026-04-19T10:42:17.979Z</time></trkpt><trkpt lat="43.5137237" lon="11.4324192"><ele>804.0</ele><time>2026-04-19T10:42:18.973Z</time></trkpt><trkpt lat="43.513814" lon="11.4324172"><ele>804.0</ele><time>2026-04-19T10:42:19.972Z</time></trkpt><trkpt lat="43.5139055" lon="11.4324199"><ele>804.8000000000001</ele><time>2026-04-19T10:42:20.971Z</time></trkpt><trkpt lat="43.5139962" lon="11.4324236"><ele>805.6</ele><time>2026-04-19T10:42:21.982Z</time></trkpt><trkpt lat="43.5140951" lon="11.432426"><ele>806.4</ele><time>2026-04-19T10:42:22.971Z</time></trkpt><trkpt lat="43.5142134" lon="11.4324347"><ele>807.2</ele><time>2026-04-19T10:42:23.978Z</time></trkpt><trkpt lat="43.5143419" lon="11.4324382"><ele>808.0</ele><time>2026-04-19T10:42:24.986Z</time></trkpt><trkpt lat="43.5144679" lon="11.432439"><ele>807.2</ele><time>2026-04-19T10:42:25.974Z</time></trkpt><trkpt lat="43.5145928" lon="11.432426"><ele>806.4</ele><time>2026-04-19T10:42:26.992Z</time></trkpt><trkpt lat="43.5146986" lon="11.4324195"><ele>805.6</ele><time>2026-04-19T10:42:27.977Z</time></trkpt><trkpt lat="43.5147752" lon="11.4324129"><ele>804.8000000000001</ele><time>2026-04-19T10:42:28.971Z</time></trkpt><trkpt lat="43.5148447" lon="11.4324088"><ele>804.0</ele><time>2026-04-19T10:42:29.975Z</time></trkpt><trkpt lat="43.5149229" lon="11.432409"><ele>804.0</ele><time>2026-04-19T10:42:30.969Z</time></trkpt><trkpt lat="43.5149982" lon="11.4324045"><ele>804.0</ele><time>2026-04-19T10:42:31.987Z</time></trkpt><trkpt lat="43.5150635" lon="11.4323769"><ele>804.0</ele><time>2026-04-19T10:42:32.979Z</time></trkpt><trkpt lat="43.5151233" lon="11.4323377"><ele>804.0</ele><time>2026-04-19T10:42:33.981Z</time></trkpt><trkpt lat="43.5151962" lon="11.4323112"><ele>804.0</ele><time>2026-04-19T10:42:34.969Z</time></trkpt><trkpt lat="43.515275" lon="11.4322576"><ele>804.0</ele><time>2026-04-19T10:42:35.968Z</time></trkpt><trkpt lat="43.5153451" lon="11.4322245"><ele>804.0</ele><time>2026-04-19T10:42:36.977Z</time></trkpt><trkpt lat="43.5154145" lon="11.4322036"><ele>802.5</ele><time>2026-04-19T10:42:37.971Z</time></trkpt><trkpt lat="43.5154916" lon="11.4321846"><ele>801.0</ele><time>2026-04-19T10:42:38.981Z</time></trkpt><trkpt lat="43.5155587" lon="11.4321657"><ele>799.5</ele><time>2026-04-19T10:42:39.98Z</time></trkpt><trkpt lat="43.5156609" lon="11.4321181"><ele>798.0</ele><time>2026-04-19T10:42:41.976Z</time></trkpt><trkpt lat="43.5157445" lon="11.432073"><ele>796.5</ele><time>2026-04-19T10:42:43.973Z</time></trkpt><trkpt lat="43.5158198" lon="11.4320211"><ele>795.0</ele><time>2026-04-19T10:42:45.975Z</time></trkpt><trkpt lat="43.5158936" lon="11.4319627"><ele>794.8333333333334</ele><time>2026-04-19T10:42:47.989Z</time></trkpt><trkpt lat="43.5159782" lon="11.431914"><ele>794.6666666666667</ele><time>2026-04-19T10:42:49.969Z</time></trkpt><trkpt lat="43.516049" lon="11.4318547"><ele>794.5</ele><time>2026-04-19T10:42:51.974Z</time></trkpt><trkpt lat="43.5161208" lon="11.4318001"><ele>794.3333333333334</ele><time>2026-04-19T10:42:53.973Z</time></trkpt><trkpt lat="43.5161949" lon="11.431724"><ele>794.1666666666667</ele><time>2026-04-19T10:42:55.975Z</time></trkpt><trkpt lat="43.5162725" lon="11.4316545"><ele>794.0</ele><time>2026-04-19T10:42:57.974Z</time></trkpt><trkpt lat="43.5163397" lon="11.4315931"><ele>792.4000000000001</ele><time>2026-04-19T10:42:59.994Z</time></trkpt><trkpt lat="43.5164036" lon="11.4315015"><ele>790.8</ele><time>2026-04-19T10:43:02.972Z</time></trkpt><trkpt lat="43.5164364" lon="11.4313993"><ele>789.2</ele><time>2026-04-19T10:43:04.99Z</time></trkpt><trkpt lat="43.5164741" lon="11.43127"><ele>787.5999999999999</ele><time>2026-04-19T10:43:06.979Z</time></trkpt><trkpt lat="43.5164897" lon="11.4311376"><ele>786.0</ele><time>2026-04-19T10:43:09.976Z</time></trkpt><trkpt lat="43.5164872" lon="11.4310183"><ele>785.0</ele><time>2026-04-19T10:43:11.972Z</time></trkpt><trkpt lat="43.5164932" lon="11.4309024"><ele>784.0</ele><time>2026-04-19T10:43:13.975Z</time></trkpt><trkpt lat="43.5165311" lon="11.4307979"><ele>783.0</ele><time>2026-04-19T10:43:15.977Z</time></trkpt><trkpt lat="43.5166003" lon="11.4306898"><ele>782.0</ele><time>2026-04-19T10:43:17.976Z</time></trkpt><trkpt lat="43.5166669" lon="11.4306402"><ele>781.0</ele><time>2026-04-19T10:43:19.971Z</time></trkpt><trkpt lat="43.5167395" lon="11.4305988"><ele>780.0</ele><time>2026-04-19T10:43:21.97Z</time></trkpt><trkpt lat="43.5168091" lon="11.4305801"><ele>780.0</ele><time>2026-04-19T10:43:25.98Z</time></trkpt><trkpt lat="43.5168714" lon="11.4305272"><ele>780.0</ele><time>2026-04-19T10:43:28.985Z</time></trkpt><trkpt lat="43.5169277" lon="11.4304733"><ele>780.0</ele><time>2026-04-19T10:43:30.978Z</time></trkpt><trkpt lat="43.5169806" lon="11.430423"><ele>780.0</ele><time>2026-04-19T10:43:32.988Z</time></trkpt><trkpt lat="43.517055" lon="11.4303651"><ele>780.0</ele><time>2026-04-19T10:43:35.967Z</time></trkpt><trkpt lat="43.5171128" lon="11.4303148"><ele>780.0</ele><time>2026-04-19T10:43:38.975Z</time></trkpt><trkpt lat="43.5171915" lon="11.4302671"><ele>780.0</ele><time>2026-04-19T10:43:40.972Z</time></trkpt><trkpt lat="43.5172825" lon="11.4302201"><ele>777.1666666666666</ele><time>2026-04-19T10:43:42.966Z</time></trkpt><trkpt lat="43.5173641" lon="11.430173"><ele>774.3333333333334</ele><time>2026-04-19T10:43:44.97Z</time></trkpt><trkpt lat="43.5174336" lon="11.430126"><ele>771.5</ele><time>2026-04-19T10:43:46.973Z</time></trkpt><trkpt lat="43.5175088" lon="11.4300894"><ele>768.6666666666667</ele><time>2026-04-19T10:43:49.971Z</time></trkpt><trkpt lat="43.517574" lon="11.4300476"><ele>765.8333333333334</ele><time>2026-04-19T10:43:52.969Z</time></trkpt><trkpt lat="43.5176323" lon="11.4300069"><ele>763.0</ele><time>2026-04-19T10:43:55.974Z</time></trkpt><trkpt lat="43.5176986" lon="11.4299512"><ele>763.0</ele><time>2026-04-19T10:44:02.972Z</time></trkpt><trkpt lat="43.5177581" lon="11.4299025"><ele>763.0</ele><time>2026-04-19T10:44:06.974Z</time></trkpt><trkpt lat="43.5178123" lon="11.4298564"><ele>763.0</ele><time>2026-04-19T10:44:09.973Z</time></trkpt><trkpt lat="43.5178727" lon="11.4298295"><ele>763.0</ele><time>2026-04-19T10:44:12.98Z</time></trkpt><trkpt lat="43.5179382" lon="11.4297726"><ele>763.0</ele><time>2026-04-19T10:44:15.97Z</time></trkpt><trkpt lat="43.5179944" lon="11.4297328"><ele>763.0</ele><time>2026-04-19T10:44:20.973Z</time></trkpt><trkpt lat="43.5180617" lon="11.4296668"><ele>763.0</ele><time>2026-04-19T10:44:24.963Z</time></trkpt><trkpt lat="43.5181307" lon="11.4295907"><ele>759.4285714285714</ele><time>2026-04-19T10:44:27.976Z</time></trkpt><trkpt lat="43.5182019" lon="11.4295391"><ele>755.8571428571429</ele><time>2026-04-19T10:44:29.97Z</time></trkpt><trkpt lat="43.5182615" lon="11.4294919"><ele>752.2857142857142</ele><time>2026-04-19T10:44:31.978Z</time></trkpt><trkpt lat="43.5183164" lon="11.4294481"><ele>748.7142857142858</ele><time>2026-04-19T10:44:33.99Z</time></trkpt><trkpt lat="43.5183814" lon="11.4294065"><ele>745.1428571428571</ele><time>2026-04-19T10:44:35.963Z</time></trkpt><trkpt lat="43.5184431" lon="11.4293676"><ele>741.5714285714286</ele><time>2026-04-19T10:44:37.973Z</time></trkpt><trkpt lat="43.5185154" lon="11.4293452"><ele>738.0</ele><time>2026-04-19T10:44:39.994Z</time></trkpt><trkpt lat="43.5186064" lon="11.4293153"><ele>738.0</ele><time>2026-04-19T10:44:42.972Z</time></trkpt><trkpt lat="43.5186689" lon="11.4292805"><ele>738.0</ele><time>2026-04-19T10:44:44.982Z</time></trkpt><trkpt lat="43.5187337" lon="11.4292333"><ele>738.0</ele><time>2026-04-19T10:44:46.972Z</time></trkpt><trkpt lat="43.5188045" lon="11.4291508"><ele>738.0</ele><time>2026-04-19T10:44:49.97Z</time></trkpt><trkpt lat="43.5188711" lon="11.4290675"><ele>738.0</ele><time>2026-04-19T10:44:52.987Z</time></trkpt><trkpt lat="43.5189368" lon="11.4289851"><ele>738.0</ele><time>2026-04-19T10:44:55.98Z</time></trkpt><trkpt lat="43.5189587" lon="11.4288995"><ele>735.8333333333334</ele><time>2026-04-19T10:44:58.972Z</time></trkpt><trkpt lat="43.5189557" lon="11.4288072"><ele>733.6666666666666</ele><time>2026-04-19T10:45:06.982Z</time></trkpt><trkpt lat="43.5189035" lon="11.4287278"><ele>731.5</ele><time>2026-04-19T10:45:09.976Z</time></trkpt><trkpt lat="43.5188323" lon="11.42866"><ele>729.3333333333333</ele><time>2026-04-19T10:45:12.971Z</time></trkpt><trkpt lat="43.5187633" lon="11.4286007"><ele>727.1666666666666</ele><time>2026-04-19T10:45:14.965Z</time></trkpt><trkpt lat="43.5186942" lon="11.4285407"><ele>725.0</ele><time>2026-04-19T10:45:16.978Z</time></trkpt><trkpt lat="43.5186116" lon="11.4284802"><ele>725.0</ele><time>2026-04-19T10:45:18.976Z</time></trkpt><trkpt lat="43.5185122" lon="11.4284011"><ele>725.0</ele><time>2026-04-19T10:45:20.974Z</time></trkpt><trkpt lat="43.5184455" lon="11.428351"><ele>725.0</ele><time>2026-04-19T10:45:21.965Z</time></trkpt><trkpt lat="43.5183798" lon="11.4283104"><ele>725.0</ele><time>2026-04-19T10:45:22.964Z</time></trkpt><trkpt lat="43.5183045" lon="11.4282592"><ele>725.0</ele><time>2026-04-19T10:45:23.976Z</time></trkpt><trkpt lat="43.5182331" lon="11.4282053"><ele>725.0</ele><time>2026-04-19T10:45:24.975Z</time></trkpt><trkpt lat="43.5181593" lon="11.4281447"><ele>725.0</ele><time>2026-04-19T10:45:25.971Z</time></trkpt><trkpt lat="43.5180713" lon="11.4280894"><ele>725.0</ele><time>2026-04-19T10:45:26.987Z</time></trkpt><trkpt lat="43.5179756" lon="11.4280491"><ele>725.0</ele><time>2026-04-19T10:45:27.975Z</time></trkpt><trkpt lat="43.5178864" lon="11.4280004"><ele>725.0</ele><time>2026-04-19T10:45:28.969Z</time></trkpt><trkpt lat="43.517803" lon="11.4279401"><ele>725.0</ele><time>2026-04-19T10:45:29.99Z</time></trkpt><trkpt lat="43.5177317" lon="11.4278678"><ele>721.8</ele><time>2026-04-19T10:45:30.974Z</time></trkpt><trkpt lat="43.5176605" lon="11.4278117"><ele>718.6</ele><time>2026-04-19T10:45:31.968Z</time></trkpt><trkpt lat="43.5175983" lon="11.427759"><ele>715.4000000000001</ele><time>2026-04-19T10:45:32.972Z</time></trkpt><trkpt lat="43.5174917" lon="11.4276592"><ele>712.2</ele><time>2026-04-19T10:45:34.976Z</time></trkpt><trkpt lat="43.517413" lon="11.4275779"><ele>709.0</ele><time>2026-04-19T10:45:36.988Z</time></trkpt><trkpt lat="43.5173284" lon="11.4275086"><ele>709.0</ele><time>2026-04-19T10:45:38.97Z</time></trkpt><trkpt lat="43.5172524" lon="11.4274707"><ele>709.0</ele><time>2026-04-19T10:45:40.972Z</time></trkpt><trkpt lat="43.5171718" lon="11.4274315"><ele>709.0</ele><time>2026-04-19T10:45:42.966Z</time></trkpt><trkpt lat="43.5170894" lon="11.4274083"><ele>709.0</ele><time>2026-04-19T10:45:44.977Z</time></trkpt><trkpt lat="43.5169753" lon="11.4273957"><ele>709.0</ele><time>2026-04-19T10:45:46.971Z</time></trkpt><trkpt lat="43.5169057" lon="11.4274024"><ele>709.0</ele><time>2026-04-19T10:45:47.968Z</time></trkpt><trkpt lat="43.5168364" lon="11.427384"><ele>708.5714285714287</ele><time>2026-04-19T10:45:48.967Z</time></trkpt><trkpt lat="43.5167725" lon="11.4273736"><ele>708.1428571428571</ele><time>2026-04-19T10:45:49.976Z</time></trkpt><trkpt lat="43.5167009" lon="11.4273627"><ele>707.7142857142858</ele><time>2026-04-19T10:45:50.973Z</time></trkpt><trkpt lat="43.5166302" lon="11.4273589"><ele>707.2857142857143</ele><time>2026-04-19T10:45:51.97Z</time></trkpt><trkpt lat="43.5165549" lon="11.4273701"><ele>706.8571428571429</ele><time>2026-04-19T10:45:52.966Z</time></trkpt><trkpt lat="43.5164843" lon="11.4273755"><ele>706.4285714285714</ele><time>2026-04-19T10:45:53.971Z</time></trkpt><trkpt lat="43.5164137" lon="11.4273676"><ele>706.0</ele><time>2026-04-19T10:45:54.978Z</time></trkpt><trkpt lat="43.516327" lon="11.4273587"><ele>706.0</ele><time>2026-04-19T10:45:55.994Z</time></trkpt><trkpt lat="43.5162504" lon="11.4273833"><ele>706.0</ele><time>2026-04-19T10:45:56.971Z</time></trkpt><trkpt lat="43.5161601" lon="11.4274194"><ele>706.0</ele><time>2026-04-19T10:45:57.973Z</time></trkpt><trkpt lat="43.5160401" lon="11.4274351"><ele>706.0</ele><time>2026-04-19T10:45:58.965Z</time></trkpt><trkpt lat="43.5159099" lon="11.4274569"><ele>706.0</ele><time>2026-04-19T10:45:59.972Z</time></trkpt><trkpt lat="43.51581" lon="11.4274755"><ele>704.8333333333334</ele><time>2026-04-19T10:46:00.971Z</time></trkpt><trkpt lat="43.515708" lon="11.427494"><ele>703.6666666666667</ele><time>2026-04-19T10:46:01.967Z</time></trkpt><trkpt lat="43.5156231" lon="11.4275106"><ele>702.5</ele><time>2026-04-19T10:46:02.966Z</time></trkpt><trkpt lat="43.5155434" lon="11.4275323"><ele>701.3333333333334</ele><time>2026-04-19T10:46:03.965Z</time></trkpt><trkpt lat="43.5154649" lon="11.4275482"><ele>700.1666666666666</ele><time>2026-04-19T10:46:04.973Z</time></trkpt><trkpt lat="43.5153877" lon="11.4275532"><ele>699.0</ele><time>2026-04-19T10:46:05.978Z</time></trkpt><trkpt lat="43.5153219" lon="11.427569"><ele>699.0</ele><time>2026-04-19T10:46:06.992Z</time></trkpt><trkpt lat="43.5151979" lon="11.4275941"><ele>699.0</ele><time>2026-04-19T10:46:08.978Z</time></trkpt><trkpt lat="43.5151301" lon="11.4275801"><ele>699.0</ele><time>2026-04-19T10:46:09.97Z</time></trkpt><trkpt lat="43.5150327" lon="11.4274866"><ele>699.0</ele><time>2026-04-19T10:46:11.973Z</time></trkpt><trkpt lat="43.5149726" lon="11.4273633"><ele>699.0</ele><time>2026-04-19T10:46:13.975Z</time></trkpt><trkpt lat="43.5149511" lon="11.4272659"><ele>699.0</ele><time>2026-04-19T10:46:14.967Z</time></trkpt><trkpt lat="43.514924" lon="11.4271613"><ele>699.0</ele><time>2026-04-19T10:46:15.986Z</time></trkpt><trkpt lat="43.5149021" lon="11.4270536"><ele>699.0</ele><time>2026-04-19T10:46:16.967Z</time></trkpt><trkpt lat="43.5148661" lon="11.4269634"><ele>699.0</ele><time>2026-04-19T10:46:17.967Z</time></trkpt><trkpt lat="43.5148304" lon="11.4268827"><ele>699.0</ele><time>2026-04-19T10:46:18.967Z</time></trkpt><trkpt lat="43.5147855" lon="11.4268095"><ele>699.0</ele><time>2026-04-19T10:46:19.972Z</time></trkpt><trkpt lat="43.5147059" lon="11.4266938"><ele>696.5</ele><time>2026-04-19T10:46:21.973Z</time></trkpt><trkpt lat="43.5146509" lon="11.4266387"><ele>694.0</ele><time>2026-04-19T10:46:22.964Z</time></trkpt><trkpt lat="43.5145893" lon="11.4266097"><ele>691.5</ele><time>2026-04-19T10:46:23.965Z</time></trkpt><trkpt lat="43.5144934" lon="11.4265838"><ele>689.0</ele><time>2026-04-19T10:46:25.969Z</time></trkpt><trkpt lat="43.5143896" lon="11.426579"><ele>686.5</ele><time>2026-04-19T10:46:27.981Z</time></trkpt><trkpt lat="43.5142939" lon="11.4265849"><ele>684.0</ele><time>2026-04-19T10:46:29.971Z</time></trkpt><trkpt lat="43.5142108" lon="11.4265795"><ele>684.0</ele><time>2026-04-19T10:46:31.975Z</time></trkpt><trkpt lat="43.5141184" lon="11.4265789"><ele>684.0</ele><time>2026-04-19T10:46:33.971Z</time></trkpt><trkpt lat="43.5140248" lon="11.4265908"><ele>684.0</ele><time>2026-04-19T10:46:35.975Z</time></trkpt><trkpt lat="43.5139177" lon="11.4265529"><ele>684.0</ele><time>2026-04-19T10:46:37.968Z</time></trkpt><trkpt lat="43.5138165" lon="11.4264899"><ele>684.0</ele><time>2026-04-19T10:46:39.973Z</time></trkpt><trkpt lat="43.5137496" lon="11.4264034"><ele>680.6666666666666</ele><time>2026-04-19T10:46:41.968Z</time></trkpt><trkpt lat="43.5136855" lon="11.4262993"><ele>677.3333333333334</ele><time>2026-04-19T10:46:43.977Z</time></trkpt><trkpt lat="43.5136219" lon="11.4262033"><ele>674.0</ele><time>2026-04-19T10:46:45.965Z</time></trkpt><trkpt lat="43.5135626" lon="11.4261299"><ele>670.6666666666667</ele><time>2026-04-19T10:46:47.968Z</time></trkpt><trkpt lat="43.513499" lon="11.4260497"><ele>667.3333333333334</ele><time>2026-04-19T10:46:49.967Z</time></trkpt><trkpt lat="43.5134408" lon="11.4259564"><ele>664.0</ele><time>2026-04-19T10:46:51.967Z</time></trkpt><trkpt lat="43.5134028" lon="11.4258566"><ele>664.0</ele><time>2026-04-19T10:46:53.971Z</time></trkpt><trkpt lat="43.5133639" lon="11.4257368"><ele>664.0</ele><time>2026-04-19T10:46:55.968Z</time></trkpt><trkpt lat="43.5133073" lon="11.4256094"><ele>664.0</ele><time>2026-04-19T10:46:57.97Z</time></trkpt><trkpt lat="43.5132278" lon="11.4254948"><ele>664.0</ele><time>2026-04-19T10:46:59.969Z</time></trkpt><trkpt lat="43.5131435" lon="11.4254155"><ele>664.0</ele><time>2026-04-19T10:47:01.969Z</time></trkpt><trkpt lat="43.5130546" lon="11.4253423"><ele>661.2</ele><time>2026-04-19T10:47:03.978Z</time></trkpt><trkpt lat="43.512959" lon="11.4252727"><ele>658.4000000000001</ele><time>2026-04-19T10:47:05.974Z</time></trkpt><trkpt lat="43.5128716" lon="11.4251881"><ele>655.6</ele><time>2026-04-19T10:47:07.964Z</time></trkpt><trkpt lat="43.5127875" lon="11.4250797"><ele>652.8</ele><time>2026-04-19T10:47:09.96Z</time></trkpt><trkpt lat="43.5127557" lon="11.4249602"><ele>650.0</ele><time>2026-04-19T10:47:11.969Z</time></trkpt><trkpt lat="43.5127204" lon="11.4248556"><ele>650.0</ele><time>2026-04-19T10:47:13.966Z</time></trkpt><trkpt lat="43.5126593" lon="11.424767"><ele>650.0</ele><time>2026-04-19T10:47:16.969Z</time></trkpt><trkpt lat="43.5125925" lon="11.4247192"><ele>650.0</ele><time>2026-04-19T10:47:18.97Z</time></trkpt><trkpt lat="43.5125162" lon="11.424637"><ele>650.0</ele><time>2026-04-19T10:47:20.974Z</time></trkpt><trkpt lat="43.5124602" lon="11.4245901"><ele>650.0</ele><time>2026-04-19T10:47:21.975Z</time></trkpt><trkpt lat="43.512382" lon="11.4244939"><ele>650.0</ele><time>2026-04-19T10:47:23.973Z</time></trkpt><trkpt lat="43.5123038" lon="11.4244069"><ele>647.8333333333333</ele><time>2026-04-19T10:47:25.972Z</time></trkpt><trkpt lat="43.5122315" lon="11.4243302"><ele>645.6666666666666</ele><time>2026-04-19T10:47:27.975Z</time></trkpt><trkpt lat="43.5121863" lon="11.4242366"><ele>643.5</ele><time>2026-04-19T10:47:29.968Z</time></trkpt><trkpt lat="43.5121323" lon="11.4241736"><ele>641.3333333333334</ele><time>2026-04-19T10:47:31.981Z</time></trkpt><trkpt lat="43.5120643" lon="11.4241665"><ele>639.1666666666667</ele><time>2026-04-19T10:47:46.983Z</time></trkpt><trkpt lat="43.5119733" lon="11.4242105"><ele>637.0</ele><time>2026-04-19T10:47:48.974Z</time></trkpt><trkpt lat="43.5118692" lon="11.4242158"><ele>635.8000000000001</ele><time>2026-04-19T10:47:50.974Z</time></trkpt><trkpt lat="43.5117583" lon="11.424233"><ele>634.6</ele><time>2026-04-19T10:47:52.991Z</time></trkpt><trkpt lat="43.5116734" lon="11.4242687"><ele>633.4000000000001</ele><time>2026-04-19T10:47:54.972Z</time></trkpt><trkpt lat="43.5115705" lon="11.4242832"><ele>632.2</ele><time>2026-04-19T10:47:56.976Z</time></trkpt><trkpt lat="43.5114705" lon="11.4242982"><ele>631.0</ele><time>2026-04-19T10:47:58.968Z</time></trkpt><trkpt lat="43.5113753" lon="11.424334"><ele>631.0</ele><time>2026-04-19T10:48:00.976Z</time></trkpt><trkpt lat="43.5112813" lon="11.4243818"><ele>631.0</ele><time>2026-04-19T10:48:02.974Z</time></trkpt><trkpt lat="43.5111784" lon="11.424454"><ele>631.0</ele><time>2026-04-19T10:48:04.975Z</time></trkpt><trkpt lat="43.5111179" lon="11.424497"><ele>631.0</ele><time>2026-04-19T10:48:05.976Z</time></trkpt><trkpt lat="43.511044" lon="11.4245114"><ele>631.0</ele><time>2026-04-19T10:48:06.981Z</time></trkpt><trkpt lat="43.5109587" lon="11.424522"><ele>631.0</ele><time>2026-04-19T10:48:07.977Z</time></trkpt><trkpt lat="43.5108821" lon="11.4245364"><ele>628.8</ele><time>2026-04-19T10:48:08.974Z</time></trkpt><trkpt lat="43.5107725" lon="11.4245655"><ele>626.6</ele><time>2026-04-19T10:48:10.969Z</time></trkpt><trkpt lat="43.5106855" lon="11.4246024"><ele>624.4</ele><time>2026-04-19T10:48:12.962Z</time></trkpt><trkpt lat="43.5106203" lon="11.4246502"><ele>622.2</ele><time>2026-04-19T10:48:14.971Z</time></trkpt><trkpt lat="43.5105152" lon="11.4246953"><ele>620.0</ele><time>2026-04-19T10:48:16.971Z</time></trkpt><trkpt lat="43.5104502" lon="11.4247256"><ele>617.1666666666666</ele><time>2026-04-19T10:48:17.97Z</time></trkpt><trkpt lat="43.510395" lon="11.4247695"><ele>614.3333333333333</ele><time>2026-04-19T10:48:18.97Z</time></trkpt><trkpt lat="43.5102968" lon="11.4248525"><ele>611.5</ele><time>2026-04-19T10:48:20.968Z</time></trkpt><trkpt lat="43.5102372" lon="11.4248993"><ele>608.6666666666666</ele><time>2026-04-19T10:48:21.972Z</time></trkpt><trkpt lat="43.510179" lon="11.4249519"><ele>605.8333333333334</ele><time>2026-04-19T10:48:22.998Z</time></trkpt><trkpt lat="43.5100953" lon="11.4250437"><ele>603.0</ele><time>2026-04-19T10:48:24.967Z</time></trkpt><trkpt lat="43.5100588" lon="11.4251166"><ele>603.0</ele><time>2026-04-19T10:48:25.974Z</time></trkpt><trkpt lat="43.5099728" lon="11.4251973"><ele>603.0</ele><time>2026-04-19T10:48:27.974Z</time></trkpt><trkpt lat="43.5098993" lon="11.4252488"><ele>603.0</ele><time>2026-04-19T10:48:29.973Z</time></trkpt><trkpt lat="43.5098294" lon="11.4253043"><ele>603.0</ele><time>2026-04-19T10:48:31.97Z</time></trkpt><trkpt lat="43.509763" lon="11.4253515"><ele>603.0</ele><time>2026-04-19T10:48:34.968Z</time></trkpt><trkpt lat="43.5096937" lon="11.4254074"><ele>603.0</ele><time>2026-04-19T10:48:38.965Z</time></trkpt><trkpt lat="43.5096065" lon="11.4254803"><ele>604.0</ele><time>2026-04-19T10:48:40.963Z</time></trkpt><trkpt lat="43.5095216" lon="11.4255382"><ele>605.0</ele><time>2026-04-19T10:48:42.968Z</time></trkpt><trkpt lat="43.5094377" lon="11.4255052"><ele>606.0</ele><time>2026-04-19T10:48:44.97Z</time></trkpt><trkpt lat="43.5093637" lon="11.4254845"><ele>607.0</ele><time>2026-04-19T10:48:46.967Z</time></trkpt><trkpt lat="43.5092527" lon="11.4254927"><ele>608.0</ele><time>2026-04-19T10:48:48.971Z</time></trkpt><trkpt lat="43.5091428" lon="11.4255378"><ele>608.0</ele><time>2026-04-19T10:48:50.963Z</time></trkpt><trkpt lat="43.5090404" lon="11.4255591"><ele>608.0</ele><time>2026-04-19T10:48:52.966Z</time></trkpt><trkpt lat="43.5089261" lon="11.4255984"><ele>608.0</ele><time>2026-04-19T10:48:54.97Z</time></trkpt><trkpt lat="43.5088525" lon="11.4256298"><ele>608.0</ele><time>2026-04-19T10:48:55.972Z</time></trkpt><trkpt lat="43.5087686" lon="11.4256532"><ele>608.0</ele><time>2026-04-19T10:48:56.972Z</time></trkpt><trkpt lat="43.508689" lon="11.4256707"><ele>607.1666666666666</ele><time>2026-04-19T10:48:57.968Z</time></trkpt><trkpt lat="43.5085989" lon="11.4256682"><ele>606.3333333333333</ele><time>2026-04-19T10:48:58.964Z</time></trkpt><trkpt lat="43.5085104" lon="11.4256343"><ele>605.5</ele><time>2026-04-19T10:48:59.97Z</time></trkpt><trkpt lat="43.5084431" lon="11.4255905"><ele>604.6666666666666</ele><time>2026-04-19T10:49:00.985Z</time></trkpt><trkpt lat="43.5083778" lon="11.425546"><ele>603.8333333333334</ele><time>2026-04-19T10:49:01.968Z</time></trkpt><trkpt lat="43.5083252" lon="11.4254765"><ele>603.0</ele><time>2026-04-19T10:49:02.97Z</time></trkpt><trkpt lat="43.5082613" lon="11.4253802"><ele>603.0</ele><time>2026-04-19T10:49:04.972Z</time></trkpt><trkpt lat="43.5081721" lon="11.4253625"><ele>603.0</ele><time>2026-04-19T10:49:06.966Z</time></trkpt><trkpt lat="43.5081237" lon="11.4254219"><ele>603.0</ele><time>2026-04-19T10:49:07.973Z</time></trkpt><trkpt lat="43.5080801" lon="11.4254963"><ele>603.0</ele><time>2026-04-19T10:49:08.957Z</time></trkpt><trkpt lat="43.5080235" lon="11.4255831"><ele>603.0</ele><time>2026-04-19T10:49:09.97Z</time></trkpt><trkpt lat="43.5079399" lon="11.425685"><ele>603.0</ele><time>2026-04-19T10:49:10.97Z</time></trkpt><trkpt lat="43.5078451" lon="11.4257761"><ele>602.3333333333334</ele><time>2026-04-19T10:49:11.975Z</time></trkpt><trkpt lat="43.5077444" lon="11.4258807"><ele>601.6666666666666</ele><time>2026-04-19T10:49:12.967Z</time></trkpt><trkpt lat="43.5076746" lon="11.4259538"><ele>601.0</ele><time>2026-04-19T10:49:13.97Z</time></trkpt><trkpt lat="43.5076049" lon="11.4260077"><ele>600.3333333333333</ele><time>2026-04-19T10:49:14.965Z</time></trkpt><trkpt lat="43.507549" lon="11.4260484"><ele>599.6666666666666</ele><time>2026-04-19T10:49:15.971Z</time></trkpt><trkpt lat="43.5074806" lon="11.4260758"><ele>599.0</ele><time>2026-04-19T10:49:17.971Z</time></trkpt><trkpt lat="43.507419" lon="11.4259927"><ele>599.0</ele><time>2026-04-19T10:49:20.967Z</time></trkpt><trkpt lat="43.5074051" lon="11.4258598"><ele>599.0</ele><time>2026-04-19T10:49:22.974Z</time></trkpt><trkpt lat="43.5074094" lon="11.4257597"><ele>599.0</ele><time>2026-04-19T10:49:23.967Z</time></trkpt><trkpt lat="43.5074204" lon="11.4256543"><ele>599.0</ele><time>2026-04-19T10:49:24.961Z</time></trkpt><trkpt lat="43.5074494" lon="11.4255635"><ele>599.0</ele><time>2026-04-19T10:49:25.969Z</time></trkpt><trkpt lat="43.5074838" lon="11.4254661"><ele>599.0</ele><time>2026-04-19T10:49:26.97Z</time></trkpt><trkpt lat="43.507507" lon="11.425375"><ele>597.8</ele><time>2026-04-19T10:49:27.962Z</time></trkpt><trkpt lat="43.5075364" lon="11.4252781"><ele>596.5999999999999</ele><time>2026-04-19T10:49:28.986Z</time></trkpt><trkpt lat="43.5075725" lon="11.4251865"><ele>595.4</ele><time>2026-04-19T10:49:29.973Z</time></trkpt><trkpt lat="43.5076383" lon="11.4250523"><ele>594.1999999999999</ele><time>2026-04-19T10:49:31.988Z</time></trkpt><trkpt lat="43.5076855" lon="11.424896"><ele>593.0</ele><time>2026-04-19T10:49:33.973Z</time></trkpt><trkpt lat="43.5076978" lon="11.4247853"><ele>593.0</ele><time>2026-04-19T10:49:34.967Z</time></trkpt><trkpt lat="43.5077058" lon="11.4246574"><ele>593.0</ele><time>2026-04-19T10:49:35.973Z</time></trkpt><trkpt lat="43.5077091" lon="11.4245257"><ele>593.0</ele><time>2026-04-19T10:49:36.968Z</time></trkpt><trkpt lat="43.5077155" lon="11.4243997"><ele>593.0</ele><time>2026-04-19T10:49:37.968Z</time></trkpt><trkpt lat="43.5077289" lon="11.4242925"><ele>593.0</ele><time>2026-04-19T10:49:38.969Z</time></trkpt><trkpt lat="43.5077382" lon="11.4241428"><ele>592.3333333333333</ele><time>2026-04-19T10:49:40.972Z</time></trkpt><trkpt lat="43.5076969" lon="11.4239966"><ele>591.6666666666666</ele><time>2026-04-19T10:49:42.97Z</time></trkpt><trkpt lat="43.5076647" lon="11.4239159"><ele>591.0</ele><time>2026-04-19T10:49:43.969Z</time></trkpt><trkpt lat="43.5076146" lon="11.4238336"><ele>590.3333333333334</ele><time>2026-04-19T10:49:44.969Z</time></trkpt><trkpt lat="43.5075632" lon="11.4237602"><ele>589.6666666666667</ele><time>2026-04-19T10:49:45.969Z</time></trkpt><trkpt lat="43.5075241" lon="11.4236796"><ele>589.0</ele><time>2026-04-19T10:49:46.972Z</time></trkpt><trkpt lat="43.5075081" lon="11.4235869"><ele>589.0</ele><time>2026-04-19T10:49:47.966Z</time></trkpt><trkpt lat="43.5075018" lon="11.4234698"><ele>589.0</ele><time>2026-04-19T10:49:48.969Z</time></trkpt><trkpt lat="43.5075027" lon="11.423343"><ele>589.0</ele><time>2026-04-19T10:49:49.969Z</time></trkpt><trkpt lat="43.5075118" lon="11.4232447"><ele>589.0</ele><time>2026-04-19T10:49:50.967Z</time></trkpt><trkpt lat="43.5075298" lon="11.4231496"><ele>589.0</ele><time>2026-04-19T10:49:51.965Z</time></trkpt><trkpt lat="43.5074846" lon="11.4230194"><ele>589.0</ele><time>2026-04-19T10:49:53.973Z</time></trkpt><trkpt lat="43.5074313" lon="11.4229236"><ele>589.6</ele><time>2026-04-19T10:49:55.968Z</time></trkpt><trkpt lat="43.5074495" lon="11.4228308"><ele>590.2</ele><time>2026-04-19T10:49:57.99Z</time></trkpt><trkpt lat="43.5075327" lon="11.4226967"><ele>590.8000000000001</ele><time>2026-04-19T10:49:59.969Z</time></trkpt><trkpt lat="43.5075736" lon="11.4226032"><ele>591.4</ele><time>2026-04-19T10:50:00.968Z</time></trkpt><trkpt lat="43.5076074" lon="11.4224934"><ele>592.0</ele><time>2026-04-19T10:50:01.972Z</time></trkpt><trkpt lat="43.5076391" lon="11.4223715"><ele>592.0</ele><time>2026-04-19T10:50:02.968Z</time></trkpt><trkpt lat="43.5076593" lon="11.4222407"><ele>592.0</ele><time>2026-04-19T10:50:03.976Z</time></trkpt><trkpt lat="43.5076819" lon="11.4221091"><ele>592.0</ele><time>2026-04-19T10:50:04.967Z</time></trkpt><trkpt lat="43.5077019" lon="11.421994"><ele>592.0</ele><time>2026-04-19T10:50:05.968Z</time></trkpt><trkpt lat="43.5077129" lon="11.4218803"><ele>592.0</ele><time>2026-04-19T10:50:06.967Z</time></trkpt><trkpt lat="43.5077" lon="11.4217771"><ele>592.0</ele><time>2026-04-19T10:50:07.969Z</time></trkpt><trkpt lat="43.5076799" lon="11.4216775"><ele>592.1666666666667</ele><time>2026-04-19T10:50:08.971Z</time></trkpt><trkpt lat="43.5076443" lon="11.4215839"><ele>592.3333333333334</ele><time>2026-04-19T10:50:09.967Z</time></trkpt><trkpt lat="43.5075981" lon="11.4214952"><ele>592.5</ele><time>2026-04-19T10:50:10.97Z</time></trkpt><trkpt lat="43.5075565" lon="11.4214001"><ele>592.6666666666666</ele><time>2026-04-19T10:50:11.972Z</time></trkpt><trkpt lat="43.5075132" lon="11.421293"><ele>592.8333333333333</ele><time>2026-04-19T10:50:12.966Z</time></trkpt><trkpt lat="43.5074776" lon="11.4211501"><ele>593.0</ele><time>2026-04-19T10:50:13.974Z</time></trkpt><trkpt lat="43.5074346" lon="11.4210041"><ele>592.1666666666666</ele><time>2026-04-19T10:50:14.968Z</time></trkpt><trkpt lat="43.5073961" lon="11.4208609"><ele>591.3333333333333</ele><time>2026-04-19T10:50:15.968Z</time></trkpt><trkpt lat="43.5073602" lon="11.4207342"><ele>590.5</ele><time>2026-04-19T10:50:16.969Z</time></trkpt><trkpt lat="43.507327" lon="11.4206333"><ele>589.6666666666666</ele><time>2026-04-19T10:50:17.962Z</time></trkpt><trkpt lat="43.5072952" lon="11.4205489"><ele>588.8333333333334</ele><time>2026-04-19T10:50:18.967Z</time></trkpt><trkpt lat="43.5072382" lon="11.4204788"><ele>588.0</ele><time>2026-04-19T10:50:19.971Z</time></trkpt><trkpt lat="43.5071353" lon="11.4204476"><ele>591.1999999999999</ele><time>2026-04-19T10:50:20.969Z</time></trkpt><trkpt lat="43.5070183" lon="11.4204042"><ele>594.4</ele><time>2026-04-19T10:50:21.966Z</time></trkpt><trkpt lat="43.506903" lon="11.4203594"><ele>597.5999999999999</ele><time>2026-04-19T10:50:22.963Z</time></trkpt><trkpt lat="43.506817" lon="11.4203366"><ele>600.8</ele><time>2026-04-19T10:50:23.977Z</time></trkpt><trkpt lat="43.5067273" lon="11.4203285"><ele>604.0</ele><time>2026-04-19T10:50:24.965Z</time></trkpt><trkpt lat="43.5066239" lon="11.4203158"><ele>604.0</ele><time>2026-04-19T10:50:25.967Z</time></trkpt><trkpt lat="43.506517" lon="11.4203139"><ele>604.0</ele><time>2026-04-19T10:50:26.976Z</time></trkpt><trkpt lat="43.5064266" lon="11.4202916"><ele>604.0</ele><time>2026-04-19T10:50:27.963Z</time></trkpt><trkpt lat="43.5063474" lon="11.4202753"><ele>604.0</ele><time>2026-04-19T10:50:28.967Z</time></trkpt><trkpt lat="43.5062716" lon="11.420234"><ele>604.0</ele><time>2026-04-19T10:50:29.971Z</time></trkpt><trkpt lat="43.5062211" lon="11.4201741"><ele>604.0</ele><time>2026-04-19T10:50:30.962Z</time></trkpt><trkpt lat="43.5062325" lon="11.4200244"><ele>604.0</ele><time>2026-04-19T10:50:32.968Z</time></trkpt><trkpt lat="43.5063072" lon="11.4198798"><ele>604.0</ele><time>2026-04-19T10:50:34.97Z</time></trkpt><trkpt lat="43.506349" lon="11.4197782"><ele>604.0</ele><time>2026-04-19T10:50:35.975Z</time></trkpt><trkpt lat="43.5063708" lon="11.4196698"><ele>604.0</ele><time>2026-04-19T10:50:36.968Z</time></trkpt><trkpt lat="43.5063754" lon="11.4195661"><ele>604.0</ele><time>2026-04-19T10:50:37.968Z</time></trkpt><trkpt lat="43.5063764" lon="11.4194702"><ele>604.0</ele><time>2026-04-19T10:50:38.968Z</time></trkpt><trkpt lat="43.5064754" lon="11.419327"><ele>604.8333333333334</ele><time>2026-04-19T10:50:40.973Z</time></trkpt><trkpt lat="43.5065365" lon="11.4192835"><ele>605.6666666666667</ele><time>2026-04-19T10:50:41.968Z</time></trkpt><trkpt lat="43.5065992" lon="11.4192415"><ele>606.5</ele><time>2026-04-19T10:50:42.972Z</time></trkpt><trkpt lat="43.5066864" lon="11.4191125"><ele>607.3333333333334</ele><time>2026-04-19T10:50:44.966Z</time></trkpt><trkpt lat="43.5067154" lon="11.4190012"><ele>608.1666666666666</ele><time>2026-04-19T10:50:45.971Z</time></trkpt><trkpt lat="43.506742" lon="11.4188893"><ele>609.0</ele><time>2026-04-19T10:50:46.974Z</time></trkpt><trkpt lat="43.5067747" lon="11.4187885"><ele>610.8</ele><time>2026-04-19T10:50:47.969Z</time></trkpt><trkpt lat="43.5068323" lon="11.4186927"><ele>612.5999999999999</ele><time>2026-04-19T10:50:48.969Z</time></trkpt><trkpt lat="43.5069208" lon="11.4186189"><ele>614.4</ele><time>2026-04-19T10:50:49.974Z</time></trkpt><trkpt lat="43.5069874" lon="11.4185603"><ele>616.1999999999999</ele><time>2026-04-19T10:50:50.97Z</time></trkpt><trkpt lat="43.5070494" lon="11.4184379"><ele>618.0</ele><time>2026-04-19T10:50:52.972Z</time></trkpt><trkpt lat="43.5070323" lon="11.4183385"><ele>618.0</ele><time>2026-04-19T10:50:53.97Z</time></trkpt><trkpt lat="43.5070181" lon="11.4181988"><ele>618.0</ele><time>2026-04-19T10:50:54.966Z</time></trkpt><trkpt lat="43.5069954" lon="11.418043"><ele>618.0</ele><time>2026-04-19T10:50:55.981Z</time></trkpt><trkpt lat="43.5069617" lon="11.4178782"><ele>618.0</ele><time>2026-04-19T10:50:56.968Z</time></trkpt><trkpt lat="43.5069444" lon="11.4177304"><ele>616.6666666666666</ele><time>2026-04-19T10:50:57.97Z</time></trkpt><trkpt lat="43.5069155" lon="11.4176049"><ele>615.3333333333334</ele><time>2026-04-19T10:50:58.973Z</time></trkpt><trkpt lat="43.5068915" lon="11.4174799"><ele>614.0</ele><time>2026-04-19T10:50:59.975Z</time></trkpt><trkpt lat="43.5068696" lon="11.4173615"><ele>612.6666666666667</ele><time>2026-04-19T10:51:00.963Z</time></trkpt><trkpt lat="43.5068416" lon="11.4172575"><ele>611.3333333333334</ele><time>2026-04-19T10:51:01.976Z</time></trkpt><trkpt lat="43.5068349" lon="11.417156"><ele>610.0</ele><time>2026-04-19T10:51:02.973Z</time></trkpt><trkpt lat="43.5068777" lon="11.4170656"><ele>608.0</ele><time>2026-04-19T10:51:09.99Z</time></trkpt><trkpt lat="43.5068528" lon="11.4169551"><ele>606.0</ele><time>2026-04-19T10:51:11.97Z</time></trkpt><trkpt lat="43.5067841" lon="11.4168981"><ele>604.0</ele><time>2026-04-19T10:51:13.973Z</time></trkpt><trkpt lat="43.5066976" lon="11.4168305"><ele>602.0</ele><time>2026-04-19T10:51:15.972Z</time></trkpt><trkpt lat="43.5066328" lon="11.4167637"><ele>600.0</ele><time>2026-04-19T10:51:17.979Z</time></trkpt><trkpt lat="43.5065894" lon="11.4166902"><ele>598.0</ele><time>2026-04-19T10:51:19.971Z</time></trkpt><trkpt lat="43.5065504" lon="11.4166105"><ele>598.0</ele><time>2026-04-19T10:51:21.974Z</time></trkpt><trkpt lat="43.5065187" lon="11.4165311"><ele>598.0</ele><time>2026-04-19T10:51:23.972Z</time></trkpt><trkpt lat="43.5065091" lon="11.4164307"><ele>598.0</ele><time>2026-04-19T10:52:07.974Z</time></trkpt><trkpt lat="43.5064486" lon="11.4163416"><ele>598.0</ele><time>2026-04-19T10:52:10.974Z</time></trkpt><trkpt lat="43.5063962" lon="11.4162895"><ele>598.0</ele><time>2026-04-19T10:52:14.975Z</time></trkpt><trkpt lat="43.5064483" lon="11.4163483"><ele>598.0</ele><time>2026-04-19T10:52:22.978Z</time></trkpt><trkpt lat="43.5064953" lon="11.4164158"><ele>598.0</ele><time>2026-04-19T10:52:24.972Z</time></trkpt><trkpt lat="43.5065361" lon="11.4165176"><ele>598.0</ele><time>2026-04-19T10:52:26.969Z</time></trkpt><trkpt lat="43.5065718" lon="11.4166399"><ele>598.0</ele><time>2026-04-19T10:52:28.965Z</time></trkpt><trkpt lat="43.506613" lon="11.416714"><ele>598.0</ele><time>2026-04-19T10:52:29.962Z</time></trkpt><trkpt lat="43.5066645" lon="11.416784"><ele>598.0</ele><time>2026-04-19T10:52:30.974Z</time></trkpt><trkpt lat="43.5067259" lon="11.4168505"><ele>598.0</ele><time>2026-04-19T10:52:31.973Z</time></trkpt><trkpt lat="43.5067806" lon="11.4169101"><ele>598.0</ele><time>2026-04-19T10:52:32.987Z</time></trkpt><trkpt lat="43.506841" lon="11.4170103"><ele>598.0</ele><time>2026-04-19T10:52:35.978Z</time></trkpt><trkpt lat="43.5068893" lon="11.4170757"><ele>598.0</ele><time>2026-04-19T10:52:37.975Z</time></trkpt><trkpt lat="43.5069654" lon="11.4169886"><ele>598.0</ele><time>2026-04-19T10:52:40.972Z</time></trkpt><trkpt lat="43.5069999" lon="11.4168719"><ele>598.0</ele><time>2026-04-19T10:52:42.972Z</time></trkpt><trkpt lat="43.5070454" lon="11.4167701"><ele>598.0</ele><time>2026-04-19T10:52:44.982Z</time></trkpt><trkpt lat="43.5070727" lon="11.4166333"><ele>598.0</ele><time>2026-04-19T10:52:46.981Z</time></trkpt><trkpt lat="43.5071116" lon="11.4164971"><ele>596.0</ele><time>2026-04-19T10:52:48.98Z</time></trkpt><trkpt lat="43.5071348" lon="11.4163882"><ele>594.0</ele><time>2026-04-19T10:52:50.976Z</time></trkpt><trkpt lat="43.5071232" lon="11.4162872"><ele>592.0</ele><time>2026-04-19T10:52:52.977Z</time></trkpt><trkpt lat="43.5071008" lon="11.4161752"><ele>590.0</ele><time>2026-04-19T10:52:54.972Z</time></trkpt><trkpt lat="43.5070473" lon="11.4161053"><ele>588.0</ele><time>2026-04-19T10:52:56.976Z</time></trkpt><trkpt lat="43.506989" lon="11.4160719"><ele>586.0</ele><time>2026-04-19T10:52:58.976Z</time></trkpt><trkpt lat="43.5069766" lon="11.4159685"><ele>584.8</ele><time>2026-04-19T10:53:01.977Z</time></trkpt><trkpt lat="43.507068" lon="11.4159102"><ele>583.6</ele><time>2026-04-19T10:53:03.98Z</time></trkpt><trkpt lat="43.5071595" lon="11.4158381"><ele>582.4</ele><time>2026-04-19T10:53:05.971Z</time></trkpt><trkpt lat="43.50724" lon="11.415768"><ele>581.2</ele><time>2026-04-19T10:53:07.978Z</time></trkpt><trkpt lat="43.5073243" lon="11.4157465"><ele>580.0</ele><time>2026-04-19T10:53:09.972Z</time></trkpt><trkpt lat="43.507443" lon="11.4157742"><ele>580.0</ele><time>2026-04-19T10:53:11.972Z</time></trkpt><trkpt lat="43.507504" lon="11.4158121"><ele>580.0</ele><time>2026-04-19T10:53:12.985Z</time></trkpt><trkpt lat="43.5075705" lon="11.4158536"><ele>580.0</ele><time>2026-04-19T10:53:13.973Z</time></trkpt><trkpt lat="43.5076613" lon="11.4158877"><ele>580.0</ele><time>2026-04-19T10:53:14.963Z</time></trkpt><trkpt lat="43.5077482" lon="11.4159226"><ele>580.0</ele><time>2026-04-19T10:53:15.985Z</time></trkpt><trkpt lat="43.5078325" lon="11.4159299"><ele>580.0</ele><time>2026-04-19T10:53:16.983Z</time></trkpt><trkpt lat="43.5079481" lon="11.4158691"><ele>577.8333333333334</ele><time>2026-04-19T10:53:18.97Z</time></trkpt><trkpt lat="43.5080023" lon="11.4158236"><ele>575.6666666666667</ele><time>2026-04-19T10:53:19.986Z</time></trkpt><trkpt lat="43.5080958" lon="11.4156951"><ele>573.5</ele><time>2026-04-19T10:53:21.972Z</time></trkpt><trkpt lat="43.5081551" lon="11.4156246"><ele>571.3333333333334</ele><time>2026-04-19T10:53:22.975Z</time></trkpt><trkpt lat="43.5082201" lon="11.4155749"><ele>569.1666666666666</ele><time>2026-04-19T10:53:23.98Z</time></trkpt><trkpt lat="43.5082738" lon="11.4155285"><ele>567.0</ele><time>2026-04-19T10:53:24.974Z</time></trkpt><trkpt lat="43.5083289" lon="11.4154858"><ele>566.5</ele><time>2026-04-19T10:53:25.985Z</time></trkpt><trkpt lat="43.5083935" lon="11.415453"><ele>566.0</ele><time>2026-04-19T10:53:26.976Z</time></trkpt><trkpt lat="43.508456" lon="11.4154314"><ele>565.5</ele><time>2026-04-19T10:53:27.984Z</time></trkpt><trkpt lat="43.5085382" lon="11.4153827"><ele>565.0</ele><time>2026-04-19T10:53:29.974Z</time></trkpt><trkpt lat="43.5085946" lon="11.4153255"><ele>564.5</ele><time>2026-04-19T10:53:31.973Z</time></trkpt><trkpt lat="43.5086523" lon="11.4152328"><ele>564.0</ele><time>2026-04-19T10:53:33.979Z</time></trkpt><trkpt lat="43.5086987" lon="11.4151167"><ele>564.0</ele><time>2026-04-19T10:53:35.968Z</time></trkpt><trkpt lat="43.5087342" lon="11.4150001"><ele>564.0</ele><time>2026-04-19T10:53:37.978Z</time></trkpt><trkpt lat="43.5087469" lon="11.414872"><ele>564.0</ele><time>2026-04-19T10:53:39.985Z</time></trkpt><trkpt lat="43.5087379" lon="11.4147453"><ele>564.0</ele><time>2026-04-19T10:53:41.982Z</time></trkpt><trkpt lat="43.5087065" lon="11.4146161"><ele>564.0</ele><time>2026-04-19T10:53:43.976Z</time></trkpt><trkpt lat="43.5086337" lon="11.4145316"><ele>561.8</ele><time>2026-04-19T10:53:45.976Z</time></trkpt><trkpt lat="43.5086113" lon="11.4144068"><ele>559.5999999999999</ele><time>2026-04-19T10:53:47.976Z</time></trkpt><trkpt lat="43.5086264" lon="11.4142773"><ele>557.4</ele><time>2026-04-19T10:53:49.968Z</time></trkpt><trkpt lat="43.5086764" lon="11.414187"><ele>555.1999999999999</ele><time>2026-04-19T10:53:52.974Z</time></trkpt><trkpt lat="43.5086596" lon="11.4140758"><ele>553.0</ele><time>2026-04-19T10:54:01.978Z</time></trkpt><trkpt lat="43.5086316" lon="11.4139302"><ele>552.0</ele><time>2026-04-19T10:54:03.993Z</time></trkpt><trkpt lat="43.5085795" lon="11.4137539"><ele>551.0</ele><time>2026-04-19T10:54:05.981Z</time></trkpt><trkpt lat="43.5085392" lon="11.4136498"><ele>550.0</ele><time>2026-04-19T10:54:06.99Z</time></trkpt><trkpt lat="43.5085042" lon="11.4134921"><ele>549.0</ele><time>2026-04-19T10:54:08.996Z</time></trkpt><trkpt lat="43.5084943" lon="11.4133339"><ele>549.0</ele><time>2026-04-19T10:54:10.987Z</time></trkpt><trkpt lat="43.5085231" lon="11.4131637"><ele>549.0</ele><time>2026-04-19T10:54:12.978Z</time></trkpt><trkpt lat="43.508553" lon="11.4130841"><ele>549.0</ele><time>2026-04-19T10:54:13.978Z</time></trkpt><trkpt lat="43.5085885" lon="11.4130047"><ele>549.0</ele><time>2026-04-19T10:54:14.977Z</time></trkpt><trkpt lat="43.5086168" lon="11.4129244"><ele>549.0</ele><time>2026-04-19T10:54:15.969Z</time></trkpt><trkpt lat="43.5086575" lon="11.4127708"><ele>549.0</ele><time>2026-04-19T10:54:17.988Z</time></trkpt><trkpt lat="43.5086912" lon="11.4126874"><ele>548.4</ele><time>2026-04-19T10:54:18.974Z</time></trkpt><trkpt lat="43.5087238" lon="11.4126086"><ele>547.8</ele><time>2026-04-19T10:54:19.973Z</time></trkpt><trkpt lat="43.5087896" lon="11.4124943"><ele>547.2</ele><time>2026-04-19T10:54:21.985Z</time></trkpt><trkpt lat="43.5088708" lon="11.4124302"><ele>546.6</ele><time>2026-04-19T10:54:23.986Z</time></trkpt><trkpt lat="43.508968" lon="11.4123501"><ele>546.0</ele><time>2026-04-19T10:54:25.973Z</time></trkpt><trkpt lat="43.5090344" lon="11.4122697"><ele>545.8</ele><time>2026-04-19T10:54:27.98Z</time></trkpt><trkpt lat="43.5090989" lon="11.4121661"><ele>545.6</ele><time>2026-04-19T10:54:29.971Z</time></trkpt><trkpt lat="43.5091336" lon="11.4120921"><ele>545.4</ele><time>2026-04-19T10:54:30.98Z</time></trkpt><trkpt lat="43.5091912" lon="11.4119499"><ele>545.2</ele><time>2026-04-19T10:54:32.982Z</time></trkpt><trkpt lat="43.509203" lon="11.4118093"><ele>545.0</ele><time>2026-04-19T10:54:34.971Z</time></trkpt><trkpt lat="43.5092214" lon="11.4116758"><ele>543.3333333333333</ele><time>2026-04-19T10:54:36.971Z</time></trkpt><trkpt lat="43.5092718" lon="11.4115586"><ele>541.6666666666666</ele><time>2026-04-19T10:54:38.991Z</time></trkpt><trkpt lat="43.5093012" lon="11.4114787"><ele>540.0</ele><time>2026-04-19T10:54:39.971Z</time></trkpt><trkpt lat="43.5093186" lon="11.4113907"><ele>538.3333333333334</ele><time>2026-04-19T10:54:40.987Z</time></trkpt><trkpt lat="43.5093413" lon="11.411293"><ele>536.6666666666667</ele><time>2026-04-19T10:54:41.97Z</time></trkpt><trkpt lat="43.5093818" lon="11.4111715"><ele>535.0</ele><time>2026-04-19T10:54:42.975Z</time></trkpt><trkpt lat="43.5094142" lon="11.4110709"><ele>533.6666666666667</ele><time>2026-04-19T10:54:43.98Z</time></trkpt><trkpt lat="43.509456" lon="11.4109713"><ele>532.3333333333334</ele><time>2026-04-19T10:54:44.975Z</time></trkpt><trkpt lat="43.5094883" lon="11.4108704"><ele>531.0</ele><time>2026-04-19T10:54:45.979Z</time></trkpt><trkpt lat="43.5095027" lon="11.4107398"><ele>529.6666666666666</ele><time>2026-04-19T10:54:47.986Z</time></trkpt><trkpt lat="43.5094686" lon="11.4106289"><ele>528.3333333333333</ele><time>2026-04-19T10:54:49.974Z</time></trkpt><trkpt lat="43.5094374" lon="11.4105364"><ele>527.0</ele><time>2026-04-19T10:54:50.985Z</time></trkpt><trkpt lat="43.5094345" lon="11.410444"><ele>525.8000000000001</ele><time>2026-04-19T10:54:51.97Z</time></trkpt><trkpt lat="43.509447" lon="11.4103589"><ele>524.6</ele><time>2026-04-19T10:54:52.988Z</time></trkpt><trkpt lat="43.5094622" lon="11.4102726"><ele>523.4000000000001</ele><time>2026-04-19T10:54:53.974Z</time></trkpt><trkpt lat="43.5095143" lon="11.410122"><ele>522.2</ele><time>2026-04-19T10:54:55.974Z</time></trkpt><trkpt lat="43.5095101" lon="11.409978"><ele>521.0</ele><time>2026-04-19T10:54:57.969Z</time></trkpt><trkpt lat="43.5094602" lon="11.4098423"><ele>521.0</ele><time>2026-04-19T10:54:59.975Z</time></trkpt><trkpt lat="43.5094534" lon="11.4097377"><ele>521.0</ele><time>2026-04-19T10:55:00.974Z</time></trkpt><trkpt lat="43.5094568" lon="11.4096258"><ele>521.0</ele><time>2026-04-19T10:55:01.982Z</time></trkpt><trkpt lat="43.5094539" lon="11.4094979"><ele>521.0</ele><time>2026-04-19T10:55:02.979Z</time></trkpt><trkpt lat="43.5094497" lon="11.4093904"><ele>521.0</ele><time>2026-04-19T10:55:03.97Z</time></trkpt><trkpt lat="43.5094367" lon="11.409287"><ele>521.0</ele><time>2026-04-19T10:55:04.972Z</time></trkpt><trkpt lat="43.5094244" lon="11.4091941"><ele>521.2</ele><time>2026-04-19T10:55:05.971Z</time></trkpt><trkpt lat="43.5094173" lon="11.4090926"><ele>521.4000000000001</ele><time>2026-04-19T10:55:06.97Z</time></trkpt><trkpt lat="43.5093966" lon="11.4089476"><ele>521.6</ele><time>2026-04-19T10:55:08.976Z</time></trkpt><trkpt lat="43.509285" lon="11.4087988"><ele>521.8000000000001</ele><time>2026-04-19T10:55:10.994Z</time></trkpt><trkpt lat="43.5092215" lon="11.4086932"><ele>522.0</ele><time>2026-04-19T10:55:11.981Z</time></trkpt><trkpt lat="43.5091584" lon="11.408575"><ele>522.1666666666666</ele><time>2026-04-19T10:55:12.97Z</time></trkpt><trkpt lat="43.5091101" lon="11.4084822"><ele>522.3333333333334</ele><time>2026-04-19T10:55:13.986Z</time></trkpt><trkpt lat="43.5090773" lon="11.4084029"><ele>522.5</ele><time>2026-04-19T10:55:14.976Z</time></trkpt><trkpt lat="43.5090281" lon="11.4082785"><ele>522.6666666666667</ele><time>2026-04-19T10:55:16.971Z</time></trkpt><trkpt lat="43.5090336" lon="11.4081435"><ele>522.8333333333334</ele><time>2026-04-19T10:55:18.974Z</time></trkpt><trkpt lat="43.5090542" lon="11.4080602"><ele>523.0</ele><time>2026-04-19T10:55:19.975Z</time></trkpt><trkpt lat="43.5090995" lon="11.4079071"><ele>521.4</ele><time>2026-04-19T10:55:21.973Z</time></trkpt><trkpt lat="43.5091381" lon="11.4077682"><ele>519.8</ele><time>2026-04-19T10:55:23.977Z</time></trkpt><trkpt lat="43.5091928" lon="11.4076587"><ele>518.2</ele><time>2026-04-19T10:55:25.973Z</time></trkpt><trkpt lat="43.5092673" lon="11.4075486"><ele>516.6</ele><time>2026-04-19T10:55:27.971Z</time></trkpt><trkpt lat="43.509332" lon="11.40751"><ele>515.0</ele><time>2026-04-19T10:55:28.969Z</time></trkpt><trkpt lat="43.5094085" lon="11.4074462"><ele>515.0</ele><time>2026-04-19T10:55:30.973Z</time></trkpt><trkpt lat="43.5094291" lon="11.4073281"><ele>515.0</ele><time>2026-04-19T10:55:32.988Z</time></trkpt><trkpt lat="43.5094016" lon="11.4072049"><ele>515.0</ele><time>2026-04-19T10:55:34.99Z</time></trkpt><trkpt lat="43.5093638" lon="11.4071211"><ele>515.0</ele><time>2026-04-19T10:55:36.973Z</time></trkpt><trkpt lat="43.5093644" lon="11.4070114"><ele>515.0</ele><time>2026-04-19T10:55:38.978Z</time></trkpt><trkpt lat="43.5093537" lon="11.4068645"><ele>515.0</ele><time>2026-04-19T10:55:40.973Z</time></trkpt><trkpt lat="43.5093022" lon="11.4067494"><ele>513.1666666666666</ele><time>2026-04-19T10:55:42.97Z</time></trkpt><trkpt lat="43.5092487" lon="11.406664"><ele>511.3333333333333</ele><time>2026-04-19T10:55:44.964Z</time></trkpt><trkpt lat="43.5092144" lon="11.4065574"><ele>509.5</ele><time>2026-04-19T10:55:46.978Z</time></trkpt><trkpt lat="43.5092268" lon="11.4064375"><ele>507.66666666666663</ele><time>2026-04-19T10:55:48.995Z</time></trkpt><trkpt lat="43.5092618" lon="11.406315"><ele>505.8333333333333</ele><time>2026-04-19T10:55:50.975Z</time></trkpt><trkpt lat="43.5093175" lon="11.4062293"><ele>504.0</ele><time>2026-04-19T10:55:52.987Z</time></trkpt><trkpt lat="43.5093895" lon="11.4061304"><ele>503.0</ele><time>2026-04-19T10:55:54.975Z</time></trkpt><trkpt lat="43.5093821" lon="11.406029"><ele>502.0</ele><time>2026-04-19T10:55:56.978Z</time></trkpt><trkpt lat="43.5093261" lon="11.4058899"><ele>501.0</ele><time>2026-04-19T10:55:58.977Z</time></trkpt><trkpt lat="43.5092777" lon="11.4057369"><ele>500.0</ele><time>2026-04-19T10:56:00.98Z</time></trkpt><trkpt lat="43.5092545" lon="11.4056557"><ele>499.0</ele><time>2026-04-19T10:56:01.966Z</time></trkpt><trkpt lat="43.5092141" lon="11.4055017"><ele>497.4</ele><time>2026-04-19T10:56:03.97Z</time></trkpt><trkpt lat="43.509179" lon="11.4053426"><ele>495.79999999999995</ele><time>2026-04-19T10:56:05.97Z</time></trkpt><trkpt lat="43.5091696" lon="11.4052552"><ele>494.20000000000005</ele><time>2026-04-19T10:56:06.975Z</time></trkpt><trkpt lat="43.5091592" lon="11.4051117"><ele>492.6</ele><time>2026-04-19T10:56:08.971Z</time></trkpt><trkpt lat="43.5091398" lon="11.4049483"><ele>491.0</ele><time>2026-04-19T10:56:10.971Z</time></trkpt><trkpt lat="43.5091085" lon="11.404805"><ele>490.99999999999994</ele><time>2026-04-19T10:56:12.977Z</time></trkpt><trkpt lat="43.509089" lon="11.4046999"><ele>491.0</ele><time>2026-04-19T10:56:14.969Z</time></trkpt><trkpt lat="43.5091161" lon="11.4046165"><ele>491.0</ele><time>2026-04-19T10:56:16.978Z</time></trkpt><trkpt lat="43.5091794" lon="11.4046034"><ele>491.0</ele><time>2026-04-19T10:56:17.98Z</time></trkpt><trkpt lat="43.5092769" lon="11.4045817"><ele>490.99999999999994</ele><time>2026-04-19T10:56:19.982Z</time></trkpt><trkpt lat="43.5093379" lon="11.4044987"><ele>491.0</ele><time>2026-04-19T10:56:21.981Z</time></trkpt><trkpt lat="43.5094032" lon="11.4043799"><ele>488.8</ele><time>2026-04-19T10:56:23.995Z</time></trkpt><trkpt lat="43.5094404" lon="11.4042514"><ele>486.6</ele><time>2026-04-19T10:56:25.976Z</time></trkpt><trkpt lat="43.5094623" lon="11.4041043"><ele>484.4</ele><time>2026-04-19T10:56:27.98Z</time></trkpt><trkpt lat="43.5094661" lon="11.4039288"><ele>482.2</ele><time>2026-04-19T10:56:29.966Z</time></trkpt><trkpt lat="43.5094609" lon="11.4038367"><ele>480.0</ele><time>2026-04-19T10:56:30.975Z</time></trkpt><trkpt lat="43.5094494" lon="11.4037427"><ele>477.3333333333333</ele><time>2026-04-19T10:56:31.973Z</time></trkpt><trkpt lat="43.5094417" lon="11.4036472"><ele>474.66666666666663</ele><time>2026-04-19T10:56:32.981Z</time></trkpt><trkpt lat="43.5094438" lon="11.4035522"><ele>472.0</ele><time>2026-04-19T10:56:33.965Z</time></trkpt><trkpt lat="43.5094559" lon="11.4034466"><ele>469.3333333333333</ele><time>2026-04-19T10:56:34.971Z</time></trkpt><trkpt lat="43.509461" lon="11.4033474"><ele>466.66666666666663</ele><time>2026-04-19T10:56:35.969Z</time></trkpt><trkpt lat="43.5094623" lon="11.4031971"><ele>464.0</ele><time>2026-04-19T10:56:37.966Z</time></trkpt><trkpt lat="43.5094625" lon="11.4030637"><ele>463.0</ele><time>2026-04-19T10:56:45.975Z</time></trkpt><trkpt lat="43.5094215" lon="11.4029877"><ele>462.0</ele><time>2026-04-19T10:56:46.974Z</time></trkpt><trkpt lat="43.5093284" lon="11.4029237"><ele>461.0</ele><time>2026-04-19T10:56:47.975Z</time></trkpt><trkpt lat="43.5092137" lon="11.4028847"><ele>460.0</ele><time>2026-04-19T10:56:48.971Z</time></trkpt><trkpt lat="43.5090901" lon="11.4028549"><ele>459.0</ele><time>2026-04-19T10:56:49.982Z</time></trkpt><trkpt lat="43.508925" lon="11.4028243"><ele>459.0</ele><time>2026-04-19T10:56:50.976Z</time></trkpt><trkpt lat="43.5087495" lon="11.4028076"><ele>459.0</ele><time>2026-04-19T10:56:51.979Z</time></trkpt><trkpt lat="43.5085722" lon="11.4027761"><ele>459.0</ele><time>2026-04-19T10:56:52.977Z</time></trkpt><trkpt lat="43.508389" lon="11.4027459"><ele>455.0</ele><time>2026-04-19T10:56:53.998Z</time></trkpt><trkpt lat="43.5082169" lon="11.4027254"><ele>451.0</ele><time>2026-04-19T10:56:54.975Z</time></trkpt><trkpt lat="43.5080447" lon="11.4027047"><ele>447.0</ele><time>2026-04-19T10:56:55.974Z</time></trkpt><trkpt lat="43.5078917" lon="11.4026637"><ele>445.5</ele><time>2026-04-19T10:56:56.976Z</time></trkpt><trkpt lat="43.5077427" lon="11.402624"><ele>444.0</ele><time>2026-04-19T10:56:57.973Z</time></trkpt><trkpt lat="43.5075923" lon="11.4025704"><ele>442.5</ele><time>2026-04-19T10:56:58.994Z</time></trkpt><trkpt lat="43.5074554" lon="11.402524"><ele>441.0</ele><time>2026-04-19T10:56:59.968Z</time></trkpt><trkpt lat="43.5073126" lon="11.4024766"><ele>441.0</ele><time>2026-04-19T10:57:00.977Z</time></trkpt><trkpt lat="43.5071765" lon="11.4024233"><ele>441.0</ele><time>2026-04-19T10:57:01.974Z</time></trkpt><trkpt lat="43.5070403" lon="11.402359"><ele>441.0</ele><time>2026-04-19T10:57:02.969Z</time></trkpt><trkpt lat="43.506913" lon="11.4022807"><ele>441.0</ele><time>2026-04-19T10:57:03.971Z</time></trkpt><trkpt lat="43.5067955" lon="11.4021865"><ele>434.5</ele><time>2026-04-19T10:57:04.97Z</time></trkpt><trkpt lat="43.5066848" lon="11.4020937"><ele>428.0</ele><time>2026-04-19T10:57:05.969Z</time></trkpt><trkpt lat="43.5065879" lon="11.4020028"><ele>421.5</ele><time>2026-04-19T10:57:06.969Z</time></trkpt><trkpt lat="43.506506" lon="11.4019196"><ele>415.0</ele><time>2026-04-19T10:57:07.972Z</time></trkpt><trkpt lat="43.5064305" lon="11.4018245"><ele>415.0</ele><time>2026-04-19T10:57:08.985Z</time></trkpt><trkpt lat="43.5063535" lon="11.4017414"><ele>415.0</ele><time>2026-04-19T10:57:09.975Z</time></trkpt><trkpt lat="43.5062635" lon="11.4016715"><ele>415.0</ele><time>2026-04-19T10:57:10.979Z</time></trkpt><trkpt lat="43.5061655" lon="11.4016382"><ele>415.0</ele><time>2026-04-19T10:57:11.971Z</time></trkpt><trkpt lat="43.5060747" lon="11.4016206"><ele>415.0</ele><time>2026-04-19T10:57:12.975Z</time></trkpt><trkpt lat="43.5059927" lon="11.4016027"><ele>413.6</ele><time>2026-04-19T10:57:13.973Z</time></trkpt><trkpt lat="43.5059243" lon="11.4015787"><ele>412.2</ele><time>2026-04-19T10:57:14.982Z</time></trkpt><trkpt lat="43.5058515" lon="11.4014323"><ele>410.79999999999995</ele><time>2026-04-19T10:57:16.971Z</time></trkpt><trkpt lat="43.5058565" lon="11.4013386"><ele>409.4</ele><time>2026-04-19T10:57:17.984Z</time></trkpt><trkpt lat="43.5059058" lon="11.4012488"><ele>408.0</ele><time>2026-04-19T10:57:18.973Z</time></trkpt><trkpt lat="43.5059861" lon="11.401143"><ele>408.59999999999997</ele><time>2026-04-19T10:57:19.975Z</time></trkpt><trkpt lat="43.5060832" lon="11.4010644"><ele>409.2</ele><time>2026-04-19T10:57:20.972Z</time></trkpt><trkpt lat="43.5061927" lon="11.4010183"><ele>409.8</ele><time>2026-04-19T10:57:21.972Z</time></trkpt><trkpt lat="43.5062947" lon="11.4009704"><ele>410.4</ele><time>2026-04-19T10:57:22.971Z</time></trkpt><trkpt lat="43.5063552" lon="11.4009238"><ele>411.0</ele><time>2026-04-19T10:57:23.975Z</time></trkpt><trkpt lat="43.5063878" lon="11.4008432"><ele>411.0</ele><time>2026-04-19T10:57:24.982Z</time></trkpt><trkpt lat="43.5063542" lon="11.4006727"><ele>411.0</ele><time>2026-04-19T10:57:26.975Z</time></trkpt><trkpt lat="43.5063011" lon="11.4005728"><ele>411.0</ele><time>2026-04-19T10:57:27.973Z</time></trkpt><trkpt lat="43.5061941" lon="11.4004992"><ele>411.0</ele><time>2026-04-19T10:57:28.976Z</time></trkpt><trkpt lat="43.5060542" lon="11.40044"><ele>408.0</ele><time>2026-04-19T10:57:29.991Z</time></trkpt><trkpt lat="43.5058742" lon="11.400374"><ele>405.0</ele><time>2026-04-19T10:57:30.969Z</time></trkpt><trkpt lat="43.5056705" lon="11.4002939"><ele>402.0</ele><time>2026-04-19T10:57:31.97Z</time></trkpt><trkpt lat="43.505488" lon="11.4002276"><ele>398.0</ele><time>2026-04-19T10:57:32.971Z</time></trkpt><trkpt lat="43.5053078" lon="11.4001558"><ele>394.0</ele><time>2026-04-19T10:57:33.97Z</time></trkpt><trkpt lat="43.5051513" lon="11.4000817"><ele>390.0</ele><time>2026-04-19T10:57:34.974Z</time></trkpt><trkpt lat="43.5050158" lon="11.3999989"><ele>390.0</ele><time>2026-04-19T10:57:35.971Z</time></trkpt><trkpt lat="43.5049003" lon="11.3999127"><ele>390.0</ele><time>2026-04-19T10:57:36.998Z</time></trkpt><trkpt lat="43.5047965" lon="11.3998017"><ele>390.0</ele><time>2026-04-19T10:57:37.975Z</time></trkpt><trkpt lat="43.5047035" lon="11.3996446"><ele>390.0</ele><time>2026-04-19T10:57:38.976Z</time></trkpt><trkpt lat="43.5046324" lon="11.3994623"><ele>389.66666666666663</ele><time>2026-04-19T10:57:39.971Z</time></trkpt><trkpt lat="43.5045704" lon="11.399263"><ele>389.3333333333333</ele><time>2026-04-19T10:57:40.971Z</time></trkpt><trkpt lat="43.5045" lon="11.3990718"><ele>389.0</ele><time>2026-04-19T10:57:41.987Z</time></trkpt><trkpt lat="43.5044065" lon="11.3988915"><ele>388.3333333333333</ele><time>2026-04-19T10:57:42.971Z</time></trkpt><trkpt lat="43.5043127" lon="11.3987157"><ele>387.66666666666663</ele><time>2026-04-19T10:57:43.972Z</time></trkpt><trkpt lat="43.504215" lon="11.3985324"><ele>387.0</ele><time>2026-04-19T10:57:44.97Z</time></trkpt><trkpt lat="43.5041112" lon="11.3983603"><ele>387.0</ele><time>2026-04-19T10:57:45.975Z</time></trkpt><trkpt lat="43.5040066" lon="11.3981793"><ele>387.0</ele><time>2026-04-19T10:57:46.968Z</time></trkpt><trkpt lat="43.5039032" lon="11.3980089"><ele>387.0</ele><time>2026-04-19T10:57:47.98Z</time></trkpt><trkpt lat="43.5037973" lon="11.3978383"><ele>385.3333333333333</ele><time>2026-04-19T10:57:48.97Z</time></trkpt><trkpt lat="43.5036842" lon="11.3976759"><ele>383.66666666666663</ele><time>2026-04-19T10:57:49.978Z</time></trkpt><trkpt lat="43.5035602" lon="11.39753"><ele>382.0</ele><time>2026-04-19T10:57:50.969Z</time></trkpt><trkpt lat="43.5034288" lon="11.3973871"><ele>382.0</ele><time>2026-04-19T10:57:51.97Z</time></trkpt><trkpt lat="43.5032933" lon="11.3972529"><ele>382.0</ele><time>2026-04-19T10:57:52.972Z</time></trkpt><trkpt lat="43.5031566" lon="11.397126"><ele>382.0</ele><time>2026-04-19T10:57:53.978Z</time></trkpt><trkpt lat="43.5030222" lon="11.3970045"><ele>380.66666666666663</ele><time>2026-04-19T10:57:54.97Z</time></trkpt><trkpt lat="43.502887" lon="11.3968797"><ele>379.3333333333333</ele><time>2026-04-19T10:57:55.97Z</time></trkpt><trkpt lat="43.502755" lon="11.3967605"><ele>378.0</ele><time>2026-04-19T10:57:56.974Z</time></trkpt><trkpt lat="43.5026135" lon="11.3966372"><ele>378.0</ele><time>2026-04-19T10:57:57.978Z</time></trkpt><trkpt lat="43.5024721" lon="11.3965178"><ele>378.0</ele><time>2026-04-19T10:57:58.971Z</time></trkpt><trkpt lat="43.5023298" lon="11.3963943"><ele>378.0</ele><time>2026-04-19T10:57:59.988Z</time></trkpt><trkpt lat="43.5021867" lon="11.3962789"><ele>377.3333333333333</ele><time>2026-04-19T10:58:00.973Z</time></trkpt><trkpt lat="43.5020411" lon="11.3961637"><ele>376.66666666666663</ele><time>2026-04-19T10:58:01.97Z</time></trkpt><trkpt lat="43.5019017" lon="11.3960444"><ele>376.0</ele><time>2026-04-19T10:58:02.973Z</time></trkpt><trkpt lat="43.5017688" lon="11.3959303"><ele>376.0</ele><time>2026-04-19T10:58:03.972Z</time></trkpt><trkpt lat="43.501638" lon="11.3958045"><ele>376.0</ele><time>2026-04-19T10:58:04.978Z</time></trkpt><trkpt lat="43.5015051" lon="11.3956851"><ele>376.0</ele><time>2026-04-19T10:58:05.97Z</time></trkpt><trkpt lat="43.5013741" lon="11.3955559"><ele>375.66666666666663</ele><time>2026-04-19T10:58:06.975Z</time></trkpt><trkpt lat="43.5012376" lon="11.3954305"><ele>375.3333333333333</ele><time>2026-04-19T10:58:07.967Z</time></trkpt><trkpt lat="43.5010984" lon="11.395306"><ele>375.0</ele><time>2026-04-19T10:58:08.972Z</time></trkpt><trkpt lat="43.5009563" lon="11.395175"><ele>375.0</ele><time>2026-04-19T10:58:09.971Z</time></trkpt><trkpt lat="43.5008062" lon="11.3950391"><ele>375.0</ele><time>2026-04-19T10:58:10.968Z</time></trkpt><trkpt lat="43.5006601" lon="11.394904"><ele>375.0</ele><time>2026-04-19T10:58:11.981Z</time></trkpt><trkpt lat="43.5005191" lon="11.3947654"><ele>373.6666666666667</ele><time>2026-04-19T10:58:12.972Z</time></trkpt><trkpt lat="43.5003741" lon="11.3946334"><ele>372.33333333333337</ele><time>2026-04-19T10:58:13.972Z</time></trkpt><trkpt lat="43.5002281" lon="11.3945003"><ele>371.0</ele><time>2026-04-19T10:58:14.975Z</time></trkpt><trkpt lat="43.500076" lon="11.3943665"><ele>371.0</ele><time>2026-04-19T10:58:15.971Z</time></trkpt><trkpt lat="43.4999124" lon="11.3942537"><ele>371.0</ele><time>2026-04-19T10:58:16.985Z</time></trkpt><trkpt lat="43.4997498" lon="11.394166"><ele>371.0</ele><time>2026-04-19T10:58:17.976Z</time></trkpt><trkpt lat="43.4995836" lon="11.3940909"><ele>372.0</ele><time>2026-04-19T10:58:18.975Z</time></trkpt><trkpt lat="43.4994164" lon="11.3940249"><ele>373.0</ele><time>2026-04-19T10:58:19.973Z</time></trkpt><trkpt lat="43.4992608" lon="11.3939474"><ele>374.0</ele><time>2026-04-19T10:58:20.976Z</time></trkpt><trkpt lat="43.4991033" lon="11.3938698"><ele>372.6666666666667</ele><time>2026-04-19T10:58:21.98Z</time></trkpt><trkpt lat="43.4989498" lon="11.3937869"><ele>371.3333333333333</ele><time>2026-04-19T10:58:22.976Z</time></trkpt><trkpt lat="43.4988049" lon="11.3937085"><ele>370.0</ele><time>2026-04-19T10:58:24Z</time></trkpt><trkpt lat="43.4986654" lon="11.3936237"><ele>374.0</ele><time>2026-04-19T10:58:24.971Z</time></trkpt><trkpt lat="43.4985174" lon="11.3935315"><ele>378.0</ele><time>2026-04-19T10:58:25.972Z</time></trkpt><trkpt lat="43.4983777" lon="11.3934264"><ele>382.0</ele><time>2026-04-19T10:58:26.978Z</time></trkpt><trkpt lat="43.4982454" lon="11.393317"><ele>382.0</ele><time>2026-04-19T10:58:27.97Z</time></trkpt><trkpt lat="43.4981115" lon="11.3932106"><ele>382.0</ele><time>2026-04-19T10:58:28.972Z</time></trkpt><trkpt lat="43.4979737" lon="11.3931078"><ele>382.0</ele><time>2026-04-19T10:58:29.972Z</time></trkpt><trkpt lat="43.4978399" lon="11.3929923"><ele>386.0</ele><time>2026-04-19T10:58:30.997Z</time></trkpt><trkpt lat="43.4977073" lon="11.3928701"><ele>390.0</ele><time>2026-04-19T10:58:31.97Z</time></trkpt><trkpt lat="43.4975778" lon="11.3927436"><ele>394.0</ele><time>2026-04-19T10:58:32.972Z</time></trkpt><trkpt lat="43.4974718" lon="11.3926292"><ele>394.0</ele><time>2026-04-19T10:58:33.974Z</time></trkpt><trkpt lat="43.4973761" lon="11.3925162"><ele>394.0</ele><time>2026-04-19T10:58:34.972Z</time></trkpt><trkpt lat="43.497288" lon="11.3924284"><ele>394.0</ele><time>2026-04-19T10:58:36.002Z</time></trkpt><trkpt lat="43.4971849" lon="11.3923573"><ele>394.0</ele><time>2026-04-19T10:58:36.969Z</time></trkpt><trkpt lat="43.4970744" lon="11.3922924"><ele>397.75</ele><time>2026-04-19T10:58:37.983Z</time></trkpt><trkpt lat="43.4969623" lon="11.3922315"><ele>401.5</ele><time>2026-04-19T10:58:38.975Z</time></trkpt><trkpt lat="43.4968396" lon="11.3922435"><ele>405.25</ele><time>2026-04-19T10:58:39.975Z</time></trkpt><trkpt lat="43.4967123" lon="11.3922691"><ele>409.0</ele><time>2026-04-19T10:58:40.969Z</time></trkpt><trkpt lat="43.4965823" lon="11.3922928"><ele>409.0</ele><time>2026-04-19T10:58:41.977Z</time></trkpt><trkpt lat="43.4964383" lon="11.3923245"><ele>409.0</ele><time>2026-04-19T10:58:42.971Z</time></trkpt><trkpt lat="43.4963064" lon="11.392338"><ele>409.0</ele><time>2026-04-19T10:58:43.971Z</time></trkpt><trkpt lat="43.4961898" lon="11.39234"><ele>409.0</ele><time>2026-04-19T10:58:44.969Z</time></trkpt><trkpt lat="43.4960873" lon="11.3922936"><ele>410.75</ele><time>2026-04-19T10:58:45.983Z</time></trkpt><trkpt lat="43.4959825" lon="11.3922034"><ele>412.5</ele><time>2026-04-19T10:58:46.969Z</time></trkpt><trkpt lat="43.4958742" lon="11.3920973"><ele>414.25</ele><time>2026-04-19T10:58:47.99Z</time></trkpt><trkpt lat="43.4957878" lon="11.3919863"><ele>416.0</ele><time>2026-04-19T10:58:48.969Z</time></trkpt><trkpt lat="43.4957214" lon="11.391867"><ele>416.0</ele><time>2026-04-19T10:58:49.971Z</time></trkpt><trkpt lat="43.4956707" lon="11.3917451"><ele>416.0</ele><time>2026-04-19T10:58:50.974Z</time></trkpt><trkpt lat="43.4956451" lon="11.3916081"><ele>416.0</ele><time>2026-04-19T10:58:51.975Z</time></trkpt><trkpt lat="43.4956431" lon="11.3914708"><ele>416.0</ele><time>2026-04-19T10:58:52.984Z</time></trkpt><trkpt lat="43.49567" lon="11.3913361"><ele>416.0</ele><time>2026-04-19T10:58:53.979Z</time></trkpt><trkpt lat="43.4957272" lon="11.3912228"><ele>417.20000000000005</ele><time>2026-04-19T10:58:54.974Z</time></trkpt><trkpt lat="43.4958039" lon="11.3911285"><ele>418.40000000000003</ele><time>2026-04-19T10:58:55.974Z</time></trkpt><trkpt lat="43.4958931" lon="11.3910496"><ele>419.6</ele><time>2026-04-19T10:58:56.978Z</time></trkpt><trkpt lat="43.4959718" lon="11.390973"><ele>420.8</ele><time>2026-04-19T10:58:57.994Z</time></trkpt><trkpt lat="43.4960225" lon="11.3908844"><ele>422.0</ele><time>2026-04-19T10:58:58.97Z</time></trkpt><trkpt lat="43.4960328" lon="11.390791"><ele>422.0</ele><time>2026-04-19T10:58:59.978Z</time></trkpt><trkpt lat="43.496026" lon="11.3906852"><ele>422.0</ele><time>2026-04-19T10:59:00.982Z</time></trkpt><trkpt lat="43.4959884" lon="11.3905576"><ele>422.0</ele><time>2026-04-19T10:59:01.974Z</time></trkpt><trkpt lat="43.4959477" lon="11.3904572"><ele>422.0</ele><time>2026-04-19T10:59:02.965Z</time></trkpt><trkpt lat="43.4958893" lon="11.3903636"><ele>422.0</ele><time>2026-04-19T10:59:03.975Z</time></trkpt><trkpt lat="43.4958031" lon="11.3902812"><ele>422.5</ele><time>2026-04-19T10:59:04.978Z</time></trkpt><trkpt lat="43.4956865" lon="11.3901938"><ele>423.0</ele><time>2026-04-19T10:59:05.98Z</time></trkpt><trkpt lat="43.4955622" lon="11.3901039"><ele>423.5</ele><time>2026-04-19T10:59:06.971Z</time></trkpt><trkpt lat="43.4954404" lon="11.3900047"><ele>424.0</ele><time>2026-04-19T10:59:07.971Z</time></trkpt><trkpt lat="43.4953059" lon="11.3898927"><ele>425.6666666666667</ele><time>2026-04-19T10:59:08.972Z</time></trkpt><trkpt lat="43.4951595" lon="11.3897511"><ele>427.33333333333337</ele><time>2026-04-19T10:59:09.974Z</time></trkpt><trkpt lat="43.4950067" lon="11.3896127"><ele>429.0</ele><time>2026-04-19T10:59:10.973Z</time></trkpt><trkpt lat="43.4948527" lon="11.3894609"><ele>429.0</ele><time>2026-04-19T10:59:11.976Z</time></trkpt><trkpt lat="43.4947143" lon="11.3893233"><ele>429.0</ele><time>2026-04-19T10:59:12.981Z</time></trkpt><trkpt lat="43.4945891" lon="11.3891813"><ele>429.0</ele><time>2026-04-19T10:59:13.98Z</time></trkpt><trkpt lat="43.4944754" lon="11.3890264"><ele>429.75</ele><time>2026-04-19T10:59:14.976Z</time></trkpt><trkpt lat="43.4943858" lon="11.3888753"><ele>430.5</ele><time>2026-04-19T10:59:15.979Z</time></trkpt><trkpt lat="43.4942973" lon="11.3887446"><ele>431.25</ele><time>2026-04-19T10:59:16.999Z</time></trkpt><trkpt lat="43.4941946" lon="11.3886342"><ele>432.0</ele><time>2026-04-19T10:59:17.978Z</time></trkpt><trkpt lat="43.4940758" lon="11.3885234"><ele>432.0</ele><time>2026-04-19T10:59:18.977Z</time></trkpt><trkpt lat="43.4939714" lon="11.3884295"><ele>432.0</ele><time>2026-04-19T10:59:19.977Z</time></trkpt><trkpt lat="43.493844" lon="11.3883571"><ele>432.0</ele><time>2026-04-19T10:59:20.986Z</time></trkpt><trkpt lat="43.4937323" lon="11.3883094"><ele>432.0</ele><time>2026-04-19T10:59:21.969Z</time></trkpt><trkpt lat="43.4936007" lon="11.388298"><ele>436.5</ele><time>2026-04-19T10:59:22.988Z</time></trkpt><trkpt lat="43.4934637" lon="11.3883205"><ele>441.0</ele><time>2026-04-19T10:59:23.976Z</time></trkpt><trkpt lat="43.4933395" lon="11.3883415"><ele>445.5</ele><time>2026-04-19T10:59:24.973Z</time></trkpt><trkpt lat="43.4932224" lon="11.3883706"><ele>450.0</ele><time>2026-04-19T10:59:25.984Z</time></trkpt><trkpt lat="43.493108" lon="11.3884196"><ele>450.0</ele><time>2026-04-19T10:59:26.964Z</time></trkpt><trkpt lat="43.4930246" lon="11.3884753"><ele>450.0</ele><time>2026-04-19T10:59:27.98Z</time></trkpt><trkpt lat="43.4929575" lon="11.3885011"><ele>450.0</ele><time>2026-04-19T10:59:28.971Z</time></trkpt><trkpt lat="43.4928897" lon="11.3884975"><ele>450.0</ele><time>2026-04-19T10:59:29.974Z</time></trkpt><trkpt lat="43.4928205" lon="11.3884591"><ele>450.0</ele><time>2026-04-19T10:59:30.969Z</time></trkpt><trkpt lat="43.4927587" lon="11.3883744"><ele>450.0</ele><time>2026-04-19T10:59:31.967Z</time></trkpt><trkpt lat="43.4926818" lon="11.3882321"><ele>449.5</ele><time>2026-04-19T10:59:32.975Z</time></trkpt><trkpt lat="43.4926138" lon="11.3880996"><ele>449.0</ele><time>2026-04-19T10:59:33.977Z</time></trkpt><trkpt lat="43.4925259" lon="11.3879881"><ele>448.5</ele><time>2026-04-19T10:59:34.978Z</time></trkpt><trkpt lat="43.4923999" lon="11.3878771"><ele>448.0</ele><time>2026-04-19T10:59:35.973Z</time></trkpt><trkpt lat="43.4922592" lon="11.3877688"><ele>448.0</ele><time>2026-04-19T10:59:36.974Z</time></trkpt><trkpt lat="43.4921065" lon="11.3876645"><ele>448.0</ele><time>2026-04-19T10:59:37.973Z</time></trkpt><trkpt lat="43.4919539" lon="11.3875433"><ele>448.0</ele><time>2026-04-19T10:59:38.989Z</time></trkpt><trkpt lat="43.4917935" lon="11.3873884"><ele>450.0</ele><time>2026-04-19T10:59:39.982Z</time></trkpt><trkpt lat="43.4916319" lon="11.3872235"><ele>452.0</ele><time>2026-04-19T10:59:40.971Z</time></trkpt><trkpt lat="43.4914951" lon="11.3870826"><ele>454.0</ele><time>2026-04-19T10:59:41.972Z</time></trkpt><trkpt lat="43.4913639" lon="11.3869664"><ele>457.5</ele><time>2026-04-19T10:59:42.973Z</time></trkpt><trkpt lat="43.4912383" lon="11.3868508"><ele>461.0</ele><time>2026-04-19T10:59:43.973Z</time></trkpt><trkpt lat="43.4911247" lon="11.3867387"><ele>464.5</ele><time>2026-04-19T10:59:44.969Z</time></trkpt><trkpt lat="43.4910194" lon="11.3866236"><ele>468.0</ele><time>2026-04-19T10:59:45.971Z</time></trkpt><trkpt lat="43.4909469" lon="11.3865095"><ele>468.0</ele><time>2026-04-19T10:59:46.971Z</time></trkpt><trkpt lat="43.4908929" lon="11.3863845"><ele>467.99999999999994</ele><time>2026-04-19T10:59:47.975Z</time></trkpt><trkpt lat="43.4908547" lon="11.3862726"><ele>467.99999999999994</ele><time>2026-04-19T10:59:48.969Z</time></trkpt><trkpt lat="43.4908101" lon="11.3861646"><ele>468.0</ele><time>2026-04-19T10:59:49.974Z</time></trkpt><trkpt lat="43.4907724" lon="11.3860509"><ele>468.0</ele><time>2026-04-19T10:59:50.973Z</time></trkpt><trkpt lat="43.4907262" lon="11.3859094"><ele>467.0</ele><time>2026-04-19T10:59:51.975Z</time></trkpt><trkpt lat="43.490667" lon="11.385756"><ele>466.0</ele><time>2026-04-19T10:59:52.98Z</time></trkpt><trkpt lat="43.4906114" lon="11.3856062"><ele>465.0</ele><time>2026-04-19T10:59:53.974Z</time></trkpt><trkpt lat="43.4905534" lon="11.38548"><ele>464.0</ele><time>2026-04-19T10:59:54.969Z</time></trkpt><trkpt lat="43.4905002" lon="11.3853686"><ele>463.16666666666663</ele><time>2026-04-19T10:59:55.978Z</time></trkpt><trkpt lat="43.4904446" lon="11.3852855"><ele>462.3333333333333</ele><time>2026-04-19T10:59:56.981Z</time></trkpt><trkpt lat="43.4904049" lon="11.3852084"><ele>461.5</ele><time>2026-04-19T10:59:57.977Z</time></trkpt><trkpt lat="43.4903646" lon="11.3851374"><ele>460.66666666666663</ele><time>2026-04-19T10:59:58.974Z</time></trkpt><trkpt lat="43.4903183" lon="11.385062"><ele>459.8333333333333</ele><time>2026-04-19T10:59:59.974Z</time></trkpt><trkpt lat="43.4902628" lon="11.3849622"><ele>459.0</ele><time>2026-04-19T11:00:00.965Z</time></trkpt><trkpt lat="43.4902072" lon="11.3848606"><ele>458.79999999999995</ele><time>2026-04-19T11:00:01.986Z</time></trkpt><trkpt lat="43.4901535" lon="11.3847486"><ele>458.59999999999997</ele><time>2026-04-19T11:00:02.965Z</time></trkpt><trkpt lat="43.4901117" lon="11.3846279"><ele>458.4</ele><time>2026-04-19T11:00:03.976Z</time></trkpt><trkpt lat="43.4900893" lon="11.3844721"><ele>458.2</ele><time>2026-04-19T11:00:04.973Z</time></trkpt><trkpt lat="43.4900668" lon="11.3843098"><ele>458.0</ele><time>2026-04-19T11:00:05.981Z</time></trkpt><trkpt lat="43.4900376" lon="11.3841405"><ele>459.25</ele><time>2026-04-19T11:00:06.969Z</time></trkpt><trkpt lat="43.4899961" lon="11.3839804"><ele>460.5</ele><time>2026-04-19T11:00:07.987Z</time></trkpt><trkpt lat="43.4899343" lon="11.383846"><ele>461.75</ele><time>2026-04-19T11:00:08.969Z</time></trkpt><trkpt lat="43.4898501" lon="11.3837355"><ele>463.0</ele><time>2026-04-19T11:00:09.972Z</time></trkpt><trkpt lat="43.4897556" lon="11.3836282"><ele>463.0</ele><time>2026-04-19T11:00:10.97Z</time></trkpt><trkpt lat="43.4896646" lon="11.3835255"><ele>463.0</ele><time>2026-04-19T11:00:11.973Z</time></trkpt><trkpt lat="43.4895671" lon="11.3834211"><ele>463.0</ele><time>2026-04-19T11:00:12.975Z</time></trkpt><trkpt lat="43.489476" lon="11.3833187"><ele>463.0</ele><time>2026-04-19T11:00:13.982Z</time></trkpt><trkpt lat="43.4893838" lon="11.3832144"><ele>464.75</ele><time>2026-04-19T11:00:14.971Z</time></trkpt><trkpt lat="43.4892959" lon="11.3831089"><ele>466.5</ele><time>2026-04-19T11:00:15.978Z</time></trkpt><trkpt lat="43.4892068" lon="11.3830062"><ele>468.25</ele><time>2026-04-19T11:00:16.969Z</time></trkpt><trkpt lat="43.4891037" lon="11.3829083"><ele>470.0</ele><time>2026-04-19T11:00:17.978Z</time></trkpt><trkpt lat="43.4890058" lon="11.3828171"><ele>472.0</ele><time>2026-04-19T11:00:18.977Z</time></trkpt><trkpt lat="43.4889048" lon="11.3827301"><ele>474.0</ele><time>2026-04-19T11:00:19.974Z</time></trkpt><trkpt lat="43.4888122" lon="11.3826419"><ele>476.0</ele><time>2026-04-19T11:00:20.97Z</time></trkpt><trkpt lat="43.4887211" lon="11.3825454"><ele>478.0</ele><time>2026-04-19T11:00:21.979Z</time></trkpt><trkpt lat="43.4886294" lon="11.3824422"><ele>478.5</ele><time>2026-04-19T11:00:22.971Z</time></trkpt><trkpt lat="43.4885513" lon="11.3823228"><ele>479.0</ele><time>2026-04-19T11:00:23.972Z</time></trkpt><trkpt lat="43.4884761" lon="11.3821959"><ele>479.5</ele><time>2026-04-19T11:00:24.972Z</time></trkpt><trkpt lat="43.4884046" lon="11.3820557"><ele>480.0</ele><time>2026-04-19T11:00:25.974Z</time></trkpt><trkpt lat="43.488343" lon="11.3819151"><ele>480.75</ele><time>2026-04-19T11:00:26.979Z</time></trkpt><trkpt lat="43.488278" lon="11.3817675"><ele>481.5</ele><time>2026-04-19T11:00:27.98Z</time></trkpt><trkpt lat="43.4882207" lon="11.3816268"><ele>482.25</ele><time>2026-04-19T11:00:28.969Z</time></trkpt><trkpt lat="43.488172" lon="11.3814779"><ele>483.0</ele><time>2026-04-19T11:00:29.973Z</time></trkpt><trkpt lat="43.4881139" lon="11.3813393"><ele>483.0</ele><time>2026-04-19T11:00:30.977Z</time></trkpt><trkpt lat="43.4880599" lon="11.3811847"><ele>483.0</ele><time>2026-04-19T11:00:31.978Z</time></trkpt><trkpt lat="43.4880177" lon="11.3810267"><ele>483.0</ele><time>2026-04-19T11:00:32.977Z</time></trkpt><trkpt lat="43.4879768" lon="11.3808747"><ele>483.0</ele><time>2026-04-19T11:00:33.972Z</time></trkpt><trkpt lat="43.4879467" lon="11.3807244"><ele>487.5</ele><time>2026-04-19T11:00:34.977Z</time></trkpt><trkpt lat="43.4879255" lon="11.3805626"><ele>492.0</ele><time>2026-04-19T11:00:35.971Z</time></trkpt><trkpt lat="43.4879046" lon="11.3803948"><ele>496.5</ele><time>2026-04-19T11:00:36.975Z</time></trkpt><trkpt lat="43.4878896" lon="11.3802254"><ele>501.0</ele><time>2026-04-19T11:00:37.966Z</time></trkpt><trkpt lat="43.4878713" lon="11.3800591"><ele>501.4</ele><time>2026-04-19T11:00:38.968Z</time></trkpt><trkpt lat="43.4878574" lon="11.3799158"><ele>501.8</ele><time>2026-04-19T11:00:39.973Z</time></trkpt><trkpt lat="43.4878348" lon="11.3797915"><ele>502.19999999999993</ele><time>2026-04-19T11:00:40.97Z</time></trkpt><trkpt lat="43.4877779" lon="11.3796876"><ele>502.59999999999997</ele><time>2026-04-19T11:00:41.974Z</time></trkpt><trkpt lat="43.4876979" lon="11.379604"><ele>503.0</ele><time>2026-04-19T11:00:42.966Z</time></trkpt><trkpt lat="43.4876165" lon="11.3795074"><ele>503.75</ele><time>2026-04-19T11:00:43.961Z</time></trkpt><trkpt lat="43.4875234" lon="11.3794097"><ele>504.5</ele><time>2026-04-19T11:00:44.973Z</time></trkpt><trkpt lat="43.4874466" lon="11.3792997"><ele>505.25</ele><time>2026-04-19T11:00:45.972Z</time></trkpt><trkpt lat="43.4873913" lon="11.3791639"><ele>506.0</ele><time>2026-04-19T11:00:46.974Z</time></trkpt><trkpt lat="43.4873179" lon="11.3790265"><ele>506.0</ele><time>2026-04-19T11:00:47.969Z</time></trkpt><trkpt lat="43.4872497" lon="11.3789032"><ele>506.0</ele><time>2026-04-19T11:00:48.969Z</time></trkpt><trkpt lat="43.4871835" lon="11.3787777"><ele>506.0</ele><time>2026-04-19T11:00:49.967Z</time></trkpt><trkpt lat="43.4871151" lon="11.378652"><ele>506.0</ele><time>2026-04-19T11:00:50.982Z</time></trkpt><trkpt lat="43.4870465" lon="11.3785232"><ele>507.0</ele><time>2026-04-19T11:00:51.975Z</time></trkpt><trkpt lat="43.4869872" lon="11.3783874"><ele>508.0</ele><time>2026-04-19T11:00:52.972Z</time></trkpt><trkpt lat="43.4869423" lon="11.378242"><ele>509.0</ele><time>2026-04-19T11:00:53.972Z</time></trkpt><trkpt lat="43.4869095" lon="11.3780839"><ele>510.0</ele><time>2026-04-19T11:00:54.97Z</time></trkpt><trkpt lat="43.4868793" lon="11.3779177"><ele>511.25</ele><time>2026-04-19T11:00:55.974Z</time></trkpt><trkpt lat="43.4868655" lon="11.3777436"><ele>512.5</ele><time>2026-04-19T11:00:56.977Z</time></trkpt><trkpt lat="43.4868632" lon="11.3775737"><ele>513.75</ele><time>2026-04-19T11:00:57.966Z</time></trkpt><trkpt lat="43.4868703" lon="11.3773965"><ele>515.0</ele><time>2026-04-19T11:00:58.968Z</time></trkpt><trkpt lat="43.4868814" lon="11.377225"><ele>515.0</ele><time>2026-04-19T11:00:59.982Z</time></trkpt><trkpt lat="43.4868935" lon="11.3770609"><ele>515.0</ele><time>2026-04-19T11:01:00.974Z</time></trkpt><trkpt lat="43.4869049" lon="11.3769003"><ele>515.0</ele><time>2026-04-19T11:01:01.981Z</time></trkpt><trkpt lat="43.4869112" lon="11.3767376"><ele>515.0</ele><time>2026-04-19T11:01:02.972Z</time></trkpt><trkpt lat="43.4869203" lon="11.3765679"><ele>515.0</ele><time>2026-04-19T11:01:03.981Z</time></trkpt><trkpt lat="43.4869325" lon="11.3764056"><ele>515.0</ele><time>2026-04-19T11:01:04.978Z</time></trkpt><trkpt lat="43.4869466" lon="11.3762621"><ele>515.0</ele><time>2026-04-19T11:01:05.974Z</time></trkpt><trkpt lat="43.4869594" lon="11.376136"><ele>515.0</ele><time>2026-04-19T11:01:06.972Z</time></trkpt><trkpt lat="43.4869694" lon="11.3760233"><ele>515.0</ele><time>2026-04-19T11:01:07.982Z</time></trkpt><trkpt lat="43.4869655" lon="11.3759238"><ele>516.4</ele><time>2026-04-19T11:01:08.979Z</time></trkpt><trkpt lat="43.4869418" lon="11.3758293"><ele>517.8</ele><time>2026-04-19T11:01:09.98Z</time></trkpt><trkpt lat="43.4868855" lon="11.3756884"><ele>519.2</ele><time>2026-04-19T11:01:11.972Z</time></trkpt><trkpt lat="43.4868074" lon="11.3755619"><ele>520.6</ele><time>2026-04-19T11:01:13.977Z</time></trkpt><trkpt lat="43.4867667" lon="11.375484"><ele>522.0</ele><time>2026-04-19T11:01:14.981Z</time></trkpt><trkpt lat="43.486724" lon="11.3754073"><ele>523.6666666666666</ele><time>2026-04-19T11:01:15.978Z</time></trkpt><trkpt lat="43.4866794" lon="11.3753302"><ele>525.3333333333334</ele><time>2026-04-19T11:01:16.97Z</time></trkpt><trkpt lat="43.4866332" lon="11.3752608"><ele>527.0</ele><time>2026-04-19T11:01:17.978Z</time></trkpt><trkpt lat="43.4865727" lon="11.3751396"><ele>528.6666666666667</ele><time>2026-04-19T11:01:19.971Z</time></trkpt><trkpt lat="43.4864937" lon="11.375007"><ele>530.3333333333334</ele><time>2026-04-19T11:01:21.983Z</time></trkpt><trkpt lat="43.4864489" lon="11.3749374"><ele>532.0</ele><time>2026-04-19T11:01:22.977Z</time></trkpt><trkpt lat="43.4864075" lon="11.3748709"><ele>532.0</ele><time>2026-04-19T11:01:23.976Z</time></trkpt><trkpt lat="43.4863593" lon="11.3747925"><ele>532.0</ele><time>2026-04-19T11:01:24.969Z</time></trkpt><trkpt lat="43.486304" lon="11.3747087"><ele>532.0</ele><time>2026-04-19T11:01:25.974Z</time></trkpt><trkpt lat="43.4862533" lon="11.3746226"><ele>532.0</ele><time>2026-04-19T11:01:26.965Z</time></trkpt><trkpt lat="43.4862135" lon="11.3745296"><ele>532.0</ele><time>2026-04-19T11:01:27.97Z</time></trkpt><trkpt lat="43.4861964" lon="11.374421"><ele>532.0</ele><time>2026-04-19T11:01:28.961Z</time></trkpt><trkpt lat="43.4861953" lon="11.3742995"><ele>531.6</ele><time>2026-04-19T11:01:29.969Z</time></trkpt><trkpt lat="43.4862069" lon="11.3741802"><ele>531.2</ele><time>2026-04-19T11:01:30.97Z</time></trkpt><trkpt lat="43.486233" lon="11.3740464"><ele>530.8</ele><time>2026-04-19T11:01:31.972Z</time></trkpt><trkpt lat="43.4862562" lon="11.3738878"><ele>530.4</ele><time>2026-04-19T11:01:32.977Z</time></trkpt><trkpt lat="43.4862934" lon="11.3737399"><ele>530.0</ele><time>2026-04-19T11:01:33.971Z</time></trkpt><trkpt lat="43.4863347" lon="11.3736022"><ele>530.0</ele><time>2026-04-19T11:01:34.971Z</time></trkpt><trkpt lat="43.4863763" lon="11.373484"><ele>530.0</ele><time>2026-04-19T11:01:35.971Z</time></trkpt><trkpt lat="43.4864123" lon="11.373383"><ele>530.0</ele><time>2026-04-19T11:01:36.971Z</time></trkpt><trkpt lat="43.4864416" lon="11.373297"><ele>530.0</ele><time>2026-04-19T11:01:37.984Z</time></trkpt><trkpt lat="43.4864818" lon="11.3732116"><ele>530.0</ele><time>2026-04-19T11:01:39.974Z</time></trkpt><trkpt lat="43.4864773" lon="11.3731069"><ele>530.0</ele><time>2026-04-19T11:01:44.98Z</time></trkpt><trkpt lat="43.4864661" lon="11.3729687"><ele>526.25</ele><time>2026-04-19T11:01:45.974Z</time></trkpt><trkpt lat="43.486437" lon="11.3727927"><ele>522.5</ele><time>2026-04-19T11:01:46.965Z</time></trkpt><trkpt lat="43.4864077" lon="11.3725821"><ele>518.75</ele><time>2026-04-19T11:01:47.974Z</time></trkpt><trkpt lat="43.4863883" lon="11.372363"><ele>515.0</ele><time>2026-04-19T11:01:48.986Z</time></trkpt><trkpt lat="43.4863782" lon="11.3721637"><ele>512.25</ele><time>2026-04-19T11:01:49.99Z</time></trkpt><trkpt lat="43.4863762" lon="11.3719828"><ele>509.5</ele><time>2026-04-19T11:01:50.97Z</time></trkpt><trkpt lat="43.4863639" lon="11.3718184"><ele>506.75</ele><time>2026-04-19T11:01:51.969Z</time></trkpt><trkpt lat="43.4863488" lon="11.3716537"><ele>504.0</ele><time>2026-04-19T11:01:52.972Z</time></trkpt><trkpt lat="43.4863284" lon="11.3714954"><ele>502.0</ele><time>2026-04-19T11:01:53.999Z</time></trkpt><trkpt lat="43.4862975" lon="11.3713163"><ele>500.0</ele><time>2026-04-19T11:01:54.97Z</time></trkpt><trkpt lat="43.4862672" lon="11.3711448"><ele>498.0</ele><time>2026-04-19T11:01:55.974Z</time></trkpt><trkpt lat="43.4862306" lon="11.3709786"><ele>496.0</ele><time>2026-04-19T11:01:56.987Z</time></trkpt><trkpt lat="43.4861851" lon="11.3708058"><ele>500.0</ele><time>2026-04-19T11:01:57.972Z</time></trkpt><trkpt lat="43.4861296" lon="11.3706451"><ele>504.0</ele><time>2026-04-19T11:01:58.975Z</time></trkpt><trkpt lat="43.4860812" lon="11.3704925"><ele>508.0</ele><time>2026-04-19T11:01:59.973Z</time></trkpt><trkpt lat="43.4860319" lon="11.3703466"><ele>512.0</ele><time>2026-04-19T11:02:00.981Z</time></trkpt><trkpt lat="43.4859798" lon="11.3702122"><ele>512.0</ele><time>2026-04-19T11:02:01.969Z</time></trkpt><trkpt lat="43.4859134" lon="11.3700925"><ele>512.0</ele><time>2026-04-19T11:02:02.969Z</time></trkpt><trkpt lat="43.4858433" lon="11.3699939"><ele>512.0</ele><time>2026-04-19T11:02:03.972Z</time></trkpt><trkpt lat="43.4857701" lon="11.369916"><ele>512.0</ele><time>2026-04-19T11:02:04.974Z</time></trkpt><trkpt lat="43.4856864" lon="11.3698443"><ele>512.0</ele><time>2026-04-19T11:02:05.972Z</time></trkpt><trkpt lat="43.4855819" lon="11.3697892"><ele>512.0</ele><time>2026-04-19T11:02:06.98Z</time></trkpt><trkpt lat="43.4854599" lon="11.3697775"><ele>512.0</ele><time>2026-04-19T11:02:07.987Z</time></trkpt><trkpt lat="43.4853404" lon="11.3697464"><ele>512.0</ele><time>2026-04-19T11:02:08.969Z</time></trkpt><trkpt lat="43.4852244" lon="11.3696881"><ele>512.0</ele><time>2026-04-19T11:02:09.975Z</time></trkpt><trkpt lat="43.4851174" lon="11.3696047"><ele>510.75</ele><time>2026-04-19T11:02:10.974Z</time></trkpt><trkpt lat="43.4850209" lon="11.3694933"><ele>509.5</ele><time>2026-04-19T11:02:11.986Z</time></trkpt><trkpt lat="43.4849412" lon="11.3693694"><ele>508.25</ele><time>2026-04-19T11:02:12.97Z</time></trkpt><trkpt lat="43.4848782" lon="11.3692408"><ele>507.0</ele><time>2026-04-19T11:02:13.978Z</time></trkpt><trkpt lat="43.4848278" lon="11.3691001"><ele>507.0</ele><time>2026-04-19T11:02:14.973Z</time></trkpt><trkpt lat="43.4847947" lon="11.3689329"><ele>507.0</ele><time>2026-04-19T11:02:15.973Z</time></trkpt><trkpt lat="43.4847662" lon="11.3687415"><ele>507.0</ele><time>2026-04-19T11:02:16.968Z</time></trkpt><trkpt lat="43.4847485" lon="11.3685492"><ele>507.0</ele><time>2026-04-19T11:02:17.986Z</time></trkpt><trkpt lat="43.4847312" lon="11.368361"><ele>505.75</ele><time>2026-04-19T11:02:18.978Z</time></trkpt><trkpt lat="43.4847099" lon="11.3681877"><ele>504.5</ele><time>2026-04-19T11:02:19.973Z</time></trkpt><trkpt lat="43.4846892" lon="11.3680248"><ele>503.25</ele><time>2026-04-19T11:02:20.975Z</time></trkpt><trkpt lat="43.4846644" lon="11.3678626"><ele>502.0</ele><time>2026-04-19T11:02:21.969Z</time></trkpt><trkpt lat="43.4846346" lon="11.3676985"><ele>500.6</ele><time>2026-04-19T11:02:22.972Z</time></trkpt><trkpt lat="43.4846079" lon="11.367541"><ele>499.20000000000005</ele><time>2026-04-19T11:02:23.977Z</time></trkpt><trkpt lat="43.4845785" lon="11.3674056"><ele>497.8</ele><time>2026-04-19T11:02:24.977Z</time></trkpt><trkpt lat="43.4845457" lon="11.3672934"><ele>496.4</ele><time>2026-04-19T11:02:25.97Z</time></trkpt><trkpt lat="43.4845196" lon="11.3671764"><ele>495.0</ele><time>2026-04-19T11:02:26.973Z</time></trkpt><trkpt lat="43.4844982" lon="11.3670866"><ele>495.0</ele><time>2026-04-19T11:02:27.977Z</time></trkpt><trkpt lat="43.4844742" lon="11.3669467"><ele>495.0</ele><time>2026-04-19T11:02:29.967Z</time></trkpt><trkpt lat="43.4844528" lon="11.3668369"><ele>495.0</ele><time>2026-04-19T11:02:31.967Z</time></trkpt><trkpt lat="43.484392" lon="11.3666697"><ele>495.0</ele><time>2026-04-19T11:02:41.974Z</time></trkpt><trkpt lat="43.4843891" lon="11.3665519"><ele>495.0</ele><time>2026-04-19T11:02:42.97Z</time></trkpt><trkpt lat="43.4844022" lon="11.3664086"><ele>496.2</ele><time>2026-04-19T11:02:43.997Z</time></trkpt><trkpt lat="43.4844209" lon="11.3662504"><ele>497.4</ele><time>2026-04-19T11:02:44.97Z</time></trkpt><trkpt lat="43.4844394" lon="11.3661039"><ele>498.6</ele><time>2026-04-19T11:02:45.97Z</time></trkpt><trkpt lat="43.4844483" lon="11.3659691"><ele>499.8</ele><time>2026-04-19T11:02:46.982Z</time></trkpt><trkpt lat="43.4844535" lon="11.3658403"><ele>501.0</ele><time>2026-04-19T11:02:47.974Z</time></trkpt><trkpt lat="43.4844208" lon="11.3657203"><ele>501.0</ele><time>2026-04-19T11:02:48.98Z</time></trkpt><trkpt lat="43.484361" lon="11.3656119"><ele>501.0</ele><time>2026-04-19T11:02:49.992Z</time></trkpt><trkpt lat="43.4842831" lon="11.3655344"><ele>501.0</ele><time>2026-04-19T11:02:50.976Z</time></trkpt><trkpt lat="43.4842" lon="11.3654901"><ele>501.0</ele><time>2026-04-19T11:02:51.972Z</time></trkpt><trkpt lat="43.4841066" lon="11.3654361"><ele>501.0</ele><time>2026-04-19T11:02:52.976Z</time></trkpt><trkpt lat="43.4840223" lon="11.3653967"><ele>502.20000000000005</ele><time>2026-04-19T11:02:53.976Z</time></trkpt><trkpt lat="43.4839358" lon="11.3653987"><ele>503.40000000000003</ele><time>2026-04-19T11:02:54.969Z</time></trkpt><trkpt lat="43.4838567" lon="11.3654215"><ele>504.6</ele><time>2026-04-19T11:02:55.973Z</time></trkpt><trkpt lat="43.4837817" lon="11.3654897"><ele>505.8</ele><time>2026-04-19T11:02:56.97Z</time></trkpt><trkpt lat="43.4836951" lon="11.3655916"><ele>507.0</ele><time>2026-04-19T11:02:57.971Z</time></trkpt><trkpt lat="43.4836172" lon="11.3656854"><ele>507.0</ele><time>2026-04-19T11:02:58.975Z</time></trkpt><trkpt lat="43.4835288" lon="11.3657801"><ele>507.00000000000006</ele><time>2026-04-19T11:02:59.969Z</time></trkpt><trkpt lat="43.4834369" lon="11.3658533"><ele>507.00000000000006</ele><time>2026-04-19T11:03:00.979Z</time></trkpt><trkpt lat="43.4833417" lon="11.3658972"><ele>507.0</ele><time>2026-04-19T11:03:01.973Z</time></trkpt><trkpt lat="43.4832395" lon="11.3659159"><ele>507.0</ele><time>2026-04-19T11:03:02.97Z</time></trkpt><trkpt lat="43.4831341" lon="11.3659098"><ele>507.0</ele><time>2026-04-19T11:03:03.969Z</time></trkpt><trkpt lat="43.4830253" lon="11.3658793"><ele>507.00000000000006</ele><time>2026-04-19T11:03:04.984Z</time></trkpt><trkpt lat="43.4829317" lon="11.365816"><ele>507.00000000000006</ele><time>2026-04-19T11:03:05.979Z</time></trkpt><trkpt lat="43.4828516" lon="11.3657159"><ele>507.0</ele><time>2026-04-19T11:03:06.972Z</time></trkpt><trkpt lat="43.4827729" lon="11.3655855"><ele>507.0</ele><time>2026-04-19T11:03:07.97Z</time></trkpt><trkpt lat="43.4827059" lon="11.3654568"><ele>509.20000000000005</ele><time>2026-04-19T11:03:08.97Z</time></trkpt><trkpt lat="43.4826394" lon="11.3653228"><ele>511.40000000000003</ele><time>2026-04-19T11:03:09.969Z</time></trkpt><trkpt lat="43.4825946" lon="11.3652022"><ele>513.5999999999999</ele><time>2026-04-19T11:03:10.973Z</time></trkpt><trkpt lat="43.4825446" lon="11.3650949"><ele>515.8</ele><time>2026-04-19T11:03:11.972Z</time></trkpt><trkpt lat="43.4825008" lon="11.3650094"><ele>518.0</ele><time>2026-04-19T11:03:12.977Z</time></trkpt><trkpt lat="43.482439" lon="11.3649265"><ele>518.0</ele><time>2026-04-19T11:03:14.971Z</time></trkpt></trkseg></trk></gpx>